<?xml version="1.0" encoding="UTF-8" standalone="no" ?>
<gpx xmlns="http://www.topografix.com/GPX/1/1" xmlns:xsi="http://www.w3.org/2001/XMLSchema-instance" xsi:schemaLocation="http://www.topografix.com/GPX/1/1 http://www.topografix.com/GPX/1/1/gpx.xsd" version="1.1" creator="VisuGPX - https://www.visugpx.com">
  <metadata>
    <name>Randonné Forêt de Halatte</name>
    <desc><![CDATA[Reco forêt de halatte]]></desc>
  </metadata>
  <trk>
    <name><![CDATA[Randonné Forêt de Halatte_1]]></name>
    <trkseg>
      <trkpt lat="49.27364" lon="2.52038">
        <ele>88</ele>
        <time>2015-01-18T08:54:54Z</time>
      </trkpt>
      <trkpt lat="49.27365" lon="2.52039">
        <ele>89</ele>
        <time>2015-01-18T08:54:54Z</time>
      </trkpt>
      <trkpt lat="49.27364" lon="2.52049">
        <ele>92</ele>
        <time>2015-01-18T08:55:01Z</time>
      </trkpt>
      <trkpt lat="49.27364" lon="2.5206">
        <ele>93</ele>
        <time>2015-01-18T08:55:09Z</time>
      </trkpt>
      <trkpt lat="49.27362" lon="2.52066">
        <ele>95</ele>
        <time>2015-01-18T08:55:15Z</time>
      </trkpt>
      <trkpt lat="49.2736" lon="2.52079">
        <ele>97</ele>
        <time>2015-01-18T08:55:22Z</time>
      </trkpt>
      <trkpt lat="49.2736" lon="2.5209">
        <ele>100</ele>
        <time>2015-01-18T08:55:25Z</time>
      </trkpt>
      <trkpt lat="49.27354" lon="2.521">
        <ele>95</ele>
        <time>2015-01-18T08:55:30Z</time>
      </trkpt>
      <trkpt lat="49.27346" lon="2.52103">
        <ele>89</ele>
        <time>2015-01-18T08:55:35Z</time>
      </trkpt>
      <trkpt lat="49.27339" lon="2.52107">
        <ele>88</ele>
        <time>2015-01-18T08:55:41Z</time>
      </trkpt>
      <trkpt lat="49.27331" lon="2.52109">
        <ele>86</ele>
        <time>2015-01-18T08:55:48Z</time>
      </trkpt>
      <trkpt lat="49.27322" lon="2.52113">
        <ele>82</ele>
        <time>2015-01-18T08:55:55Z</time>
      </trkpt>
      <trkpt lat="49.27315" lon="2.52116">
        <ele>79</ele>
        <time>2015-01-18T08:56:02Z</time>
      </trkpt>
      <trkpt lat="49.27309" lon="2.5212">
        <ele>81</ele>
        <time>2015-01-18T08:56:09Z</time>
      </trkpt>
      <trkpt lat="49.27302" lon="2.52123">
        <ele>79</ele>
        <time>2015-01-18T08:56:16Z</time>
      </trkpt>
      <trkpt lat="49.27296" lon="2.5213">
        <ele>78</ele>
        <time>2015-01-18T08:56:23Z</time>
      </trkpt>
      <trkpt lat="49.27288" lon="2.52128">
        <ele>75</ele>
        <time>2015-01-18T08:56:31Z</time>
      </trkpt>
      <trkpt lat="49.2728" lon="2.52128">
        <ele>76</ele>
        <time>2015-01-18T08:56:36Z</time>
      </trkpt>
      <trkpt lat="49.27274" lon="2.52131">
        <ele>74</ele>
        <time>2015-01-18T08:56:44Z</time>
      </trkpt>
      <trkpt lat="49.27267" lon="2.52136">
        <ele>72</ele>
        <time>2015-01-18T08:56:50Z</time>
      </trkpt>
      <trkpt lat="49.27263" lon="2.52143">
        <ele>69</ele>
        <time>2015-01-18T08:56:58Z</time>
      </trkpt>
      <trkpt lat="49.27266" lon="2.52154">
        <ele>67</ele>
        <time>2015-01-18T08:57:02Z</time>
      </trkpt>
      <trkpt lat="49.27269" lon="2.52165">
        <ele>66</ele>
        <time>2015-01-18T08:57:07Z</time>
      </trkpt>
      <trkpt lat="49.27272" lon="2.52176">
        <ele>70</ele>
        <time>2015-01-18T08:57:14Z</time>
      </trkpt>
      <trkpt lat="49.27272" lon="2.52189">
        <ele>70</ele>
        <time>2015-01-18T08:57:21Z</time>
      </trkpt>
      <trkpt lat="49.27271" lon="2.52198">
        <ele>68</ele>
        <time>2015-01-18T08:57:28Z</time>
      </trkpt>
      <trkpt lat="49.27271" lon="2.52195">
        <ele>69</ele>
        <time>2015-01-18T08:57:34Z</time>
      </trkpt>
      <trkpt lat="49.27272" lon="2.522">
        <ele>70</ele>
        <time>2015-01-18T08:57:41Z</time>
      </trkpt>
      <trkpt lat="49.27277" lon="2.52208">
        <ele>72</ele>
        <time>2015-01-18T08:57:48Z</time>
      </trkpt>
      <trkpt lat="49.27284" lon="2.52213">
        <ele>73</ele>
        <time>2015-01-18T08:57:54Z</time>
      </trkpt>
      <trkpt lat="49.27291" lon="2.52218">
        <ele>72</ele>
        <time>2015-01-18T08:58:00Z</time>
      </trkpt>
      <trkpt lat="49.27298" lon="2.52224">
        <ele>72</ele>
        <time>2015-01-18T08:58:07Z</time>
      </trkpt>
      <trkpt lat="49.27305" lon="2.52227">
        <ele>75</ele>
        <time>2015-01-18T08:58:12Z</time>
      </trkpt>
      <trkpt lat="49.27313" lon="2.52231">
        <ele>78</ele>
        <time>2015-01-18T08:58:18Z</time>
      </trkpt>
      <trkpt lat="49.27319" lon="2.52236">
        <ele>84</ele>
        <time>2015-01-18T08:58:25Z</time>
      </trkpt>
      <trkpt lat="49.27325" lon="2.52242">
        <ele>83</ele>
        <time>2015-01-18T08:58:31Z</time>
      </trkpt>
      <trkpt lat="49.27332" lon="2.52248">
        <ele>84</ele>
        <time>2015-01-18T08:58:37Z</time>
      </trkpt>
      <trkpt lat="49.27339" lon="2.52254">
        <ele>83</ele>
        <time>2015-01-18T08:58:43Z</time>
      </trkpt>
      <trkpt lat="49.27344" lon="2.52262">
        <ele>85</ele>
        <time>2015-01-18T08:58:49Z</time>
      </trkpt>
      <trkpt lat="49.27351" lon="2.52268">
        <ele>85</ele>
        <time>2015-01-18T08:58:54Z</time>
      </trkpt>
      <trkpt lat="49.27356" lon="2.52277">
        <ele>85</ele>
        <time>2015-01-18T08:58:59Z</time>
      </trkpt>
      <trkpt lat="49.27361" lon="2.52286">
        <ele>86</ele>
        <time>2015-01-18T08:59:04Z</time>
      </trkpt>
      <trkpt lat="49.27365" lon="2.52297">
        <ele>85</ele>
        <time>2015-01-18T08:59:10Z</time>
      </trkpt>
      <trkpt lat="49.27371" lon="2.52306">
        <ele>86</ele>
        <time>2015-01-18T08:59:16Z</time>
      </trkpt>
      <trkpt lat="49.27377" lon="2.52314">
        <ele>89</ele>
        <time>2015-01-18T08:59:21Z</time>
      </trkpt>
      <trkpt lat="49.2738" lon="2.52324">
        <ele>87</ele>
        <time>2015-01-18T08:59:27Z</time>
      </trkpt>
      <trkpt lat="49.27386" lon="2.52333">
        <ele>93</ele>
        <time>2015-01-18T08:59:32Z</time>
      </trkpt>
      <trkpt lat="49.27389" lon="2.52344">
        <ele>88</ele>
        <time>2015-01-18T08:59:38Z</time>
      </trkpt>
      <trkpt lat="49.27393" lon="2.52354">
        <ele>89</ele>
        <time>2015-01-18T08:59:44Z</time>
      </trkpt>
      <trkpt lat="49.27397" lon="2.52364">
        <ele>91</ele>
        <time>2015-01-18T08:59:50Z</time>
      </trkpt>
      <trkpt lat="49.27402" lon="2.52373">
        <ele>91</ele>
        <time>2015-01-18T08:59:55Z</time>
      </trkpt>
      <trkpt lat="49.27407" lon="2.52382">
        <ele>90</ele>
        <time>2015-01-18T09:00:02Z</time>
      </trkpt>
      <trkpt lat="49.27413" lon="2.52389">
        <ele>91</ele>
        <time>2015-01-18T09:00:06Z</time>
      </trkpt>
      <trkpt lat="49.27419" lon="2.52398">
        <ele>89</ele>
        <time>2015-01-18T09:00:13Z</time>
      </trkpt>
      <trkpt lat="49.27424" lon="2.52407">
        <ele>91</ele>
        <time>2015-01-18T09:00:18Z</time>
      </trkpt>
      <trkpt lat="49.27429" lon="2.52416">
        <ele>90</ele>
        <time>2015-01-18T09:00:24Z</time>
      </trkpt>
      <trkpt lat="49.27433" lon="2.52425">
        <ele>87</ele>
        <time>2015-01-18T09:00:31Z</time>
      </trkpt>
      <trkpt lat="49.27429" lon="2.52429">
        <ele>81</ele>
        <time>2015-01-18T09:00:38Z</time>
      </trkpt>
      <trkpt lat="49.27426" lon="2.52439">
        <ele>80</ele>
        <time>2015-01-18T09:00:44Z</time>
      </trkpt>
      <trkpt lat="49.27422" lon="2.5245">
        <ele>76</ele>
        <time>2015-01-18T09:00:51Z</time>
      </trkpt>
      <trkpt lat="49.27419" lon="2.52459">
        <ele>76</ele>
        <time>2015-01-18T09:00:57Z</time>
      </trkpt>
      <trkpt lat="49.27416" lon="2.5247">
        <ele>76</ele>
        <time>2015-01-18T09:01:03Z</time>
      </trkpt>
      <trkpt lat="49.27413" lon="2.52482">
        <ele>75</ele>
        <time>2015-01-18T09:01:10Z</time>
      </trkpt>
      <trkpt lat="49.27412" lon="2.52494">
        <ele>77</ele>
        <time>2015-01-18T09:01:16Z</time>
      </trkpt>
      <trkpt lat="49.27412" lon="2.52505">
        <ele>78</ele>
        <time>2015-01-18T09:01:23Z</time>
      </trkpt>
      <trkpt lat="49.27411" lon="2.52516">
        <ele>75</ele>
        <time>2015-01-18T09:01:31Z</time>
      </trkpt>
      <trkpt lat="49.2741" lon="2.52529">
        <ele>77</ele>
        <time>2015-01-18T09:01:36Z</time>
      </trkpt>
      <trkpt lat="49.27408" lon="2.52541">
        <ele>76</ele>
        <time>2015-01-18T09:01:42Z</time>
      </trkpt>
      <trkpt lat="49.27407" lon="2.52555">
        <ele>77</ele>
        <time>2015-01-18T09:01:48Z</time>
      </trkpt>
      <trkpt lat="49.27407" lon="2.52567">
        <ele>76</ele>
        <time>2015-01-18T09:01:54Z</time>
      </trkpt>
      <trkpt lat="49.27404" lon="2.52579">
        <ele>75</ele>
        <time>2015-01-18T09:02:01Z</time>
      </trkpt>
      <trkpt lat="49.27398" lon="2.52588">
        <ele>77</ele>
        <time>2015-01-18T09:02:08Z</time>
      </trkpt>
      <trkpt lat="49.27393" lon="2.52596">
        <ele>79</ele>
        <time>2015-01-18T09:02:13Z</time>
      </trkpt>
      <trkpt lat="49.27386" lon="2.52605">
        <ele>80</ele>
        <time>2015-01-18T09:02:20Z</time>
      </trkpt>
      <trkpt lat="49.27384" lon="2.52616">
        <ele>79</ele>
        <time>2015-01-18T09:02:26Z</time>
      </trkpt>
      <trkpt lat="49.27383" lon="2.52623">
        <ele>76</ele>
        <time>2015-01-18T09:02:33Z</time>
      </trkpt>
      <trkpt lat="49.27382" lon="2.52633">
        <ele>75</ele>
        <time>2015-01-18T09:02:40Z</time>
      </trkpt>
      <trkpt lat="49.27382" lon="2.52644">
        <ele>75</ele>
        <time>2015-01-18T09:02:45Z</time>
      </trkpt>
      <trkpt lat="49.2738" lon="2.52655">
        <ele>75</ele>
        <time>2015-01-18T09:02:52Z</time>
      </trkpt>
      <trkpt lat="49.27386" lon="2.52663">
        <ele>78</ele>
        <time>2015-01-18T09:02:58Z</time>
      </trkpt>
      <trkpt lat="49.27391" lon="2.5267">
        <ele>76</ele>
        <time>2015-01-18T09:03:05Z</time>
      </trkpt>
      <trkpt lat="49.27397" lon="2.52674">
        <ele>78</ele>
        <time>2015-01-18T09:03:12Z</time>
      </trkpt>
      <trkpt lat="49.27403" lon="2.52673">
        <ele>75</ele>
        <time>2015-01-18T09:03:30Z</time>
      </trkpt>
      <trkpt lat="49.2741" lon="2.52677">
        <ele>78</ele>
        <time>2015-01-18T09:03:36Z</time>
      </trkpt>
      <trkpt lat="49.27418" lon="2.52682">
        <ele>78</ele>
        <time>2015-01-18T09:03:42Z</time>
      </trkpt>
      <trkpt lat="49.27424" lon="2.52691">
        <ele>81</ele>
        <time>2015-01-18T09:03:49Z</time>
      </trkpt>
      <trkpt lat="49.27431" lon="2.52697">
        <ele>85</ele>
        <time>2015-01-18T09:03:54Z</time>
      </trkpt>
      <trkpt lat="49.27439" lon="2.527">
        <ele>87</ele>
        <time>2015-01-18T09:04:01Z</time>
      </trkpt>
      <trkpt lat="49.27446" lon="2.52703">
        <ele>86</ele>
        <time>2015-01-18T09:04:07Z</time>
      </trkpt>
      <trkpt lat="49.2745" lon="2.5271">
        <ele>83</ele>
        <time>2015-01-18T09:04:14Z</time>
      </trkpt>
      <trkpt lat="49.27448" lon="2.52722">
        <ele>79</ele>
        <time>2015-01-18T09:04:21Z</time>
      </trkpt>
      <trkpt lat="49.27446" lon="2.52733">
        <ele>79</ele>
        <time>2015-01-18T09:04:27Z</time>
      </trkpt>
      <trkpt lat="49.27445" lon="2.52746">
        <ele>80</ele>
        <time>2015-01-18T09:04:34Z</time>
      </trkpt>
      <trkpt lat="49.27443" lon="2.52757">
        <ele>82</ele>
        <time>2015-01-18T09:04:38Z</time>
      </trkpt>
      <trkpt lat="49.2744" lon="2.52768">
        <ele>83</ele>
        <time>2015-01-18T09:04:43Z</time>
      </trkpt>
      <trkpt lat="49.27438" lon="2.52779">
        <ele>80</ele>
        <time>2015-01-18T09:04:49Z</time>
      </trkpt>
      <trkpt lat="49.27436" lon="2.52792">
        <ele>83</ele>
        <time>2015-01-18T09:04:55Z</time>
      </trkpt>
      <trkpt lat="49.27435" lon="2.52803">
        <ele>85</ele>
        <time>2015-01-18T09:05:02Z</time>
      </trkpt>
      <trkpt lat="49.27431" lon="2.52813">
        <ele>86</ele>
        <time>2015-01-18T09:05:08Z</time>
      </trkpt>
      <trkpt lat="49.27427" lon="2.52824">
        <ele>85</ele>
        <time>2015-01-18T09:05:14Z</time>
      </trkpt>
      <trkpt lat="49.27424" lon="2.52835">
        <ele>84</ele>
        <time>2015-01-18T09:05:20Z</time>
      </trkpt>
      <trkpt lat="49.2742" lon="2.52845">
        <ele>84</ele>
        <time>2015-01-18T09:05:27Z</time>
      </trkpt>
      <trkpt lat="49.27417" lon="2.52856">
        <ele>83</ele>
        <time>2015-01-18T09:05:34Z</time>
      </trkpt>
      <trkpt lat="49.27413" lon="2.52866">
        <ele>82</ele>
        <time>2015-01-18T09:05:41Z</time>
      </trkpt>
      <trkpt lat="49.27409" lon="2.52875">
        <ele>86</ele>
        <time>2015-01-18T09:05:48Z</time>
      </trkpt>
      <trkpt lat="49.27405" lon="2.52887">
        <ele>85</ele>
        <time>2015-01-18T09:05:55Z</time>
      </trkpt>
      <trkpt lat="49.27402" lon="2.52896">
        <ele>86</ele>
        <time>2015-01-18T09:06:02Z</time>
      </trkpt>
      <trkpt lat="49.27399" lon="2.52907">
        <ele>87</ele>
        <time>2015-01-18T09:06:08Z</time>
      </trkpt>
      <trkpt lat="49.27396" lon="2.52918">
        <ele>85</ele>
        <time>2015-01-18T09:06:14Z</time>
      </trkpt>
      <trkpt lat="49.27391" lon="2.52927">
        <ele>85</ele>
        <time>2015-01-18T09:06:21Z</time>
      </trkpt>
      <trkpt lat="49.27387" lon="2.52938">
        <ele>87</ele>
        <time>2015-01-18T09:06:28Z</time>
      </trkpt>
      <trkpt lat="49.27383" lon="2.52949">
        <ele>88</ele>
        <time>2015-01-18T09:06:34Z</time>
      </trkpt>
      <trkpt lat="49.2738" lon="2.52961">
        <ele>89</ele>
        <time>2015-01-18T09:06:40Z</time>
      </trkpt>
      <trkpt lat="49.27377" lon="2.5297">
        <ele>88</ele>
        <time>2015-01-18T09:06:47Z</time>
      </trkpt>
      <trkpt lat="49.27374" lon="2.52981">
        <ele>86</ele>
        <time>2015-01-18T09:06:52Z</time>
      </trkpt>
      <trkpt lat="49.27371" lon="2.52991">
        <ele>82</ele>
        <time>2015-01-18T09:06:59Z</time>
      </trkpt>
      <trkpt lat="49.27366" lon="2.52998">
        <ele>83</ele>
        <time>2015-01-18T09:07:06Z</time>
      </trkpt>
      <trkpt lat="49.27362" lon="2.5301">
        <ele>86</ele>
        <time>2015-01-18T09:07:12Z</time>
      </trkpt>
      <trkpt lat="49.27358" lon="2.53021">
        <ele>86</ele>
        <time>2015-01-18T09:07:17Z</time>
      </trkpt>
      <trkpt lat="49.27353" lon="2.53029">
        <ele>84</ele>
        <time>2015-01-18T09:07:22Z</time>
      </trkpt>
      <trkpt lat="49.27349" lon="2.53039">
        <ele>84</ele>
        <time>2015-01-18T09:07:28Z</time>
      </trkpt>
      <trkpt lat="49.27346" lon="2.5305">
        <ele>82</ele>
        <time>2015-01-18T09:07:34Z</time>
      </trkpt>
      <trkpt lat="49.27341" lon="2.53059">
        <ele>85</ele>
        <time>2015-01-18T09:07:40Z</time>
      </trkpt>
      <trkpt lat="49.27337" lon="2.53068">
        <ele>85</ele>
        <time>2015-01-18T09:07:47Z</time>
      </trkpt>
      <trkpt lat="49.27334" lon="2.53078">
        <ele>83</ele>
        <time>2015-01-18T09:07:54Z</time>
      </trkpt>
      <trkpt lat="49.27332" lon="2.5309">
        <ele>87</ele>
        <time>2015-01-18T09:08:00Z</time>
      </trkpt>
      <trkpt lat="49.27331" lon="2.53101">
        <ele>89</ele>
        <time>2015-01-18T09:08:07Z</time>
      </trkpt>
      <trkpt lat="49.27329" lon="2.53112">
        <ele>89</ele>
        <time>2015-01-18T09:08:14Z</time>
      </trkpt>
      <trkpt lat="49.2733" lon="2.53119">
        <ele>82</ele>
        <time>2015-01-18T09:08:21Z</time>
      </trkpt>
      <trkpt lat="49.27327" lon="2.53131">
        <ele>80</ele>
        <time>2015-01-18T09:08:27Z</time>
      </trkpt>
      <trkpt lat="49.27323" lon="2.53142">
        <ele>80</ele>
        <time>2015-01-18T09:08:33Z</time>
      </trkpt>
      <trkpt lat="49.2732" lon="2.53153">
        <ele>81</ele>
        <time>2015-01-18T09:08:40Z</time>
      </trkpt>
      <trkpt lat="49.27319" lon="2.53163">
        <ele>76</ele>
        <time>2015-01-18T09:08:47Z</time>
      </trkpt>
      <trkpt lat="49.27316" lon="2.53176">
        <ele>82</ele>
        <time>2015-01-18T09:08:53Z</time>
      </trkpt>
      <trkpt lat="49.27312" lon="2.53187">
        <ele>86</ele>
        <time>2015-01-18T09:08:58Z</time>
      </trkpt>
      <trkpt lat="49.27309" lon="2.53197">
        <ele>89</ele>
        <time>2015-01-18T09:09:03Z</time>
      </trkpt>
      <trkpt lat="49.27304" lon="2.53206">
        <ele>90</ele>
        <time>2015-01-18T09:09:09Z</time>
      </trkpt>
      <trkpt lat="49.273" lon="2.53215">
        <ele>93</ele>
        <time>2015-01-18T09:09:16Z</time>
      </trkpt>
      <trkpt lat="49.27295" lon="2.53223">
        <ele>89</ele>
        <time>2015-01-18T09:09:23Z</time>
      </trkpt>
      <trkpt lat="49.2729" lon="2.53233">
        <ele>93</ele>
        <time>2015-01-18T09:09:29Z</time>
      </trkpt>
      <trkpt lat="49.27284" lon="2.5324">
        <ele>91</ele>
        <time>2015-01-18T09:09:34Z</time>
      </trkpt>
      <trkpt lat="49.27279" lon="2.5325">
        <ele>92</ele>
        <time>2015-01-18T09:09:40Z</time>
      </trkpt>
      <trkpt lat="49.27273" lon="2.53259">
        <ele>93</ele>
        <time>2015-01-18T09:09:46Z</time>
      </trkpt>
      <trkpt lat="49.27268" lon="2.53266">
        <ele>95</ele>
        <time>2015-01-18T09:09:51Z</time>
      </trkpt>
      <trkpt lat="49.27262" lon="2.53275">
        <ele>98</ele>
        <time>2015-01-18T09:09:56Z</time>
      </trkpt>
      <trkpt lat="49.27257" lon="2.53284">
        <ele>99</ele>
        <time>2015-01-18T09:10:01Z</time>
      </trkpt>
      <trkpt lat="49.27251" lon="2.53291">
        <ele>102</ele>
        <time>2015-01-18T09:10:07Z</time>
      </trkpt>
      <trkpt lat="49.27245" lon="2.533">
        <ele>105</ele>
        <time>2015-01-18T09:10:14Z</time>
      </trkpt>
      <trkpt lat="49.27241" lon="2.5331">
        <ele>103</ele>
        <time>2015-01-18T09:10:19Z</time>
      </trkpt>
      <trkpt lat="49.27235" lon="2.53317">
        <ele>105</ele>
        <time>2015-01-18T09:10:26Z</time>
      </trkpt>
      <trkpt lat="49.27229" lon="2.53326">
        <ele>102</ele>
        <time>2015-01-18T09:10:33Z</time>
      </trkpt>
      <trkpt lat="49.27223" lon="2.53335">
        <ele>102</ele>
        <time>2015-01-18T09:10:40Z</time>
      </trkpt>
      <trkpt lat="49.2722" lon="2.53334">
        <ele>99</ele>
        <time>2015-01-18T09:10:47Z</time>
      </trkpt>
      <trkpt lat="49.27215" lon="2.53339">
        <ele>99</ele>
        <time>2015-01-18T09:10:54Z</time>
      </trkpt>
      <trkpt lat="49.27213" lon="2.53344">
        <ele>98</ele>
        <time>2015-01-18T09:11:01Z</time>
      </trkpt>
      <trkpt lat="49.27205" lon="2.5335">
        <ele>99</ele>
        <time>2015-01-18T09:11:08Z</time>
      </trkpt>
      <trkpt lat="49.27198" lon="2.53356">
        <ele>101</ele>
        <time>2015-01-18T09:11:14Z</time>
      </trkpt>
      <trkpt lat="49.27192" lon="2.53363">
        <ele>100</ele>
        <time>2015-01-18T09:11:21Z</time>
      </trkpt>
      <trkpt lat="49.27185" lon="2.53366">
        <ele>101</ele>
        <time>2015-01-18T09:11:28Z</time>
      </trkpt>
      <trkpt lat="49.2718" lon="2.53373">
        <ele>100</ele>
        <time>2015-01-18T09:11:35Z</time>
      </trkpt>
      <trkpt lat="49.27175" lon="2.53376">
        <ele>95</ele>
        <time>2015-01-18T09:11:42Z</time>
      </trkpt>
      <trkpt lat="49.2717" lon="2.53381">
        <ele>91</ele>
        <time>2015-01-18T09:11:49Z</time>
      </trkpt>
      <trkpt lat="49.27165" lon="2.53387">
        <ele>83</ele>
        <time>2015-01-18T09:11:56Z</time>
      </trkpt>
      <trkpt lat="49.27158" lon="2.53388">
        <ele>86</ele>
        <time>2015-01-18T09:12:03Z</time>
      </trkpt>
      <trkpt lat="49.27151" lon="2.53388">
        <ele>85</ele>
        <time>2015-01-18T09:12:10Z</time>
      </trkpt>
      <trkpt lat="49.27143" lon="2.53391">
        <ele>81</ele>
        <time>2015-01-18T09:12:17Z</time>
      </trkpt>
      <trkpt lat="49.27136" lon="2.53394">
        <ele>82</ele>
        <time>2015-01-18T09:12:22Z</time>
      </trkpt>
      <trkpt lat="49.27128" lon="2.53397">
        <ele>85</ele>
        <time>2015-01-18T09:12:27Z</time>
      </trkpt>
      <trkpt lat="49.2712" lon="2.534">
        <ele>87</ele>
        <time>2015-01-18T09:12:32Z</time>
      </trkpt>
      <trkpt lat="49.27112" lon="2.53404">
        <ele>86</ele>
        <time>2015-01-18T09:12:38Z</time>
      </trkpt>
      <trkpt lat="49.27105" lon="2.53406">
        <ele>87</ele>
        <time>2015-01-18T09:12:44Z</time>
      </trkpt>
      <trkpt lat="49.27098" lon="2.53412">
        <ele>87</ele>
        <time>2015-01-18T09:12:50Z</time>
      </trkpt>
      <trkpt lat="49.27091" lon="2.53419">
        <ele>86</ele>
        <time>2015-01-18T09:12:56Z</time>
      </trkpt>
      <trkpt lat="49.27084" lon="2.53423">
        <ele>88</ele>
        <time>2015-01-18T09:13:01Z</time>
      </trkpt>
      <trkpt lat="49.27076" lon="2.53425">
        <ele>89</ele>
        <time>2015-01-18T09:13:06Z</time>
      </trkpt>
      <trkpt lat="49.27069" lon="2.53428">
        <ele>93</ele>
        <time>2015-01-18T09:13:11Z</time>
      </trkpt>
      <trkpt lat="49.27062" lon="2.53433">
        <ele>94</ele>
        <time>2015-01-18T09:13:16Z</time>
      </trkpt>
      <trkpt lat="49.27054" lon="2.53434">
        <ele>95</ele>
        <time>2015-01-18T09:13:22Z</time>
      </trkpt>
      <trkpt lat="49.27047" lon="2.53438">
        <ele>97</ele>
        <time>2015-01-18T09:13:28Z</time>
      </trkpt>
      <trkpt lat="49.27042" lon="2.53445">
        <ele>97</ele>
        <time>2015-01-18T09:13:35Z</time>
      </trkpt>
      <trkpt lat="49.2704" lon="2.53456">
        <ele>97</ele>
        <time>2015-01-18T09:13:42Z</time>
      </trkpt>
      <trkpt lat="49.27036" lon="2.53468">
        <ele>92</ele>
        <time>2015-01-18T09:13:47Z</time>
      </trkpt>
      <trkpt lat="49.27031" lon="2.53476">
        <ele>93</ele>
        <time>2015-01-18T09:13:52Z</time>
      </trkpt>
      <trkpt lat="49.27025" lon="2.53483">
        <ele>95</ele>
        <time>2015-01-18T09:13:57Z</time>
      </trkpt>
      <trkpt lat="49.27019" lon="2.5349">
        <ele>96</ele>
        <time>2015-01-18T09:14:03Z</time>
      </trkpt>
      <trkpt lat="49.27014" lon="2.53496">
        <ele>98</ele>
        <time>2015-01-18T09:14:10Z</time>
      </trkpt>
      <trkpt lat="49.27009" lon="2.53505">
        <ele>99</ele>
        <time>2015-01-18T09:14:18Z</time>
      </trkpt>
      <trkpt lat="49.27006" lon="2.53515">
        <ele>94</ele>
        <time>2015-01-18T09:14:22Z</time>
      </trkpt>
      <trkpt lat="49.27003" lon="2.53526">
        <ele>92</ele>
        <time>2015-01-18T09:14:29Z</time>
      </trkpt>
      <trkpt lat="49.27002" lon="2.53538">
        <ele>90</ele>
        <time>2015-01-18T09:14:34Z</time>
      </trkpt>
      <trkpt lat="49.27002" lon="2.5355">
        <ele>88</ele>
        <time>2015-01-18T09:14:41Z</time>
      </trkpt>
      <trkpt lat="49.27003" lon="2.53552">
        <ele>87</ele>
        <time>2015-01-18T09:14:48Z</time>
      </trkpt>
      <trkpt lat="49.27006" lon="2.53558">
        <ele>84</ele>
        <time>2015-01-18T09:14:55Z</time>
      </trkpt>
      <trkpt lat="49.27009" lon="2.53566">
        <ele>81</ele>
        <time>2015-01-18T09:15:02Z</time>
      </trkpt>
      <trkpt lat="49.27013" lon="2.53577">
        <ele>83</ele>
        <time>2015-01-18T09:15:10Z</time>
      </trkpt>
      <trkpt lat="49.27018" lon="2.53586">
        <ele>80</ele>
        <time>2015-01-18T09:15:15Z</time>
      </trkpt>
      <trkpt lat="49.27022" lon="2.53592">
        <ele>83</ele>
        <time>2015-01-18T09:15:22Z</time>
      </trkpt>
      <trkpt lat="49.27029" lon="2.53598">
        <ele>81</ele>
        <time>2015-01-18T09:15:27Z</time>
      </trkpt>
      <trkpt lat="49.27033" lon="2.53607">
        <ele>81</ele>
        <time>2015-01-18T09:15:33Z</time>
      </trkpt>
      <trkpt lat="49.27038" lon="2.53617">
        <ele>82</ele>
        <time>2015-01-18T09:15:39Z</time>
      </trkpt>
      <trkpt lat="49.27041" lon="2.53624">
        <ele>79</ele>
        <time>2015-01-18T09:15:46Z</time>
      </trkpt>
      <trkpt lat="49.27046" lon="2.53632">
        <ele>79</ele>
        <time>2015-01-18T09:15:52Z</time>
      </trkpt>
      <trkpt lat="49.27051" lon="2.53643">
        <ele>82</ele>
        <time>2015-01-18T09:15:58Z</time>
      </trkpt>
      <trkpt lat="49.27056" lon="2.5365">
        <ele>81</ele>
        <time>2015-01-18T09:16:04Z</time>
      </trkpt>
      <trkpt lat="49.27061" lon="2.53659">
        <ele>82</ele>
        <time>2015-01-18T09:16:10Z</time>
      </trkpt>
      <trkpt lat="49.27066" lon="2.53665">
        <ele>80</ele>
        <time>2015-01-18T09:16:17Z</time>
      </trkpt>
      <trkpt lat="49.27071" lon="2.53672">
        <ele>80</ele>
        <time>2015-01-18T09:16:24Z</time>
      </trkpt>
      <trkpt lat="49.27075" lon="2.53681">
        <ele>82</ele>
        <time>2015-01-18T09:16:30Z</time>
      </trkpt>
      <trkpt lat="49.27082" lon="2.53691">
        <ele>83</ele>
        <time>2015-01-18T09:16:36Z</time>
      </trkpt>
      <trkpt lat="49.27089" lon="2.53696">
        <ele>80</ele>
        <time>2015-01-18T09:16:41Z</time>
      </trkpt>
      <trkpt lat="49.27093" lon="2.53709">
        <ele>84</ele>
        <time>2015-01-18T09:16:46Z</time>
      </trkpt>
      <trkpt lat="49.27098" lon="2.53719">
        <ele>83</ele>
        <time>2015-01-18T09:16:51Z</time>
      </trkpt>
      <trkpt lat="49.27103" lon="2.53727">
        <ele>84</ele>
        <time>2015-01-18T09:16:57Z</time>
      </trkpt>
      <trkpt lat="49.27108" lon="2.53736">
        <ele>85</ele>
        <time>2015-01-18T09:17:04Z</time>
      </trkpt>
      <trkpt lat="49.27111" lon="2.53745">
        <ele>82</ele>
        <time>2015-01-18T09:17:11Z</time>
      </trkpt>
      <trkpt lat="49.27116" lon="2.53753">
        <ele>80</ele>
        <time>2015-01-18T09:17:18Z</time>
      </trkpt>
      <trkpt lat="49.27121" lon="2.53761">
        <ele>81</ele>
        <time>2015-01-18T09:17:25Z</time>
      </trkpt>
      <trkpt lat="49.27125" lon="2.5377">
        <ele>82</ele>
        <time>2015-01-18T09:17:31Z</time>
      </trkpt>
      <trkpt lat="49.27128" lon="2.53776">
        <ele>84</ele>
        <time>2015-01-18T09:17:38Z</time>
      </trkpt>
      <trkpt lat="49.27128" lon="2.53781">
        <ele>86</ele>
        <time>2015-01-18T09:17:45Z</time>
      </trkpt>
      <trkpt lat="49.2713" lon="2.53793">
        <ele>81</ele>
        <time>2015-01-18T09:17:52Z</time>
      </trkpt>
      <trkpt lat="49.27132" lon="2.53806">
        <ele>78</ele>
        <time>2015-01-18T09:17:58Z</time>
      </trkpt>
      <trkpt lat="49.27132" lon="2.53819">
        <ele>76</ele>
        <time>2015-01-18T09:18:04Z</time>
      </trkpt>
      <trkpt lat="49.27132" lon="2.53831">
        <ele>80</ele>
        <time>2015-01-18T09:18:09Z</time>
      </trkpt>
      <trkpt lat="49.27134" lon="2.53842">
        <ele>78</ele>
        <time>2015-01-18T09:18:14Z</time>
      </trkpt>
      <trkpt lat="49.27132" lon="2.53854">
        <ele>79</ele>
        <time>2015-01-18T09:18:19Z</time>
      </trkpt>
      <trkpt lat="49.27132" lon="2.53866">
        <ele>79</ele>
        <time>2015-01-18T09:18:24Z</time>
      </trkpt>
      <trkpt lat="49.27132" lon="2.53879">
        <ele>80</ele>
        <time>2015-01-18T09:18:30Z</time>
      </trkpt>
      <trkpt lat="49.2713" lon="2.53889">
        <ele>82</ele>
        <time>2015-01-18T09:18:37Z</time>
      </trkpt>
      <trkpt lat="49.27129" lon="2.53896">
        <ele>77</ele>
        <time>2015-01-18T09:18:44Z</time>
      </trkpt>
      <trkpt lat="49.27127" lon="2.53908">
        <ele>75</ele>
        <time>2015-01-18T09:18:51Z</time>
      </trkpt>
      <trkpt lat="49.27125" lon="2.5392">
        <ele>80</ele>
        <time>2015-01-18T09:18:57Z</time>
      </trkpt>
      <trkpt lat="49.27124" lon="2.53931">
        <ele>80</ele>
        <time>2015-01-18T09:19:04Z</time>
      </trkpt>
      <trkpt lat="49.27122" lon="2.53943">
        <ele>81</ele>
        <time>2015-01-18T09:19:08Z</time>
      </trkpt>
      <trkpt lat="49.2712" lon="2.53954">
        <ele>80</ele>
        <time>2015-01-18T09:19:14Z</time>
      </trkpt>
      <trkpt lat="49.27119" lon="2.53965">
        <ele>75</ele>
        <time>2015-01-18T09:19:20Z</time>
      </trkpt>
      <trkpt lat="49.27118" lon="2.53977">
        <ele>76</ele>
        <time>2015-01-18T09:19:26Z</time>
      </trkpt>
      <trkpt lat="49.27117" lon="2.53989">
        <ele>79</ele>
        <time>2015-01-18T09:19:33Z</time>
      </trkpt>
      <trkpt lat="49.27118" lon="2.54001">
        <ele>82</ele>
        <time>2015-01-18T09:19:38Z</time>
      </trkpt>
      <trkpt lat="49.27118" lon="2.54008">
        <ele>82</ele>
        <time>2015-01-18T09:19:45Z</time>
      </trkpt>
      <trkpt lat="49.27119" lon="2.5402">
        <ele>83</ele>
        <time>2015-01-18T09:19:52Z</time>
      </trkpt>
      <trkpt lat="49.27119" lon="2.54032">
        <ele>82</ele>
        <time>2015-01-18T09:19:57Z</time>
      </trkpt>
      <trkpt lat="49.27122" lon="2.54042">
        <ele>81</ele>
        <time>2015-01-18T09:20:04Z</time>
      </trkpt>
      <trkpt lat="49.27123" lon="2.54055">
        <ele>84</ele>
        <time>2015-01-18T09:20:11Z</time>
      </trkpt>
      <trkpt lat="49.27123" lon="2.54066">
        <ele>85</ele>
        <time>2015-01-18T09:20:16Z</time>
      </trkpt>
      <trkpt lat="49.27123" lon="2.54074">
        <ele>86</ele>
        <time>2015-01-18T09:20:23Z</time>
      </trkpt>
      <trkpt lat="49.27123" lon="2.54082">
        <ele>83</ele>
        <time>2015-01-18T09:20:30Z</time>
      </trkpt>
      <trkpt lat="49.27124" lon="2.54094">
        <ele>81</ele>
        <time>2015-01-18T09:20:37Z</time>
      </trkpt>
      <trkpt lat="49.27124" lon="2.54105">
        <ele>78</ele>
        <time>2015-01-18T09:20:43Z</time>
      </trkpt>
      <trkpt lat="49.27123" lon="2.54117">
        <ele>77</ele>
        <time>2015-01-18T09:20:49Z</time>
      </trkpt>
      <trkpt lat="49.27125" lon="2.54129">
        <ele>80</ele>
        <time>2015-01-18T09:20:55Z</time>
      </trkpt>
      <trkpt lat="49.27125" lon="2.54141">
        <ele>77</ele>
        <time>2015-01-18T09:21:02Z</time>
      </trkpt>
      <trkpt lat="49.27124" lon="2.54154">
        <ele>78</ele>
        <time>2015-01-18T09:21:07Z</time>
      </trkpt>
      <trkpt lat="49.27123" lon="2.54165">
        <ele>74</ele>
        <time>2015-01-18T09:21:12Z</time>
      </trkpt>
      <trkpt lat="49.27122" lon="2.54177">
        <ele>71</ele>
        <time>2015-01-18T09:21:17Z</time>
      </trkpt>
      <trkpt lat="49.27122" lon="2.54188">
        <ele>73</ele>
        <time>2015-01-18T09:21:23Z</time>
      </trkpt>
      <trkpt lat="49.2712" lon="2.54199">
        <ele>82</ele>
        <time>2015-01-18T09:21:28Z</time>
      </trkpt>
      <trkpt lat="49.2712" lon="2.54212">
        <ele>82</ele>
        <time>2015-01-18T09:21:31Z</time>
      </trkpt>
      <trkpt lat="49.2712" lon="2.54224">
        <ele>89</ele>
        <time>2015-01-18T09:21:36Z</time>
      </trkpt>
      <trkpt lat="49.2712" lon="2.54232">
        <ele>94</ele>
        <time>2015-01-18T09:21:43Z</time>
      </trkpt>
      <trkpt lat="49.27119" lon="2.54237">
        <ele>94</ele>
        <time>2015-01-18T09:21:50Z</time>
      </trkpt>
      <trkpt lat="49.27123" lon="2.54247">
        <ele>96</ele>
        <time>2015-01-18T09:21:57Z</time>
      </trkpt>
      <trkpt lat="49.27124" lon="2.54255">
        <ele>98</ele>
        <time>2015-01-18T09:22:04Z</time>
      </trkpt>
      <trkpt lat="49.27125" lon="2.54265">
        <ele>98</ele>
        <time>2015-01-18T09:22:11Z</time>
      </trkpt>
      <trkpt lat="49.27124" lon="2.54277">
        <ele>96</ele>
        <time>2015-01-18T09:22:16Z</time>
      </trkpt>
      <trkpt lat="49.27123" lon="2.54289">
        <ele>96</ele>
        <time>2015-01-18T09:22:20Z</time>
      </trkpt>
      <trkpt lat="49.27124" lon="2.543">
        <ele>95</ele>
        <time>2015-01-18T09:22:27Z</time>
      </trkpt>
      <trkpt lat="49.27123" lon="2.54313">
        <ele>97</ele>
        <time>2015-01-18T09:22:32Z</time>
      </trkpt>
      <trkpt lat="49.27125" lon="2.54324">
        <ele>95</ele>
        <time>2015-01-18T09:22:37Z</time>
      </trkpt>
      <trkpt lat="49.27127" lon="2.54336">
        <ele>93</ele>
        <time>2015-01-18T09:22:43Z</time>
      </trkpt>
      <trkpt lat="49.27128" lon="2.54349">
        <ele>96</ele>
        <time>2015-01-18T09:22:46Z</time>
      </trkpt>
      <trkpt lat="49.27126" lon="2.54359">
        <ele>94</ele>
        <time>2015-01-18T09:22:53Z</time>
      </trkpt>
      <trkpt lat="49.27127" lon="2.54371">
        <ele>92</ele>
        <time>2015-01-18T09:22:59Z</time>
      </trkpt>
      <trkpt lat="49.27127" lon="2.54385">
        <ele>94</ele>
        <time>2015-01-18T09:23:06Z</time>
      </trkpt>
      <trkpt lat="49.27128" lon="2.54395">
        <ele>93</ele>
        <time>2015-01-18T09:23:13Z</time>
      </trkpt>
      <trkpt lat="49.27128" lon="2.54408">
        <ele>92</ele>
        <time>2015-01-18T09:23:19Z</time>
      </trkpt>
      <trkpt lat="49.27128" lon="2.54419">
        <ele>94</ele>
        <time>2015-01-18T09:23:25Z</time>
      </trkpt>
      <trkpt lat="49.27129" lon="2.54426">
        <ele>94</ele>
        <time>2015-01-18T09:23:32Z</time>
      </trkpt>
      <trkpt lat="49.27129" lon="2.54438">
        <ele>97</ele>
        <time>2015-01-18T09:23:38Z</time>
      </trkpt>
      <trkpt lat="49.27125" lon="2.54447">
        <ele>98</ele>
        <time>2015-01-18T09:23:45Z</time>
      </trkpt>
      <trkpt lat="49.27122" lon="2.54457">
        <ele>96</ele>
        <time>2015-01-18T09:23:50Z</time>
      </trkpt>
      <trkpt lat="49.2712" lon="2.54468">
        <ele>94</ele>
        <time>2015-01-18T09:23:55Z</time>
      </trkpt>
      <trkpt lat="49.27116" lon="2.5448">
        <ele>92</ele>
        <time>2015-01-18T09:24:01Z</time>
      </trkpt>
      <trkpt lat="49.27112" lon="2.5449">
        <ele>94</ele>
        <time>2015-01-18T09:24:05Z</time>
      </trkpt>
      <trkpt lat="49.27107" lon="2.54498">
        <ele>93</ele>
        <time>2015-01-18T09:24:11Z</time>
      </trkpt>
      <trkpt lat="49.27101" lon="2.54506">
        <ele>93</ele>
        <time>2015-01-18T09:24:17Z</time>
      </trkpt>
      <trkpt lat="49.27097" lon="2.54516">
        <ele>100</ele>
        <time>2015-01-18T09:24:22Z</time>
      </trkpt>
      <trkpt lat="49.27092" lon="2.54524">
        <ele>101</ele>
        <time>2015-01-18T09:24:27Z</time>
      </trkpt>
      <trkpt lat="49.27088" lon="2.54533">
        <ele>99</ele>
        <time>2015-01-18T09:24:32Z</time>
      </trkpt>
      <trkpt lat="49.27083" lon="2.54541">
        <ele>102</ele>
        <time>2015-01-18T09:24:38Z</time>
      </trkpt>
      <trkpt lat="49.27079" lon="2.54552">
        <ele>101</ele>
        <time>2015-01-18T09:24:44Z</time>
      </trkpt>
      <trkpt lat="49.27073" lon="2.54559">
        <ele>100</ele>
        <time>2015-01-18T09:24:49Z</time>
      </trkpt>
      <trkpt lat="49.27068" lon="2.54568">
        <ele>97</ele>
        <time>2015-01-18T09:24:55Z</time>
      </trkpt>
      <trkpt lat="49.27062" lon="2.54576">
        <ele>93</ele>
        <time>2015-01-18T09:25:02Z</time>
      </trkpt>
      <trkpt lat="49.27057" lon="2.54586">
        <ele>94</ele>
        <time>2015-01-18T09:25:08Z</time>
      </trkpt>
      <trkpt lat="49.27053" lon="2.54597">
        <ele>103</ele>
        <time>2015-01-18T09:25:14Z</time>
      </trkpt>
      <trkpt lat="49.27048" lon="2.54605">
        <ele>99</ele>
        <time>2015-01-18T09:25:21Z</time>
      </trkpt>
      <trkpt lat="49.27042" lon="2.5461">
        <ele>92</ele>
        <time>2015-01-18T09:25:28Z</time>
      </trkpt>
      <trkpt lat="49.27037" lon="2.54615">
        <ele>86</ele>
        <time>2015-01-18T09:25:35Z</time>
      </trkpt>
      <trkpt lat="49.27033" lon="2.54625">
        <ele>85</ele>
        <time>2015-01-18T09:25:42Z</time>
      </trkpt>
      <trkpt lat="49.27027" lon="2.54632">
        <ele>86</ele>
        <time>2015-01-18T09:25:49Z</time>
      </trkpt>
      <trkpt lat="49.27022" lon="2.54642">
        <ele>87</ele>
        <time>2015-01-18T09:25:56Z</time>
      </trkpt>
      <trkpt lat="49.27018" lon="2.54651">
        <ele>95</ele>
        <time>2015-01-18T09:26:00Z</time>
      </trkpt>
      <trkpt lat="49.27014" lon="2.54662">
        <ele>94</ele>
        <time>2015-01-18T09:26:06Z</time>
      </trkpt>
      <trkpt lat="49.27009" lon="2.54669">
        <ele>95</ele>
        <time>2015-01-18T09:26:11Z</time>
      </trkpt>
      <trkpt lat="49.27003" lon="2.54676">
        <ele>99</ele>
        <time>2015-01-18T09:26:17Z</time>
      </trkpt>
      <trkpt lat="49.26998" lon="2.54684">
        <ele>100</ele>
        <time>2015-01-18T09:26:23Z</time>
      </trkpt>
      <trkpt lat="49.26992" lon="2.54693">
        <ele>94</ele>
        <time>2015-01-18T09:26:30Z</time>
      </trkpt>
      <trkpt lat="49.26985" lon="2.547">
        <ele>99</ele>
        <time>2015-01-18T09:26:37Z</time>
      </trkpt>
      <trkpt lat="49.2698" lon="2.5471">
        <ele>104</ele>
        <time>2015-01-18T09:26:42Z</time>
      </trkpt>
      <trkpt lat="49.26975" lon="2.54717">
        <ele>107</ele>
        <time>2015-01-18T09:26:47Z</time>
      </trkpt>
      <trkpt lat="49.2697" lon="2.54725">
        <ele>111</ele>
        <time>2015-01-18T09:26:52Z</time>
      </trkpt>
      <trkpt lat="49.26965" lon="2.54735">
        <ele>114</ele>
        <time>2015-01-18T09:26:57Z</time>
      </trkpt>
      <trkpt lat="49.26959" lon="2.54744">
        <ele>111</ele>
        <time>2015-01-18T09:27:03Z</time>
      </trkpt>
      <trkpt lat="49.26954" lon="2.54755">
        <ele>113</ele>
        <time>2015-01-18T09:27:08Z</time>
      </trkpt>
      <trkpt lat="49.26948" lon="2.54764">
        <ele>114</ele>
        <time>2015-01-18T09:27:14Z</time>
      </trkpt>
      <trkpt lat="49.26942" lon="2.54772">
        <ele>117</ele>
        <time>2015-01-18T09:27:19Z</time>
      </trkpt>
      <trkpt lat="49.26935" lon="2.54779">
        <ele>116</ele>
        <time>2015-01-18T09:27:26Z</time>
      </trkpt>
      <trkpt lat="49.26928" lon="2.54782">
        <ele>114</ele>
        <time>2015-01-18T09:27:33Z</time>
      </trkpt>
      <trkpt lat="49.26922" lon="2.54789">
        <ele>117</ele>
        <time>2015-01-18T09:27:39Z</time>
      </trkpt>
      <trkpt lat="49.26918" lon="2.54798">
        <ele>115</ele>
        <time>2015-01-18T09:27:46Z</time>
      </trkpt>
      <trkpt lat="49.26911" lon="2.54804">
        <ele>117</ele>
        <time>2015-01-18T09:27:52Z</time>
      </trkpt>
      <trkpt lat="49.26904" lon="2.54805">
        <ele>122</ele>
        <time>2015-01-18T09:27:59Z</time>
      </trkpt>
      <trkpt lat="49.26902" lon="2.54807">
        <ele>126</ele>
        <time>2015-01-18T09:28:06Z</time>
      </trkpt>
      <trkpt lat="49.26896" lon="2.54814">
        <ele>120</ele>
        <time>2015-01-18T09:28:13Z</time>
      </trkpt>
      <trkpt lat="49.2689" lon="2.54823">
        <ele>119</ele>
        <time>2015-01-18T09:28:19Z</time>
      </trkpt>
      <trkpt lat="49.26886" lon="2.54832">
        <ele>117</ele>
        <time>2015-01-18T09:28:24Z</time>
      </trkpt>
      <trkpt lat="49.26882" lon="2.54843">
        <ele>115</ele>
        <time>2015-01-18T09:28:29Z</time>
      </trkpt>
      <trkpt lat="49.26876" lon="2.54853">
        <ele>113</ele>
        <time>2015-01-18T09:28:35Z</time>
      </trkpt>
      <trkpt lat="49.26871" lon="2.54862">
        <ele>112</ele>
        <time>2015-01-18T09:28:40Z</time>
      </trkpt>
      <trkpt lat="49.26869" lon="2.54873">
        <ele>112</ele>
        <time>2015-01-18T09:28:46Z</time>
      </trkpt>
      <trkpt lat="49.26866" lon="2.54881">
        <ele>109</ele>
        <time>2015-01-18T09:28:53Z</time>
      </trkpt>
      <trkpt lat="49.26864" lon="2.54894">
        <ele>109</ele>
        <time>2015-01-18T09:29:00Z</time>
      </trkpt>
      <trkpt lat="49.26861" lon="2.54904">
        <ele>110</ele>
        <time>2015-01-18T09:29:06Z</time>
      </trkpt>
      <trkpt lat="49.26859" lon="2.54915">
        <ele>104</ele>
        <time>2015-01-18T09:29:13Z</time>
      </trkpt>
      <trkpt lat="49.26856" lon="2.54923">
        <ele>103</ele>
        <time>2015-01-18T09:29:20Z</time>
      </trkpt>
      <trkpt lat="49.26856" lon="2.54931">
        <ele>106</ele>
        <time>2015-01-18T09:29:27Z</time>
      </trkpt>
      <trkpt lat="49.26857" lon="2.54941">
        <ele>108</ele>
        <time>2015-01-18T09:29:34Z</time>
      </trkpt>
      <trkpt lat="49.26856" lon="2.54953">
        <ele>109</ele>
        <time>2015-01-18T09:29:41Z</time>
      </trkpt>
      <trkpt lat="49.26855" lon="2.54966">
        <ele>111</ele>
        <time>2015-01-18T09:29:48Z</time>
      </trkpt>
      <trkpt lat="49.26854" lon="2.54978">
        <ele>114</ele>
        <time>2015-01-18T09:29:54Z</time>
      </trkpt>
      <trkpt lat="49.26855" lon="2.54988">
        <ele>116</ele>
        <time>2015-01-18T09:30:01Z</time>
      </trkpt>
      <trkpt lat="49.26855" lon="2.55002">
        <ele>121</ele>
        <time>2015-01-18T09:30:07Z</time>
      </trkpt>
      <trkpt lat="49.26855" lon="2.55015">
        <ele>119</ele>
        <time>2015-01-18T09:30:13Z</time>
      </trkpt>
      <trkpt lat="49.26856" lon="2.55027">
        <ele>119</ele>
        <time>2015-01-18T09:30:19Z</time>
      </trkpt>
      <trkpt lat="49.26857" lon="2.55038">
        <ele>121</ele>
        <time>2015-01-18T09:30:25Z</time>
      </trkpt>
      <trkpt lat="49.26858" lon="2.55049">
        <ele>119</ele>
        <time>2015-01-18T09:30:31Z</time>
      </trkpt>
      <trkpt lat="49.26857" lon="2.55062">
        <ele>118</ele>
        <time>2015-01-18T09:30:37Z</time>
      </trkpt>
      <trkpt lat="49.26855" lon="2.55073">
        <ele>115</ele>
        <time>2015-01-18T09:30:44Z</time>
      </trkpt>
      <trkpt lat="49.26852" lon="2.55084">
        <ele>117</ele>
        <time>2015-01-18T09:30:50Z</time>
      </trkpt>
      <trkpt lat="49.26848" lon="2.55091">
        <ele>116</ele>
        <time>2015-01-18T09:30:57Z</time>
      </trkpt>
      <trkpt lat="49.26842" lon="2.55099">
        <ele>111</ele>
        <time>2015-01-18T09:31:04Z</time>
      </trkpt>
      <trkpt lat="49.26835" lon="2.55105">
        <ele>113</ele>
        <time>2015-01-18T09:31:10Z</time>
      </trkpt>
      <trkpt lat="49.26829" lon="2.55115">
        <ele>114</ele>
        <time>2015-01-18T09:31:15Z</time>
      </trkpt>
      <trkpt lat="49.26825" lon="2.55125">
        <ele>120</ele>
        <time>2015-01-18T09:31:20Z</time>
      </trkpt>
      <trkpt lat="49.2682" lon="2.55133">
        <ele>122</ele>
        <time>2015-01-18T09:31:25Z</time>
      </trkpt>
      <trkpt lat="49.26815" lon="2.55142">
        <ele>122</ele>
        <time>2015-01-18T09:31:30Z</time>
      </trkpt>
      <trkpt lat="49.2681" lon="2.55149">
        <ele>125</ele>
        <time>2015-01-18T09:31:37Z</time>
      </trkpt>
      <trkpt lat="49.26804" lon="2.55157">
        <ele>125</ele>
        <time>2015-01-18T09:31:43Z</time>
      </trkpt>
      <trkpt lat="49.26798" lon="2.55165">
        <ele>124</ele>
        <time>2015-01-18T09:31:49Z</time>
      </trkpt>
      <trkpt lat="49.26793" lon="2.55174">
        <ele>123</ele>
        <time>2015-01-18T09:31:53Z</time>
      </trkpt>
      <trkpt lat="49.26786" lon="2.55178">
        <ele>119</ele>
        <time>2015-01-18T09:32:00Z</time>
      </trkpt>
      <trkpt lat="49.26781" lon="2.55187">
        <ele>119</ele>
        <time>2015-01-18T09:32:05Z</time>
      </trkpt>
      <trkpt lat="49.26776" lon="2.55195">
        <ele>121</ele>
        <time>2015-01-18T09:32:10Z</time>
      </trkpt>
      <trkpt lat="49.26771" lon="2.55205">
        <ele>123</ele>
        <time>2015-01-18T09:32:15Z</time>
      </trkpt>
      <trkpt lat="49.26765" lon="2.55213">
        <ele>124</ele>
        <time>2015-01-18T09:32:20Z</time>
      </trkpt>
      <trkpt lat="49.26759" lon="2.55221">
        <ele>124</ele>
        <time>2015-01-18T09:32:26Z</time>
      </trkpt>
      <trkpt lat="49.26753" lon="2.55229">
        <ele>123</ele>
        <time>2015-01-18T09:32:32Z</time>
      </trkpt>
      <trkpt lat="49.26748" lon="2.55237">
        <ele>124</ele>
        <time>2015-01-18T09:32:38Z</time>
      </trkpt>
      <trkpt lat="49.26743" lon="2.55246">
        <ele>124</ele>
        <time>2015-01-18T09:32:45Z</time>
      </trkpt>
      <trkpt lat="49.26738" lon="2.55254">
        <ele>122</ele>
        <time>2015-01-18T09:32:51Z</time>
      </trkpt>
      <trkpt lat="49.26732" lon="2.55261">
        <ele>123</ele>
        <time>2015-01-18T09:32:57Z</time>
      </trkpt>
      <trkpt lat="49.26726" lon="2.55267">
        <ele>119</ele>
        <time>2015-01-18T09:33:03Z</time>
      </trkpt>
      <trkpt lat="49.2672" lon="2.55274">
        <ele>121</ele>
        <time>2015-01-18T09:33:09Z</time>
      </trkpt>
      <trkpt lat="49.26713" lon="2.55283">
        <ele>123</ele>
        <time>2015-01-18T09:33:15Z</time>
      </trkpt>
      <trkpt lat="49.26707" lon="2.55292">
        <ele>129</ele>
        <time>2015-01-18T09:33:20Z</time>
      </trkpt>
      <trkpt lat="49.26701" lon="2.553">
        <ele>123</ele>
        <time>2015-01-18T09:33:26Z</time>
      </trkpt>
      <trkpt lat="49.26696" lon="2.55307">
        <ele>122</ele>
        <time>2015-01-18T09:33:32Z</time>
      </trkpt>
      <trkpt lat="49.2669" lon="2.55316">
        <ele>124</ele>
        <time>2015-01-18T09:33:38Z</time>
      </trkpt>
      <trkpt lat="49.26686" lon="2.55326">
        <ele>126</ele>
        <time>2015-01-18T09:33:44Z</time>
      </trkpt>
      <trkpt lat="49.26679" lon="2.55334">
        <ele>130</ele>
        <time>2015-01-18T09:33:51Z</time>
      </trkpt>
      <trkpt lat="49.26674" lon="2.55342">
        <ele>132</ele>
        <time>2015-01-18T09:33:55Z</time>
      </trkpt>
      <trkpt lat="49.26668" lon="2.55351">
        <ele>131</ele>
        <time>2015-01-18T09:34:00Z</time>
      </trkpt>
      <trkpt lat="49.26662" lon="2.55359">
        <ele>130</ele>
        <time>2015-01-18T09:34:06Z</time>
      </trkpt>
      <trkpt lat="49.26658" lon="2.55367">
        <ele>130</ele>
        <time>2015-01-18T09:34:12Z</time>
      </trkpt>
      <trkpt lat="49.26652" lon="2.55375">
        <ele>137</ele>
        <time>2015-01-18T09:34:18Z</time>
      </trkpt>
      <trkpt lat="49.26646" lon="2.55385">
        <ele>140</ele>
        <time>2015-01-18T09:34:23Z</time>
      </trkpt>
      <trkpt lat="49.26641" lon="2.55394">
        <ele>140</ele>
        <time>2015-01-18T09:34:29Z</time>
      </trkpt>
      <trkpt lat="49.26636" lon="2.55402">
        <ele>143</ele>
        <time>2015-01-18T09:34:35Z</time>
      </trkpt>
      <trkpt lat="49.26631" lon="2.55412">
        <ele>145</ele>
        <time>2015-01-18T09:34:40Z</time>
      </trkpt>
      <trkpt lat="49.26625" lon="2.55423">
        <ele>146</ele>
        <time>2015-01-18T09:34:45Z</time>
      </trkpt>
      <trkpt lat="49.2662" lon="2.55432">
        <ele>146</ele>
        <time>2015-01-18T09:34:50Z</time>
      </trkpt>
      <trkpt lat="49.26613" lon="2.5544">
        <ele>144</ele>
        <time>2015-01-18T09:34:57Z</time>
      </trkpt>
      <trkpt lat="49.26607" lon="2.55448">
        <ele>145</ele>
        <time>2015-01-18T09:35:03Z</time>
      </trkpt>
      <trkpt lat="49.26601" lon="2.55459">
        <ele>148</ele>
        <time>2015-01-18T09:35:08Z</time>
      </trkpt>
      <trkpt lat="49.26594" lon="2.55468">
        <ele>148</ele>
        <time>2015-01-18T09:35:13Z</time>
      </trkpt>
      <trkpt lat="49.26589" lon="2.55476">
        <ele>147</ele>
        <time>2015-01-18T09:35:20Z</time>
      </trkpt>
      <trkpt lat="49.26584" lon="2.55486">
        <ele>144</ele>
        <time>2015-01-18T09:35:27Z</time>
      </trkpt>
      <trkpt lat="49.26579" lon="2.55496">
        <ele>142</ele>
        <time>2015-01-18T09:35:33Z</time>
      </trkpt>
      <trkpt lat="49.26573" lon="2.55503">
        <ele>141</ele>
        <time>2015-01-18T09:35:40Z</time>
      </trkpt>
      <trkpt lat="49.26568" lon="2.55509">
        <ele>139</ele>
        <time>2015-01-18T09:35:47Z</time>
      </trkpt>
      <trkpt lat="49.26563" lon="2.55516">
        <ele>136</ele>
        <time>2015-01-18T09:35:54Z</time>
      </trkpt>
      <trkpt lat="49.26558" lon="2.5552">
        <ele>132</ele>
        <time>2015-01-18T09:36:01Z</time>
      </trkpt>
      <trkpt lat="49.26551" lon="2.55525">
        <ele>134</ele>
        <time>2015-01-18T09:36:08Z</time>
      </trkpt>
      <trkpt lat="49.26545" lon="2.55532">
        <ele>134</ele>
        <time>2015-01-18T09:36:15Z</time>
      </trkpt>
      <trkpt lat="49.26539" lon="2.5554">
        <ele>136</ele>
        <time>2015-01-18T09:36:20Z</time>
      </trkpt>
      <trkpt lat="49.26534" lon="2.55548">
        <ele>135</ele>
        <time>2015-01-18T09:36:25Z</time>
      </trkpt>
      <trkpt lat="49.26527" lon="2.55557">
        <ele>134</ele>
        <time>2015-01-18T09:36:31Z</time>
      </trkpt>
      <trkpt lat="49.26522" lon="2.55566">
        <ele>133</ele>
        <time>2015-01-18T09:36:37Z</time>
      </trkpt>
      <trkpt lat="49.26516" lon="2.55574">
        <ele>136</ele>
        <time>2015-01-18T09:36:43Z</time>
      </trkpt>
      <trkpt lat="49.26511" lon="2.55583">
        <ele>135</ele>
        <time>2015-01-18T09:36:49Z</time>
      </trkpt>
      <trkpt lat="49.26505" lon="2.55591">
        <ele>133</ele>
        <time>2015-01-18T09:36:55Z</time>
      </trkpt>
      <trkpt lat="49.265" lon="2.55599">
        <ele>133</ele>
        <time>2015-01-18T09:37:01Z</time>
      </trkpt>
      <trkpt lat="49.26494" lon="2.55607">
        <ele>134</ele>
        <time>2015-01-18T09:37:08Z</time>
      </trkpt>
      <trkpt lat="49.26487" lon="2.55612">
        <ele>133</ele>
        <time>2015-01-18T09:37:15Z</time>
      </trkpt>
      <trkpt lat="49.26482" lon="2.5562">
        <ele>133</ele>
        <time>2015-01-18T09:37:22Z</time>
      </trkpt>
      <trkpt lat="49.26476" lon="2.55628">
        <ele>135</ele>
        <time>2015-01-18T09:37:29Z</time>
      </trkpt>
      <trkpt lat="49.2647" lon="2.55631">
        <ele>132</ele>
        <time>2015-01-18T09:37:36Z</time>
      </trkpt>
      <trkpt lat="49.26465" lon="2.55638">
        <ele>130</ele>
        <time>2015-01-18T09:37:43Z</time>
      </trkpt>
      <trkpt lat="49.2646" lon="2.55645">
        <ele>129</ele>
        <time>2015-01-18T09:37:49Z</time>
      </trkpt>
      <trkpt lat="49.26454" lon="2.55654">
        <ele>129</ele>
        <time>2015-01-18T09:37:55Z</time>
      </trkpt>
      <trkpt lat="49.26453" lon="2.55657">
        <ele>130</ele>
        <time>2015-01-18T09:38:02Z</time>
      </trkpt>
      <trkpt lat="49.26452" lon="2.5566">
        <ele>130</ele>
        <time>2015-01-18T09:38:09Z</time>
      </trkpt>
      <trkpt lat="49.26449" lon="2.55668">
        <ele>128</ele>
        <time>2015-01-18T09:38:16Z</time>
      </trkpt>
      <trkpt lat="49.26445" lon="2.55674">
        <ele>128</ele>
        <time>2015-01-18T09:38:23Z</time>
      </trkpt>
      <trkpt lat="49.26437" lon="2.5568">
        <ele>130</ele>
        <time>2015-01-18T09:38:30Z</time>
      </trkpt>
      <trkpt lat="49.26432" lon="2.55688">
        <ele>128</ele>
        <time>2015-01-18T09:38:35Z</time>
      </trkpt>
      <trkpt lat="49.26427" lon="2.55697">
        <ele>131</ele>
        <time>2015-01-18T09:38:40Z</time>
      </trkpt>
      <trkpt lat="49.26421" lon="2.55705">
        <ele>132</ele>
        <time>2015-01-18T09:38:45Z</time>
      </trkpt>
      <trkpt lat="49.26415" lon="2.55713">
        <ele>134</ele>
        <time>2015-01-18T09:38:51Z</time>
      </trkpt>
      <trkpt lat="49.26412" lon="2.55716">
        <ele>137</ele>
        <time>2015-01-18T09:38:58Z</time>
      </trkpt>
      <trkpt lat="49.26407" lon="2.5572">
        <ele>134</ele>
        <time>2015-01-18T09:39:19Z</time>
      </trkpt>
      <trkpt lat="49.26401" lon="2.55729">
        <ele>134</ele>
        <time>2015-01-18T09:39:24Z</time>
      </trkpt>
      <trkpt lat="49.26394" lon="2.55736">
        <ele>132</ele>
        <time>2015-01-18T09:39:30Z</time>
      </trkpt>
      <trkpt lat="49.26388" lon="2.55744">
        <ele>130</ele>
        <time>2015-01-18T09:39:36Z</time>
      </trkpt>
      <trkpt lat="49.26382" lon="2.55753">
        <ele>132</ele>
        <time>2015-01-18T09:39:42Z</time>
      </trkpt>
      <trkpt lat="49.26378" lon="2.55761">
        <ele>135</ele>
        <time>2015-01-18T09:39:46Z</time>
      </trkpt>
      <trkpt lat="49.26372" lon="2.55768">
        <ele>132</ele>
        <time>2015-01-18T09:39:52Z</time>
      </trkpt>
      <trkpt lat="49.26367" lon="2.55778">
        <ele>133</ele>
        <time>2015-01-18T09:39:58Z</time>
      </trkpt>
      <trkpt lat="49.26362" lon="2.55787">
        <ele>136</ele>
        <time>2015-01-18T09:40:03Z</time>
      </trkpt>
      <trkpt lat="49.26356" lon="2.55797">
        <ele>142</ele>
        <time>2015-01-18T09:40:08Z</time>
      </trkpt>
      <trkpt lat="49.26351" lon="2.55807">
        <ele>140</ele>
        <time>2015-01-18T09:40:15Z</time>
      </trkpt>
      <trkpt lat="49.26346" lon="2.55814">
        <ele>140</ele>
        <time>2015-01-18T09:40:21Z</time>
      </trkpt>
      <trkpt lat="49.2634" lon="2.5582">
        <ele>140</ele>
        <time>2015-01-18T09:40:27Z</time>
      </trkpt>
      <trkpt lat="49.26336" lon="2.55829">
        <ele>139</ele>
        <time>2015-01-18T09:40:34Z</time>
      </trkpt>
      <trkpt lat="49.26334" lon="2.55839">
        <ele>142</ele>
        <time>2015-01-18T09:40:41Z</time>
      </trkpt>
      <trkpt lat="49.26334" lon="2.55845">
        <ele>145</ele>
        <time>2015-01-18T09:40:48Z</time>
      </trkpt>
      <trkpt lat="49.26328" lon="2.55851">
        <ele>145</ele>
        <time>2015-01-18T09:40:55Z</time>
      </trkpt>
      <trkpt lat="49.26321" lon="2.55854">
        <ele>142</ele>
        <time>2015-01-18T09:41:02Z</time>
      </trkpt>
      <trkpt lat="49.26315" lon="2.55861">
        <ele>140</ele>
        <time>2015-01-18T09:41:08Z</time>
      </trkpt>
      <trkpt lat="49.26309" lon="2.55868">
        <ele>140</ele>
        <time>2015-01-18T09:41:14Z</time>
      </trkpt>
      <trkpt lat="49.26302" lon="2.55876">
        <ele>139</ele>
        <time>2015-01-18T09:41:20Z</time>
      </trkpt>
      <trkpt lat="49.26297" lon="2.55885">
        <ele>137</ele>
        <time>2015-01-18T09:41:26Z</time>
      </trkpt>
      <trkpt lat="49.26292" lon="2.55894">
        <ele>134</ele>
        <time>2015-01-18T09:41:32Z</time>
      </trkpt>
      <trkpt lat="49.26286" lon="2.55902">
        <ele>135</ele>
        <time>2015-01-18T09:41:38Z</time>
      </trkpt>
      <trkpt lat="49.26279" lon="2.55908">
        <ele>135</ele>
        <time>2015-01-18T09:41:45Z</time>
      </trkpt>
      <trkpt lat="49.26273" lon="2.55916">
        <ele>139</ele>
        <time>2015-01-18T09:41:51Z</time>
      </trkpt>
      <trkpt lat="49.2627" lon="2.55926">
        <ele>142</ele>
        <time>2015-01-18T09:41:58Z</time>
      </trkpt>
      <trkpt lat="49.26266" lon="2.5593">
        <ele>141</ele>
        <time>2015-01-18T09:42:05Z</time>
      </trkpt>
      <trkpt lat="49.26259" lon="2.55936">
        <ele>145</ele>
        <time>2015-01-18T09:42:12Z</time>
      </trkpt>
      <trkpt lat="49.26259" lon="2.5594">
        <ele>142</ele>
        <time>2015-01-18T09:42:19Z</time>
      </trkpt>
      <trkpt lat="49.26254" lon="2.55946">
        <ele>139</ele>
        <time>2015-01-18T09:42:30Z</time>
      </trkpt>
      <trkpt lat="49.2625" lon="2.55952">
        <ele>141</ele>
        <time>2015-01-18T09:42:36Z</time>
      </trkpt>
      <trkpt lat="49.26247" lon="2.55957">
        <ele>141</ele>
        <time>2015-01-18T09:42:43Z</time>
      </trkpt>
      <trkpt lat="49.26242" lon="2.55955">
        <ele>138</ele>
        <time>2015-01-18T09:42:50Z</time>
      </trkpt>
      <trkpt lat="49.26235" lon="2.55957">
        <ele>137</ele>
        <time>2015-01-18T09:42:57Z</time>
      </trkpt>
      <trkpt lat="49.26229" lon="2.55966">
        <ele>134</ele>
        <time>2015-01-18T09:43:04Z</time>
      </trkpt>
      <trkpt lat="49.26223" lon="2.55973">
        <ele>135</ele>
        <time>2015-01-18T09:43:11Z</time>
      </trkpt>
      <trkpt lat="49.26218" lon="2.55981">
        <ele>134</ele>
        <time>2015-01-18T09:43:18Z</time>
      </trkpt>
      <trkpt lat="49.26214" lon="2.55991">
        <ele>132</ele>
        <time>2015-01-18T09:43:25Z</time>
      </trkpt>
      <trkpt lat="49.26209" lon="2.56">
        <ele>131</ele>
        <time>2015-01-18T09:43:30Z</time>
      </trkpt>
      <trkpt lat="49.26204" lon="2.56009">
        <ele>132</ele>
        <time>2015-01-18T09:43:37Z</time>
      </trkpt>
      <trkpt lat="49.26201" lon="2.5602">
        <ele>133</ele>
        <time>2015-01-18T09:43:43Z</time>
      </trkpt>
      <trkpt lat="49.26197" lon="2.5603">
        <ele>136</ele>
        <time>2015-01-18T09:43:49Z</time>
      </trkpt>
      <trkpt lat="49.26192" lon="2.56037">
        <ele>137</ele>
        <time>2015-01-18T09:43:56Z</time>
      </trkpt>
      <trkpt lat="49.26185" lon="2.56043">
        <ele>136</ele>
        <time>2015-01-18T09:44:03Z</time>
      </trkpt>
      <trkpt lat="49.26178" lon="2.5605">
        <ele>137</ele>
        <time>2015-01-18T09:44:09Z</time>
      </trkpt>
      <trkpt lat="49.26173" lon="2.56057">
        <ele>138</ele>
        <time>2015-01-18T09:44:15Z</time>
      </trkpt>
      <trkpt lat="49.2617" lon="2.56068">
        <ele>137</ele>
        <time>2015-01-18T09:44:23Z</time>
      </trkpt>
      <trkpt lat="49.26164" lon="2.56074">
        <ele>136</ele>
        <time>2015-01-18T09:44:29Z</time>
      </trkpt>
      <trkpt lat="49.26156" lon="2.56078">
        <ele>136</ele>
        <time>2015-01-18T09:44:35Z</time>
      </trkpt>
      <trkpt lat="49.2615" lon="2.56085">
        <ele>136</ele>
        <time>2015-01-18T09:44:41Z</time>
      </trkpt>
      <trkpt lat="49.26145" lon="2.56094">
        <ele>136</ele>
        <time>2015-01-18T09:44:48Z</time>
      </trkpt>
      <trkpt lat="49.26139" lon="2.56102">
        <ele>137</ele>
        <time>2015-01-18T09:44:53Z</time>
      </trkpt>
      <trkpt lat="49.26133" lon="2.56109">
        <ele>137</ele>
        <time>2015-01-18T09:44:58Z</time>
      </trkpt>
      <trkpt lat="49.26128" lon="2.56117">
        <ele>138</ele>
        <time>2015-01-18T09:45:03Z</time>
      </trkpt>
      <trkpt lat="49.26121" lon="2.56126">
        <ele>138</ele>
        <time>2015-01-18T09:45:09Z</time>
      </trkpt>
      <trkpt lat="49.26116" lon="2.56134">
        <ele>140</ele>
        <time>2015-01-18T09:45:14Z</time>
      </trkpt>
      <trkpt lat="49.26111" lon="2.56143">
        <ele>140</ele>
        <time>2015-01-18T09:45:20Z</time>
      </trkpt>
      <trkpt lat="49.26106" lon="2.56152">
        <ele>141</ele>
        <time>2015-01-18T09:45:25Z</time>
      </trkpt>
      <trkpt lat="49.26102" lon="2.56159">
        <ele>140</ele>
        <time>2015-01-18T09:45:32Z</time>
      </trkpt>
      <trkpt lat="49.26099" lon="2.56159">
        <ele>136</ele>
        <time>2015-01-18T09:45:39Z</time>
      </trkpt>
      <trkpt lat="49.26095" lon="2.56163">
        <ele>134</ele>
        <time>2015-01-18T09:45:46Z</time>
      </trkpt>
      <trkpt lat="49.26089" lon="2.56171">
        <ele>133</ele>
        <time>2015-01-18T09:45:52Z</time>
      </trkpt>
      <trkpt lat="49.26085" lon="2.56176">
        <ele>131</ele>
        <time>2015-01-18T09:45:59Z</time>
      </trkpt>
      <trkpt lat="49.26079" lon="2.56183">
        <ele>129</ele>
        <time>2015-01-18T09:46:06Z</time>
      </trkpt>
      <trkpt lat="49.26074" lon="2.56192">
        <ele>128</ele>
        <time>2015-01-18T09:46:12Z</time>
      </trkpt>
      <trkpt lat="49.26067" lon="2.562">
        <ele>128</ele>
        <time>2015-01-18T09:46:19Z</time>
      </trkpt>
      <trkpt lat="49.26061" lon="2.56207">
        <ele>125</ele>
        <time>2015-01-18T09:46:27Z</time>
      </trkpt>
      <trkpt lat="49.26058" lon="2.56213">
        <ele>126</ele>
        <time>2015-01-18T09:46:33Z</time>
      </trkpt>
      <trkpt lat="49.26056" lon="2.56217">
        <ele>126</ele>
        <time>2015-01-18T09:46:40Z</time>
      </trkpt>
      <trkpt lat="49.26048" lon="2.56223">
        <ele>126</ele>
        <time>2015-01-18T09:46:46Z</time>
      </trkpt>
      <trkpt lat="49.26042" lon="2.56231">
        <ele>126</ele>
        <time>2015-01-18T09:46:51Z</time>
      </trkpt>
      <trkpt lat="49.26037" lon="2.56239">
        <ele>121</ele>
        <time>2015-01-18T09:46:56Z</time>
      </trkpt>
      <trkpt lat="49.26032" lon="2.56248">
        <ele>122</ele>
        <time>2015-01-18T09:47:02Z</time>
      </trkpt>
      <trkpt lat="49.26026" lon="2.56258">
        <ele>122</ele>
        <time>2015-01-18T09:47:08Z</time>
      </trkpt>
      <trkpt lat="49.26021" lon="2.56266">
        <ele>124</ele>
        <time>2015-01-18T09:47:13Z</time>
      </trkpt>
      <trkpt lat="49.26015" lon="2.56273">
        <ele>126</ele>
        <time>2015-01-18T09:47:19Z</time>
      </trkpt>
      <trkpt lat="49.26014" lon="2.56276">
        <ele>126</ele>
        <time>2015-01-18T09:47:26Z</time>
      </trkpt>
      <trkpt lat="49.26008" lon="2.56282">
        <ele>127</ele>
        <time>2015-01-18T09:47:33Z</time>
      </trkpt>
      <trkpt lat="49.26002" lon="2.5629">
        <ele>128</ele>
        <time>2015-01-18T09:47:40Z</time>
      </trkpt>
      <trkpt lat="49.25997" lon="2.56297">
        <ele>131</ele>
        <time>2015-01-18T09:47:48Z</time>
      </trkpt>
      <trkpt lat="49.25992" lon="2.56306">
        <ele>130</ele>
        <time>2015-01-18T09:47:54Z</time>
      </trkpt>
      <trkpt lat="49.25987" lon="2.56309">
        <ele>128</ele>
        <time>2015-01-18T09:48:01Z</time>
      </trkpt>
      <trkpt lat="49.25982" lon="2.56319">
        <ele>124</ele>
        <time>2015-01-18T09:48:08Z</time>
      </trkpt>
      <trkpt lat="49.25975" lon="2.56325">
        <ele>121</ele>
        <time>2015-01-18T09:48:14Z</time>
      </trkpt>
      <trkpt lat="49.25968" lon="2.5633">
        <ele>123</ele>
        <time>2015-01-18T09:48:20Z</time>
      </trkpt>
      <trkpt lat="49.25964" lon="2.56338">
        <ele>126</ele>
        <time>2015-01-18T09:48:27Z</time>
      </trkpt>
      <trkpt lat="49.25961" lon="2.56346">
        <ele>122</ele>
        <time>2015-01-18T09:48:34Z</time>
      </trkpt>
      <trkpt lat="49.25955" lon="2.56354">
        <ele>121</ele>
        <time>2015-01-18T09:48:41Z</time>
      </trkpt>
      <trkpt lat="49.25949" lon="2.56362">
        <ele>122</ele>
        <time>2015-01-18T09:48:48Z</time>
      </trkpt>
      <trkpt lat="49.25943" lon="2.56368">
        <ele>124</ele>
        <time>2015-01-18T09:48:52Z</time>
      </trkpt>
      <trkpt lat="49.25937" lon="2.56378">
        <ele>127</ele>
        <time>2015-01-18T09:48:58Z</time>
      </trkpt>
      <trkpt lat="49.25931" lon="2.56387">
        <ele>128</ele>
        <time>2015-01-18T09:49:02Z</time>
      </trkpt>
      <trkpt lat="49.25929" lon="2.56396">
        <ele>130</ele>
        <time>2015-01-18T09:49:09Z</time>
      </trkpt>
      <trkpt lat="49.25928" lon="2.56403">
        <ele>129</ele>
        <time>2015-01-18T09:49:17Z</time>
      </trkpt>
      <trkpt lat="49.25925" lon="2.56406">
        <ele>128</ele>
        <time>2015-01-18T09:49:23Z</time>
      </trkpt>
      <trkpt lat="49.25919" lon="2.5641">
        <ele>128</ele>
        <time>2015-01-18T09:49:30Z</time>
      </trkpt>
      <trkpt lat="49.25914" lon="2.56417">
        <ele>128</ele>
        <time>2015-01-18T09:49:38Z</time>
      </trkpt>
      <trkpt lat="49.25907" lon="2.56425">
        <ele>126</ele>
        <time>2015-01-18T09:49:43Z</time>
      </trkpt>
      <trkpt lat="49.25901" lon="2.56432">
        <ele>125</ele>
        <time>2015-01-18T09:49:49Z</time>
      </trkpt>
      <trkpt lat="49.25894" lon="2.56439">
        <ele>125</ele>
        <time>2015-01-18T09:49:55Z</time>
      </trkpt>
      <trkpt lat="49.25888" lon="2.56445">
        <ele>122</ele>
        <time>2015-01-18T09:50:00Z</time>
      </trkpt>
      <trkpt lat="49.25881" lon="2.56454">
        <ele>122</ele>
        <time>2015-01-18T09:50:06Z</time>
      </trkpt>
      <trkpt lat="49.25877" lon="2.56463">
        <ele>125</ele>
        <time>2015-01-18T09:50:11Z</time>
      </trkpt>
      <trkpt lat="49.25872" lon="2.56473">
        <ele>128</ele>
        <time>2015-01-18T09:50:16Z</time>
      </trkpt>
      <trkpt lat="49.25865" lon="2.56481">
        <ele>126</ele>
        <time>2015-01-18T09:50:22Z</time>
      </trkpt>
      <trkpt lat="49.25858" lon="2.56487">
        <ele>123</ele>
        <time>2015-01-18T09:50:29Z</time>
      </trkpt>
      <trkpt lat="49.25853" lon="2.56495">
        <ele>123</ele>
        <time>2015-01-18T09:50:35Z</time>
      </trkpt>
      <trkpt lat="49.25848" lon="2.56504">
        <ele>128</ele>
        <time>2015-01-18T09:50:40Z</time>
      </trkpt>
      <trkpt lat="49.25841" lon="2.56512">
        <ele>127</ele>
        <time>2015-01-18T09:50:46Z</time>
      </trkpt>
      <trkpt lat="49.25836" lon="2.56521">
        <ele>130</ele>
        <time>2015-01-18T09:50:51Z</time>
      </trkpt>
      <trkpt lat="49.25831" lon="2.5653">
        <ele>130</ele>
        <time>2015-01-18T09:50:55Z</time>
      </trkpt>
      <trkpt lat="49.25827" lon="2.5654">
        <ele>132</ele>
        <time>2015-01-18T09:51:00Z</time>
      </trkpt>
      <trkpt lat="49.25826" lon="2.56539">
        <ele>131</ele>
        <time>2015-01-18T09:51:07Z</time>
      </trkpt>
      <trkpt lat="49.25823" lon="2.56539">
        <ele>132</ele>
        <time>2015-01-18T09:51:17Z</time>
      </trkpt>
      <trkpt lat="49.2583" lon="2.56528">
        <ele>124</ele>
        <time>2015-01-18T09:51:47Z</time>
      </trkpt>
      <trkpt lat="49.25835" lon="2.56519">
        <ele>128</ele>
        <time>2015-01-18T09:51:53Z</time>
      </trkpt>
      <trkpt lat="49.25839" lon="2.56511">
        <ele>129</ele>
        <time>2015-01-18T09:52:01Z</time>
      </trkpt>
      <trkpt lat="49.25841" lon="2.56508">
        <ele>127</ele>
        <time>2015-01-18T09:52:07Z</time>
      </trkpt>
      <trkpt lat="49.25836" lon="2.56515">
        <ele>125</ele>
        <time>2015-01-18T09:52:14Z</time>
      </trkpt>
      <trkpt lat="49.25829" lon="2.56522">
        <ele>125</ele>
        <time>2015-01-18T09:52:19Z</time>
      </trkpt>
      <trkpt lat="49.25826" lon="2.56531">
        <ele>128</ele>
        <time>2015-01-18T09:52:24Z</time>
      </trkpt>
      <trkpt lat="49.25823" lon="2.56544">
        <ele>133</ele>
        <time>2015-01-18T09:52:30Z</time>
      </trkpt>
      <trkpt lat="49.2582" lon="2.56551">
        <ele>135</ele>
        <time>2015-01-18T09:52:37Z</time>
      </trkpt>
      <trkpt lat="49.25817" lon="2.56549">
        <ele>135</ele>
        <time>2015-01-18T09:52:44Z</time>
      </trkpt>
      <trkpt lat="49.2582" lon="2.56551">
        <ele>136</ele>
        <time>2015-01-18T09:52:51Z</time>
      </trkpt>
      <trkpt lat="49.25832" lon="2.56555">
        <ele>144</ele>
        <time>2015-01-18T09:53:12Z</time>
      </trkpt>
      <trkpt lat="49.25833" lon="2.56556">
        <ele>144</ele>
        <time>2015-01-18T09:53:18Z</time>
      </trkpt>
      <trkpt lat="49.25837" lon="2.56554">
        <ele>138</ele>
        <time>2015-01-18T09:53:35Z</time>
      </trkpt>
      <trkpt lat="49.25832" lon="2.56555">
        <ele>141</ele>
        <time>2015-01-18T09:55:26Z</time>
      </trkpt>
      <trkpt lat="49.25829" lon="2.56555">
        <ele>146</ele>
        <time>2015-01-18T09:55:57Z</time>
      </trkpt>
      <trkpt lat="49.25825" lon="2.56554">
        <ele>151</ele>
        <time>2015-01-18T09:57:24Z</time>
      </trkpt>
      <trkpt lat="49.25829" lon="2.56555">
        <ele>151</ele>
        <time>2015-01-18T09:57:01Z</time>
      </trkpt>
      <trkpt lat="49.25828" lon="2.56561">
        <ele>134</ele>
        <time>2015-01-18T10:01:09Z</time>
      </trkpt>
      <trkpt lat="49.25823" lon="2.56561">
        <ele>135</ele>
        <time>2015-01-18T10:01:16Z</time>
      </trkpt>
      <trkpt lat="49.25818" lon="2.56564">
        <ele>136</ele>
        <time>2015-01-18T10:01:38Z</time>
      </trkpt>
      <trkpt lat="49.25812" lon="2.5657">
        <ele>140</ele>
        <time>2015-01-18T10:02:05Z</time>
      </trkpt>
      <trkpt lat="49.25807" lon="2.56575">
        <ele>140</ele>
        <time>2015-01-18T10:02:11Z</time>
      </trkpt>
      <trkpt lat="49.25804" lon="2.56582">
        <ele>136</ele>
        <time>2015-01-18T10:02:19Z</time>
      </trkpt>
      <trkpt lat="49.258" lon="2.5659">
        <ele>136</ele>
        <time>2015-01-18T10:02:26Z</time>
      </trkpt>
      <trkpt lat="49.25795" lon="2.56594">
        <ele>135</ele>
        <time>2015-01-18T10:02:33Z</time>
      </trkpt>
      <trkpt lat="49.2579" lon="2.56599">
        <ele>133</ele>
        <time>2015-01-18T10:02:40Z</time>
      </trkpt>
      <trkpt lat="49.25784" lon="2.56603">
        <ele>134</ele>
        <time>2015-01-18T10:02:47Z</time>
      </trkpt>
      <trkpt lat="49.25778" lon="2.56612">
        <ele>134</ele>
        <time>2015-01-18T10:02:53Z</time>
      </trkpt>
      <trkpt lat="49.25773" lon="2.5662">
        <ele>135</ele>
        <time>2015-01-18T10:02:58Z</time>
      </trkpt>
      <trkpt lat="49.25766" lon="2.56626">
        <ele>136</ele>
        <time>2015-01-18T10:03:04Z</time>
      </trkpt>
      <trkpt lat="49.25762" lon="2.56632">
        <ele>136</ele>
        <time>2015-01-18T10:03:11Z</time>
      </trkpt>
      <trkpt lat="49.25761" lon="2.56638">
        <ele>138</ele>
        <time>2015-01-18T10:03:18Z</time>
      </trkpt>
      <trkpt lat="49.25759" lon="2.56641">
        <ele>139</ele>
        <time>2015-01-18T10:03:25Z</time>
      </trkpt>
      <trkpt lat="49.25753" lon="2.56644">
        <ele>137</ele>
        <time>2015-01-18T10:03:35Z</time>
      </trkpt>
      <trkpt lat="49.25748" lon="2.5665">
        <ele>139</ele>
        <time>2015-01-18T10:03:42Z</time>
      </trkpt>
      <trkpt lat="49.25742" lon="2.56659">
        <ele>140</ele>
        <time>2015-01-18T10:03:48Z</time>
      </trkpt>
      <trkpt lat="49.25741" lon="2.56661">
        <ele>139</ele>
        <time>2015-01-18T10:03:55Z</time>
      </trkpt>
      <trkpt lat="49.25735" lon="2.56667">
        <ele>136</ele>
        <time>2015-01-18T10:04:05Z</time>
      </trkpt>
      <trkpt lat="49.25728" lon="2.56669">
        <ele>134</ele>
        <time>2015-01-18T10:04:12Z</time>
      </trkpt>
      <trkpt lat="49.2572" lon="2.56672">
        <ele>137</ele>
        <time>2015-01-18T10:04:18Z</time>
      </trkpt>
      <trkpt lat="49.25712" lon="2.56675">
        <ele>136</ele>
        <time>2015-01-18T10:04:23Z</time>
      </trkpt>
      <trkpt lat="49.25705" lon="2.56678">
        <ele>136</ele>
        <time>2015-01-18T10:04:29Z</time>
      </trkpt>
      <trkpt lat="49.25697" lon="2.56675">
        <ele>137</ele>
        <time>2015-01-18T10:04:36Z</time>
      </trkpt>
      <trkpt lat="49.25689" lon="2.56677">
        <ele>139</ele>
        <time>2015-01-18T10:04:43Z</time>
      </trkpt>
      <trkpt lat="49.25681" lon="2.56676">
        <ele>136</ele>
        <time>2015-01-18T10:04:48Z</time>
      </trkpt>
      <trkpt lat="49.25674" lon="2.56673">
        <ele>135</ele>
        <time>2015-01-18T10:04:55Z</time>
      </trkpt>
      <trkpt lat="49.25666" lon="2.56675">
        <ele>138</ele>
        <time>2015-01-18T10:05:02Z</time>
      </trkpt>
      <trkpt lat="49.25658" lon="2.56677">
        <ele>139</ele>
        <time>2015-01-18T10:05:09Z</time>
      </trkpt>
      <trkpt lat="49.2565" lon="2.56677">
        <ele>142</ele>
        <time>2015-01-18T10:05:15Z</time>
      </trkpt>
      <trkpt lat="49.25641" lon="2.56677">
        <ele>143</ele>
        <time>2015-01-18T10:05:20Z</time>
      </trkpt>
      <trkpt lat="49.25634" lon="2.56681">
        <ele>144</ele>
        <time>2015-01-18T10:05:26Z</time>
      </trkpt>
      <trkpt lat="49.25627" lon="2.56687">
        <ele>142</ele>
        <time>2015-01-18T10:05:32Z</time>
      </trkpt>
      <trkpt lat="49.25621" lon="2.56693">
        <ele>140</ele>
        <time>2015-01-18T10:05:39Z</time>
      </trkpt>
      <trkpt lat="49.25615" lon="2.56701">
        <ele>141</ele>
        <time>2015-01-18T10:05:45Z</time>
      </trkpt>
      <trkpt lat="49.25608" lon="2.56706">
        <ele>142</ele>
        <time>2015-01-18T10:05:52Z</time>
      </trkpt>
      <trkpt lat="49.25601" lon="2.56713">
        <ele>145</ele>
        <time>2015-01-18T10:05:57Z</time>
      </trkpt>
      <trkpt lat="49.25594" lon="2.56717">
        <ele>145</ele>
        <time>2015-01-18T10:06:04Z</time>
      </trkpt>
      <trkpt lat="49.25587" lon="2.56722">
        <ele>143</ele>
        <time>2015-01-18T10:06:10Z</time>
      </trkpt>
      <trkpt lat="49.2558" lon="2.56727">
        <ele>144</ele>
        <time>2015-01-18T10:06:17Z</time>
      </trkpt>
      <trkpt lat="49.25573" lon="2.56732">
        <ele>141</ele>
        <time>2015-01-18T10:06:25Z</time>
      </trkpt>
      <trkpt lat="49.25568" lon="2.5674">
        <ele>141</ele>
        <time>2015-01-18T10:06:32Z</time>
      </trkpt>
      <trkpt lat="49.25563" lon="2.56745">
        <ele>139</ele>
        <time>2015-01-18T10:06:39Z</time>
      </trkpt>
      <trkpt lat="49.25558" lon="2.56756">
        <ele>141</ele>
        <time>2015-01-18T10:06:45Z</time>
      </trkpt>
      <trkpt lat="49.25552" lon="2.56761">
        <ele>140</ele>
        <time>2015-01-18T10:06:51Z</time>
      </trkpt>
      <trkpt lat="49.25545" lon="2.56767">
        <ele>142</ele>
        <time>2015-01-18T10:06:56Z</time>
      </trkpt>
      <trkpt lat="49.25539" lon="2.56773">
        <ele>139</ele>
        <time>2015-01-18T10:07:02Z</time>
      </trkpt>
      <trkpt lat="49.25532" lon="2.56778">
        <ele>137</ele>
        <time>2015-01-18T10:07:07Z</time>
      </trkpt>
      <trkpt lat="49.25525" lon="2.56784">
        <ele>140</ele>
        <time>2015-01-18T10:07:13Z</time>
      </trkpt>
      <trkpt lat="49.25518" lon="2.56789">
        <ele>141</ele>
        <time>2015-01-18T10:07:20Z</time>
      </trkpt>
      <trkpt lat="49.25511" lon="2.56795">
        <ele>135</ele>
        <time>2015-01-18T10:07:26Z</time>
      </trkpt>
      <trkpt lat="49.25504" lon="2.56803">
        <ele>135</ele>
        <time>2015-01-18T10:07:33Z</time>
      </trkpt>
      <trkpt lat="49.25497" lon="2.56809">
        <ele>136</ele>
        <time>2015-01-18T10:07:38Z</time>
      </trkpt>
      <trkpt lat="49.2549" lon="2.56813">
        <ele>134</ele>
        <time>2015-01-18T10:07:45Z</time>
      </trkpt>
      <trkpt lat="49.25484" lon="2.56816">
        <ele>134</ele>
        <time>2015-01-18T10:07:53Z</time>
      </trkpt>
      <trkpt lat="49.25478" lon="2.56821">
        <ele>134</ele>
        <time>2015-01-18T10:08:00Z</time>
      </trkpt>
      <trkpt lat="49.25471" lon="2.56824">
        <ele>132</ele>
        <time>2015-01-18T10:08:06Z</time>
      </trkpt>
      <trkpt lat="49.25463" lon="2.56828">
        <ele>132</ele>
        <time>2015-01-18T10:08:13Z</time>
      </trkpt>
      <trkpt lat="49.25456" lon="2.56832">
        <ele>137</ele>
        <time>2015-01-18T10:08:19Z</time>
      </trkpt>
      <trkpt lat="49.25449" lon="2.56837">
        <ele>133</ele>
        <time>2015-01-18T10:08:24Z</time>
      </trkpt>
      <trkpt lat="49.25442" lon="2.56843">
        <ele>135</ele>
        <time>2015-01-18T10:08:32Z</time>
      </trkpt>
      <trkpt lat="49.25435" lon="2.56851">
        <ele>136</ele>
        <time>2015-01-18T10:08:39Z</time>
      </trkpt>
      <trkpt lat="49.2543" lon="2.56859">
        <ele>135</ele>
        <time>2015-01-18T10:08:44Z</time>
      </trkpt>
      <trkpt lat="49.25423" lon="2.56865">
        <ele>134</ele>
        <time>2015-01-18T10:08:52Z</time>
      </trkpt>
      <trkpt lat="49.25418" lon="2.56873">
        <ele>136</ele>
        <time>2015-01-18T10:08:58Z</time>
      </trkpt>
      <trkpt lat="49.25412" lon="2.56881">
        <ele>134</ele>
        <time>2015-01-18T10:09:05Z</time>
      </trkpt>
      <trkpt lat="49.25406" lon="2.56889">
        <ele>135</ele>
        <time>2015-01-18T10:09:10Z</time>
      </trkpt>
      <trkpt lat="49.254" lon="2.56895">
        <ele>138</ele>
        <time>2015-01-18T10:09:16Z</time>
      </trkpt>
      <trkpt lat="49.25393" lon="2.56901">
        <ele>138</ele>
        <time>2015-01-18T10:09:22Z</time>
      </trkpt>
      <trkpt lat="49.25386" lon="2.56908">
        <ele>138</ele>
        <time>2015-01-18T10:09:28Z</time>
      </trkpt>
      <trkpt lat="49.25378" lon="2.5691">
        <ele>133</ele>
        <time>2015-01-18T10:09:35Z</time>
      </trkpt>
      <trkpt lat="49.25371" lon="2.56914">
        <ele>137</ele>
        <time>2015-01-18T10:09:42Z</time>
      </trkpt>
      <trkpt lat="49.25364" lon="2.5692">
        <ele>138</ele>
        <time>2015-01-18T10:09:48Z</time>
      </trkpt>
      <trkpt lat="49.25357" lon="2.56926">
        <ele>138</ele>
        <time>2015-01-18T10:09:56Z</time>
      </trkpt>
      <trkpt lat="49.2535" lon="2.56931">
        <ele>141</ele>
        <time>2015-01-18T10:10:03Z</time>
      </trkpt>
      <trkpt lat="49.25344" lon="2.56937">
        <ele>141</ele>
        <time>2015-01-18T10:10:08Z</time>
      </trkpt>
      <trkpt lat="49.25337" lon="2.56943">
        <ele>141</ele>
        <time>2015-01-18T10:10:14Z</time>
      </trkpt>
      <trkpt lat="49.2533" lon="2.56948">
        <ele>140</ele>
        <time>2015-01-18T10:10:20Z</time>
      </trkpt>
      <trkpt lat="49.25323" lon="2.56954">
        <ele>143</ele>
        <time>2015-01-18T10:10:26Z</time>
      </trkpt>
      <trkpt lat="49.25316" lon="2.56955">
        <ele>142</ele>
        <time>2015-01-18T10:10:32Z</time>
      </trkpt>
      <trkpt lat="49.2531" lon="2.56956">
        <ele>137</ele>
        <time>2015-01-18T10:10:39Z</time>
      </trkpt>
      <trkpt lat="49.25303" lon="2.56958">
        <ele>141</ele>
        <time>2015-01-18T10:10:46Z</time>
      </trkpt>
      <trkpt lat="49.25297" lon="2.56956">
        <ele>143</ele>
        <time>2015-01-18T10:10:53Z</time>
      </trkpt>
      <trkpt lat="49.25289" lon="2.56956">
        <ele>141</ele>
        <time>2015-01-18T10:11:00Z</time>
      </trkpt>
      <trkpt lat="49.2528" lon="2.56958">
        <ele>139</ele>
        <time>2015-01-18T10:11:06Z</time>
      </trkpt>
      <trkpt lat="49.25273" lon="2.56961">
        <ele>139</ele>
        <time>2015-01-18T10:11:11Z</time>
      </trkpt>
      <trkpt lat="49.25266" lon="2.56965">
        <ele>141</ele>
        <time>2015-01-18T10:11:17Z</time>
      </trkpt>
      <trkpt lat="49.2526" lon="2.5697">
        <ele>139</ele>
        <time>2015-01-18T10:11:25Z</time>
      </trkpt>
      <trkpt lat="49.25257" lon="2.56973">
        <ele>132</ele>
        <time>2015-01-18T10:11:32Z</time>
      </trkpt>
      <trkpt lat="49.25252" lon="2.56976">
        <ele>129</ele>
        <time>2015-01-18T10:11:39Z</time>
      </trkpt>
      <trkpt lat="49.25247" lon="2.56981">
        <ele>127</ele>
        <time>2015-01-18T10:11:46Z</time>
      </trkpt>
      <trkpt lat="49.2524" lon="2.56987">
        <ele>130</ele>
        <time>2015-01-18T10:11:52Z</time>
      </trkpt>
      <trkpt lat="49.25233" lon="2.56993">
        <ele>130</ele>
        <time>2015-01-18T10:11:57Z</time>
      </trkpt>
      <trkpt lat="49.25227" lon="2.57">
        <ele>132</ele>
        <time>2015-01-18T10:12:04Z</time>
      </trkpt>
      <trkpt lat="49.2522" lon="2.57005">
        <ele>133</ele>
        <time>2015-01-18T10:12:11Z</time>
      </trkpt>
      <trkpt lat="49.25214" lon="2.5701">
        <ele>135</ele>
        <time>2015-01-18T10:12:16Z</time>
      </trkpt>
      <trkpt lat="49.25207" lon="2.57015">
        <ele>136</ele>
        <time>2015-01-18T10:12:23Z</time>
      </trkpt>
      <trkpt lat="49.25199" lon="2.57019">
        <ele>136</ele>
        <time>2015-01-18T10:12:29Z</time>
      </trkpt>
      <trkpt lat="49.25191" lon="2.57023">
        <ele>135</ele>
        <time>2015-01-18T10:12:34Z</time>
      </trkpt>
      <trkpt lat="49.25184" lon="2.57028">
        <ele>133</ele>
        <time>2015-01-18T10:12:40Z</time>
      </trkpt>
      <trkpt lat="49.25176" lon="2.57033">
        <ele>136</ele>
        <time>2015-01-18T10:12:46Z</time>
      </trkpt>
      <trkpt lat="49.25168" lon="2.57037">
        <ele>133</ele>
        <time>2015-01-18T10:12:52Z</time>
      </trkpt>
      <trkpt lat="49.25161" lon="2.5704">
        <ele>132</ele>
        <time>2015-01-18T10:12:57Z</time>
      </trkpt>
      <trkpt lat="49.25153" lon="2.57042">
        <ele>134</ele>
        <time>2015-01-18T10:13:03Z</time>
      </trkpt>
      <trkpt lat="49.25146" lon="2.57045">
        <ele>133</ele>
        <time>2015-01-18T10:13:09Z</time>
      </trkpt>
      <trkpt lat="49.25141" lon="2.57054">
        <ele>138</ele>
        <time>2015-01-18T10:13:16Z</time>
      </trkpt>
      <trkpt lat="49.25137" lon="2.57063">
        <ele>138</ele>
        <time>2015-01-18T10:13:23Z</time>
      </trkpt>
      <trkpt lat="49.25132" lon="2.57071">
        <ele>137</ele>
        <time>2015-01-18T10:13:30Z</time>
      </trkpt>
      <trkpt lat="49.25127" lon="2.57079">
        <ele>137</ele>
        <time>2015-01-18T10:13:37Z</time>
      </trkpt>
      <trkpt lat="49.25125" lon="2.57084">
        <ele>139</ele>
        <time>2015-01-18T10:13:44Z</time>
      </trkpt>
      <trkpt lat="49.25118" lon="2.57093">
        <ele>136</ele>
        <time>2015-01-18T10:14:00Z</time>
      </trkpt>
      <trkpt lat="49.25111" lon="2.57102">
        <ele>138</ele>
        <time>2015-01-18T10:14:05Z</time>
      </trkpt>
      <trkpt lat="49.25104" lon="2.57107">
        <ele>135</ele>
        <time>2015-01-18T10:14:10Z</time>
      </trkpt>
      <trkpt lat="49.25097" lon="2.57109">
        <ele>131</ele>
        <time>2015-01-18T10:14:17Z</time>
      </trkpt>
      <trkpt lat="49.2509" lon="2.57113">
        <ele>133</ele>
        <time>2015-01-18T10:14:24Z</time>
      </trkpt>
      <trkpt lat="49.25083" lon="2.57115">
        <ele>133</ele>
        <time>2015-01-18T10:14:31Z</time>
      </trkpt>
      <trkpt lat="49.25075" lon="2.57118">
        <ele>132</ele>
        <time>2015-01-18T10:14:38Z</time>
      </trkpt>
      <trkpt lat="49.25068" lon="2.57124">
        <ele>130</ele>
        <time>2015-01-18T10:14:44Z</time>
      </trkpt>
      <trkpt lat="49.25063" lon="2.57129">
        <ele>132</ele>
        <time>2015-01-18T10:14:51Z</time>
      </trkpt>
      <trkpt lat="49.25058" lon="2.57136">
        <ele>131</ele>
        <time>2015-01-18T10:14:58Z</time>
      </trkpt>
      <trkpt lat="49.25052" lon="2.57142">
        <ele>131</ele>
        <time>2015-01-18T10:15:04Z</time>
      </trkpt>
      <trkpt lat="49.25048" lon="2.57146">
        <ele>132</ele>
        <time>2015-01-18T10:15:11Z</time>
      </trkpt>
      <trkpt lat="49.25042" lon="2.57154">
        <ele>133</ele>
        <time>2015-01-18T10:15:17Z</time>
      </trkpt>
      <trkpt lat="49.25037" lon="2.57163">
        <ele>136</ele>
        <time>2015-01-18T10:15:23Z</time>
      </trkpt>
      <trkpt lat="49.25031" lon="2.57169">
        <ele>139</ele>
        <time>2015-01-18T10:15:28Z</time>
      </trkpt>
      <trkpt lat="49.25024" lon="2.5717">
        <ele>137</ele>
        <time>2015-01-18T10:15:35Z</time>
      </trkpt>
      <trkpt lat="49.25017" lon="2.57167">
        <ele>134</ele>
        <time>2015-01-18T10:15:42Z</time>
      </trkpt>
      <trkpt lat="49.2501" lon="2.57163">
        <ele>133</ele>
        <time>2015-01-18T10:15:49Z</time>
      </trkpt>
      <trkpt lat="49.25003" lon="2.5716">
        <ele>134</ele>
        <time>2015-01-18T10:15:55Z</time>
      </trkpt>
      <trkpt lat="49.24995" lon="2.57158">
        <ele>133</ele>
        <time>2015-01-18T10:16:01Z</time>
      </trkpt>
      <trkpt lat="49.24988" lon="2.57155">
        <ele>135</ele>
        <time>2015-01-18T10:16:06Z</time>
      </trkpt>
      <trkpt lat="49.2498" lon="2.57154">
        <ele>134</ele>
        <time>2015-01-18T10:16:11Z</time>
      </trkpt>
      <trkpt lat="49.24972" lon="2.57153">
        <ele>136</ele>
        <time>2015-01-18T10:16:17Z</time>
      </trkpt>
      <trkpt lat="49.24964" lon="2.57152">
        <ele>136</ele>
        <time>2015-01-18T10:16:22Z</time>
      </trkpt>
      <trkpt lat="49.24956" lon="2.57151">
        <ele>139</ele>
        <time>2015-01-18T10:16:27Z</time>
      </trkpt>
      <trkpt lat="49.24948" lon="2.57149">
        <ele>140</ele>
        <time>2015-01-18T10:16:33Z</time>
      </trkpt>
      <trkpt lat="49.2494" lon="2.57145">
        <ele>139</ele>
        <time>2015-01-18T10:16:39Z</time>
      </trkpt>
      <trkpt lat="49.24933" lon="2.57141">
        <ele>139</ele>
        <time>2015-01-18T10:16:45Z</time>
      </trkpt>
      <trkpt lat="49.24925" lon="2.57136">
        <ele>137</ele>
        <time>2015-01-18T10:16:52Z</time>
      </trkpt>
      <trkpt lat="49.2492" lon="2.5713">
        <ele>135</ele>
        <time>2015-01-18T10:16:59Z</time>
      </trkpt>
      <trkpt lat="49.24914" lon="2.57124">
        <ele>137</ele>
        <time>2015-01-18T10:17:06Z</time>
      </trkpt>
      <trkpt lat="49.24907" lon="2.57123">
        <ele>136</ele>
        <time>2015-01-18T10:17:12Z</time>
      </trkpt>
      <trkpt lat="49.249" lon="2.5712">
        <ele>138</ele>
        <time>2015-01-18T10:17:19Z</time>
      </trkpt>
      <trkpt lat="49.24893" lon="2.57116">
        <ele>140</ele>
        <time>2015-01-18T10:17:25Z</time>
      </trkpt>
      <trkpt lat="49.24885" lon="2.5711">
        <ele>139</ele>
        <time>2015-01-18T10:17:32Z</time>
      </trkpt>
      <trkpt lat="49.24878" lon="2.57108">
        <ele>137</ele>
        <time>2015-01-18T10:17:38Z</time>
      </trkpt>
      <trkpt lat="49.24871" lon="2.57103">
        <ele>139</ele>
        <time>2015-01-18T10:17:44Z</time>
      </trkpt>
      <trkpt lat="49.24865" lon="2.57097">
        <ele>140</ele>
        <time>2015-01-18T10:17:50Z</time>
      </trkpt>
      <trkpt lat="49.24857" lon="2.57092">
        <ele>141</ele>
        <time>2015-01-18T10:17:57Z</time>
      </trkpt>
      <trkpt lat="49.24849" lon="2.57088">
        <ele>142</ele>
        <time>2015-01-18T10:18:04Z</time>
      </trkpt>
      <trkpt lat="49.24843" lon="2.57082">
        <ele>138</ele>
        <time>2015-01-18T10:18:11Z</time>
      </trkpt>
      <trkpt lat="49.24849" lon="2.57078">
        <ele>137</ele>
        <time>2015-01-18T10:18:18Z</time>
      </trkpt>
      <trkpt lat="49.24849" lon="2.57076">
        <ele>136</ele>
        <time>2015-01-18T10:18:25Z</time>
      </trkpt>
      <trkpt lat="49.24843" lon="2.5707">
        <ele>138</ele>
        <time>2015-01-18T10:18:30Z</time>
      </trkpt>
      <trkpt lat="49.24836" lon="2.57065">
        <ele>137</ele>
        <time>2015-01-18T10:18:37Z</time>
      </trkpt>
      <trkpt lat="49.24828" lon="2.57062">
        <ele>142</ele>
        <time>2015-01-18T10:18:43Z</time>
      </trkpt>
      <trkpt lat="49.24821" lon="2.57059">
        <ele>140</ele>
        <time>2015-01-18T10:18:50Z</time>
      </trkpt>
      <trkpt lat="49.24814" lon="2.57054">
        <ele>141</ele>
        <time>2015-01-18T10:18:57Z</time>
      </trkpt>
      <trkpt lat="49.24809" lon="2.5705">
        <ele>142</ele>
        <time>2015-01-18T10:19:04Z</time>
      </trkpt>
      <trkpt lat="49.24802" lon="2.57046">
        <ele>146</ele>
        <time>2015-01-18T10:19:11Z</time>
      </trkpt>
      <trkpt lat="49.24796" lon="2.57039">
        <ele>143</ele>
        <time>2015-01-18T10:19:18Z</time>
      </trkpt>
      <trkpt lat="49.24789" lon="2.57035">
        <ele>145</ele>
        <time>2015-01-18T10:19:24Z</time>
      </trkpt>
      <trkpt lat="49.24781" lon="2.57034">
        <ele>143</ele>
        <time>2015-01-18T10:19:31Z</time>
      </trkpt>
      <trkpt lat="49.24775" lon="2.57031">
        <ele>140</ele>
        <time>2015-01-18T10:19:38Z</time>
      </trkpt>
      <trkpt lat="49.24769" lon="2.57026">
        <ele>146</ele>
        <time>2015-01-18T10:19:44Z</time>
      </trkpt>
      <trkpt lat="49.24761" lon="2.57023">
        <ele>149</ele>
        <time>2015-01-18T10:19:50Z</time>
      </trkpt>
      <trkpt lat="49.24754" lon="2.5702">
        <ele>150</ele>
        <time>2015-01-18T10:19:56Z</time>
      </trkpt>
      <trkpt lat="49.24745" lon="2.57016">
        <ele>149</ele>
        <time>2015-01-18T10:20:02Z</time>
      </trkpt>
      <trkpt lat="49.24737" lon="2.57015">
        <ele>150</ele>
        <time>2015-01-18T10:20:08Z</time>
      </trkpt>
      <trkpt lat="49.2473" lon="2.57012">
        <ele>151</ele>
        <time>2015-01-18T10:20:14Z</time>
      </trkpt>
      <trkpt lat="49.24726" lon="2.57008">
        <ele>154</ele>
        <time>2015-01-18T10:20:21Z</time>
      </trkpt>
      <trkpt lat="49.24719" lon="2.57005">
        <ele>155</ele>
        <time>2015-01-18T10:20:28Z</time>
      </trkpt>
      <trkpt lat="49.24713" lon="2.57">
        <ele>154</ele>
        <time>2015-01-18T10:20:34Z</time>
      </trkpt>
      <trkpt lat="49.24705" lon="2.56997">
        <ele>152</ele>
        <time>2015-01-18T10:20:40Z</time>
      </trkpt>
      <trkpt lat="49.24697" lon="2.57001">
        <ele>154</ele>
        <time>2015-01-18T10:20:47Z</time>
      </trkpt>
      <trkpt lat="49.24691" lon="2.57001">
        <ele>155</ele>
        <time>2015-01-18T10:20:54Z</time>
      </trkpt>
      <trkpt lat="49.24687" lon="2.56997">
        <ele>153</ele>
        <time>2015-01-18T10:21:01Z</time>
      </trkpt>
      <trkpt lat="49.24683" lon="2.5699">
        <ele>154</ele>
        <time>2015-01-18T10:21:08Z</time>
      </trkpt>
      <trkpt lat="49.24679" lon="2.56986">
        <ele>155</ele>
        <time>2015-01-18T10:21:15Z</time>
      </trkpt>
      <trkpt lat="49.24673" lon="2.56981">
        <ele>154</ele>
        <time>2015-01-18T10:21:22Z</time>
      </trkpt>
      <trkpt lat="49.24665" lon="2.5698">
        <ele>155</ele>
        <time>2015-01-18T10:21:29Z</time>
      </trkpt>
      <trkpt lat="49.24658" lon="2.56979">
        <ele>157</ele>
        <time>2015-01-18T10:21:36Z</time>
      </trkpt>
      <trkpt lat="49.24653" lon="2.56977">
        <ele>155</ele>
        <time>2015-01-18T10:21:43Z</time>
      </trkpt>
      <trkpt lat="49.24647" lon="2.56974">
        <ele>157</ele>
        <time>2015-01-18T10:21:50Z</time>
      </trkpt>
      <trkpt lat="49.24639" lon="2.56966">
        <ele>157</ele>
        <time>2015-01-18T10:22:05Z</time>
      </trkpt>
      <trkpt lat="49.24636" lon="2.56961">
        <ele>157</ele>
        <time>2015-01-18T10:22:12Z</time>
      </trkpt>
      <trkpt lat="49.2463" lon="2.56952">
        <ele>157</ele>
        <time>2015-01-18T10:22:19Z</time>
      </trkpt>
      <trkpt lat="49.24621" lon="2.56949">
        <ele>156</ele>
        <time>2015-01-18T10:22:26Z</time>
      </trkpt>
      <trkpt lat="49.24618" lon="2.56943">
        <ele>158</ele>
        <time>2015-01-18T10:22:33Z</time>
      </trkpt>
      <trkpt lat="49.24616" lon="2.5694">
        <ele>156</ele>
        <time>2015-01-18T10:22:40Z</time>
      </trkpt>
      <trkpt lat="49.24611" lon="2.56935">
        <ele>162</ele>
        <time>2015-01-18T10:22:47Z</time>
      </trkpt>
      <trkpt lat="49.24604" lon="2.5693">
        <ele>160</ele>
        <time>2015-01-18T10:22:54Z</time>
      </trkpt>
      <trkpt lat="49.24599" lon="2.56927">
        <ele>160</ele>
        <time>2015-01-18T10:23:01Z</time>
      </trkpt>
      <trkpt lat="49.24595" lon="2.56923">
        <ele>159</ele>
        <time>2015-01-18T10:23:08Z</time>
      </trkpt>
      <trkpt lat="49.24588" lon="2.5692">
        <ele>158</ele>
        <time>2015-01-18T10:23:15Z</time>
      </trkpt>
      <trkpt lat="49.24583" lon="2.56917">
        <ele>159</ele>
        <time>2015-01-18T10:23:22Z</time>
      </trkpt>
      <trkpt lat="49.24577" lon="2.56911">
        <ele>161</ele>
        <time>2015-01-18T10:23:29Z</time>
      </trkpt>
      <trkpt lat="49.24569" lon="2.56908">
        <ele>160</ele>
        <time>2015-01-18T10:23:35Z</time>
      </trkpt>
      <trkpt lat="49.24563" lon="2.56904">
        <ele>164</ele>
        <time>2015-01-18T10:23:41Z</time>
      </trkpt>
      <trkpt lat="49.24556" lon="2.56901">
        <ele>167</ele>
        <time>2015-01-18T10:23:48Z</time>
      </trkpt>
      <trkpt lat="49.24548" lon="2.56897">
        <ele>169</ele>
        <time>2015-01-18T10:23:55Z</time>
      </trkpt>
      <trkpt lat="49.24541" lon="2.56897">
        <ele>170</ele>
        <time>2015-01-18T10:24:02Z</time>
      </trkpt>
      <trkpt lat="49.24533" lon="2.56892">
        <ele>170</ele>
        <time>2015-01-18T10:24:15Z</time>
      </trkpt>
      <trkpt lat="49.2453" lon="2.56885">
        <ele>169</ele>
        <time>2015-01-18T10:24:22Z</time>
      </trkpt>
      <trkpt lat="49.24526" lon="2.56882">
        <ele>166</ele>
        <time>2015-01-18T10:24:29Z</time>
      </trkpt>
      <trkpt lat="49.24521" lon="2.56879">
        <ele>165</ele>
        <time>2015-01-18T10:24:36Z</time>
      </trkpt>
      <trkpt lat="49.24513" lon="2.56874">
        <ele>169</ele>
        <time>2015-01-18T10:24:43Z</time>
      </trkpt>
      <trkpt lat="49.24506" lon="2.56872">
        <ele>169</ele>
        <time>2015-01-18T10:24:49Z</time>
      </trkpt>
      <trkpt lat="49.24498" lon="2.56869">
        <ele>170</ele>
        <time>2015-01-18T10:24:56Z</time>
      </trkpt>
      <trkpt lat="49.24492" lon="2.56868">
        <ele>175</ele>
        <time>2015-01-18T10:25:03Z</time>
      </trkpt>
      <trkpt lat="49.24488" lon="2.56863">
        <ele>174</ele>
        <time>2015-01-18T10:25:10Z</time>
      </trkpt>
      <trkpt lat="49.24484" lon="2.56859">
        <ele>172</ele>
        <time>2015-01-18T10:25:17Z</time>
      </trkpt>
      <trkpt lat="49.24477" lon="2.56856">
        <ele>173</ele>
        <time>2015-01-18T10:25:23Z</time>
      </trkpt>
      <trkpt lat="49.24471" lon="2.56852">
        <ele>170</ele>
        <time>2015-01-18T10:25:30Z</time>
      </trkpt>
      <trkpt lat="49.24464" lon="2.56848">
        <ele>175</ele>
        <time>2015-01-18T10:25:37Z</time>
      </trkpt>
      <trkpt lat="49.24457" lon="2.56843">
        <ele>176</ele>
        <time>2015-01-18T10:25:43Z</time>
      </trkpt>
      <trkpt lat="49.2445" lon="2.56837">
        <ele>179</ele>
        <time>2015-01-18T10:25:49Z</time>
      </trkpt>
      <trkpt lat="49.24444" lon="2.56836">
        <ele>178</ele>
        <time>2015-01-18T10:25:56Z</time>
      </trkpt>
      <trkpt lat="49.24439" lon="2.56831">
        <ele>177</ele>
        <time>2015-01-18T10:26:03Z</time>
      </trkpt>
      <trkpt lat="49.24436" lon="2.5683">
        <ele>178</ele>
        <time>2015-01-18T10:26:10Z</time>
      </trkpt>
      <trkpt lat="49.24432" lon="2.56829">
        <ele>179</ele>
        <time>2015-01-18T10:26:17Z</time>
      </trkpt>
      <trkpt lat="49.24429" lon="2.56825">
        <ele>179</ele>
        <time>2015-01-18T10:26:24Z</time>
      </trkpt>
      <trkpt lat="49.24423" lon="2.56819">
        <ele>173</ele>
        <time>2015-01-18T10:26:31Z</time>
      </trkpt>
      <trkpt lat="49.24417" lon="2.56813">
        <ele>168</ele>
        <time>2015-01-18T10:26:38Z</time>
      </trkpt>
      <trkpt lat="49.24411" lon="2.56808">
        <ele>170</ele>
        <time>2015-01-18T10:26:44Z</time>
      </trkpt>
      <trkpt lat="49.24404" lon="2.56805">
        <ele>176</ele>
        <time>2015-01-18T10:26:49Z</time>
      </trkpt>
      <trkpt lat="49.24396" lon="2.56805">
        <ele>177</ele>
        <time>2015-01-18T10:26:52Z</time>
      </trkpt>
      <trkpt lat="49.24389" lon="2.56802">
        <ele>179</ele>
        <time>2015-01-18T10:26:56Z</time>
      </trkpt>
      <trkpt lat="49.24381" lon="2.568">
        <ele>179</ele>
        <time>2015-01-18T10:27:01Z</time>
      </trkpt>
      <trkpt lat="49.24374" lon="2.56797">
        <ele>177</ele>
        <time>2015-01-18T10:27:06Z</time>
      </trkpt>
      <trkpt lat="49.24367" lon="2.56791">
        <ele>177</ele>
        <time>2015-01-18T10:27:12Z</time>
      </trkpt>
      <trkpt lat="49.24361" lon="2.56785">
        <ele>174</ele>
        <time>2015-01-18T10:27:19Z</time>
      </trkpt>
      <trkpt lat="49.24354" lon="2.56782">
        <ele>178</ele>
        <time>2015-01-18T10:27:24Z</time>
      </trkpt>
      <trkpt lat="49.24346" lon="2.56779">
        <ele>179</ele>
        <time>2015-01-18T10:27:29Z</time>
      </trkpt>
      <trkpt lat="49.24338" lon="2.56775">
        <ele>180</ele>
        <time>2015-01-18T10:27:35Z</time>
      </trkpt>
      <trkpt lat="49.24331" lon="2.56771">
        <ele>179</ele>
        <time>2015-01-18T10:27:41Z</time>
      </trkpt>
      <trkpt lat="49.24323" lon="2.56767">
        <ele>178</ele>
        <time>2015-01-18T10:27:48Z</time>
      </trkpt>
      <trkpt lat="49.24316" lon="2.56764">
        <ele>179</ele>
        <time>2015-01-18T10:27:53Z</time>
      </trkpt>
      <trkpt lat="49.24309" lon="2.5676">
        <ele>176</ele>
        <time>2015-01-18T10:28:00Z</time>
      </trkpt>
      <trkpt lat="49.24302" lon="2.56757">
        <ele>175</ele>
        <time>2015-01-18T10:28:07Z</time>
      </trkpt>
      <trkpt lat="49.24297" lon="2.56755">
        <ele>176</ele>
        <time>2015-01-18T10:28:14Z</time>
      </trkpt>
      <trkpt lat="49.2429" lon="2.56757">
        <ele>177</ele>
        <time>2015-01-18T10:28:21Z</time>
      </trkpt>
      <trkpt lat="49.2429" lon="2.56756">
        <ele>177</ele>
        <time>2015-01-18T10:28:28Z</time>
      </trkpt>
      <trkpt lat="49.24294" lon="2.56756">
        <ele>177</ele>
        <time>2015-01-18T10:28:39Z</time>
      </trkpt>
      <trkpt lat="49.2429" lon="2.56771">
        <ele>175</ele>
        <time>2015-01-18T10:29:28Z</time>
      </trkpt>
      <trkpt lat="49.24289" lon="2.56777">
        <ele>174</ele>
        <time>2015-01-18T10:29:35Z</time>
      </trkpt>
      <trkpt lat="49.24288" lon="2.56789">
        <ele>176</ele>
        <time>2015-01-18T10:29:40Z</time>
      </trkpt>
      <trkpt lat="49.24286" lon="2.56801">
        <ele>181</ele>
        <time>2015-01-18T10:29:44Z</time>
      </trkpt>
      <trkpt lat="49.24287" lon="2.56814">
        <ele>185</ele>
        <time>2015-01-18T10:29:50Z</time>
      </trkpt>
      <trkpt lat="49.24287" lon="2.56826">
        <ele>186</ele>
        <time>2015-01-18T10:29:56Z</time>
      </trkpt>
      <trkpt lat="49.24287" lon="2.56838">
        <ele>187</ele>
        <time>2015-01-18T10:30:03Z</time>
      </trkpt>
      <trkpt lat="49.24287" lon="2.56852">
        <ele>192</ele>
        <time>2015-01-18T10:30:09Z</time>
      </trkpt>
      <trkpt lat="49.24287" lon="2.56865">
        <ele>198</ele>
        <time>2015-01-18T10:30:14Z</time>
      </trkpt>
      <trkpt lat="49.24289" lon="2.56877">
        <ele>200</ele>
        <time>2015-01-18T10:30:19Z</time>
      </trkpt>
      <trkpt lat="49.24291" lon="2.56888">
        <ele>203</ele>
        <time>2015-01-18T10:30:23Z</time>
      </trkpt>
      <trkpt lat="49.24291" lon="2.569">
        <ele>204</ele>
        <time>2015-01-18T10:30:30Z</time>
      </trkpt>
      <trkpt lat="49.24293" lon="2.56913">
        <ele>205</ele>
        <time>2015-01-18T10:30:36Z</time>
      </trkpt>
      <trkpt lat="49.24293" lon="2.56923">
        <ele>207</ele>
        <time>2015-01-18T10:30:43Z</time>
      </trkpt>
      <trkpt lat="49.24295" lon="2.56935">
        <ele>209</ele>
        <time>2015-01-18T10:30:50Z</time>
      </trkpt>
      <trkpt lat="49.24297" lon="2.56946">
        <ele>208</ele>
        <time>2015-01-18T10:30:56Z</time>
      </trkpt>
      <trkpt lat="49.24297" lon="2.56959">
        <ele>212</ele>
        <time>2015-01-18T10:31:03Z</time>
      </trkpt>
      <trkpt lat="49.24294" lon="2.56967">
        <ele>207</ele>
        <time>2015-01-18T10:31:10Z</time>
      </trkpt>
      <trkpt lat="49.24291" lon="2.56977">
        <ele>207</ele>
        <time>2015-01-18T10:31:17Z</time>
      </trkpt>
      <trkpt lat="49.24293" lon="2.56989">
        <ele>209</ele>
        <time>2015-01-18T10:31:23Z</time>
      </trkpt>
      <trkpt lat="49.24294" lon="2.57">
        <ele>210</ele>
        <time>2015-01-18T10:31:27Z</time>
      </trkpt>
      <trkpt lat="49.24291" lon="2.5701">
        <ele>206</ele>
        <time>2015-01-18T10:31:33Z</time>
      </trkpt>
      <trkpt lat="49.24287" lon="2.57019">
        <ele>203</ele>
        <time>2015-01-18T10:31:40Z</time>
      </trkpt>
      <trkpt lat="49.24283" lon="2.57028">
        <ele>197</ele>
        <time>2015-01-18T10:31:46Z</time>
      </trkpt>
      <trkpt lat="49.24276" lon="2.57027">
        <ele>196</ele>
        <time>2015-01-18T10:31:53Z</time>
      </trkpt>
      <trkpt lat="49.24275" lon="2.57033">
        <ele>196</ele>
        <time>2015-01-18T10:32:00Z</time>
      </trkpt>
      <trkpt lat="49.24275" lon="2.57046">
        <ele>194</ele>
        <time>2015-01-18T10:32:06Z</time>
      </trkpt>
      <trkpt lat="49.24275" lon="2.57058">
        <ele>192</ele>
        <time>2015-01-18T10:32:12Z</time>
      </trkpt>
      <trkpt lat="49.24275" lon="2.57069">
        <ele>188</ele>
        <time>2015-01-18T10:32:18Z</time>
      </trkpt>
      <trkpt lat="49.24275" lon="2.57078">
        <ele>187</ele>
        <time>2015-01-18T10:32:25Z</time>
      </trkpt>
      <trkpt lat="49.24275" lon="2.57089">
        <ele>186</ele>
        <time>2015-01-18T10:32:32Z</time>
      </trkpt>
      <trkpt lat="49.24277" lon="2.571">
        <ele>186</ele>
        <time>2015-01-18T10:32:38Z</time>
      </trkpt>
      <trkpt lat="49.24276" lon="2.57112">
        <ele>189</ele>
        <time>2015-01-18T10:32:44Z</time>
      </trkpt>
      <trkpt lat="49.24277" lon="2.57123">
        <ele>191</ele>
        <time>2015-01-18T10:32:48Z</time>
      </trkpt>
      <trkpt lat="49.24276" lon="2.57134">
        <ele>187</ele>
        <time>2015-01-18T10:32:54Z</time>
      </trkpt>
      <trkpt lat="49.24277" lon="2.57144">
        <ele>187</ele>
        <time>2015-01-18T10:33:01Z</time>
      </trkpt>
      <trkpt lat="49.24274" lon="2.57156">
        <ele>188</ele>
        <time>2015-01-18T10:33:07Z</time>
      </trkpt>
      <trkpt lat="49.24271" lon="2.57167">
        <ele>187</ele>
        <time>2015-01-18T10:33:13Z</time>
      </trkpt>
      <trkpt lat="49.24266" lon="2.57174">
        <ele>182</ele>
        <time>2015-01-18T10:33:20Z</time>
      </trkpt>
      <trkpt lat="49.24262" lon="2.5718">
        <ele>192</ele>
        <time>2015-01-18T10:33:27Z</time>
      </trkpt>
      <trkpt lat="49.24257" lon="2.57187">
        <ele>177</ele>
        <time>2015-01-18T10:33:34Z</time>
      </trkpt>
      <trkpt lat="49.24253" lon="2.57193">
        <ele>172</ele>
        <time>2015-01-18T10:33:41Z</time>
      </trkpt>
      <trkpt lat="49.2425" lon="2.57203">
        <ele>174</ele>
        <time>2015-01-18T10:33:46Z</time>
      </trkpt>
      <trkpt lat="49.24247" lon="2.57215">
        <ele>175</ele>
        <time>2015-01-18T10:33:51Z</time>
      </trkpt>
      <trkpt lat="49.24243" lon="2.57224">
        <ele>176</ele>
        <time>2015-01-18T10:33:56Z</time>
      </trkpt>
      <trkpt lat="49.2424" lon="2.57237">
        <ele>179</ele>
        <time>2015-01-18T10:34:02Z</time>
      </trkpt>
      <trkpt lat="49.24238" lon="2.57244">
        <ele>176</ele>
        <time>2015-01-18T10:34:09Z</time>
      </trkpt>
      <trkpt lat="49.24236" lon="2.57251">
        <ele>173</ele>
        <time>2015-01-18T10:34:16Z</time>
      </trkpt>
      <trkpt lat="49.24232" lon="2.57258">
        <ele>172</ele>
        <time>2015-01-18T10:34:23Z</time>
      </trkpt>
      <trkpt lat="49.24227" lon="2.57267">
        <ele>173</ele>
        <time>2015-01-18T10:34:29Z</time>
      </trkpt>
      <trkpt lat="49.24223" lon="2.57277">
        <ele>172</ele>
        <time>2015-01-18T10:34:35Z</time>
      </trkpt>
      <trkpt lat="49.24219" lon="2.57286">
        <ele>173</ele>
        <time>2015-01-18T10:34:41Z</time>
      </trkpt>
      <trkpt lat="49.24217" lon="2.57298">
        <ele>175</ele>
        <time>2015-01-18T10:34:48Z</time>
      </trkpt>
      <trkpt lat="49.24213" lon="2.57309">
        <ele>176</ele>
        <time>2015-01-18T10:34:54Z</time>
      </trkpt>
      <trkpt lat="49.24209" lon="2.57318">
        <ele>173</ele>
        <time>2015-01-18T10:35:01Z</time>
      </trkpt>
      <trkpt lat="49.24205" lon="2.57328">
        <ele>174</ele>
        <time>2015-01-18T10:35:08Z</time>
      </trkpt>
      <trkpt lat="49.24201" lon="2.57338">
        <ele>172</ele>
        <time>2015-01-18T10:35:14Z</time>
      </trkpt>
      <trkpt lat="49.24199" lon="2.5735">
        <ele>172</ele>
        <time>2015-01-18T10:35:21Z</time>
      </trkpt>
      <trkpt lat="49.24195" lon="2.57359">
        <ele>172</ele>
        <time>2015-01-18T10:35:27Z</time>
      </trkpt>
      <trkpt lat="49.2419" lon="2.57368">
        <ele>171</ele>
        <time>2015-01-18T10:35:34Z</time>
      </trkpt>
      <trkpt lat="49.24187" lon="2.57379">
        <ele>170</ele>
        <time>2015-01-18T10:35:40Z</time>
      </trkpt>
      <trkpt lat="49.24184" lon="2.5739">
        <ele>169</ele>
        <time>2015-01-18T10:35:46Z</time>
      </trkpt>
      <trkpt lat="49.24179" lon="2.574">
        <ele>167</ele>
        <time>2015-01-18T10:35:53Z</time>
      </trkpt>
      <trkpt lat="49.24175" lon="2.5741">
        <ele>169</ele>
        <time>2015-01-18T10:35:59Z</time>
      </trkpt>
      <trkpt lat="49.24171" lon="2.57421">
        <ele>171</ele>
        <time>2015-01-18T10:36:04Z</time>
      </trkpt>
      <trkpt lat="49.24167" lon="2.57432">
        <ele>172</ele>
        <time>2015-01-18T10:36:09Z</time>
      </trkpt>
      <trkpt lat="49.24163" lon="2.57442">
        <ele>172</ele>
        <time>2015-01-18T10:36:15Z</time>
      </trkpt>
      <trkpt lat="49.2416" lon="2.57454">
        <ele>174</ele>
        <time>2015-01-18T10:36:22Z</time>
      </trkpt>
      <trkpt lat="49.24157" lon="2.57465">
        <ele>173</ele>
        <time>2015-01-18T10:36:28Z</time>
      </trkpt>
      <trkpt lat="49.24154" lon="2.57475">
        <ele>174</ele>
        <time>2015-01-18T10:36:33Z</time>
      </trkpt>
      <trkpt lat="49.24149" lon="2.57485">
        <ele>172</ele>
        <time>2015-01-18T10:36:39Z</time>
      </trkpt>
      <trkpt lat="49.24145" lon="2.57495">
        <ele>172</ele>
        <time>2015-01-18T10:36:45Z</time>
      </trkpt>
      <trkpt lat="49.24143" lon="2.57503">
        <ele>172</ele>
        <time>2015-01-18T10:36:52Z</time>
      </trkpt>
      <trkpt lat="49.24141" lon="2.57512">
        <ele>174</ele>
        <time>2015-01-18T10:36:59Z</time>
      </trkpt>
      <trkpt lat="49.24135" lon="2.57516">
        <ele>179</ele>
        <time>2015-01-18T10:37:20Z</time>
      </trkpt>
      <trkpt lat="49.24127" lon="2.5751">
        <ele>180</ele>
        <time>2015-01-18T10:37:25Z</time>
      </trkpt>
      <trkpt lat="49.24121" lon="2.57502">
        <ele>180</ele>
        <time>2015-01-18T10:37:31Z</time>
      </trkpt>
      <trkpt lat="49.24114" lon="2.57496">
        <ele>179</ele>
        <time>2015-01-18T10:37:37Z</time>
      </trkpt>
      <trkpt lat="49.24108" lon="2.5749">
        <ele>180</ele>
        <time>2015-01-18T10:37:43Z</time>
      </trkpt>
      <trkpt lat="49.24101" lon="2.57482">
        <ele>180</ele>
        <time>2015-01-18T10:37:49Z</time>
      </trkpt>
      <trkpt lat="49.24096" lon="2.57474">
        <ele>181</ele>
        <time>2015-01-18T10:37:54Z</time>
      </trkpt>
      <trkpt lat="49.24092" lon="2.57464">
        <ele>181</ele>
        <time>2015-01-18T10:37:59Z</time>
      </trkpt>
      <trkpt lat="49.24086" lon="2.57456">
        <ele>181</ele>
        <time>2015-01-18T10:38:05Z</time>
      </trkpt>
      <trkpt lat="49.24079" lon="2.57449">
        <ele>180</ele>
        <time>2015-01-18T10:38:12Z</time>
      </trkpt>
      <trkpt lat="49.24072" lon="2.57443">
        <ele>180</ele>
        <time>2015-01-18T10:38:18Z</time>
      </trkpt>
      <trkpt lat="49.24066" lon="2.57439">
        <ele>182</ele>
        <time>2015-01-18T10:38:24Z</time>
      </trkpt>
      <trkpt lat="49.24059" lon="2.57433">
        <ele>181</ele>
        <time>2015-01-18T10:38:31Z</time>
      </trkpt>
      <trkpt lat="49.24052" lon="2.57428">
        <ele>181</ele>
        <time>2015-01-18T10:38:37Z</time>
      </trkpt>
      <trkpt lat="49.24046" lon="2.57421">
        <ele>180</ele>
        <time>2015-01-18T10:38:43Z</time>
      </trkpt>
      <trkpt lat="49.24039" lon="2.57416">
        <ele>180</ele>
        <time>2015-01-18T10:38:49Z</time>
      </trkpt>
      <trkpt lat="49.24032" lon="2.57412">
        <ele>181</ele>
        <time>2015-01-18T10:38:54Z</time>
      </trkpt>
      <trkpt lat="49.24024" lon="2.57406">
        <ele>180</ele>
        <time>2015-01-18T10:39:00Z</time>
      </trkpt>
      <trkpt lat="49.24018" lon="2.574">
        <ele>179</ele>
        <time>2015-01-18T10:39:06Z</time>
      </trkpt>
      <trkpt lat="49.24011" lon="2.57393">
        <ele>179</ele>
        <time>2015-01-18T10:39:12Z</time>
      </trkpt>
      <trkpt lat="49.24006" lon="2.57386">
        <ele>177</ele>
        <time>2015-01-18T10:39:19Z</time>
      </trkpt>
      <trkpt lat="49.24" lon="2.5738">
        <ele>176</ele>
        <time>2015-01-18T10:39:26Z</time>
      </trkpt>
      <trkpt lat="49.23994" lon="2.57374">
        <ele>176</ele>
        <time>2015-01-18T10:39:33Z</time>
      </trkpt>
      <trkpt lat="49.2399" lon="2.57369">
        <ele>173</ele>
        <time>2015-01-18T10:39:40Z</time>
      </trkpt>
      <trkpt lat="49.23985" lon="2.57366">
        <ele>168</ele>
        <time>2015-01-18T10:39:47Z</time>
      </trkpt>
      <trkpt lat="49.2398" lon="2.57361">
        <ele>170</ele>
        <time>2015-01-18T10:39:54Z</time>
      </trkpt>
      <trkpt lat="49.23974" lon="2.57356">
        <ele>169</ele>
        <time>2015-01-18T10:40:01Z</time>
      </trkpt>
      <trkpt lat="49.23966" lon="2.57351">
        <ele>169</ele>
        <time>2015-01-18T10:40:08Z</time>
      </trkpt>
      <trkpt lat="49.23961" lon="2.57346">
        <ele>169</ele>
        <time>2015-01-18T10:40:15Z</time>
      </trkpt>
      <trkpt lat="49.23953" lon="2.57341">
        <ele>169</ele>
        <time>2015-01-18T10:40:22Z</time>
      </trkpt>
      <trkpt lat="49.23947" lon="2.57337">
        <ele>169</ele>
        <time>2015-01-18T10:40:29Z</time>
      </trkpt>
      <trkpt lat="49.23941" lon="2.57331">
        <ele>169</ele>
        <time>2015-01-18T10:40:36Z</time>
      </trkpt>
      <trkpt lat="49.23936" lon="2.57324">
        <ele>168</ele>
        <time>2015-01-18T10:40:43Z</time>
      </trkpt>
      <trkpt lat="49.2393" lon="2.57319">
        <ele>164</ele>
        <time>2015-01-18T10:40:50Z</time>
      </trkpt>
      <trkpt lat="49.23926" lon="2.57313">
        <ele>162</ele>
        <time>2015-01-18T10:40:57Z</time>
      </trkpt>
      <trkpt lat="49.23919" lon="2.57306">
        <ele>165</ele>
        <time>2015-01-18T10:41:04Z</time>
      </trkpt>
      <trkpt lat="49.23911" lon="2.57302">
        <ele>167</ele>
        <time>2015-01-18T10:41:11Z</time>
      </trkpt>
      <trkpt lat="49.23904" lon="2.57296">
        <ele>164</ele>
        <time>2015-01-18T10:41:18Z</time>
      </trkpt>
      <trkpt lat="49.23897" lon="2.57292">
        <ele>165</ele>
        <time>2015-01-18T10:41:24Z</time>
      </trkpt>
      <trkpt lat="49.2389" lon="2.57288">
        <ele>161</ele>
        <time>2015-01-18T10:41:31Z</time>
      </trkpt>
      <trkpt lat="49.23883" lon="2.57283">
        <ele>159</ele>
        <time>2015-01-18T10:41:38Z</time>
      </trkpt>
      <trkpt lat="49.23876" lon="2.57279">
        <ele>159</ele>
        <time>2015-01-18T10:41:44Z</time>
      </trkpt>
      <trkpt lat="49.23869" lon="2.57274">
        <ele>158</ele>
        <time>2015-01-18T10:41:50Z</time>
      </trkpt>
      <trkpt lat="49.23864" lon="2.57269">
        <ele>155</ele>
        <time>2015-01-18T10:41:57Z</time>
      </trkpt>
      <trkpt lat="49.23856" lon="2.57271">
        <ele>156</ele>
        <time>2015-01-18T10:42:03Z</time>
      </trkpt>
      <trkpt lat="49.23848" lon="2.57272">
        <ele>152</ele>
        <time>2015-01-18T10:42:10Z</time>
      </trkpt>
      <trkpt lat="49.23842" lon="2.57269">
        <ele>156</ele>
        <time>2015-01-18T10:42:17Z</time>
      </trkpt>
      <trkpt lat="49.23836" lon="2.57262">
        <ele>157</ele>
        <time>2015-01-18T10:42:24Z</time>
      </trkpt>
      <trkpt lat="49.2383" lon="2.57256">
        <ele>161</ele>
        <time>2015-01-18T10:42:30Z</time>
      </trkpt>
      <trkpt lat="49.23822" lon="2.57249">
        <ele>165</ele>
        <time>2015-01-18T10:42:37Z</time>
      </trkpt>
      <trkpt lat="49.23815" lon="2.57243">
        <ele>163</ele>
        <time>2015-01-18T10:42:43Z</time>
      </trkpt>
      <trkpt lat="49.23809" lon="2.57236">
        <ele>164</ele>
        <time>2015-01-18T10:42:49Z</time>
      </trkpt>
      <trkpt lat="49.23803" lon="2.57229">
        <ele>164</ele>
        <time>2015-01-18T10:42:55Z</time>
      </trkpt>
      <trkpt lat="49.23796" lon="2.57223">
        <ele>161</ele>
        <time>2015-01-18T10:43:01Z</time>
      </trkpt>
      <trkpt lat="49.23789" lon="2.57217">
        <ele>161</ele>
        <time>2015-01-18T10:43:08Z</time>
      </trkpt>
      <trkpt lat="49.23782" lon="2.57212">
        <ele>159</ele>
        <time>2015-01-18T10:43:14Z</time>
      </trkpt>
      <trkpt lat="49.23776" lon="2.57207">
        <ele>159</ele>
        <time>2015-01-18T10:43:20Z</time>
      </trkpt>
      <trkpt lat="49.2377" lon="2.57201">
        <ele>153</ele>
        <time>2015-01-18T10:43:27Z</time>
      </trkpt>
      <trkpt lat="49.23763" lon="2.57196">
        <ele>155</ele>
        <time>2015-01-18T10:43:34Z</time>
      </trkpt>
      <trkpt lat="49.23756" lon="2.57192">
        <ele>156</ele>
        <time>2015-01-18T10:43:41Z</time>
      </trkpt>
      <trkpt lat="49.23749" lon="2.57191">
        <ele>155</ele>
        <time>2015-01-18T10:43:48Z</time>
      </trkpt>
      <trkpt lat="49.23743" lon="2.57193">
        <ele>156</ele>
        <time>2015-01-18T10:43:55Z</time>
      </trkpt>
      <trkpt lat="49.23735" lon="2.57191">
        <ele>154</ele>
        <time>2015-01-18T10:44:02Z</time>
      </trkpt>
      <trkpt lat="49.23727" lon="2.57192">
        <ele>155</ele>
        <time>2015-01-18T10:44:09Z</time>
      </trkpt>
      <trkpt lat="49.2372" lon="2.57192">
        <ele>157</ele>
        <time>2015-01-18T10:44:14Z</time>
      </trkpt>
      <trkpt lat="49.23712" lon="2.57194">
        <ele>160</ele>
        <time>2015-01-18T10:44:18Z</time>
      </trkpt>
      <trkpt lat="49.23704" lon="2.57198">
        <ele>162</ele>
        <time>2015-01-18T10:44:23Z</time>
      </trkpt>
      <trkpt lat="49.23697" lon="2.57202">
        <ele>157</ele>
        <time>2015-01-18T10:44:29Z</time>
      </trkpt>
      <trkpt lat="49.23689" lon="2.57204">
        <ele>157</ele>
        <time>2015-01-18T10:44:34Z</time>
      </trkpt>
      <trkpt lat="49.23681" lon="2.5721">
        <ele>158</ele>
        <time>2015-01-18T10:44:40Z</time>
      </trkpt>
      <trkpt lat="49.23674" lon="2.57213">
        <ele>156</ele>
        <time>2015-01-18T10:44:47Z</time>
      </trkpt>
      <trkpt lat="49.23667" lon="2.5722">
        <ele>156</ele>
        <time>2015-01-18T10:44:54Z</time>
      </trkpt>
      <trkpt lat="49.23661" lon="2.57228">
        <ele>155</ele>
        <time>2015-01-18T10:45:01Z</time>
      </trkpt>
      <trkpt lat="49.23653" lon="2.57231">
        <ele>154</ele>
        <time>2015-01-18T10:45:08Z</time>
      </trkpt>
      <trkpt lat="49.23646" lon="2.57239">
        <ele>154</ele>
        <time>2015-01-18T10:45:15Z</time>
      </trkpt>
      <trkpt lat="49.2364" lon="2.57245">
        <ele>153</ele>
        <time>2015-01-18T10:45:21Z</time>
      </trkpt>
      <trkpt lat="49.23635" lon="2.57253">
        <ele>149</ele>
        <time>2015-01-18T10:45:28Z</time>
      </trkpt>
      <trkpt lat="49.23627" lon="2.57255">
        <ele>150</ele>
        <time>2015-01-18T10:45:35Z</time>
      </trkpt>
      <trkpt lat="49.2362" lon="2.5726">
        <ele>150</ele>
        <time>2015-01-18T10:45:42Z</time>
      </trkpt>
      <trkpt lat="49.23614" lon="2.57265">
        <ele>150</ele>
        <time>2015-01-18T10:45:49Z</time>
      </trkpt>
      <trkpt lat="49.23613" lon="2.57265">
        <ele>150</ele>
        <time>2015-01-18T10:45:56Z</time>
      </trkpt>
      <trkpt lat="49.2361" lon="2.57271">
        <ele>151</ele>
        <time>2015-01-18T10:46:03Z</time>
      </trkpt>
      <trkpt lat="49.23603" lon="2.57279">
        <ele>152</ele>
        <time>2015-01-18T10:46:10Z</time>
      </trkpt>
      <trkpt lat="49.23597" lon="2.57286">
        <ele>151</ele>
        <time>2015-01-18T10:46:16Z</time>
      </trkpt>
      <trkpt lat="49.2359" lon="2.5729">
        <ele>153</ele>
        <time>2015-01-18T10:46:22Z</time>
      </trkpt>
      <trkpt lat="49.23586" lon="2.57286">
        <ele>150</ele>
        <time>2015-01-18T10:46:29Z</time>
      </trkpt>
      <trkpt lat="49.23583" lon="2.57286">
        <ele>151</ele>
        <time>2015-01-18T10:46:36Z</time>
      </trkpt>
      <trkpt lat="49.23581" lon="2.57286">
        <ele>154</ele>
        <time>2015-01-18T10:46:43Z</time>
      </trkpt>
      <trkpt lat="49.23576" lon="2.57285">
        <ele>151</ele>
        <time>2015-01-18T10:46:52Z</time>
      </trkpt>
      <trkpt lat="49.23569" lon="2.5729">
        <ele>149</ele>
        <time>2015-01-18T10:46:59Z</time>
      </trkpt>
      <trkpt lat="49.23564" lon="2.57293">
        <ele>148</ele>
        <time>2015-01-18T10:47:06Z</time>
      </trkpt>
      <trkpt lat="49.23556" lon="2.57296">
        <ele>149</ele>
        <time>2015-01-18T10:47:13Z</time>
      </trkpt>
      <trkpt lat="49.23548" lon="2.57299">
        <ele>145</ele>
        <time>2015-01-18T10:47:20Z</time>
      </trkpt>
      <trkpt lat="49.23539" lon="2.57301">
        <ele>145</ele>
        <time>2015-01-18T10:47:26Z</time>
      </trkpt>
      <trkpt lat="49.23532" lon="2.57302">
        <ele>145</ele>
        <time>2015-01-18T10:47:31Z</time>
      </trkpt>
      <trkpt lat="49.23524" lon="2.57302">
        <ele>144</ele>
        <time>2015-01-18T10:47:37Z</time>
      </trkpt>
      <trkpt lat="49.23517" lon="2.57309">
        <ele>147</ele>
        <time>2015-01-18T10:47:43Z</time>
      </trkpt>
      <trkpt lat="49.23509" lon="2.57311">
        <ele>148</ele>
        <time>2015-01-18T10:47:50Z</time>
      </trkpt>
      <trkpt lat="49.235" lon="2.57312">
        <ele>149</ele>
        <time>2015-01-18T10:47:57Z</time>
      </trkpt>
      <trkpt lat="49.23494" lon="2.5731">
        <ele>151</ele>
        <time>2015-01-18T10:48:04Z</time>
      </trkpt>
      <trkpt lat="49.23487" lon="2.5731">
        <ele>151</ele>
        <time>2015-01-18T10:48:11Z</time>
      </trkpt>
      <trkpt lat="49.2348" lon="2.57309">
        <ele>149</ele>
        <time>2015-01-18T10:48:18Z</time>
      </trkpt>
      <trkpt lat="49.23472" lon="2.5731">
        <ele>146</ele>
        <time>2015-01-18T10:48:24Z</time>
      </trkpt>
      <trkpt lat="49.23465" lon="2.57309">
        <ele>145</ele>
        <time>2015-01-18T10:48:30Z</time>
      </trkpt>
      <trkpt lat="49.23458" lon="2.57308">
        <ele>143</ele>
        <time>2015-01-18T10:48:36Z</time>
      </trkpt>
      <trkpt lat="49.23451" lon="2.57304">
        <ele>141</ele>
        <time>2015-01-18T10:48:43Z</time>
      </trkpt>
      <trkpt lat="49.23444" lon="2.57306">
        <ele>139</ele>
        <time>2015-01-18T10:48:50Z</time>
      </trkpt>
      <trkpt lat="49.23437" lon="2.57312">
        <ele>140</ele>
        <time>2015-01-18T10:48:55Z</time>
      </trkpt>
      <trkpt lat="49.2343" lon="2.57317">
        <ele>138</ele>
        <time>2015-01-18T10:49:00Z</time>
      </trkpt>
      <trkpt lat="49.23423" lon="2.57321">
        <ele>138</ele>
        <time>2015-01-18T10:49:05Z</time>
      </trkpt>
      <trkpt lat="49.23416" lon="2.57327">
        <ele>137</ele>
        <time>2015-01-18T10:49:12Z</time>
      </trkpt>
      <trkpt lat="49.23409" lon="2.57332">
        <ele>133</ele>
        <time>2015-01-18T10:49:18Z</time>
      </trkpt>
      <trkpt lat="49.23402" lon="2.57338">
        <ele>131</ele>
        <time>2015-01-18T10:49:25Z</time>
      </trkpt>
      <trkpt lat="49.23396" lon="2.57341">
        <ele>135</ele>
        <time>2015-01-18T10:49:32Z</time>
      </trkpt>
      <trkpt lat="49.23388" lon="2.57345">
        <ele>136</ele>
        <time>2015-01-18T10:49:39Z</time>
      </trkpt>
      <trkpt lat="49.23381" lon="2.57345">
        <ele>136</ele>
        <time>2015-01-18T10:49:46Z</time>
      </trkpt>
      <trkpt lat="49.23375" lon="2.57342">
        <ele>136</ele>
        <time>2015-01-18T10:49:53Z</time>
      </trkpt>
      <trkpt lat="49.23371" lon="2.57341">
        <ele>136</ele>
        <time>2015-01-18T10:50:00Z</time>
      </trkpt>
      <trkpt lat="49.23364" lon="2.57346">
        <ele>136</ele>
        <time>2015-01-18T10:50:05Z</time>
      </trkpt>
      <trkpt lat="49.23356" lon="2.5735">
        <ele>134</ele>
        <time>2015-01-18T10:50:11Z</time>
      </trkpt>
      <trkpt lat="49.23348" lon="2.57353">
        <ele>131</ele>
        <time>2015-01-18T10:50:18Z</time>
      </trkpt>
      <trkpt lat="49.23342" lon="2.57358">
        <ele>133</ele>
        <time>2015-01-18T10:50:24Z</time>
      </trkpt>
      <trkpt lat="49.23335" lon="2.57361">
        <ele>130</ele>
        <time>2015-01-18T10:50:31Z</time>
      </trkpt>
      <trkpt lat="49.23328" lon="2.57367">
        <ele>127</ele>
        <time>2015-01-18T10:50:37Z</time>
      </trkpt>
      <trkpt lat="49.23321" lon="2.57372">
        <ele>129</ele>
        <time>2015-01-18T10:50:42Z</time>
      </trkpt>
      <trkpt lat="49.23314" lon="2.57378">
        <ele>130</ele>
        <time>2015-01-18T10:50:46Z</time>
      </trkpt>
      <trkpt lat="49.23308" lon="2.57382">
        <ele>132</ele>
        <time>2015-01-18T10:50:50Z</time>
      </trkpt>
      <trkpt lat="49.23301" lon="2.57389">
        <ele>135</ele>
        <time>2015-01-18T10:50:55Z</time>
      </trkpt>
      <trkpt lat="49.23295" lon="2.57395">
        <ele>135</ele>
        <time>2015-01-18T10:51:01Z</time>
      </trkpt>
      <trkpt lat="49.23288" lon="2.574">
        <ele>133</ele>
        <time>2015-01-18T10:51:08Z</time>
      </trkpt>
      <trkpt lat="49.23282" lon="2.57401">
        <ele>134</ele>
        <time>2015-01-18T10:51:15Z</time>
      </trkpt>
      <trkpt lat="49.23278" lon="2.57402">
        <ele>133</ele>
        <time>2015-01-18T10:51:22Z</time>
      </trkpt>
      <trkpt lat="49.23271" lon="2.57407">
        <ele>132</ele>
        <time>2015-01-18T10:51:28Z</time>
      </trkpt>
      <trkpt lat="49.23264" lon="2.57413">
        <ele>133</ele>
        <time>2015-01-18T10:51:34Z</time>
      </trkpt>
      <trkpt lat="49.23257" lon="2.57418">
        <ele>133</ele>
        <time>2015-01-18T10:51:39Z</time>
      </trkpt>
      <trkpt lat="49.2325" lon="2.57421">
        <ele>134</ele>
        <time>2015-01-18T10:51:45Z</time>
      </trkpt>
      <trkpt lat="49.23248" lon="2.57426">
        <ele>135</ele>
        <time>2015-01-18T10:51:52Z</time>
      </trkpt>
      <trkpt lat="49.23242" lon="2.5743">
        <ele>135</ele>
        <time>2015-01-18T10:51:59Z</time>
      </trkpt>
      <trkpt lat="49.23235" lon="2.57434">
        <ele>134</ele>
        <time>2015-01-18T10:52:03Z</time>
      </trkpt>
      <trkpt lat="49.23228" lon="2.57437">
        <ele>133</ele>
        <time>2015-01-18T10:52:08Z</time>
      </trkpt>
      <trkpt lat="49.23221" lon="2.57442">
        <ele>134</ele>
        <time>2015-01-18T10:52:13Z</time>
      </trkpt>
      <trkpt lat="49.23214" lon="2.57447">
        <ele>134</ele>
        <time>2015-01-18T10:52:18Z</time>
      </trkpt>
      <trkpt lat="49.23207" lon="2.57451">
        <ele>135</ele>
        <time>2015-01-18T10:52:24Z</time>
      </trkpt>
      <trkpt lat="49.23203" lon="2.57454">
        <ele>138</ele>
        <time>2015-01-18T10:52:31Z</time>
      </trkpt>
      <trkpt lat="49.23193" lon="2.57455">
        <ele>139</ele>
        <time>2015-01-18T10:52:46Z</time>
      </trkpt>
      <trkpt lat="49.23185" lon="2.57457">
        <ele>141</ele>
        <time>2015-01-18T10:52:52Z</time>
      </trkpt>
      <trkpt lat="49.23178" lon="2.57458">
        <ele>136</ele>
        <time>2015-01-18T10:52:59Z</time>
      </trkpt>
      <trkpt lat="49.23172" lon="2.57464">
        <ele>138</ele>
        <time>2015-01-18T10:53:06Z</time>
      </trkpt>
      <trkpt lat="49.23164" lon="2.57471">
        <ele>138</ele>
        <time>2015-01-18T10:53:13Z</time>
      </trkpt>
      <trkpt lat="49.23157" lon="2.57475">
        <ele>136</ele>
        <time>2015-01-18T10:53:19Z</time>
      </trkpt>
      <trkpt lat="49.23149" lon="2.57478">
        <ele>137</ele>
        <time>2015-01-18T10:53:25Z</time>
      </trkpt>
      <trkpt lat="49.23142" lon="2.57482">
        <ele>137</ele>
        <time>2015-01-18T10:53:31Z</time>
      </trkpt>
      <trkpt lat="49.23135" lon="2.57479">
        <ele>134</ele>
        <time>2015-01-18T10:53:37Z</time>
      </trkpt>
      <trkpt lat="49.23129" lon="2.57485">
        <ele>136</ele>
        <time>2015-01-18T10:53:42Z</time>
      </trkpt>
      <trkpt lat="49.23121" lon="2.5749">
        <ele>134</ele>
        <time>2015-01-18T10:53:49Z</time>
      </trkpt>
      <trkpt lat="49.23115" lon="2.57496">
        <ele>134</ele>
        <time>2015-01-18T10:53:55Z</time>
      </trkpt>
      <trkpt lat="49.23109" lon="2.575">
        <ele>134</ele>
        <time>2015-01-18T10:54:02Z</time>
      </trkpt>
      <trkpt lat="49.23106" lon="2.57496">
        <ele>133</ele>
        <time>2015-01-18T10:54:09Z</time>
      </trkpt>
      <trkpt lat="49.23098" lon="2.57494">
        <ele>127</ele>
        <time>2015-01-18T10:54:16Z</time>
      </trkpt>
      <trkpt lat="49.2309" lon="2.57494">
        <ele>128</ele>
        <time>2015-01-18T10:54:22Z</time>
      </trkpt>
      <trkpt lat="49.23083" lon="2.57491">
        <ele>128</ele>
        <time>2015-01-18T10:54:28Z</time>
      </trkpt>
      <trkpt lat="49.23075" lon="2.5749">
        <ele>128</ele>
        <time>2015-01-18T10:54:34Z</time>
      </trkpt>
      <trkpt lat="49.23067" lon="2.57491">
        <ele>130</ele>
        <time>2015-01-18T10:54:40Z</time>
      </trkpt>
      <trkpt lat="49.23059" lon="2.57492">
        <ele>132</ele>
        <time>2015-01-18T10:54:45Z</time>
      </trkpt>
      <trkpt lat="49.2305" lon="2.57492">
        <ele>135</ele>
        <time>2015-01-18T10:54:50Z</time>
      </trkpt>
      <trkpt lat="49.23042" lon="2.57491">
        <ele>138</ele>
        <time>2015-01-18T10:54:55Z</time>
      </trkpt>
      <trkpt lat="49.23034" lon="2.57491">
        <ele>140</ele>
        <time>2015-01-18T10:55:00Z</time>
      </trkpt>
      <trkpt lat="49.23029" lon="2.57493">
        <ele>138</ele>
        <time>2015-01-18T10:55:07Z</time>
      </trkpt>
      <trkpt lat="49.23022" lon="2.57493">
        <ele>140</ele>
        <time>2015-01-18T10:55:14Z</time>
      </trkpt>
      <trkpt lat="49.23016" lon="2.57492">
        <ele>141</ele>
        <time>2015-01-18T10:55:21Z</time>
      </trkpt>
      <trkpt lat="49.23009" lon="2.57493">
        <ele>144</ele>
        <time>2015-01-18T10:55:27Z</time>
      </trkpt>
      <trkpt lat="49.23008" lon="2.57492">
        <ele>144</ele>
        <time>2015-01-18T10:55:34Z</time>
      </trkpt>
      <trkpt lat="49.23015" lon="2.57493">
        <ele>145</ele>
        <time>2015-01-18T10:55:41Z</time>
      </trkpt>
      <trkpt lat="49.23012" lon="2.57491">
        <ele>142</ele>
        <time>2015-01-18T10:55:48Z</time>
      </trkpt>
      <trkpt lat="49.23004" lon="2.57488">
        <ele>146</ele>
        <time>2015-01-18T10:55:54Z</time>
      </trkpt>
      <trkpt lat="49.22997" lon="2.57484">
        <ele>151</ele>
        <time>2015-01-18T10:56:01Z</time>
      </trkpt>
      <trkpt lat="49.22988" lon="2.57484">
        <ele>149</ele>
        <time>2015-01-18T10:56:08Z</time>
      </trkpt>
      <trkpt lat="49.22981" lon="2.57489">
        <ele>142</ele>
        <time>2015-01-18T10:56:14Z</time>
      </trkpt>
      <trkpt lat="49.22976" lon="2.57489">
        <ele>141</ele>
        <time>2015-01-18T10:56:21Z</time>
      </trkpt>
      <trkpt lat="49.22969" lon="2.57486">
        <ele>141</ele>
        <time>2015-01-18T10:56:27Z</time>
      </trkpt>
      <trkpt lat="49.22961" lon="2.57485">
        <ele>138</ele>
        <time>2015-01-18T10:56:33Z</time>
      </trkpt>
      <trkpt lat="49.22954" lon="2.57481">
        <ele>138</ele>
        <time>2015-01-18T10:56:40Z</time>
      </trkpt>
      <trkpt lat="49.22946" lon="2.57479">
        <ele>140</ele>
        <time>2015-01-18T10:56:46Z</time>
      </trkpt>
      <trkpt lat="49.22938" lon="2.57478">
        <ele>140</ele>
        <time>2015-01-18T10:56:52Z</time>
      </trkpt>
      <trkpt lat="49.2294" lon="2.57475">
        <ele>139</ele>
        <time>2015-01-18T10:56:59Z</time>
      </trkpt>
      <trkpt lat="49.22935" lon="2.57474">
        <ele>139</ele>
        <time>2015-01-18T10:57:06Z</time>
      </trkpt>
      <trkpt lat="49.22928" lon="2.57474">
        <ele>140</ele>
        <time>2015-01-18T10:57:12Z</time>
      </trkpt>
      <trkpt lat="49.22923" lon="2.57471">
        <ele>142</ele>
        <time>2015-01-18T10:57:19Z</time>
      </trkpt>
      <trkpt lat="49.22917" lon="2.57466">
        <ele>140</ele>
        <time>2015-01-18T10:57:26Z</time>
      </trkpt>
      <trkpt lat="49.2291" lon="2.5746">
        <ele>135</ele>
        <time>2015-01-18T10:57:33Z</time>
      </trkpt>
      <trkpt lat="49.22902" lon="2.5746">
        <ele>136</ele>
        <time>2015-01-18T10:57:39Z</time>
      </trkpt>
      <trkpt lat="49.22894" lon="2.5746">
        <ele>136</ele>
        <time>2015-01-18T10:57:45Z</time>
      </trkpt>
      <trkpt lat="49.22887" lon="2.57464">
        <ele>138</ele>
        <time>2015-01-18T10:57:52Z</time>
      </trkpt>
      <trkpt lat="49.22879" lon="2.57462">
        <ele>141</ele>
        <time>2015-01-18T10:57:59Z</time>
      </trkpt>
      <trkpt lat="49.22874" lon="2.5746">
        <ele>141</ele>
        <time>2015-01-18T10:58:06Z</time>
      </trkpt>
      <trkpt lat="49.22868" lon="2.57455">
        <ele>137</ele>
        <time>2015-01-18T10:58:12Z</time>
      </trkpt>
      <trkpt lat="49.2286" lon="2.57453">
        <ele>140</ele>
        <time>2015-01-18T10:58:18Z</time>
      </trkpt>
      <trkpt lat="49.22853" lon="2.57446">
        <ele>142</ele>
        <time>2015-01-18T10:58:25Z</time>
      </trkpt>
      <trkpt lat="49.2285" lon="2.5744">
        <ele>140</ele>
        <time>2015-01-18T10:58:32Z</time>
      </trkpt>
      <trkpt lat="49.22843" lon="2.57438">
        <ele>140</ele>
        <time>2015-01-18T10:58:39Z</time>
      </trkpt>
      <trkpt lat="49.22836" lon="2.57436">
        <ele>140</ele>
        <time>2015-01-18T10:58:46Z</time>
      </trkpt>
      <trkpt lat="49.2283" lon="2.57428">
        <ele>143</ele>
        <time>2015-01-18T10:58:53Z</time>
      </trkpt>
      <trkpt lat="49.22824" lon="2.5742">
        <ele>147</ele>
        <time>2015-01-18T10:59:00Z</time>
      </trkpt>
      <trkpt lat="49.22818" lon="2.57415">
        <ele>146</ele>
        <time>2015-01-18T10:59:07Z</time>
      </trkpt>
      <trkpt lat="49.22813" lon="2.57408">
        <ele>144</ele>
        <time>2015-01-18T10:59:14Z</time>
      </trkpt>
      <trkpt lat="49.22806" lon="2.57402">
        <ele>141</ele>
        <time>2015-01-18T10:59:21Z</time>
      </trkpt>
      <trkpt lat="49.22799" lon="2.57397">
        <ele>144</ele>
        <time>2015-01-18T10:59:26Z</time>
      </trkpt>
      <trkpt lat="49.22793" lon="2.57391">
        <ele>144</ele>
        <time>2015-01-18T10:59:31Z</time>
      </trkpt>
      <trkpt lat="49.22786" lon="2.57387">
        <ele>145</ele>
        <time>2015-01-18T10:59:37Z</time>
      </trkpt>
      <trkpt lat="49.22778" lon="2.57382">
        <ele>147</ele>
        <time>2015-01-18T10:59:44Z</time>
      </trkpt>
      <trkpt lat="49.22773" lon="2.57378">
        <ele>146</ele>
        <time>2015-01-18T10:59:51Z</time>
      </trkpt>
      <trkpt lat="49.22765" lon="2.5738">
        <ele>145</ele>
        <time>2015-01-18T10:59:57Z</time>
      </trkpt>
      <trkpt lat="49.22757" lon="2.57377">
        <ele>147</ele>
        <time>2015-01-18T11:00:03Z</time>
      </trkpt>
      <trkpt lat="49.2275" lon="2.57376">
        <ele>146</ele>
        <time>2015-01-18T11:00:08Z</time>
      </trkpt>
      <trkpt lat="49.22741" lon="2.57375">
        <ele>145</ele>
        <time>2015-01-18T11:00:15Z</time>
      </trkpt>
      <trkpt lat="49.22733" lon="2.57376">
        <ele>144</ele>
        <time>2015-01-18T11:00:20Z</time>
      </trkpt>
      <trkpt lat="49.22726" lon="2.57374">
        <ele>142</ele>
        <time>2015-01-18T11:00:27Z</time>
      </trkpt>
      <trkpt lat="49.22718" lon="2.57375">
        <ele>142</ele>
        <time>2015-01-18T11:00:34Z</time>
      </trkpt>
      <trkpt lat="49.22711" lon="2.57377">
        <ele>139</ele>
        <time>2015-01-18T11:00:41Z</time>
      </trkpt>
      <trkpt lat="49.22703" lon="2.57378">
        <ele>141</ele>
        <time>2015-01-18T11:00:46Z</time>
      </trkpt>
      <trkpt lat="49.227" lon="2.57376">
        <ele>141</ele>
        <time>2015-01-18T11:00:53Z</time>
      </trkpt>
      <trkpt lat="49.22704" lon="2.57374">
        <ele>144</ele>
        <time>2015-01-18T11:01:00Z</time>
      </trkpt>
      <trkpt lat="49.22708" lon="2.57369">
        <ele>149</ele>
        <time>2015-01-18T11:01:07Z</time>
      </trkpt>
      <trkpt lat="49.22709" lon="2.57367">
        <ele>150</ele>
        <time>2015-01-18T11:01:14Z</time>
      </trkpt>
      <trkpt lat="49.22713" lon="2.57363">
        <ele>149</ele>
        <time>2015-01-18T11:01:25Z</time>
      </trkpt>
      <trkpt lat="49.2271" lon="2.57369">
        <ele>148</ele>
        <time>2015-01-18T11:02:36Z</time>
      </trkpt>
      <trkpt lat="49.22702" lon="2.57373">
        <ele>145</ele>
        <time>2015-01-18T11:02:41Z</time>
      </trkpt>
      <trkpt lat="49.22694" lon="2.57376">
        <ele>143</ele>
        <time>2015-01-18T11:02:46Z</time>
      </trkpt>
      <trkpt lat="49.22686" lon="2.57381">
        <ele>142</ele>
        <time>2015-01-18T11:02:52Z</time>
      </trkpt>
      <trkpt lat="49.22679" lon="2.57386">
        <ele>139</ele>
        <time>2015-01-18T11:02:58Z</time>
      </trkpt>
      <trkpt lat="49.22672" lon="2.57391">
        <ele>139</ele>
        <time>2015-01-18T11:03:05Z</time>
      </trkpt>
      <trkpt lat="49.22665" lon="2.57396">
        <ele>141</ele>
        <time>2015-01-18T11:03:10Z</time>
      </trkpt>
      <trkpt lat="49.22659" lon="2.57405">
        <ele>142</ele>
        <time>2015-01-18T11:03:15Z</time>
      </trkpt>
      <trkpt lat="49.22653" lon="2.57414">
        <ele>142</ele>
        <time>2015-01-18T11:03:19Z</time>
      </trkpt>
      <trkpt lat="49.22646" lon="2.57419">
        <ele>141</ele>
        <time>2015-01-18T11:03:25Z</time>
      </trkpt>
      <trkpt lat="49.22639" lon="2.57425">
        <ele>137</ele>
        <time>2015-01-18T11:03:32Z</time>
      </trkpt>
      <trkpt lat="49.22633" lon="2.5743">
        <ele>138</ele>
        <time>2015-01-18T11:03:37Z</time>
      </trkpt>
      <trkpt lat="49.22626" lon="2.57435">
        <ele>140</ele>
        <time>2015-01-18T11:03:44Z</time>
      </trkpt>
      <trkpt lat="49.22619" lon="2.5744">
        <ele>139</ele>
        <time>2015-01-18T11:03:51Z</time>
      </trkpt>
      <trkpt lat="49.22615" lon="2.57442">
        <ele>139</ele>
        <time>2015-01-18T11:03:58Z</time>
      </trkpt>
      <trkpt lat="49.22609" lon="2.57445">
        <ele>138</ele>
        <time>2015-01-18T11:04:05Z</time>
      </trkpt>
      <trkpt lat="49.22603" lon="2.57451">
        <ele>138</ele>
        <time>2015-01-18T11:04:12Z</time>
      </trkpt>
      <trkpt lat="49.22596" lon="2.57458">
        <ele>139</ele>
        <time>2015-01-18T11:04:19Z</time>
      </trkpt>
      <trkpt lat="49.2259" lon="2.57464">
        <ele>138</ele>
        <time>2015-01-18T11:04:25Z</time>
      </trkpt>
      <trkpt lat="49.22584" lon="2.57465">
        <ele>139</ele>
        <time>2015-01-18T11:04:32Z</time>
      </trkpt>
      <trkpt lat="49.2258" lon="2.57467">
        <ele>138</ele>
        <time>2015-01-18T11:04:39Z</time>
      </trkpt>
      <trkpt lat="49.22572" lon="2.5747">
        <ele>135</ele>
        <time>2015-01-18T11:04:45Z</time>
      </trkpt>
      <trkpt lat="49.22563" lon="2.57475">
        <ele>137</ele>
        <time>2015-01-18T11:04:51Z</time>
      </trkpt>
      <trkpt lat="49.22557" lon="2.57475">
        <ele>139</ele>
        <time>2015-01-18T11:04:58Z</time>
      </trkpt>
      <trkpt lat="49.22549" lon="2.57479">
        <ele>139</ele>
        <time>2015-01-18T11:05:04Z</time>
      </trkpt>
      <trkpt lat="49.22543" lon="2.57483">
        <ele>137</ele>
        <time>2015-01-18T11:05:09Z</time>
      </trkpt>
      <trkpt lat="49.22535" lon="2.57485">
        <ele>135</ele>
        <time>2015-01-18T11:05:14Z</time>
      </trkpt>
      <trkpt lat="49.22527" lon="2.57486">
        <ele>134</ele>
        <time>2015-01-18T11:05:20Z</time>
      </trkpt>
      <trkpt lat="49.2252" lon="2.57487">
        <ele>132</ele>
        <time>2015-01-18T11:05:27Z</time>
      </trkpt>
      <trkpt lat="49.22512" lon="2.57488">
        <ele>129</ele>
        <time>2015-01-18T11:05:34Z</time>
      </trkpt>
      <trkpt lat="49.22504" lon="2.5749">
        <ele>127</ele>
        <time>2015-01-18T11:05:40Z</time>
      </trkpt>
      <trkpt lat="49.22498" lon="2.57492">
        <ele>127</ele>
        <time>2015-01-18T11:05:47Z</time>
      </trkpt>
      <trkpt lat="49.22495" lon="2.57494">
        <ele>127</ele>
        <time>2015-01-18T11:05:54Z</time>
      </trkpt>
      <trkpt lat="49.22493" lon="2.57493">
        <ele>127</ele>
        <time>2015-01-18T11:06:23Z</time>
      </trkpt>
      <trkpt lat="49.22488" lon="2.57496">
        <ele>126</ele>
        <time>2015-01-18T11:06:30Z</time>
      </trkpt>
      <trkpt lat="49.22481" lon="2.57501">
        <ele>127</ele>
        <time>2015-01-18T11:06:43Z</time>
      </trkpt>
      <trkpt lat="49.22475" lon="2.57507">
        <ele>129</ele>
        <time>2015-01-18T11:06:49Z</time>
      </trkpt>
      <trkpt lat="49.22468" lon="2.57509">
        <ele>131</ele>
        <time>2015-01-18T11:06:56Z</time>
      </trkpt>
      <trkpt lat="49.22462" lon="2.5751">
        <ele>129</ele>
        <time>2015-01-18T11:07:03Z</time>
      </trkpt>
      <trkpt lat="49.22456" lon="2.57511">
        <ele>129</ele>
        <time>2015-01-18T11:07:10Z</time>
      </trkpt>
      <trkpt lat="49.22449" lon="2.57516">
        <ele>128</ele>
        <time>2015-01-18T11:07:16Z</time>
      </trkpt>
      <trkpt lat="49.22441" lon="2.57521">
        <ele>128</ele>
        <time>2015-01-18T11:07:21Z</time>
      </trkpt>
      <trkpt lat="49.22434" lon="2.57527">
        <ele>128</ele>
        <time>2015-01-18T11:07:26Z</time>
      </trkpt>
      <trkpt lat="49.22426" lon="2.57531">
        <ele>128</ele>
        <time>2015-01-18T11:07:31Z</time>
      </trkpt>
      <trkpt lat="49.2242" lon="2.57537">
        <ele>128</ele>
        <time>2015-01-18T11:07:36Z</time>
      </trkpt>
      <trkpt lat="49.22413" lon="2.57541">
        <ele>129</ele>
        <time>2015-01-18T11:07:42Z</time>
      </trkpt>
      <trkpt lat="49.22406" lon="2.57544">
        <ele>131</ele>
        <time>2015-01-18T11:07:49Z</time>
      </trkpt>
      <trkpt lat="49.22401" lon="2.57545">
        <ele>132</ele>
        <time>2015-01-18T11:07:56Z</time>
      </trkpt>
      <trkpt lat="49.22399" lon="2.57547">
        <ele>127</ele>
        <time>2015-01-18T11:08:03Z</time>
      </trkpt>
      <trkpt lat="49.22401" lon="2.57541">
        <ele>128</ele>
        <time>2015-01-18T11:08:10Z</time>
      </trkpt>
      <trkpt lat="49.22401" lon="2.57545">
        <ele>133</ele>
        <time>2015-01-18T11:09:54Z</time>
      </trkpt>
      <trkpt lat="49.22396" lon="2.57548">
        <ele>130</ele>
        <time>2015-01-18T11:10:01Z</time>
      </trkpt>
      <trkpt lat="49.22391" lon="2.57551">
        <ele>128</ele>
        <time>2015-01-18T11:10:08Z</time>
      </trkpt>
      <trkpt lat="49.22387" lon="2.57553">
        <ele>127</ele>
        <time>2015-01-18T11:10:15Z</time>
      </trkpt>
      <trkpt lat="49.22381" lon="2.57556">
        <ele>127</ele>
        <time>2015-01-18T11:10:22Z</time>
      </trkpt>
      <trkpt lat="49.22374" lon="2.57566">
        <ele>128</ele>
        <time>2015-01-18T11:10:29Z</time>
      </trkpt>
      <trkpt lat="49.22366" lon="2.57575">
        <ele>127</ele>
        <time>2015-01-18T11:10:33Z</time>
      </trkpt>
      <trkpt lat="49.2236" lon="2.57579">
        <ele>128</ele>
        <time>2015-01-18T11:10:38Z</time>
      </trkpt>
      <trkpt lat="49.22354" lon="2.5758">
        <ele>127</ele>
        <time>2015-01-18T11:10:45Z</time>
      </trkpt>
      <trkpt lat="49.22348" lon="2.57584">
        <ele>128</ele>
        <time>2015-01-18T11:10:52Z</time>
      </trkpt>
      <trkpt lat="49.2234" lon="2.57586">
        <ele>127</ele>
        <time>2015-01-18T11:10:59Z</time>
      </trkpt>
      <trkpt lat="49.22335" lon="2.57588">
        <ele>128</ele>
        <time>2015-01-18T11:11:06Z</time>
      </trkpt>
      <trkpt lat="49.22327" lon="2.57593">
        <ele>129</ele>
        <time>2015-01-18T11:11:13Z</time>
      </trkpt>
      <trkpt lat="49.2232" lon="2.57597">
        <ele>128</ele>
        <time>2015-01-18T11:11:18Z</time>
      </trkpt>
      <trkpt lat="49.22313" lon="2.57602">
        <ele>127</ele>
        <time>2015-01-18T11:11:24Z</time>
      </trkpt>
      <trkpt lat="49.22306" lon="2.57606">
        <ele>126</ele>
        <time>2015-01-18T11:11:30Z</time>
      </trkpt>
      <trkpt lat="49.22299" lon="2.57612">
        <ele>127</ele>
        <time>2015-01-18T11:11:37Z</time>
      </trkpt>
      <trkpt lat="49.22292" lon="2.57613">
        <ele>126</ele>
        <time>2015-01-18T11:11:44Z</time>
      </trkpt>
      <trkpt lat="49.22285" lon="2.57618">
        <ele>126</ele>
        <time>2015-01-18T11:11:51Z</time>
      </trkpt>
      <trkpt lat="49.22278" lon="2.57622">
        <ele>126</ele>
        <time>2015-01-18T11:11:58Z</time>
      </trkpt>
      <trkpt lat="49.22271" lon="2.57628">
        <ele>127</ele>
        <time>2015-01-18T11:12:04Z</time>
      </trkpt>
      <trkpt lat="49.22263" lon="2.57633">
        <ele>128</ele>
        <time>2015-01-18T11:12:10Z</time>
      </trkpt>
      <trkpt lat="49.22256" lon="2.57638">
        <ele>128</ele>
        <time>2015-01-18T11:12:16Z</time>
      </trkpt>
      <trkpt lat="49.22248" lon="2.57642">
        <ele>129</ele>
        <time>2015-01-18T11:12:22Z</time>
      </trkpt>
      <trkpt lat="49.22241" lon="2.57647">
        <ele>129</ele>
        <time>2015-01-18T11:12:28Z</time>
      </trkpt>
      <trkpt lat="49.22234" lon="2.57652">
        <ele>131</ele>
        <time>2015-01-18T11:12:34Z</time>
      </trkpt>
      <trkpt lat="49.22226" lon="2.57655">
        <ele>130</ele>
        <time>2015-01-18T11:12:40Z</time>
      </trkpt>
      <trkpt lat="49.22218" lon="2.57658">
        <ele>131</ele>
        <time>2015-01-18T11:12:46Z</time>
      </trkpt>
      <trkpt lat="49.2221" lon="2.57663">
        <ele>132</ele>
        <time>2015-01-18T11:12:52Z</time>
      </trkpt>
      <trkpt lat="49.22203" lon="2.57665">
        <ele>130</ele>
        <time>2015-01-18T11:12:59Z</time>
      </trkpt>
      <trkpt lat="49.22196" lon="2.57666">
        <ele>129</ele>
        <time>2015-01-18T11:13:06Z</time>
      </trkpt>
      <trkpt lat="49.22189" lon="2.57671">
        <ele>131</ele>
        <time>2015-01-18T11:13:12Z</time>
      </trkpt>
      <trkpt lat="49.22181" lon="2.57676">
        <ele>130</ele>
        <time>2015-01-18T11:13:18Z</time>
      </trkpt>
      <trkpt lat="49.22174" lon="2.57681">
        <ele>131</ele>
        <time>2015-01-18T11:13:24Z</time>
      </trkpt>
      <trkpt lat="49.22166" lon="2.57685">
        <ele>130</ele>
        <time>2015-01-18T11:13:30Z</time>
      </trkpt>
      <trkpt lat="49.22159" lon="2.57688">
        <ele>129</ele>
        <time>2015-01-18T11:13:36Z</time>
      </trkpt>
      <trkpt lat="49.22152" lon="2.57691">
        <ele>127</ele>
        <time>2015-01-18T11:13:42Z</time>
      </trkpt>
      <trkpt lat="49.22145" lon="2.57692">
        <ele>126</ele>
        <time>2015-01-18T11:13:48Z</time>
      </trkpt>
      <trkpt lat="49.22137" lon="2.57697">
        <ele>128</ele>
        <time>2015-01-18T11:13:54Z</time>
      </trkpt>
      <trkpt lat="49.22131" lon="2.57703">
        <ele>129</ele>
        <time>2015-01-18T11:13:59Z</time>
      </trkpt>
      <trkpt lat="49.22123" lon="2.57706">
        <ele>126</ele>
        <time>2015-01-18T11:14:06Z</time>
      </trkpt>
      <trkpt lat="49.22116" lon="2.5771">
        <ele>126</ele>
        <time>2015-01-18T11:14:12Z</time>
      </trkpt>
      <trkpt lat="49.22109" lon="2.57714">
        <ele>126</ele>
        <time>2015-01-18T11:14:18Z</time>
      </trkpt>
      <trkpt lat="49.22102" lon="2.57719">
        <ele>126</ele>
        <time>2015-01-18T11:14:24Z</time>
      </trkpt>
      <trkpt lat="49.22094" lon="2.57723">
        <ele>126</ele>
        <time>2015-01-18T11:14:30Z</time>
      </trkpt>
      <trkpt lat="49.22086" lon="2.57727">
        <ele>126</ele>
        <time>2015-01-18T11:14:36Z</time>
      </trkpt>
      <trkpt lat="49.22079" lon="2.57731">
        <ele>126</ele>
        <time>2015-01-18T11:14:42Z</time>
      </trkpt>
      <trkpt lat="49.22072" lon="2.57735">
        <ele>126</ele>
        <time>2015-01-18T11:14:48Z</time>
      </trkpt>
      <trkpt lat="49.22065" lon="2.5774">
        <ele>125</ele>
        <time>2015-01-18T11:14:54Z</time>
      </trkpt>
      <trkpt lat="49.22058" lon="2.57745">
        <ele>125</ele>
        <time>2015-01-18T11:15:00Z</time>
      </trkpt>
      <trkpt lat="49.22051" lon="2.57749">
        <ele>125</ele>
        <time>2015-01-18T11:15:06Z</time>
      </trkpt>
      <trkpt lat="49.22043" lon="2.57754">
        <ele>125</ele>
        <time>2015-01-18T11:15:12Z</time>
      </trkpt>
      <trkpt lat="49.22035" lon="2.57758">
        <ele>125</ele>
        <time>2015-01-18T11:15:18Z</time>
      </trkpt>
      <trkpt lat="49.22028" lon="2.57763">
        <ele>126</ele>
        <time>2015-01-18T11:15:24Z</time>
      </trkpt>
      <trkpt lat="49.2202" lon="2.57769">
        <ele>127</ele>
        <time>2015-01-18T11:15:30Z</time>
      </trkpt>
      <trkpt lat="49.22013" lon="2.57773">
        <ele>126</ele>
        <time>2015-01-18T11:15:37Z</time>
      </trkpt>
      <trkpt lat="49.22006" lon="2.57778">
        <ele>125</ele>
        <time>2015-01-18T11:15:43Z</time>
      </trkpt>
      <trkpt lat="49.22" lon="2.57784">
        <ele>124</ele>
        <time>2015-01-18T11:15:48Z</time>
      </trkpt>
      <trkpt lat="49.21992" lon="2.57788">
        <ele>123</ele>
        <time>2015-01-18T11:15:54Z</time>
      </trkpt>
      <trkpt lat="49.21984" lon="2.57792">
        <ele>125</ele>
        <time>2015-01-18T11:16:00Z</time>
      </trkpt>
      <trkpt lat="49.21977" lon="2.57795">
        <ele>124</ele>
        <time>2015-01-18T11:16:06Z</time>
      </trkpt>
      <trkpt lat="49.21969" lon="2.57796">
        <ele>124</ele>
        <time>2015-01-18T11:16:13Z</time>
      </trkpt>
      <trkpt lat="49.21962" lon="2.57799">
        <ele>124</ele>
        <time>2015-01-18T11:16:19Z</time>
      </trkpt>
      <trkpt lat="49.21954" lon="2.57803">
        <ele>124</ele>
        <time>2015-01-18T11:16:25Z</time>
      </trkpt>
      <trkpt lat="49.21946" lon="2.57807">
        <ele>125</ele>
        <time>2015-01-18T11:16:31Z</time>
      </trkpt>
      <trkpt lat="49.21938" lon="2.5781">
        <ele>125</ele>
        <time>2015-01-18T11:16:37Z</time>
      </trkpt>
      <trkpt lat="49.21931" lon="2.57811">
        <ele>123</ele>
        <time>2015-01-18T11:16:43Z</time>
      </trkpt>
      <trkpt lat="49.21923" lon="2.57809">
        <ele>120</ele>
        <time>2015-01-18T11:16:50Z</time>
      </trkpt>
      <trkpt lat="49.21915" lon="2.57806">
        <ele>120</ele>
        <time>2015-01-18T11:16:57Z</time>
      </trkpt>
      <trkpt lat="49.21906" lon="2.57805">
        <ele>120</ele>
        <time>2015-01-18T11:17:03Z</time>
      </trkpt>
      <trkpt lat="49.21898" lon="2.57804">
        <ele>120</ele>
        <time>2015-01-18T11:17:09Z</time>
      </trkpt>
      <trkpt lat="49.21891" lon="2.57804">
        <ele>121</ele>
        <time>2015-01-18T11:17:15Z</time>
      </trkpt>
      <trkpt lat="49.21884" lon="2.578">
        <ele>122</ele>
        <time>2015-01-18T11:17:21Z</time>
      </trkpt>
      <trkpt lat="49.21876" lon="2.57797">
        <ele>122</ele>
        <time>2015-01-18T11:17:27Z</time>
      </trkpt>
      <trkpt lat="49.21869" lon="2.57794">
        <ele>121</ele>
        <time>2015-01-18T11:17:32Z</time>
      </trkpt>
      <trkpt lat="49.21861" lon="2.57792">
        <ele>121</ele>
        <time>2015-01-18T11:17:38Z</time>
      </trkpt>
      <trkpt lat="49.21853" lon="2.5779">
        <ele>121</ele>
        <time>2015-01-18T11:17:43Z</time>
      </trkpt>
      <trkpt lat="49.21846" lon="2.57787">
        <ele>120</ele>
        <time>2015-01-18T11:17:50Z</time>
      </trkpt>
      <trkpt lat="49.21838" lon="2.57786">
        <ele>120</ele>
        <time>2015-01-18T11:17:56Z</time>
      </trkpt>
      <trkpt lat="49.2183" lon="2.57783">
        <ele>119</ele>
        <time>2015-01-18T11:18:02Z</time>
      </trkpt>
      <trkpt lat="49.21822" lon="2.5778">
        <ele>118</ele>
        <time>2015-01-18T11:18:08Z</time>
      </trkpt>
      <trkpt lat="49.21814" lon="2.57776">
        <ele>117</ele>
        <time>2015-01-18T11:18:14Z</time>
      </trkpt>
      <trkpt lat="49.21806" lon="2.57774">
        <ele>118</ele>
        <time>2015-01-18T11:18:20Z</time>
      </trkpt>
      <trkpt lat="49.21799" lon="2.57772">
        <ele>118</ele>
        <time>2015-01-18T11:18:26Z</time>
      </trkpt>
      <trkpt lat="49.21792" lon="2.57769">
        <ele>119</ele>
        <time>2015-01-18T11:18:32Z</time>
      </trkpt>
      <trkpt lat="49.21784" lon="2.57766">
        <ele>118</ele>
        <time>2015-01-18T11:18:39Z</time>
      </trkpt>
      <trkpt lat="49.21775" lon="2.57765">
        <ele>118</ele>
        <time>2015-01-18T11:18:45Z</time>
      </trkpt>
      <trkpt lat="49.21767" lon="2.57764">
        <ele>119</ele>
        <time>2015-01-18T11:18:51Z</time>
      </trkpt>
      <trkpt lat="49.2176" lon="2.57761">
        <ele>117</ele>
        <time>2015-01-18T11:18:57Z</time>
      </trkpt>
      <trkpt lat="49.21752" lon="2.57761">
        <ele>118</ele>
        <time>2015-01-18T11:19:03Z</time>
      </trkpt>
      <trkpt lat="49.21744" lon="2.5776">
        <ele>118</ele>
        <time>2015-01-18T11:19:09Z</time>
      </trkpt>
      <trkpt lat="49.21736" lon="2.5776">
        <ele>118</ele>
        <time>2015-01-18T11:19:15Z</time>
      </trkpt>
      <trkpt lat="49.21728" lon="2.5776">
        <ele>118</ele>
        <time>2015-01-18T11:19:21Z</time>
      </trkpt>
      <trkpt lat="49.21719" lon="2.57758">
        <ele>117</ele>
        <time>2015-01-18T11:19:27Z</time>
      </trkpt>
      <trkpt lat="49.21711" lon="2.57757">
        <ele>117</ele>
        <time>2015-01-18T11:19:33Z</time>
      </trkpt>
      <trkpt lat="49.21703" lon="2.57755">
        <ele>117</ele>
        <time>2015-01-18T11:19:39Z</time>
      </trkpt>
      <trkpt lat="49.21696" lon="2.57754">
        <ele>117</ele>
        <time>2015-01-18T11:19:44Z</time>
      </trkpt>
      <trkpt lat="49.21688" lon="2.57753">
        <ele>116</ele>
        <time>2015-01-18T11:19:50Z</time>
      </trkpt>
      <trkpt lat="49.2168" lon="2.57753">
        <ele>116</ele>
        <time>2015-01-18T11:19:56Z</time>
      </trkpt>
      <trkpt lat="49.21672" lon="2.57754">
        <ele>115</ele>
        <time>2015-01-18T11:20:02Z</time>
      </trkpt>
      <trkpt lat="49.21664" lon="2.57756">
        <ele>116</ele>
        <time>2015-01-18T11:20:08Z</time>
      </trkpt>
      <trkpt lat="49.21656" lon="2.57757">
        <ele>116</ele>
        <time>2015-01-18T11:20:14Z</time>
      </trkpt>
      <trkpt lat="49.21648" lon="2.57759">
        <ele>117</ele>
        <time>2015-01-18T11:20:20Z</time>
      </trkpt>
      <trkpt lat="49.21641" lon="2.57763">
        <ele>118</ele>
        <time>2015-01-18T11:20:25Z</time>
      </trkpt>
      <trkpt lat="49.21634" lon="2.57767">
        <ele>120</ele>
        <time>2015-01-18T11:20:30Z</time>
      </trkpt>
      <trkpt lat="49.21627" lon="2.57771">
        <ele>121</ele>
        <time>2015-01-18T11:20:35Z</time>
      </trkpt>
      <trkpt lat="49.2162" lon="2.57775">
        <ele>121</ele>
        <time>2015-01-18T11:20:41Z</time>
      </trkpt>
      <trkpt lat="49.21612" lon="2.57777">
        <ele>120</ele>
        <time>2015-01-18T11:20:47Z</time>
      </trkpt>
      <trkpt lat="49.21604" lon="2.57779">
        <ele>120</ele>
        <time>2015-01-18T11:20:54Z</time>
      </trkpt>
      <trkpt lat="49.21597" lon="2.57784">
        <ele>120</ele>
        <time>2015-01-18T11:21:01Z</time>
      </trkpt>
      <trkpt lat="49.21591" lon="2.57787">
        <ele>117</ele>
        <time>2015-01-18T11:21:08Z</time>
      </trkpt>
      <trkpt lat="49.21585" lon="2.57789">
        <ele>116</ele>
        <time>2015-01-18T11:21:15Z</time>
      </trkpt>
      <trkpt lat="49.21577" lon="2.57792">
        <ele>115</ele>
        <time>2015-01-18T11:21:22Z</time>
      </trkpt>
      <trkpt lat="49.2157" lon="2.57795">
        <ele>114</ele>
        <time>2015-01-18T11:21:28Z</time>
      </trkpt>
      <trkpt lat="49.21563" lon="2.57798">
        <ele>115</ele>
        <time>2015-01-18T11:21:34Z</time>
      </trkpt>
      <trkpt lat="49.21555" lon="2.57802">
        <ele>113</ele>
        <time>2015-01-18T11:21:41Z</time>
      </trkpt>
      <trkpt lat="49.21547" lon="2.57807">
        <ele>113</ele>
        <time>2015-01-18T11:21:48Z</time>
      </trkpt>
      <trkpt lat="49.2154" lon="2.5781">
        <ele>113</ele>
        <time>2015-01-18T11:21:54Z</time>
      </trkpt>
      <trkpt lat="49.21533" lon="2.57813">
        <ele>113</ele>
        <time>2015-01-18T11:22:00Z</time>
      </trkpt>
      <trkpt lat="49.21526" lon="2.57818">
        <ele>113</ele>
        <time>2015-01-18T11:22:06Z</time>
      </trkpt>
      <trkpt lat="49.21519" lon="2.57823">
        <ele>113</ele>
        <time>2015-01-18T11:22:13Z</time>
      </trkpt>
      <trkpt lat="49.21512" lon="2.57827">
        <ele>112</ele>
        <time>2015-01-18T11:22:20Z</time>
      </trkpt>
      <trkpt lat="49.21505" lon="2.57829">
        <ele>112</ele>
        <time>2015-01-18T11:22:26Z</time>
      </trkpt>
      <trkpt lat="49.21497" lon="2.57833">
        <ele>112</ele>
        <time>2015-01-18T11:22:32Z</time>
      </trkpt>
      <trkpt lat="49.2149" lon="2.57834">
        <ele>112</ele>
        <time>2015-01-18T11:22:38Z</time>
      </trkpt>
      <trkpt lat="49.21481" lon="2.57837">
        <ele>112</ele>
        <time>2015-01-18T11:22:45Z</time>
      </trkpt>
      <trkpt lat="49.21473" lon="2.57838">
        <ele>112</ele>
        <time>2015-01-18T11:22:52Z</time>
      </trkpt>
      <trkpt lat="49.21467" lon="2.57839">
        <ele>110</ele>
        <time>2015-01-18T11:22:59Z</time>
      </trkpt>
      <trkpt lat="49.2146" lon="2.57839">
        <ele>109</ele>
        <time>2015-01-18T11:23:06Z</time>
      </trkpt>
      <trkpt lat="49.21452" lon="2.5784">
        <ele>107</ele>
        <time>2015-01-18T11:23:13Z</time>
      </trkpt>
      <trkpt lat="49.21444" lon="2.5784">
        <ele>107</ele>
        <time>2015-01-18T11:23:18Z</time>
      </trkpt>
      <trkpt lat="49.21437" lon="2.57841">
        <ele>106</ele>
        <time>2015-01-18T11:23:23Z</time>
      </trkpt>
      <trkpt lat="49.21429" lon="2.57842">
        <ele>107</ele>
        <time>2015-01-18T11:23:28Z</time>
      </trkpt>
      <trkpt lat="49.21421" lon="2.57845">
        <ele>106</ele>
        <time>2015-01-18T11:23:35Z</time>
      </trkpt>
      <trkpt lat="49.21413" lon="2.57849">
        <ele>106</ele>
        <time>2015-01-18T11:23:42Z</time>
      </trkpt>
      <trkpt lat="49.21406" lon="2.57852">
        <ele>104</ele>
        <time>2015-01-18T11:23:48Z</time>
      </trkpt>
      <trkpt lat="49.21399" lon="2.57855">
        <ele>104</ele>
        <time>2015-01-18T11:23:54Z</time>
      </trkpt>
      <trkpt lat="49.21391" lon="2.5786">
        <ele>105</ele>
        <time>2015-01-18T11:24:00Z</time>
      </trkpt>
      <trkpt lat="49.21384" lon="2.57864">
        <ele>103</ele>
        <time>2015-01-18T11:24:06Z</time>
      </trkpt>
      <trkpt lat="49.21377" lon="2.57869">
        <ele>102</ele>
        <time>2015-01-18T11:24:12Z</time>
      </trkpt>
      <trkpt lat="49.21371" lon="2.57875">
        <ele>102</ele>
        <time>2015-01-18T11:24:18Z</time>
      </trkpt>
      <trkpt lat="49.21364" lon="2.57882">
        <ele>101</ele>
        <time>2015-01-18T11:24:24Z</time>
      </trkpt>
      <trkpt lat="49.21358" lon="2.57889">
        <ele>101</ele>
        <time>2015-01-18T11:24:30Z</time>
      </trkpt>
      <trkpt lat="49.21352" lon="2.57897">
        <ele>102</ele>
        <time>2015-01-18T11:24:35Z</time>
      </trkpt>
      <trkpt lat="49.21345" lon="2.57904">
        <ele>102</ele>
        <time>2015-01-18T11:24:41Z</time>
      </trkpt>
      <trkpt lat="49.21338" lon="2.57909">
        <ele>102</ele>
        <time>2015-01-18T11:24:47Z</time>
      </trkpt>
      <trkpt lat="49.21331" lon="2.57915">
        <ele>102</ele>
        <time>2015-01-18T11:24:53Z</time>
      </trkpt>
      <trkpt lat="49.21325" lon="2.57921">
        <ele>97</ele>
        <time>2015-01-18T11:25:00Z</time>
      </trkpt>
      <trkpt lat="49.21319" lon="2.57927">
        <ele>97</ele>
        <time>2015-01-18T11:25:07Z</time>
      </trkpt>
      <trkpt lat="49.21312" lon="2.57934">
        <ele>96</ele>
        <time>2015-01-18T11:25:14Z</time>
      </trkpt>
      <trkpt lat="49.21304" lon="2.57938">
        <ele>98</ele>
        <time>2015-01-18T11:25:20Z</time>
      </trkpt>
      <trkpt lat="49.21297" lon="2.57942">
        <ele>99</ele>
        <time>2015-01-18T11:25:25Z</time>
      </trkpt>
      <trkpt lat="49.21289" lon="2.57944">
        <ele>97</ele>
        <time>2015-01-18T11:25:31Z</time>
      </trkpt>
      <trkpt lat="49.21282" lon="2.57946">
        <ele>99</ele>
        <time>2015-01-18T11:25:37Z</time>
      </trkpt>
      <trkpt lat="49.21274" lon="2.57948">
        <ele>97</ele>
        <time>2015-01-18T11:25:44Z</time>
      </trkpt>
      <trkpt lat="49.21267" lon="2.57953">
        <ele>97</ele>
        <time>2015-01-18T11:25:50Z</time>
      </trkpt>
      <trkpt lat="49.2126" lon="2.57958">
        <ele>97</ele>
        <time>2015-01-18T11:25:55Z</time>
      </trkpt>
      <trkpt lat="49.21253" lon="2.57963">
        <ele>96</ele>
        <time>2015-01-18T11:26:01Z</time>
      </trkpt>
      <trkpt lat="49.21246" lon="2.57968">
        <ele>96</ele>
        <time>2015-01-18T11:26:08Z</time>
      </trkpt>
      <trkpt lat="49.21238" lon="2.57973">
        <ele>94</ele>
        <time>2015-01-18T11:26:15Z</time>
      </trkpt>
      <trkpt lat="49.21232" lon="2.57977">
        <ele>95</ele>
        <time>2015-01-18T11:26:21Z</time>
      </trkpt>
      <trkpt lat="49.21225" lon="2.57982">
        <ele>95</ele>
        <time>2015-01-18T11:26:27Z</time>
      </trkpt>
      <trkpt lat="49.21217" lon="2.57988">
        <ele>96</ele>
        <time>2015-01-18T11:26:33Z</time>
      </trkpt>
      <trkpt lat="49.21211" lon="2.57993">
        <ele>97</ele>
        <time>2015-01-18T11:26:39Z</time>
      </trkpt>
      <trkpt lat="49.21204" lon="2.57999">
        <ele>95</ele>
        <time>2015-01-18T11:26:46Z</time>
      </trkpt>
      <trkpt lat="49.21199" lon="2.58004">
        <ele>93</ele>
        <time>2015-01-18T11:26:53Z</time>
      </trkpt>
      <trkpt lat="49.21194" lon="2.58009">
        <ele>93</ele>
        <time>2015-01-18T11:27:00Z</time>
      </trkpt>
      <trkpt lat="49.2119" lon="2.58013">
        <ele>98</ele>
        <time>2015-01-18T11:27:15Z</time>
      </trkpt>
      <trkpt lat="49.2119" lon="2.58021">
        <ele>97</ele>
        <time>2015-01-18T11:27:43Z</time>
      </trkpt>
      <trkpt lat="49.21193" lon="2.58027">
        <ele>98</ele>
        <time>2015-01-18T11:27:50Z</time>
      </trkpt>
      <trkpt lat="49.21196" lon="2.58031">
        <ele>98</ele>
        <time>2015-01-18T11:27:57Z</time>
      </trkpt>
      <trkpt lat="49.212" lon="2.58034">
        <ele>100</ele>
        <time>2015-01-18T11:28:04Z</time>
      </trkpt>
      <trkpt lat="49.212" lon="2.58035">
        <ele>98</ele>
        <time>2015-01-18T11:28:11Z</time>
      </trkpt>
      <trkpt lat="49.21198" lon="2.58029">
        <ele>97</ele>
        <time>2015-01-18T11:28:18Z</time>
      </trkpt>
      <trkpt lat="49.21191" lon="2.58021">
        <ele>100</ele>
        <time>2015-01-18T11:28:24Z</time>
      </trkpt>
      <trkpt lat="49.21187" lon="2.58011">
        <ele>102</ele>
        <time>2015-01-18T11:28:31Z</time>
      </trkpt>
      <trkpt lat="49.2119" lon="2.58007">
        <ele>99</ele>
        <time>2015-01-18T11:28:38Z</time>
      </trkpt>
      <trkpt lat="49.21195" lon="2.58009">
        <ele>95</ele>
        <time>2015-01-18T11:29:30Z</time>
      </trkpt>
      <trkpt lat="49.21198" lon="2.58008">
        <ele>95</ele>
        <time>2015-01-18T11:31:04Z</time>
      </trkpt>
      <trkpt lat="49.21193" lon="2.58011">
        <ele>96</ele>
        <time>2015-01-18T11:35:16Z</time>
      </trkpt>
      <trkpt lat="49.2119" lon="2.58012">
        <ele>102</ele>
        <time>2015-01-18T11:41:43Z</time>
      </trkpt>
      <trkpt lat="49.21188" lon="2.58009">
        <ele>104</ele>
        <time>2015-01-18T11:42:28Z</time>
      </trkpt>
      <trkpt lat="49.2119" lon="2.58006">
        <ele>105</ele>
        <time>2015-01-18T11:42:46Z</time>
      </trkpt>
      <trkpt lat="49.21192" lon="2.58005">
        <ele>102</ele>
        <time>2015-01-18T11:42:53Z</time>
      </trkpt>
      <trkpt lat="49.21195" lon="2.58011">
        <ele>102</ele>
        <time>2015-01-18T11:42:27Z</time>
      </trkpt>
      <trkpt lat="49.21192" lon="2.58011">
        <ele>102</ele>
        <time>2015-01-18T11:43:57Z</time>
      </trkpt>
      <trkpt lat="49.21193" lon="2.58005">
        <ele>101</ele>
        <time>2015-01-18T11:44:18Z</time>
      </trkpt>
      <trkpt lat="49.21194" lon="2.58008">
        <ele>99</ele>
        <time>2015-01-18T11:44:25Z</time>
      </trkpt>
      <trkpt lat="49.21194" lon="2.58008">
        <ele>101</ele>
        <time>2015-01-18T11:45:33Z</time>
      </trkpt>
      <trkpt lat="49.21194" lon="2.58014">
        <ele>99</ele>
        <time>2015-01-18T11:47:52Z</time>
      </trkpt>
      <trkpt lat="49.21187" lon="2.58017">
        <ele>99</ele>
        <time>2015-01-18T11:48:23Z</time>
      </trkpt>
      <trkpt lat="49.2118" lon="2.58025">
        <ele>99</ele>
        <time>2015-01-18T11:48:29Z</time>
      </trkpt>
      <trkpt lat="49.2118" lon="2.58028">
        <ele>97</ele>
        <time>2015-01-18T11:48:36Z</time>
      </trkpt>
      <trkpt lat="49.21188" lon="2.58023">
        <ele>98</ele>
        <time>2015-01-18T11:48:45Z</time>
      </trkpt>
      <trkpt lat="49.21191" lon="2.58016">
        <ele>99</ele>
        <time>2015-01-18T11:48:52Z</time>
      </trkpt>
      <trkpt lat="49.21191" lon="2.58014">
        <ele>97</ele>
        <time>2015-01-18T11:48:59Z</time>
      </trkpt>
      <trkpt lat="49.21195" lon="2.58011">
        <ele>94</ele>
        <time>2015-01-18T11:50:53Z</time>
      </trkpt>
      <trkpt lat="49.21197" lon="2.58011">
        <ele>96</ele>
        <time>2015-01-18T11:51:28Z</time>
      </trkpt>
      <trkpt lat="49.21197" lon="2.58014">
        <ele>94</ele>
        <time>2015-01-18T11:51:38Z</time>
      </trkpt>
      <trkpt lat="49.21191" lon="2.58012">
        <ele>105</ele>
        <time>2015-01-18T11:55:29Z</time>
      </trkpt>
      <trkpt lat="49.21193" lon="2.58011">
        <ele>97</ele>
        <time>2015-01-18T11:57:29Z</time>
      </trkpt>
      <trkpt lat="49.21193" lon="2.58009">
        <ele>94</ele>
        <time>2015-01-18T11:59:21Z</time>
      </trkpt>
      <trkpt lat="49.21193" lon="2.58009">
        <ele>92</ele>
        <time>2015-01-18T11:59:58Z</time>
      </trkpt>
      <trkpt lat="49.2119" lon="2.58006">
        <ele>95</ele>
        <time>2015-01-18T12:01:19Z</time>
      </trkpt>
      <trkpt lat="49.21191" lon="2.58006">
        <ele>92</ele>
        <time>2015-01-18T12:02:15Z</time>
      </trkpt>
      <trkpt lat="49.21195" lon="2.58003">
        <ele>92</ele>
        <time>2015-01-18T12:02:47Z</time>
      </trkpt>
      <trkpt lat="49.21197" lon="2.57998">
        <ele>92</ele>
        <time>2015-01-18T12:02:54Z</time>
      </trkpt>
      <trkpt lat="49.21199" lon="2.57993">
        <ele>90</ele>
        <time>2015-01-18T12:03:01Z</time>
      </trkpt>
      <trkpt lat="49.21203" lon="2.57988">
        <ele>89</ele>
        <time>2015-01-18T12:03:08Z</time>
      </trkpt>
      <trkpt lat="49.21208" lon="2.57984">
        <ele>87</ele>
        <time>2015-01-18T12:03:15Z</time>
      </trkpt>
      <trkpt lat="49.21212" lon="2.57987">
        <ele>90</ele>
        <time>2015-01-18T12:03:22Z</time>
      </trkpt>
      <trkpt lat="49.21216" lon="2.57985">
        <ele>88</ele>
        <time>2015-01-18T12:03:29Z</time>
      </trkpt>
      <trkpt lat="49.21221" lon="2.57983">
        <ele>81</ele>
        <time>2015-01-18T12:03:36Z</time>
      </trkpt>
      <trkpt lat="49.21226" lon="2.57977">
        <ele>78</ele>
        <time>2015-01-18T12:03:43Z</time>
      </trkpt>
      <trkpt lat="49.21231" lon="2.57975">
        <ele>77</ele>
        <time>2015-01-18T12:03:50Z</time>
      </trkpt>
      <trkpt lat="49.21237" lon="2.57971">
        <ele>79</ele>
        <time>2015-01-18T12:03:57Z</time>
      </trkpt>
      <trkpt lat="49.21244" lon="2.57967">
        <ele>80</ele>
        <time>2015-01-18T12:04:03Z</time>
      </trkpt>
      <trkpt lat="49.21251" lon="2.57962">
        <ele>80</ele>
        <time>2015-01-18T12:04:10Z</time>
      </trkpt>
      <trkpt lat="49.21258" lon="2.57957">
        <ele>82</ele>
        <time>2015-01-18T12:04:16Z</time>
      </trkpt>
      <trkpt lat="49.21265" lon="2.57952">
        <ele>81</ele>
        <time>2015-01-18T12:04:23Z</time>
      </trkpt>
      <trkpt lat="49.21272" lon="2.57949">
        <ele>82</ele>
        <time>2015-01-18T12:04:30Z</time>
      </trkpt>
      <trkpt lat="49.2128" lon="2.57945">
        <ele>82</ele>
        <time>2015-01-18T12:04:37Z</time>
      </trkpt>
      <trkpt lat="49.21287" lon="2.57941">
        <ele>82</ele>
        <time>2015-01-18T12:04:43Z</time>
      </trkpt>
      <trkpt lat="49.21294" lon="2.57938">
        <ele>87</ele>
        <time>2015-01-18T12:04:48Z</time>
      </trkpt>
      <trkpt lat="49.21301" lon="2.57933">
        <ele>89</ele>
        <time>2015-01-18T12:04:53Z</time>
      </trkpt>
      <trkpt lat="49.21309" lon="2.57928">
        <ele>93</ele>
        <time>2015-01-18T12:04:59Z</time>
      </trkpt>
      <trkpt lat="49.21315" lon="2.57921">
        <ele>95</ele>
        <time>2015-01-18T12:05:04Z</time>
      </trkpt>
      <trkpt lat="49.21321" lon="2.57912">
        <ele>99</ele>
        <time>2015-01-18T12:05:09Z</time>
      </trkpt>
      <trkpt lat="49.21327" lon="2.57906">
        <ele>101</ele>
        <time>2015-01-18T12:05:14Z</time>
      </trkpt>
      <trkpt lat="49.21334" lon="2.57898">
        <ele>102</ele>
        <time>2015-01-18T12:05:20Z</time>
      </trkpt>
      <trkpt lat="49.21341" lon="2.57892">
        <ele>105</ele>
        <time>2015-01-18T12:05:26Z</time>
      </trkpt>
      <trkpt lat="49.21348" lon="2.57885">
        <ele>104</ele>
        <time>2015-01-18T12:05:33Z</time>
      </trkpt>
      <trkpt lat="49.21354" lon="2.5788">
        <ele>104</ele>
        <time>2015-01-18T12:05:40Z</time>
      </trkpt>
      <trkpt lat="49.21361" lon="2.57874">
        <ele>102</ele>
        <time>2015-01-18T12:05:47Z</time>
      </trkpt>
      <trkpt lat="49.21367" lon="2.5787">
        <ele>101</ele>
        <time>2015-01-18T12:05:54Z</time>
      </trkpt>
      <trkpt lat="49.21372" lon="2.57864">
        <ele>98</ele>
        <time>2015-01-18T12:06:01Z</time>
      </trkpt>
      <trkpt lat="49.21378" lon="2.57858">
        <ele>98</ele>
        <time>2015-01-18T12:06:08Z</time>
      </trkpt>
      <trkpt lat="49.21385" lon="2.57855">
        <ele>97</ele>
        <time>2015-01-18T12:06:15Z</time>
      </trkpt>
      <trkpt lat="49.21393" lon="2.57851">
        <ele>97</ele>
        <time>2015-01-18T12:06:22Z</time>
      </trkpt>
      <trkpt lat="49.21401" lon="2.57852">
        <ele>94</ele>
        <time>2015-01-18T12:06:29Z</time>
      </trkpt>
      <trkpt lat="49.21407" lon="2.57849">
        <ele>95</ele>
        <time>2015-01-18T12:06:36Z</time>
      </trkpt>
      <trkpt lat="49.21415" lon="2.57846">
        <ele>96</ele>
        <time>2015-01-18T12:06:42Z</time>
      </trkpt>
      <trkpt lat="49.21422" lon="2.57844">
        <ele>97</ele>
        <time>2015-01-18T12:06:48Z</time>
      </trkpt>
      <trkpt lat="49.2143" lon="2.57844">
        <ele>98</ele>
        <time>2015-01-18T12:06:54Z</time>
      </trkpt>
      <trkpt lat="49.21438" lon="2.57843">
        <ele>99</ele>
        <time>2015-01-18T12:07:00Z</time>
      </trkpt>
      <trkpt lat="49.21445" lon="2.57841">
        <ele>102</ele>
        <time>2015-01-18T12:07:06Z</time>
      </trkpt>
      <trkpt lat="49.21453" lon="2.5784">
        <ele>101</ele>
        <time>2015-01-18T12:07:13Z</time>
      </trkpt>
      <trkpt lat="49.21461" lon="2.57841">
        <ele>102</ele>
        <time>2015-01-18T12:07:19Z</time>
      </trkpt>
      <trkpt lat="49.21468" lon="2.5784">
        <ele>100</ele>
        <time>2015-01-18T12:07:26Z</time>
      </trkpt>
      <trkpt lat="49.21476" lon="2.57839">
        <ele>97</ele>
        <time>2015-01-18T12:07:33Z</time>
      </trkpt>
      <trkpt lat="49.21483" lon="2.57836">
        <ele>96</ele>
        <time>2015-01-18T12:07:40Z</time>
      </trkpt>
      <trkpt lat="49.2149" lon="2.57832">
        <ele>97</ele>
        <time>2015-01-18T12:07:47Z</time>
      </trkpt>
      <trkpt lat="49.21498" lon="2.57828">
        <ele>101</ele>
        <time>2015-01-18T12:07:54Z</time>
      </trkpt>
      <trkpt lat="49.21505" lon="2.57825">
        <ele>103</ele>
        <time>2015-01-18T12:08:01Z</time>
      </trkpt>
      <trkpt lat="49.21512" lon="2.57821">
        <ele>99</ele>
        <time>2015-01-18T12:08:08Z</time>
      </trkpt>
      <trkpt lat="49.21519" lon="2.57818">
        <ele>96</ele>
        <time>2015-01-18T12:08:15Z</time>
      </trkpt>
      <trkpt lat="49.21526" lon="2.57814">
        <ele>99</ele>
        <time>2015-01-18T12:08:21Z</time>
      </trkpt>
      <trkpt lat="49.21533" lon="2.5781">
        <ele>103</ele>
        <time>2015-01-18T12:08:26Z</time>
      </trkpt>
      <trkpt lat="49.2154" lon="2.57806">
        <ele>102</ele>
        <time>2015-01-18T12:08:31Z</time>
      </trkpt>
      <trkpt lat="49.21548" lon="2.57802">
        <ele>104</ele>
        <time>2015-01-18T12:08:37Z</time>
      </trkpt>
      <trkpt lat="49.21555" lon="2.57798">
        <ele>104</ele>
        <time>2015-01-18T12:08:43Z</time>
      </trkpt>
      <trkpt lat="49.21563" lon="2.57796">
        <ele>107</ele>
        <time>2015-01-18T12:08:49Z</time>
      </trkpt>
      <trkpt lat="49.21571" lon="2.57793">
        <ele>110</ele>
        <time>2015-01-18T12:08:55Z</time>
      </trkpt>
      <trkpt lat="49.21578" lon="2.57787">
        <ele>111</ele>
        <time>2015-01-18T12:09:01Z</time>
      </trkpt>
      <trkpt lat="49.21586" lon="2.57785">
        <ele>111</ele>
        <time>2015-01-18T12:09:08Z</time>
      </trkpt>
      <trkpt lat="49.21593" lon="2.5778">
        <ele>111</ele>
        <time>2015-01-18T12:09:14Z</time>
      </trkpt>
      <trkpt lat="49.216" lon="2.57777">
        <ele>110</ele>
        <time>2015-01-18T12:09:20Z</time>
      </trkpt>
      <trkpt lat="49.21607" lon="2.57774">
        <ele>109</ele>
        <time>2015-01-18T12:09:26Z</time>
      </trkpt>
      <trkpt lat="49.21615" lon="2.5777">
        <ele>107</ele>
        <time>2015-01-18T12:09:33Z</time>
      </trkpt>
      <trkpt lat="49.21621" lon="2.57767">
        <ele>106</ele>
        <time>2015-01-18T12:09:40Z</time>
      </trkpt>
      <trkpt lat="49.21629" lon="2.57764">
        <ele>106</ele>
        <time>2015-01-18T12:09:47Z</time>
      </trkpt>
      <trkpt lat="49.21636" lon="2.57759">
        <ele>108</ele>
        <time>2015-01-18T12:09:53Z</time>
      </trkpt>
      <trkpt lat="49.21644" lon="2.57755">
        <ele>109</ele>
        <time>2015-01-18T12:09:59Z</time>
      </trkpt>
      <trkpt lat="49.21652" lon="2.57752">
        <ele>110</ele>
        <time>2015-01-18T12:10:05Z</time>
      </trkpt>
      <trkpt lat="49.2166" lon="2.57751">
        <ele>109</ele>
        <time>2015-01-18T12:10:12Z</time>
      </trkpt>
      <trkpt lat="49.21668" lon="2.57749">
        <ele>111</ele>
        <time>2015-01-18T12:10:19Z</time>
      </trkpt>
      <trkpt lat="49.21676" lon="2.57749">
        <ele>109</ele>
        <time>2015-01-18T12:10:26Z</time>
      </trkpt>
      <trkpt lat="49.21684" lon="2.57751">
        <ele>110</ele>
        <time>2015-01-18T12:10:33Z</time>
      </trkpt>
      <trkpt lat="49.21691" lon="2.57754">
        <ele>109</ele>
        <time>2015-01-18T12:10:39Z</time>
      </trkpt>
      <trkpt lat="49.21699" lon="2.57757">
        <ele>109</ele>
        <time>2015-01-18T12:10:46Z</time>
      </trkpt>
      <trkpt lat="49.21707" lon="2.57759">
        <ele>110</ele>
        <time>2015-01-18T12:10:52Z</time>
      </trkpt>
      <trkpt lat="49.21716" lon="2.5776">
        <ele>110</ele>
        <time>2015-01-18T12:10:58Z</time>
      </trkpt>
      <trkpt lat="49.21723" lon="2.5776">
        <ele>108</ele>
        <time>2015-01-18T12:11:04Z</time>
      </trkpt>
      <trkpt lat="49.21731" lon="2.57761">
        <ele>109</ele>
        <time>2015-01-18T12:11:11Z</time>
      </trkpt>
      <trkpt lat="49.2174" lon="2.57763">
        <ele>109</ele>
        <time>2015-01-18T12:11:18Z</time>
      </trkpt>
      <trkpt lat="49.21747" lon="2.57763">
        <ele>109</ele>
        <time>2015-01-18T12:11:24Z</time>
      </trkpt>
      <trkpt lat="49.21755" lon="2.57764">
        <ele>110</ele>
        <time>2015-01-18T12:11:30Z</time>
      </trkpt>
      <trkpt lat="49.21762" lon="2.57766">
        <ele>110</ele>
        <time>2015-01-18T12:11:36Z</time>
      </trkpt>
      <trkpt lat="49.2177" lon="2.57767">
        <ele>111</ele>
        <time>2015-01-18T12:11:42Z</time>
      </trkpt>
      <trkpt lat="49.21777" lon="2.57768">
        <ele>110</ele>
        <time>2015-01-18T12:11:49Z</time>
      </trkpt>
      <trkpt lat="49.21785" lon="2.5777">
        <ele>112</ele>
        <time>2015-01-18T12:11:55Z</time>
      </trkpt>
      <trkpt lat="49.21793" lon="2.57773">
        <ele>111</ele>
        <time>2015-01-18T12:12:02Z</time>
      </trkpt>
      <trkpt lat="49.218" lon="2.57776">
        <ele>110</ele>
        <time>2015-01-18T12:12:09Z</time>
      </trkpt>
      <trkpt lat="49.21807" lon="2.57779">
        <ele>109</ele>
        <time>2015-01-18T12:12:15Z</time>
      </trkpt>
      <trkpt lat="49.21815" lon="2.5778">
        <ele>110</ele>
        <time>2015-01-18T12:12:21Z</time>
      </trkpt>
      <trkpt lat="49.21822" lon="2.57784">
        <ele>110</ele>
        <time>2015-01-18T12:12:27Z</time>
      </trkpt>
      <trkpt lat="49.21829" lon="2.57787">
        <ele>109</ele>
        <time>2015-01-18T12:12:33Z</time>
      </trkpt>
      <trkpt lat="49.21836" lon="2.57791">
        <ele>109</ele>
        <time>2015-01-18T12:12:39Z</time>
      </trkpt>
      <trkpt lat="49.21844" lon="2.57794">
        <ele>108</ele>
        <time>2015-01-18T12:12:45Z</time>
      </trkpt>
      <trkpt lat="49.21851" lon="2.57796">
        <ele>108</ele>
        <time>2015-01-18T12:12:51Z</time>
      </trkpt>
      <trkpt lat="49.21859" lon="2.57799">
        <ele>109</ele>
        <time>2015-01-18T12:12:57Z</time>
      </trkpt>
      <trkpt lat="49.21867" lon="2.57801">
        <ele>110</ele>
        <time>2015-01-18T12:13:03Z</time>
      </trkpt>
      <trkpt lat="49.21874" lon="2.57803">
        <ele>109</ele>
        <time>2015-01-18T12:13:09Z</time>
      </trkpt>
      <trkpt lat="49.21882" lon="2.57806">
        <ele>111</ele>
        <time>2015-01-18T12:13:16Z</time>
      </trkpt>
      <trkpt lat="49.2189" lon="2.57806">
        <ele>113</ele>
        <time>2015-01-18T12:13:22Z</time>
      </trkpt>
      <trkpt lat="49.21898" lon="2.57808">
        <ele>114</ele>
        <time>2015-01-18T12:13:28Z</time>
      </trkpt>
      <trkpt lat="49.21905" lon="2.5781">
        <ele>114</ele>
        <time>2015-01-18T12:13:34Z</time>
      </trkpt>
      <trkpt lat="49.21913" lon="2.5781">
        <ele>112</ele>
        <time>2015-01-18T12:13:41Z</time>
      </trkpt>
      <trkpt lat="49.2192" lon="2.57808">
        <ele>112</ele>
        <time>2015-01-18T12:13:48Z</time>
      </trkpt>
      <trkpt lat="49.21929" lon="2.57807">
        <ele>113</ele>
        <time>2015-01-18T12:13:54Z</time>
      </trkpt>
      <trkpt lat="49.21936" lon="2.57804">
        <ele>108</ele>
        <time>2015-01-18T12:14:01Z</time>
      </trkpt>
      <trkpt lat="49.21944" lon="2.57801">
        <ele>110</ele>
        <time>2015-01-18T12:14:08Z</time>
      </trkpt>
      <trkpt lat="49.21952" lon="2.57798">
        <ele>109</ele>
        <time>2015-01-18T12:14:15Z</time>
      </trkpt>
      <trkpt lat="49.21959" lon="2.57793">
        <ele>114</ele>
        <time>2015-01-18T12:14:20Z</time>
      </trkpt>
      <trkpt lat="49.21966" lon="2.57788">
        <ele>116</ele>
        <time>2015-01-18T12:14:25Z</time>
      </trkpt>
      <trkpt lat="49.21974" lon="2.57784">
        <ele>116</ele>
        <time>2015-01-18T12:14:31Z</time>
      </trkpt>
      <trkpt lat="49.21982" lon="2.57779">
        <ele>117</ele>
        <time>2015-01-18T12:14:37Z</time>
      </trkpt>
      <trkpt lat="49.21989" lon="2.57773">
        <ele>120</ele>
        <time>2015-01-18T12:14:43Z</time>
      </trkpt>
      <trkpt lat="49.21996" lon="2.57768">
        <ele>121</ele>
        <time>2015-01-18T12:14:49Z</time>
      </trkpt>
      <trkpt lat="49.22003" lon="2.57763">
        <ele>121</ele>
        <time>2015-01-18T12:14:55Z</time>
      </trkpt>
      <trkpt lat="49.2201" lon="2.57759">
        <ele>120</ele>
        <time>2015-01-18T12:15:01Z</time>
      </trkpt>
      <trkpt lat="49.22017" lon="2.57755">
        <ele>119</ele>
        <time>2015-01-18T12:15:07Z</time>
      </trkpt>
      <trkpt lat="49.22023" lon="2.57747">
        <ele>117</ele>
        <time>2015-01-18T12:15:14Z</time>
      </trkpt>
      <trkpt lat="49.22031" lon="2.57745">
        <ele>118</ele>
        <time>2015-01-18T12:15:20Z</time>
      </trkpt>
      <trkpt lat="49.22039" lon="2.57744">
        <ele>115</ele>
        <time>2015-01-18T12:15:26Z</time>
      </trkpt>
      <trkpt lat="49.22046" lon="2.5774">
        <ele>116</ele>
        <time>2015-01-18T12:15:32Z</time>
      </trkpt>
      <trkpt lat="49.22053" lon="2.57737">
        <ele>114</ele>
        <time>2015-01-18T12:15:38Z</time>
      </trkpt>
      <trkpt lat="49.22061" lon="2.57735">
        <ele>113</ele>
        <time>2015-01-18T12:15:45Z</time>
      </trkpt>
      <trkpt lat="49.22068" lon="2.57731">
        <ele>113</ele>
        <time>2015-01-18T12:15:51Z</time>
      </trkpt>
      <trkpt lat="49.22075" lon="2.57728">
        <ele>109</ele>
        <time>2015-01-18T12:15:57Z</time>
      </trkpt>
      <trkpt lat="49.22082" lon="2.57724">
        <ele>109</ele>
        <time>2015-01-18T12:16:03Z</time>
      </trkpt>
      <trkpt lat="49.22089" lon="2.57719">
        <ele>109</ele>
        <time>2015-01-18T12:16:09Z</time>
      </trkpt>
      <trkpt lat="49.22096" lon="2.57714">
        <ele>109</ele>
        <time>2015-01-18T12:16:15Z</time>
      </trkpt>
      <trkpt lat="49.22104" lon="2.57711">
        <ele>108</ele>
        <time>2015-01-18T12:16:21Z</time>
      </trkpt>
      <trkpt lat="49.2211" lon="2.57705">
        <ele>109</ele>
        <time>2015-01-18T12:16:27Z</time>
      </trkpt>
      <trkpt lat="49.22117" lon="2.577">
        <ele>109</ele>
        <time>2015-01-18T12:16:33Z</time>
      </trkpt>
      <trkpt lat="49.22125" lon="2.57695">
        <ele>111</ele>
        <time>2015-01-18T12:16:39Z</time>
      </trkpt>
      <trkpt lat="49.22132" lon="2.57691">
        <ele>111</ele>
        <time>2015-01-18T12:16:45Z</time>
      </trkpt>
      <trkpt lat="49.22134" lon="2.57691">
        <ele>112</ele>
        <time>2015-01-18T12:16:52Z</time>
      </trkpt>
      <trkpt lat="49.2214" lon="2.57688">
        <ele>113</ele>
        <time>2015-01-18T12:17:04Z</time>
      </trkpt>
      <trkpt lat="49.22148" lon="2.57683">
        <ele>113</ele>
        <time>2015-01-18T12:17:11Z</time>
      </trkpt>
      <trkpt lat="49.22155" lon="2.57679">
        <ele>115</ele>
        <time>2015-01-18T12:17:18Z</time>
      </trkpt>
      <trkpt lat="49.22163" lon="2.57673">
        <ele>114</ele>
        <time>2015-01-18T12:17:24Z</time>
      </trkpt>
      <trkpt lat="49.2217" lon="2.57669">
        <ele>116</ele>
        <time>2015-01-18T12:17:30Z</time>
      </trkpt>
      <trkpt lat="49.22176" lon="2.57667">
        <ele>117</ele>
        <time>2015-01-18T12:17:37Z</time>
      </trkpt>
      <trkpt lat="49.22184" lon="2.57663">
        <ele>117</ele>
        <time>2015-01-18T12:17:43Z</time>
      </trkpt>
      <trkpt lat="49.22191" lon="2.57661">
        <ele>118</ele>
        <time>2015-01-18T12:17:49Z</time>
      </trkpt>
      <trkpt lat="49.22199" lon="2.57661">
        <ele>119</ele>
        <time>2015-01-18T12:17:55Z</time>
      </trkpt>
      <trkpt lat="49.22206" lon="2.5766">
        <ele>121</ele>
        <time>2015-01-18T12:18:01Z</time>
      </trkpt>
      <trkpt lat="49.22214" lon="2.57658">
        <ele>123</ele>
        <time>2015-01-18T12:18:07Z</time>
      </trkpt>
      <trkpt lat="49.22221" lon="2.57655">
        <ele>124</ele>
        <time>2015-01-18T12:18:12Z</time>
      </trkpt>
      <trkpt lat="49.22229" lon="2.57651">
        <ele>123</ele>
        <time>2015-01-18T12:18:18Z</time>
      </trkpt>
      <trkpt lat="49.22236" lon="2.57645">
        <ele>121</ele>
        <time>2015-01-18T12:18:23Z</time>
      </trkpt>
      <trkpt lat="49.22243" lon="2.57641">
        <ele>124</ele>
        <time>2015-01-18T12:18:29Z</time>
      </trkpt>
      <trkpt lat="49.22251" lon="2.57638">
        <ele>125</ele>
        <time>2015-01-18T12:18:35Z</time>
      </trkpt>
      <trkpt lat="49.22259" lon="2.57634">
        <ele>122</ele>
        <time>2015-01-18T12:18:41Z</time>
      </trkpt>
      <trkpt lat="49.22267" lon="2.57631">
        <ele>119</ele>
        <time>2015-01-18T12:18:48Z</time>
      </trkpt>
      <trkpt lat="49.22271" lon="2.57626">
        <ele>122</ele>
        <time>2015-01-18T12:18:55Z</time>
      </trkpt>
      <trkpt lat="49.22274" lon="2.57624">
        <ele>123</ele>
        <time>2015-01-18T12:19:02Z</time>
      </trkpt>
      <trkpt lat="49.22281" lon="2.57623">
        <ele>121</ele>
        <time>2015-01-18T12:19:07Z</time>
      </trkpt>
      <trkpt lat="49.22287" lon="2.57615">
        <ele>119</ele>
        <time>2015-01-18T12:19:13Z</time>
      </trkpt>
      <trkpt lat="49.22294" lon="2.57612">
        <ele>115</ele>
        <time>2015-01-18T12:19:20Z</time>
      </trkpt>
      <trkpt lat="49.22302" lon="2.57608">
        <ele>115</ele>
        <time>2015-01-18T12:19:27Z</time>
      </trkpt>
      <trkpt lat="49.22308" lon="2.57603">
        <ele>114</ele>
        <time>2015-01-18T12:19:33Z</time>
      </trkpt>
      <trkpt lat="49.22315" lon="2.57597">
        <ele>115</ele>
        <time>2015-01-18T12:19:39Z</time>
      </trkpt>
      <trkpt lat="49.22322" lon="2.57593">
        <ele>116</ele>
        <time>2015-01-18T12:19:44Z</time>
      </trkpt>
      <trkpt lat="49.22329" lon="2.57588">
        <ele>117</ele>
        <time>2015-01-18T12:19:50Z</time>
      </trkpt>
      <trkpt lat="49.22336" lon="2.57585">
        <ele>118</ele>
        <time>2015-01-18T12:19:56Z</time>
      </trkpt>
      <trkpt lat="49.22344" lon="2.57585">
        <ele>116</ele>
        <time>2015-01-18T12:20:02Z</time>
      </trkpt>
      <trkpt lat="49.2235" lon="2.5758">
        <ele>118</ele>
        <time>2015-01-18T12:20:09Z</time>
      </trkpt>
      <trkpt lat="49.22356" lon="2.57582">
        <ele>111</ele>
        <time>2015-01-18T12:20:16Z</time>
      </trkpt>
      <trkpt lat="49.22358" lon="2.57579">
        <ele>113</ele>
        <time>2015-01-18T12:20:23Z</time>
      </trkpt>
      <trkpt lat="49.22362" lon="2.57572">
        <ele>107</ele>
        <time>2015-01-18T12:20:34Z</time>
      </trkpt>
      <trkpt lat="49.2237" lon="2.57573">
        <ele>106</ele>
        <time>2015-01-18T12:20:38Z</time>
      </trkpt>
      <trkpt lat="49.22377" lon="2.57571">
        <ele>104</ele>
        <time>2015-01-18T12:20:43Z</time>
      </trkpt>
      <trkpt lat="49.22382" lon="2.57569">
        <ele>102</ele>
        <time>2015-01-18T12:20:50Z</time>
      </trkpt>
      <trkpt lat="49.22386" lon="2.57564">
        <ele>102</ele>
        <time>2015-01-18T12:20:57Z</time>
      </trkpt>
      <trkpt lat="49.2239" lon="2.57559">
        <ele>105</ele>
        <time>2015-01-18T12:21:04Z</time>
      </trkpt>
      <trkpt lat="49.22393" lon="2.57555">
        <ele>111</ele>
        <time>2015-01-18T12:21:11Z</time>
      </trkpt>
      <trkpt lat="49.22394" lon="2.57549">
        <ele>113</ele>
        <time>2015-01-18T12:21:21Z</time>
      </trkpt>
      <trkpt lat="49.22397" lon="2.57549">
        <ele>113</ele>
        <time>2015-01-18T12:21:28Z</time>
      </trkpt>
      <trkpt lat="49.22396" lon="2.57539">
        <ele>116</ele>
        <time>2015-01-18T12:21:50Z</time>
      </trkpt>
      <trkpt lat="49.22392" lon="2.57529">
        <ele>111</ele>
        <time>2015-01-18T12:21:57Z</time>
      </trkpt>
      <trkpt lat="49.2239" lon="2.57519">
        <ele>109</ele>
        <time>2015-01-18T12:22:04Z</time>
      </trkpt>
      <trkpt lat="49.2239" lon="2.57509">
        <ele>113</ele>
        <time>2015-01-18T12:22:11Z</time>
      </trkpt>
      <trkpt lat="49.22388" lon="2.57499">
        <ele>113</ele>
        <time>2015-01-18T12:22:18Z</time>
      </trkpt>
      <trkpt lat="49.22384" lon="2.57491">
        <ele>118</ele>
        <time>2015-01-18T12:22:25Z</time>
      </trkpt>
      <trkpt lat="49.22381" lon="2.57479">
        <ele>115</ele>
        <time>2015-01-18T12:22:32Z</time>
      </trkpt>
      <trkpt lat="49.22379" lon="2.57468">
        <ele>115</ele>
        <time>2015-01-18T12:22:39Z</time>
      </trkpt>
      <trkpt lat="49.22376" lon="2.57457">
        <ele>116</ele>
        <time>2015-01-18T12:22:44Z</time>
      </trkpt>
      <trkpt lat="49.22373" lon="2.57445">
        <ele>112</ele>
        <time>2015-01-18T12:22:50Z</time>
      </trkpt>
      <trkpt lat="49.22372" lon="2.57434">
        <ele>116</ele>
        <time>2015-01-18T12:22:57Z</time>
      </trkpt>
      <trkpt lat="49.22368" lon="2.57429">
        <ele>119</ele>
        <time>2015-01-18T12:23:04Z</time>
      </trkpt>
      <trkpt lat="49.22365" lon="2.57416">
        <ele>120</ele>
        <time>2015-01-18T12:23:11Z</time>
      </trkpt>
      <trkpt lat="49.22362" lon="2.57406">
        <ele>115</ele>
        <time>2015-01-18T12:23:18Z</time>
      </trkpt>
      <trkpt lat="49.22359" lon="2.57394">
        <ele>117</ele>
        <time>2015-01-18T12:23:24Z</time>
      </trkpt>
      <trkpt lat="49.22356" lon="2.57382">
        <ele>113</ele>
        <time>2015-01-18T12:23:29Z</time>
      </trkpt>
      <trkpt lat="49.22356" lon="2.5737">
        <ele>108</ele>
        <time>2015-01-18T12:23:36Z</time>
      </trkpt>
      <trkpt lat="49.22353" lon="2.5736">
        <ele>107</ele>
        <time>2015-01-18T12:23:42Z</time>
      </trkpt>
      <trkpt lat="49.22349" lon="2.5735">
        <ele>108</ele>
        <time>2015-01-18T12:23:48Z</time>
      </trkpt>
      <trkpt lat="49.22349" lon="2.57338">
        <ele>105</ele>
        <time>2015-01-18T12:23:55Z</time>
      </trkpt>
      <trkpt lat="49.22345" lon="2.57327">
        <ele>105</ele>
        <time>2015-01-18T12:24:01Z</time>
      </trkpt>
      <trkpt lat="49.22342" lon="2.57318">
        <ele>107</ele>
        <time>2015-01-18T12:24:07Z</time>
      </trkpt>
      <trkpt lat="49.22337" lon="2.57309">
        <ele>114</ele>
        <time>2015-01-18T12:24:13Z</time>
      </trkpt>
      <trkpt lat="49.22332" lon="2.573">
        <ele>115</ele>
        <time>2015-01-18T12:24:18Z</time>
      </trkpt>
      <trkpt lat="49.22328" lon="2.5729">
        <ele>111</ele>
        <time>2015-01-18T12:24:24Z</time>
      </trkpt>
      <trkpt lat="49.22326" lon="2.57285">
        <ele>109</ele>
        <time>2015-01-18T12:24:31Z</time>
      </trkpt>
      <trkpt lat="49.22324" lon="2.57279">
        <ele>108</ele>
        <time>2015-01-18T12:24:38Z</time>
      </trkpt>
      <trkpt lat="49.22324" lon="2.57275">
        <ele>108</ele>
        <time>2015-01-18T12:24:45Z</time>
      </trkpt>
      <trkpt lat="49.22321" lon="2.57269">
        <ele>109</ele>
        <time>2015-01-18T12:24:52Z</time>
      </trkpt>
      <trkpt lat="49.22319" lon="2.57263">
        <ele>115</ele>
        <time>2015-01-18T12:24:59Z</time>
      </trkpt>
      <trkpt lat="49.22313" lon="2.57255">
        <ele>113</ele>
        <time>2015-01-18T12:25:20Z</time>
      </trkpt>
      <trkpt lat="49.22311" lon="2.57247">
        <ele>114</ele>
        <time>2015-01-18T12:25:34Z</time>
      </trkpt>
      <trkpt lat="49.2231" lon="2.57244">
        <ele>116</ele>
        <time>2015-01-18T12:25:41Z</time>
      </trkpt>
      <trkpt lat="49.22305" lon="2.57239">
        <ele>121</ele>
        <time>2015-01-18T12:26:19Z</time>
      </trkpt>
      <trkpt lat="49.22303" lon="2.57237">
        <ele>122</ele>
        <time>2015-01-18T12:26:26Z</time>
      </trkpt>
      <trkpt lat="49.22301" lon="2.57229">
        <ele>119</ele>
        <time>2015-01-18T12:26:40Z</time>
      </trkpt>
      <trkpt lat="49.22304" lon="2.57222">
        <ele>114</ele>
        <time>2015-01-18T12:26:47Z</time>
      </trkpt>
      <trkpt lat="49.22301" lon="2.57218">
        <ele>118</ele>
        <time>2015-01-18T12:26:54Z</time>
      </trkpt>
      <trkpt lat="49.223" lon="2.57212">
        <ele>118</ele>
        <time>2015-01-18T12:27:19Z</time>
      </trkpt>
      <trkpt lat="49.22298" lon="2.57204">
        <ele>117</ele>
        <time>2015-01-18T12:27:26Z</time>
      </trkpt>
      <trkpt lat="49.22295" lon="2.57194">
        <ele>114</ele>
        <time>2015-01-18T12:27:33Z</time>
      </trkpt>
      <trkpt lat="49.22291" lon="2.57184">
        <ele>122</ele>
        <time>2015-01-18T12:27:40Z</time>
      </trkpt>
      <trkpt lat="49.2229" lon="2.57177">
        <ele>115</ele>
        <time>2015-01-18T12:27:47Z</time>
      </trkpt>
      <trkpt lat="49.22288" lon="2.5717">
        <ele>113</ele>
        <time>2015-01-18T12:27:54Z</time>
      </trkpt>
      <trkpt lat="49.22283" lon="2.57162">
        <ele>115</ele>
        <time>2015-01-18T12:28:00Z</time>
      </trkpt>
      <trkpt lat="49.2228" lon="2.57158">
        <ele>117</ele>
        <time>2015-01-18T12:28:07Z</time>
      </trkpt>
      <trkpt lat="49.22279" lon="2.57156">
        <ele>115</ele>
        <time>2015-01-18T12:28:14Z</time>
      </trkpt>
      <trkpt lat="49.22274" lon="2.57148">
        <ele>117</ele>
        <time>2015-01-18T12:29:30Z</time>
      </trkpt>
      <trkpt lat="49.22271" lon="2.57137">
        <ele>114</ele>
        <time>2015-01-18T12:29:37Z</time>
      </trkpt>
      <trkpt lat="49.22268" lon="2.57126">
        <ele>117</ele>
        <time>2015-01-18T12:29:44Z</time>
      </trkpt>
      <trkpt lat="49.22266" lon="2.57114">
        <ele>116</ele>
        <time>2015-01-18T12:29:51Z</time>
      </trkpt>
      <trkpt lat="49.22265" lon="2.57104">
        <ele>112</ele>
        <time>2015-01-18T12:29:58Z</time>
      </trkpt>
      <trkpt lat="49.2226" lon="2.57095">
        <ele>115</ele>
        <time>2015-01-18T12:30:04Z</time>
      </trkpt>
      <trkpt lat="49.22255" lon="2.57086">
        <ele>114</ele>
        <time>2015-01-18T12:30:10Z</time>
      </trkpt>
      <trkpt lat="49.2225" lon="2.57075">
        <ele>114</ele>
        <time>2015-01-18T12:30:16Z</time>
      </trkpt>
      <trkpt lat="49.22248" lon="2.57064">
        <ele>111</ele>
        <time>2015-01-18T12:30:21Z</time>
      </trkpt>
      <trkpt lat="49.22245" lon="2.57054">
        <ele>110</ele>
        <time>2015-01-18T12:30:28Z</time>
      </trkpt>
      <trkpt lat="49.22242" lon="2.57043">
        <ele>107</ele>
        <time>2015-01-18T12:30:35Z</time>
      </trkpt>
      <trkpt lat="49.2224" lon="2.57033">
        <ele>110</ele>
        <time>2015-01-18T12:30:41Z</time>
      </trkpt>
      <trkpt lat="49.22237" lon="2.57022">
        <ele>110</ele>
        <time>2015-01-18T12:30:48Z</time>
      </trkpt>
      <trkpt lat="49.22235" lon="2.57011">
        <ele>106</ele>
        <time>2015-01-18T12:30:54Z</time>
      </trkpt>
      <trkpt lat="49.22234" lon="2.56999">
        <ele>103</ele>
        <time>2015-01-18T12:31:00Z</time>
      </trkpt>
      <trkpt lat="49.22234" lon="2.56988">
        <ele>100</ele>
        <time>2015-01-18T12:31:07Z</time>
      </trkpt>
      <trkpt lat="49.2223" lon="2.56979">
        <ele>102</ele>
        <time>2015-01-18T12:31:13Z</time>
      </trkpt>
      <trkpt lat="49.22226" lon="2.56969">
        <ele>103</ele>
        <time>2015-01-18T12:31:18Z</time>
      </trkpt>
      <trkpt lat="49.22221" lon="2.56959">
        <ele>101</ele>
        <time>2015-01-18T12:31:23Z</time>
      </trkpt>
      <trkpt lat="49.22219" lon="2.56949">
        <ele>105</ele>
        <time>2015-01-18T12:31:28Z</time>
      </trkpt>
      <trkpt lat="49.22214" lon="2.56939">
        <ele>106</ele>
        <time>2015-01-18T12:31:35Z</time>
      </trkpt>
      <trkpt lat="49.22212" lon="2.56928">
        <ele>109</ele>
        <time>2015-01-18T12:31:42Z</time>
      </trkpt>
      <trkpt lat="49.22207" lon="2.56918">
        <ele>105</ele>
        <time>2015-01-18T12:31:48Z</time>
      </trkpt>
      <trkpt lat="49.22205" lon="2.56907">
        <ele>114</ele>
        <time>2015-01-18T12:31:54Z</time>
      </trkpt>
      <trkpt lat="49.222" lon="2.56897">
        <ele>113</ele>
        <time>2015-01-18T12:32:00Z</time>
      </trkpt>
      <trkpt lat="49.22195" lon="2.56888">
        <ele>112</ele>
        <time>2015-01-18T12:32:05Z</time>
      </trkpt>
      <trkpt lat="49.22193" lon="2.56878">
        <ele>109</ele>
        <time>2015-01-18T12:32:12Z</time>
      </trkpt>
      <trkpt lat="49.22188" lon="2.56866">
        <ele>110</ele>
        <time>2015-01-18T12:32:18Z</time>
      </trkpt>
      <trkpt lat="49.22185" lon="2.56856">
        <ele>105</ele>
        <time>2015-01-18T12:32:23Z</time>
      </trkpt>
      <trkpt lat="49.22183" lon="2.56844">
        <ele>105</ele>
        <time>2015-01-18T12:32:30Z</time>
      </trkpt>
      <trkpt lat="49.22177" lon="2.56836">
        <ele>107</ele>
        <time>2015-01-18T12:32:34Z</time>
      </trkpt>
      <trkpt lat="49.22174" lon="2.56826">
        <ele>107</ele>
        <time>2015-01-18T12:32:38Z</time>
      </trkpt>
      <trkpt lat="49.22169" lon="2.56817">
        <ele>106</ele>
        <time>2015-01-18T12:32:42Z</time>
      </trkpt>
      <trkpt lat="49.22166" lon="2.56806">
        <ele>105</ele>
        <time>2015-01-18T12:32:48Z</time>
      </trkpt>
      <trkpt lat="49.22163" lon="2.56795">
        <ele>104</ele>
        <time>2015-01-18T12:32:55Z</time>
      </trkpt>
      <trkpt lat="49.22158" lon="2.56784">
        <ele>107</ele>
        <time>2015-01-18T12:33:01Z</time>
      </trkpt>
      <trkpt lat="49.22155" lon="2.56773">
        <ele>104</ele>
        <time>2015-01-18T12:33:06Z</time>
      </trkpt>
      <trkpt lat="49.22152" lon="2.56763">
        <ele>103</ele>
        <time>2015-01-18T12:33:13Z</time>
      </trkpt>
      <trkpt lat="49.22146" lon="2.56755">
        <ele>102</ele>
        <time>2015-01-18T12:33:18Z</time>
      </trkpt>
      <trkpt lat="49.22144" lon="2.56744">
        <ele>103</ele>
        <time>2015-01-18T12:33:24Z</time>
      </trkpt>
      <trkpt lat="49.2214" lon="2.56735">
        <ele>104</ele>
        <time>2015-01-18T12:33:31Z</time>
      </trkpt>
      <trkpt lat="49.22136" lon="2.56726">
        <ele>103</ele>
        <time>2015-01-18T12:33:38Z</time>
      </trkpt>
      <trkpt lat="49.22133" lon="2.56713">
        <ele>102</ele>
        <time>2015-01-18T12:33:45Z</time>
      </trkpt>
      <trkpt lat="49.2213" lon="2.56703">
        <ele>103</ele>
        <time>2015-01-18T12:33:49Z</time>
      </trkpt>
      <trkpt lat="49.22127" lon="2.56692">
        <ele>104</ele>
        <time>2015-01-18T12:33:54Z</time>
      </trkpt>
      <trkpt lat="49.22124" lon="2.56682">
        <ele>105</ele>
        <time>2015-01-18T12:34:01Z</time>
      </trkpt>
      <trkpt lat="49.2212" lon="2.56672">
        <ele>103</ele>
        <time>2015-01-18T12:34:07Z</time>
      </trkpt>
      <trkpt lat="49.22118" lon="2.56662">
        <ele>104</ele>
        <time>2015-01-18T12:34:12Z</time>
      </trkpt>
      <trkpt lat="49.22117" lon="2.56652">
        <ele>101</ele>
        <time>2015-01-18T12:34:19Z</time>
      </trkpt>
      <trkpt lat="49.22115" lon="2.5664">
        <ele>104</ele>
        <time>2015-01-18T12:34:26Z</time>
      </trkpt>
      <trkpt lat="49.22112" lon="2.56629">
        <ele>104</ele>
        <time>2015-01-18T12:34:32Z</time>
      </trkpt>
      <trkpt lat="49.22112" lon="2.56629">
        <ele>98</ele>
        <time>2015-01-18T12:34:39Z</time>
      </trkpt>
      <trkpt lat="49.2211" lon="2.56618">
        <ele>96</ele>
        <time>2015-01-18T12:35:41Z</time>
      </trkpt>
      <trkpt lat="49.22107" lon="2.56607">
        <ele>95</ele>
        <time>2015-01-18T12:35:46Z</time>
      </trkpt>
      <trkpt lat="49.22105" lon="2.56596">
        <ele>98</ele>
        <time>2015-01-18T12:35:52Z</time>
      </trkpt>
      <trkpt lat="49.22102" lon="2.56586">
        <ele>99</ele>
        <time>2015-01-18T12:35:59Z</time>
      </trkpt>
      <trkpt lat="49.22099" lon="2.56576">
        <ele>98</ele>
        <time>2015-01-18T12:36:04Z</time>
      </trkpt>
      <trkpt lat="49.22096" lon="2.56566">
        <ele>96</ele>
        <time>2015-01-18T12:36:09Z</time>
      </trkpt>
      <trkpt lat="49.22093" lon="2.56555">
        <ele>98</ele>
        <time>2015-01-18T12:36:14Z</time>
      </trkpt>
      <trkpt lat="49.22089" lon="2.56544">
        <ele>96</ele>
        <time>2015-01-18T12:36:20Z</time>
      </trkpt>
      <trkpt lat="49.22086" lon="2.56533">
        <ele>97</ele>
        <time>2015-01-18T12:36:27Z</time>
      </trkpt>
      <trkpt lat="49.22082" lon="2.56523">
        <ele>95</ele>
        <time>2015-01-18T12:36:33Z</time>
      </trkpt>
      <trkpt lat="49.22078" lon="2.56513">
        <ele>99</ele>
        <time>2015-01-18T12:36:39Z</time>
      </trkpt>
      <trkpt lat="49.22074" lon="2.56503">
        <ele>98</ele>
        <time>2015-01-18T12:36:45Z</time>
      </trkpt>
      <trkpt lat="49.22072" lon="2.56491">
        <ele>93</ele>
        <time>2015-01-18T12:36:51Z</time>
      </trkpt>
      <trkpt lat="49.22068" lon="2.56479">
        <ele>92</ele>
        <time>2015-01-18T12:36:57Z</time>
      </trkpt>
      <trkpt lat="49.22065" lon="2.56467">
        <ele>92</ele>
        <time>2015-01-18T12:37:03Z</time>
      </trkpt>
      <trkpt lat="49.22062" lon="2.56456">
        <ele>96</ele>
        <time>2015-01-18T12:37:09Z</time>
      </trkpt>
      <trkpt lat="49.22058" lon="2.56446">
        <ele>95</ele>
        <time>2015-01-18T12:37:14Z</time>
      </trkpt>
      <trkpt lat="49.22055" lon="2.56436">
        <ele>95</ele>
        <time>2015-01-18T12:37:19Z</time>
      </trkpt>
      <trkpt lat="49.22052" lon="2.56425">
        <ele>97</ele>
        <time>2015-01-18T12:37:24Z</time>
      </trkpt>
      <trkpt lat="49.22048" lon="2.56416">
        <ele>95</ele>
        <time>2015-01-18T12:37:29Z</time>
      </trkpt>
      <trkpt lat="49.22044" lon="2.56405">
        <ele>98</ele>
        <time>2015-01-18T12:37:35Z</time>
      </trkpt>
      <trkpt lat="49.22041" lon="2.56395">
        <ele>100</ele>
        <time>2015-01-18T12:37:42Z</time>
      </trkpt>
      <trkpt lat="49.22038" lon="2.56387">
        <ele>100</ele>
        <time>2015-01-18T12:37:49Z</time>
      </trkpt>
      <trkpt lat="49.22034" lon="2.56376">
        <ele>100</ele>
        <time>2015-01-18T12:37:55Z</time>
      </trkpt>
      <trkpt lat="49.22031" lon="2.56366">
        <ele>103</ele>
        <time>2015-01-18T12:37:59Z</time>
      </trkpt>
      <trkpt lat="49.22028" lon="2.56355">
        <ele>102</ele>
        <time>2015-01-18T12:38:04Z</time>
      </trkpt>
      <trkpt lat="49.22026" lon="2.56344">
        <ele>99</ele>
        <time>2015-01-18T12:38:10Z</time>
      </trkpt>
      <trkpt lat="49.22023" lon="2.56334">
        <ele>97</ele>
        <time>2015-01-18T12:38:17Z</time>
      </trkpt>
      <trkpt lat="49.2202" lon="2.56323">
        <ele>97</ele>
        <time>2015-01-18T12:38:23Z</time>
      </trkpt>
      <trkpt lat="49.22018" lon="2.56311">
        <ele>98</ele>
        <time>2015-01-18T12:38:29Z</time>
      </trkpt>
      <trkpt lat="49.22015" lon="2.56298">
        <ele>99</ele>
        <time>2015-01-18T12:38:35Z</time>
      </trkpt>
      <trkpt lat="49.22012" lon="2.56288">
        <ele>94</ele>
        <time>2015-01-18T12:38:42Z</time>
      </trkpt>
      <trkpt lat="49.2201" lon="2.56276">
        <ele>96</ele>
        <time>2015-01-18T12:38:49Z</time>
      </trkpt>
      <trkpt lat="49.22008" lon="2.56265">
        <ele>94</ele>
        <time>2015-01-18T12:38:56Z</time>
      </trkpt>
      <trkpt lat="49.22006" lon="2.56254">
        <ele>93</ele>
        <time>2015-01-18T12:39:02Z</time>
      </trkpt>
      <trkpt lat="49.22003" lon="2.56243">
        <ele>93</ele>
        <time>2015-01-18T12:39:09Z</time>
      </trkpt>
      <trkpt lat="49.21999" lon="2.56231">
        <ele>93</ele>
        <time>2015-01-18T12:39:14Z</time>
      </trkpt>
      <trkpt lat="49.21996" lon="2.56221">
        <ele>89</ele>
        <time>2015-01-18T12:39:21Z</time>
      </trkpt>
      <trkpt lat="49.21993" lon="2.5621">
        <ele>88</ele>
        <time>2015-01-18T12:39:27Z</time>
      </trkpt>
      <trkpt lat="49.2199" lon="2.562">
        <ele>91</ele>
        <time>2015-01-18T12:39:32Z</time>
      </trkpt>
      <trkpt lat="49.21987" lon="2.56189">
        <ele>94</ele>
        <time>2015-01-18T12:39:39Z</time>
      </trkpt>
      <trkpt lat="49.21985" lon="2.56178">
        <ele>92</ele>
        <time>2015-01-18T12:39:45Z</time>
      </trkpt>
      <trkpt lat="49.21982" lon="2.56166">
        <ele>95</ele>
        <time>2015-01-18T12:39:51Z</time>
      </trkpt>
      <trkpt lat="49.21978" lon="2.56155">
        <ele>96</ele>
        <time>2015-01-18T12:39:56Z</time>
      </trkpt>
      <trkpt lat="49.21975" lon="2.56145">
        <ele>97</ele>
        <time>2015-01-18T12:40:01Z</time>
      </trkpt>
      <trkpt lat="49.21971" lon="2.56135">
        <ele>100</ele>
        <time>2015-01-18T12:40:07Z</time>
      </trkpt>
      <trkpt lat="49.21967" lon="2.56126">
        <ele>103</ele>
        <time>2015-01-18T12:40:12Z</time>
      </trkpt>
      <trkpt lat="49.21962" lon="2.56116">
        <ele>105</ele>
        <time>2015-01-18T12:40:17Z</time>
      </trkpt>
      <trkpt lat="49.21958" lon="2.56105">
        <ele>106</ele>
        <time>2015-01-18T12:40:22Z</time>
      </trkpt>
      <trkpt lat="49.21955" lon="2.56094">
        <ele>105</ele>
        <time>2015-01-18T12:40:28Z</time>
      </trkpt>
      <trkpt lat="49.21951" lon="2.56083">
        <ele>107</ele>
        <time>2015-01-18T12:40:34Z</time>
      </trkpt>
      <trkpt lat="49.21947" lon="2.56073">
        <ele>107</ele>
        <time>2015-01-18T12:40:40Z</time>
      </trkpt>
      <trkpt lat="49.21943" lon="2.56062">
        <ele>108</ele>
        <time>2015-01-18T12:40:46Z</time>
      </trkpt>
      <trkpt lat="49.21941" lon="2.56052">
        <ele>107</ele>
        <time>2015-01-18T12:40:53Z</time>
      </trkpt>
      <trkpt lat="49.21939" lon="2.56041">
        <ele>106</ele>
        <time>2015-01-18T12:41:00Z</time>
      </trkpt>
      <trkpt lat="49.21935" lon="2.56031">
        <ele>110</ele>
        <time>2015-01-18T12:41:06Z</time>
      </trkpt>
      <trkpt lat="49.2193" lon="2.5602">
        <ele>111</ele>
        <time>2015-01-18T12:41:12Z</time>
      </trkpt>
      <trkpt lat="49.21926" lon="2.56009">
        <ele>114</ele>
        <time>2015-01-18T12:41:19Z</time>
      </trkpt>
      <trkpt lat="49.21922" lon="2.55999">
        <ele>112</ele>
        <time>2015-01-18T12:41:25Z</time>
      </trkpt>
      <trkpt lat="49.21918" lon="2.55988">
        <ele>111</ele>
        <time>2015-01-18T12:41:31Z</time>
      </trkpt>
      <trkpt lat="49.21916" lon="2.55978">
        <ele>111</ele>
        <time>2015-01-18T12:41:37Z</time>
      </trkpt>
      <trkpt lat="49.21912" lon="2.55966">
        <ele>111</ele>
        <time>2015-01-18T12:41:43Z</time>
      </trkpt>
      <trkpt lat="49.21909" lon="2.55955">
        <ele>110</ele>
        <time>2015-01-18T12:41:49Z</time>
      </trkpt>
      <trkpt lat="49.21906" lon="2.55944">
        <ele>112</ele>
        <time>2015-01-18T12:41:54Z</time>
      </trkpt>
      <trkpt lat="49.21902" lon="2.55933">
        <ele>110</ele>
        <time>2015-01-18T12:42:00Z</time>
      </trkpt>
      <trkpt lat="49.219" lon="2.55923">
        <ele>112</ele>
        <time>2015-01-18T12:42:07Z</time>
      </trkpt>
      <trkpt lat="49.21898" lon="2.55911">
        <ele>112</ele>
        <time>2015-01-18T12:42:14Z</time>
      </trkpt>
      <trkpt lat="49.21899" lon="2.55899">
        <ele>111</ele>
        <time>2015-01-18T12:42:20Z</time>
      </trkpt>
      <trkpt lat="49.21902" lon="2.55887">
        <ele>109</ele>
        <time>2015-01-18T12:42:26Z</time>
      </trkpt>
      <trkpt lat="49.21905" lon="2.55882">
        <ele>109</ele>
        <time>2015-01-18T12:42:33Z</time>
      </trkpt>
      <trkpt lat="49.2191" lon="2.55878">
        <ele>106</ele>
        <time>2015-01-18T12:42:40Z</time>
      </trkpt>
      <trkpt lat="49.21915" lon="2.5587">
        <ele>104</ele>
        <time>2015-01-18T12:42:45Z</time>
      </trkpt>
      <trkpt lat="49.21921" lon="2.55863">
        <ele>103</ele>
        <time>2015-01-18T12:42:51Z</time>
      </trkpt>
      <trkpt lat="49.21927" lon="2.55857">
        <ele>103</ele>
        <time>2015-01-18T12:42:58Z</time>
      </trkpt>
      <trkpt lat="49.21932" lon="2.5585">
        <ele>103</ele>
        <time>2015-01-18T12:43:05Z</time>
      </trkpt>
      <trkpt lat="49.21938" lon="2.55845">
        <ele>100</ele>
        <time>2015-01-18T12:43:12Z</time>
      </trkpt>
      <trkpt lat="49.21943" lon="2.55836">
        <ele>96</ele>
        <time>2015-01-18T12:43:18Z</time>
      </trkpt>
      <trkpt lat="49.21948" lon="2.55828">
        <ele>94</ele>
        <time>2015-01-18T12:43:25Z</time>
      </trkpt>
      <trkpt lat="49.21952" lon="2.55818">
        <ele>91</ele>
        <time>2015-01-18T12:43:32Z</time>
      </trkpt>
      <trkpt lat="49.21956" lon="2.55807">
        <ele>94</ele>
        <time>2015-01-18T12:43:39Z</time>
      </trkpt>
      <trkpt lat="49.2196" lon="2.55798">
        <ele>93</ele>
        <time>2015-01-18T12:43:46Z</time>
      </trkpt>
      <trkpt lat="49.21965" lon="2.55789">
        <ele>98</ele>
        <time>2015-01-18T12:43:53Z</time>
      </trkpt>
      <trkpt lat="49.2197" lon="2.5578">
        <ele>99</ele>
        <time>2015-01-18T12:43:59Z</time>
      </trkpt>
      <trkpt lat="49.21975" lon="2.55771">
        <ele>99</ele>
        <time>2015-01-18T12:44:06Z</time>
      </trkpt>
      <trkpt lat="49.21979" lon="2.55763">
        <ele>94</ele>
        <time>2015-01-18T12:44:13Z</time>
      </trkpt>
      <trkpt lat="49.21983" lon="2.55755">
        <ele>95</ele>
        <time>2015-01-18T12:44:20Z</time>
      </trkpt>
      <trkpt lat="49.21987" lon="2.55747">
        <ele>96</ele>
        <time>2015-01-18T12:44:27Z</time>
      </trkpt>
      <trkpt lat="49.21993" lon="2.55739">
        <ele>96</ele>
        <time>2015-01-18T12:44:34Z</time>
      </trkpt>
      <trkpt lat="49.21997" lon="2.5573">
        <ele>99</ele>
        <time>2015-01-18T12:44:41Z</time>
      </trkpt>
      <trkpt lat="49.22002" lon="2.5572">
        <ele>100</ele>
        <time>2015-01-18T12:44:47Z</time>
      </trkpt>
      <trkpt lat="49.22007" lon="2.5571">
        <ele>105</ele>
        <time>2015-01-18T12:44:53Z</time>
      </trkpt>
      <trkpt lat="49.2201" lon="2.557">
        <ele>108</ele>
        <time>2015-01-18T12:45:00Z</time>
      </trkpt>
      <trkpt lat="49.22016" lon="2.55691">
        <ele>105</ele>
        <time>2015-01-18T12:45:07Z</time>
      </trkpt>
      <trkpt lat="49.2202" lon="2.55683">
        <ele>105</ele>
        <time>2015-01-18T12:45:14Z</time>
      </trkpt>
      <trkpt lat="49.22025" lon="2.55672">
        <ele>107</ele>
        <time>2015-01-18T12:45:21Z</time>
      </trkpt>
      <trkpt lat="49.22031" lon="2.55662">
        <ele>108</ele>
        <time>2015-01-18T12:45:26Z</time>
      </trkpt>
      <trkpt lat="49.22036" lon="2.55652">
        <ele>107</ele>
        <time>2015-01-18T12:45:31Z</time>
      </trkpt>
      <trkpt lat="49.22042" lon="2.55644">
        <ele>106</ele>
        <time>2015-01-18T12:45:37Z</time>
      </trkpt>
      <trkpt lat="49.22048" lon="2.55636">
        <ele>104</ele>
        <time>2015-01-18T12:45:44Z</time>
      </trkpt>
      <trkpt lat="49.22053" lon="2.55628">
        <ele>105</ele>
        <time>2015-01-18T12:45:51Z</time>
      </trkpt>
      <trkpt lat="49.22058" lon="2.55619">
        <ele>106</ele>
        <time>2015-01-18T12:45:58Z</time>
      </trkpt>
      <trkpt lat="49.22062" lon="2.5561">
        <ele>105</ele>
        <time>2015-01-18T12:46:03Z</time>
      </trkpt>
      <trkpt lat="49.22069" lon="2.55602">
        <ele>105</ele>
        <time>2015-01-18T12:46:08Z</time>
      </trkpt>
      <trkpt lat="49.22073" lon="2.55593">
        <ele>100</ele>
        <time>2015-01-18T12:46:14Z</time>
      </trkpt>
      <trkpt lat="49.22079" lon="2.55585">
        <ele>103</ele>
        <time>2015-01-18T12:46:20Z</time>
      </trkpt>
      <trkpt lat="49.22084" lon="2.55576">
        <ele>104</ele>
        <time>2015-01-18T12:46:26Z</time>
      </trkpt>
      <trkpt lat="49.22089" lon="2.55568">
        <ele>102</ele>
        <time>2015-01-18T12:46:33Z</time>
      </trkpt>
      <trkpt lat="49.22094" lon="2.55559">
        <ele>104</ele>
        <time>2015-01-18T12:46:40Z</time>
      </trkpt>
      <trkpt lat="49.221" lon="2.55553">
        <ele>101</ele>
        <time>2015-01-18T12:46:47Z</time>
      </trkpt>
      <trkpt lat="49.22104" lon="2.55544">
        <ele>103</ele>
        <time>2015-01-18T12:46:54Z</time>
      </trkpt>
      <trkpt lat="49.22107" lon="2.55538">
        <ele>103</ele>
        <time>2015-01-18T12:47:01Z</time>
      </trkpt>
      <trkpt lat="49.22111" lon="2.55527">
        <ele>106</ele>
        <time>2015-01-18T12:47:08Z</time>
      </trkpt>
      <trkpt lat="49.22116" lon="2.55517">
        <ele>105</ele>
        <time>2015-01-18T12:47:14Z</time>
      </trkpt>
      <trkpt lat="49.22121" lon="2.55508">
        <ele>105</ele>
        <time>2015-01-18T12:47:20Z</time>
      </trkpt>
      <trkpt lat="49.22127" lon="2.555">
        <ele>106</ele>
        <time>2015-01-18T12:47:26Z</time>
      </trkpt>
      <trkpt lat="49.22131" lon="2.55489">
        <ele>109</ele>
        <time>2015-01-18T12:47:31Z</time>
      </trkpt>
      <trkpt lat="49.22136" lon="2.5548">
        <ele>112</ele>
        <time>2015-01-18T12:47:37Z</time>
      </trkpt>
      <trkpt lat="49.22141" lon="2.55474">
        <ele>115</ele>
        <time>2015-01-18T12:47:44Z</time>
      </trkpt>
      <trkpt lat="49.22146" lon="2.5547">
        <ele>113</ele>
        <time>2015-01-18T12:47:51Z</time>
      </trkpt>
      <trkpt lat="49.22154" lon="2.55466">
        <ele>106</ele>
        <time>2015-01-18T12:47:58Z</time>
      </trkpt>
      <trkpt lat="49.22162" lon="2.55464">
        <ele>102</ele>
        <time>2015-01-18T12:48:03Z</time>
      </trkpt>
      <trkpt lat="49.22169" lon="2.55464">
        <ele>100</ele>
        <time>2015-01-18T12:48:09Z</time>
      </trkpt>
      <trkpt lat="49.22176" lon="2.5546">
        <ele>97</ele>
        <time>2015-01-18T12:48:16Z</time>
      </trkpt>
      <trkpt lat="49.22181" lon="2.55453">
        <ele>96</ele>
        <time>2015-01-18T12:48:23Z</time>
      </trkpt>
      <trkpt lat="49.22182" lon="2.55448">
        <ele>99</ele>
        <time>2015-01-18T12:48:30Z</time>
      </trkpt>
      <trkpt lat="49.22189" lon="2.55441">
        <ele>110</ele>
        <time>2015-01-18T12:48:37Z</time>
      </trkpt>
      <trkpt lat="49.22196" lon="2.55433">
        <ele>106</ele>
        <time>2015-01-18T12:48:41Z</time>
      </trkpt>
      <trkpt lat="49.22203" lon="2.55427">
        <ele>102</ele>
        <time>2015-01-18T12:48:46Z</time>
      </trkpt>
      <trkpt lat="49.22208" lon="2.55422">
        <ele>102</ele>
        <time>2015-01-18T12:48:53Z</time>
      </trkpt>
      <trkpt lat="49.22221" lon="2.55421">
        <ele>105</ele>
        <time>2015-01-18T12:49:24Z</time>
      </trkpt>
      <trkpt lat="49.22227" lon="2.55417">
        <ele>108</ele>
        <time>2015-01-18T12:49:40Z</time>
      </trkpt>
      <trkpt lat="49.22233" lon="2.55417">
        <ele>108</ele>
        <time>2015-01-18T12:49:47Z</time>
      </trkpt>
      <trkpt lat="49.2224" lon="2.55419">
        <ele>105</ele>
        <time>2015-01-18T12:49:54Z</time>
      </trkpt>
      <trkpt lat="49.22248" lon="2.55421">
        <ele>105</ele>
        <time>2015-01-18T12:49:59Z</time>
      </trkpt>
      <trkpt lat="49.22258" lon="2.55421">
        <ele>104</ele>
        <time>2015-01-18T12:50:04Z</time>
      </trkpt>
      <trkpt lat="49.22266" lon="2.5542">
        <ele>105</ele>
        <time>2015-01-18T12:50:09Z</time>
      </trkpt>
      <trkpt lat="49.22272" lon="2.55419">
        <ele>107</ele>
        <time>2015-01-18T12:50:16Z</time>
      </trkpt>
      <trkpt lat="49.22278" lon="2.55419">
        <ele>105</ele>
        <time>2015-01-18T12:50:34Z</time>
      </trkpt>
      <trkpt lat="49.22286" lon="2.55418">
        <ele>105</ele>
        <time>2015-01-18T12:50:39Z</time>
      </trkpt>
      <trkpt lat="49.22294" lon="2.55417">
        <ele>106</ele>
        <time>2015-01-18T12:50:43Z</time>
      </trkpt>
      <trkpt lat="49.22302" lon="2.55418">
        <ele>104</ele>
        <time>2015-01-18T12:50:46Z</time>
      </trkpt>
      <trkpt lat="49.2231" lon="2.55417">
        <ele>103</ele>
        <time>2015-01-18T12:50:48Z</time>
      </trkpt>
      <trkpt lat="49.22318" lon="2.55417">
        <ele>103</ele>
        <time>2015-01-18T12:50:53Z</time>
      </trkpt>
      <trkpt lat="49.22325" lon="2.55414">
        <ele>105</ele>
        <time>2015-01-18T12:51:00Z</time>
      </trkpt>
      <trkpt lat="49.22328" lon="2.55414">
        <ele>105</ele>
        <time>2015-01-18T12:51:07Z</time>
      </trkpt>
      <trkpt lat="49.22333" lon="2.55415">
        <ele>101</ele>
        <time>2015-01-18T12:51:14Z</time>
      </trkpt>
      <trkpt lat="49.22341" lon="2.5541">
        <ele>101</ele>
        <time>2015-01-18T12:51:19Z</time>
      </trkpt>
      <trkpt lat="49.22349" lon="2.55408">
        <ele>101</ele>
        <time>2015-01-18T12:51:25Z</time>
      </trkpt>
      <trkpt lat="49.22357" lon="2.55404">
        <ele>102</ele>
        <time>2015-01-18T12:51:31Z</time>
      </trkpt>
      <trkpt lat="49.22364" lon="2.55401">
        <ele>103</ele>
        <time>2015-01-18T12:51:35Z</time>
      </trkpt>
      <trkpt lat="49.22373" lon="2.55401">
        <ele>102</ele>
        <time>2015-01-18T12:51:39Z</time>
      </trkpt>
      <trkpt lat="49.22381" lon="2.55398">
        <ele>102</ele>
        <time>2015-01-18T12:51:42Z</time>
      </trkpt>
      <trkpt lat="49.22388" lon="2.55398">
        <ele>97</ele>
        <time>2015-01-18T12:51:45Z</time>
      </trkpt>
      <trkpt lat="49.22396" lon="2.55398">
        <ele>94</ele>
        <time>2015-01-18T12:51:48Z</time>
      </trkpt>
      <trkpt lat="49.22404" lon="2.55397">
        <ele>91</ele>
        <time>2015-01-18T12:51:52Z</time>
      </trkpt>
      <trkpt lat="49.22411" lon="2.55395">
        <ele>92</ele>
        <time>2015-01-18T12:51:56Z</time>
      </trkpt>
      <trkpt lat="49.22419" lon="2.55393">
        <ele>95</ele>
        <time>2015-01-18T12:52:00Z</time>
      </trkpt>
      <trkpt lat="49.22428" lon="2.55393">
        <ele>93</ele>
        <time>2015-01-18T12:52:04Z</time>
      </trkpt>
      <trkpt lat="49.22435" lon="2.55393">
        <ele>90</ele>
        <time>2015-01-18T12:52:07Z</time>
      </trkpt>
      <trkpt lat="49.22443" lon="2.55393">
        <ele>92</ele>
        <time>2015-01-18T12:52:10Z</time>
      </trkpt>
      <trkpt lat="49.22451" lon="2.55393">
        <ele>92</ele>
        <time>2015-01-18T12:52:13Z</time>
      </trkpt>
      <trkpt lat="49.22459" lon="2.55391">
        <ele>94</ele>
        <time>2015-01-18T12:52:16Z</time>
      </trkpt>
      <trkpt lat="49.22467" lon="2.55392">
        <ele>90</ele>
        <time>2015-01-18T12:52:20Z</time>
      </trkpt>
      <trkpt lat="49.22474" lon="2.55393">
        <ele>88</ele>
        <time>2015-01-18T12:52:27Z</time>
      </trkpt>
      <trkpt lat="49.22483" lon="2.55391">
        <ele>85</ele>
        <time>2015-01-18T12:52:41Z</time>
      </trkpt>
      <trkpt lat="49.2249" lon="2.55393">
        <ele>84</ele>
        <time>2015-01-18T12:52:45Z</time>
      </trkpt>
      <trkpt lat="49.22498" lon="2.55394">
        <ele>82</ele>
        <time>2015-01-18T12:52:49Z</time>
      </trkpt>
      <trkpt lat="49.22505" lon="2.55394">
        <ele>80</ele>
        <time>2015-01-18T12:52:52Z</time>
      </trkpt>
      <trkpt lat="49.22514" lon="2.55394">
        <ele>75</ele>
        <time>2015-01-18T12:52:56Z</time>
      </trkpt>
      <trkpt lat="49.22522" lon="2.55395">
        <ele>75</ele>
        <time>2015-01-18T12:52:59Z</time>
      </trkpt>
      <trkpt lat="49.22529" lon="2.55396">
        <ele>74</ele>
        <time>2015-01-18T12:53:02Z</time>
      </trkpt>
      <trkpt lat="49.22538" lon="2.55396">
        <ele>73</ele>
        <time>2015-01-18T12:53:05Z</time>
      </trkpt>
      <trkpt lat="49.22546" lon="2.554">
        <ele>76</ele>
        <time>2015-01-18T12:53:10Z</time>
      </trkpt>
      <trkpt lat="49.22552" lon="2.55403">
        <ele>76</ele>
        <time>2015-01-18T12:53:17Z</time>
      </trkpt>
      <trkpt lat="49.22559" lon="2.55407">
        <ele>82</ele>
        <time>2015-01-18T12:53:24Z</time>
      </trkpt>
      <trkpt lat="49.22567" lon="2.5541">
        <ele>89</ele>
        <time>2015-01-18T12:53:31Z</time>
      </trkpt>
      <trkpt lat="49.22575" lon="2.55415">
        <ele>91</ele>
        <time>2015-01-18T12:53:38Z</time>
      </trkpt>
      <trkpt lat="49.22582" lon="2.5542">
        <ele>93</ele>
        <time>2015-01-18T12:53:45Z</time>
      </trkpt>
      <trkpt lat="49.22589" lon="2.55422">
        <ele>96</ele>
        <time>2015-01-18T12:53:52Z</time>
      </trkpt>
      <trkpt lat="49.22596" lon="2.55418">
        <ele>100</ele>
        <time>2015-01-18T12:53:59Z</time>
      </trkpt>
      <trkpt lat="49.22602" lon="2.55411">
        <ele>104</ele>
        <time>2015-01-18T12:54:05Z</time>
      </trkpt>
      <trkpt lat="49.22608" lon="2.55404">
        <ele>105</ele>
        <time>2015-01-18T12:54:12Z</time>
      </trkpt>
      <trkpt lat="49.22616" lon="2.55397">
        <ele>108</ele>
        <time>2015-01-18T12:54:18Z</time>
      </trkpt>
      <trkpt lat="49.22623" lon="2.55392">
        <ele>109</ele>
        <time>2015-01-18T12:54:24Z</time>
      </trkpt>
      <trkpt lat="49.22628" lon="2.55383">
        <ele>107</ele>
        <time>2015-01-18T12:54:30Z</time>
      </trkpt>
      <trkpt lat="49.22635" lon="2.55377">
        <ele>106</ele>
        <time>2015-01-18T12:54:37Z</time>
      </trkpt>
      <trkpt lat="49.22641" lon="2.55368">
        <ele>108</ele>
        <time>2015-01-18T12:54:43Z</time>
      </trkpt>
      <trkpt lat="49.22648" lon="2.55362">
        <ele>105</ele>
        <time>2015-01-18T12:54:50Z</time>
      </trkpt>
      <trkpt lat="49.22654" lon="2.55355">
        <ele>107</ele>
        <time>2015-01-18T12:54:55Z</time>
      </trkpt>
      <trkpt lat="49.22661" lon="2.5535">
        <ele>108</ele>
        <time>2015-01-18T12:55:01Z</time>
      </trkpt>
      <trkpt lat="49.22667" lon="2.55342">
        <ele>109</ele>
        <time>2015-01-18T12:55:06Z</time>
      </trkpt>
      <trkpt lat="49.22674" lon="2.55335">
        <ele>108</ele>
        <time>2015-01-18T12:55:12Z</time>
      </trkpt>
      <trkpt lat="49.22681" lon="2.5533">
        <ele>107</ele>
        <time>2015-01-18T12:55:18Z</time>
      </trkpt>
      <trkpt lat="49.22687" lon="2.55323">
        <ele>105</ele>
        <time>2015-01-18T12:55:24Z</time>
      </trkpt>
      <trkpt lat="49.22693" lon="2.55313">
        <ele>109</ele>
        <time>2015-01-18T12:55:30Z</time>
      </trkpt>
      <trkpt lat="49.227" lon="2.55308">
        <ele>105</ele>
        <time>2015-01-18T12:55:36Z</time>
      </trkpt>
      <trkpt lat="49.22708" lon="2.55305">
        <ele>103</ele>
        <time>2015-01-18T12:55:43Z</time>
      </trkpt>
      <trkpt lat="49.22714" lon="2.55301">
        <ele>103</ele>
        <time>2015-01-18T12:55:49Z</time>
      </trkpt>
      <trkpt lat="49.2272" lon="2.55293">
        <ele>102</ele>
        <time>2015-01-18T12:55:54Z</time>
      </trkpt>
      <trkpt lat="49.22729" lon="2.55291">
        <ele>94</ele>
        <time>2015-01-18T12:56:00Z</time>
      </trkpt>
      <trkpt lat="49.22737" lon="2.55289">
        <ele>95</ele>
        <time>2015-01-18T12:56:06Z</time>
      </trkpt>
      <trkpt lat="49.22745" lon="2.55289">
        <ele>91</ele>
        <time>2015-01-18T12:56:13Z</time>
      </trkpt>
      <trkpt lat="49.22753" lon="2.55286">
        <ele>92</ele>
        <time>2015-01-18T12:56:20Z</time>
      </trkpt>
      <trkpt lat="49.2276" lon="2.55284">
        <ele>85</ele>
        <time>2015-01-18T12:56:27Z</time>
      </trkpt>
      <trkpt lat="49.22767" lon="2.55289">
        <ele>76</ele>
        <time>2015-01-18T12:56:32Z</time>
      </trkpt>
      <trkpt lat="49.22775" lon="2.55289">
        <ele>76</ele>
        <time>2015-01-18T12:56:38Z</time>
      </trkpt>
      <trkpt lat="49.22781" lon="2.55284">
        <ele>74</ele>
        <time>2015-01-18T12:56:45Z</time>
      </trkpt>
      <trkpt lat="49.22788" lon="2.55278">
        <ele>77</ele>
        <time>2015-01-18T12:56:52Z</time>
      </trkpt>
      <trkpt lat="49.22795" lon="2.55271">
        <ele>72</ele>
        <time>2015-01-18T12:56:59Z</time>
      </trkpt>
      <trkpt lat="49.22801" lon="2.55266">
        <ele>77</ele>
        <time>2015-01-18T12:57:04Z</time>
      </trkpt>
      <trkpt lat="49.22808" lon="2.55259">
        <ele>79</ele>
        <time>2015-01-18T12:57:10Z</time>
      </trkpt>
      <trkpt lat="49.22815" lon="2.55258">
        <ele>74</ele>
        <time>2015-01-18T12:57:15Z</time>
      </trkpt>
      <trkpt lat="49.22823" lon="2.55259">
        <ele>74</ele>
        <time>2015-01-18T12:57:21Z</time>
      </trkpt>
      <trkpt lat="49.22828" lon="2.5526">
        <ele>77</ele>
        <time>2015-01-18T12:57:28Z</time>
      </trkpt>
      <trkpt lat="49.22833" lon="2.55261">
        <ele>80</ele>
        <time>2015-01-18T12:57:35Z</time>
      </trkpt>
      <trkpt lat="49.22838" lon="2.55263">
        <ele>81</ele>
        <time>2015-01-18T12:57:42Z</time>
      </trkpt>
      <trkpt lat="49.22844" lon="2.55265">
        <ele>84</ele>
        <time>2015-01-18T12:57:49Z</time>
      </trkpt>
      <trkpt lat="49.22848" lon="2.55265">
        <ele>86</ele>
        <time>2015-01-18T12:57:56Z</time>
      </trkpt>
      <trkpt lat="49.22853" lon="2.55268">
        <ele>88</ele>
        <time>2015-01-18T12:58:03Z</time>
      </trkpt>
      <trkpt lat="49.22859" lon="2.55273">
        <ele>89</ele>
        <time>2015-01-18T12:58:10Z</time>
      </trkpt>
      <trkpt lat="49.22866" lon="2.55277">
        <ele>89</ele>
        <time>2015-01-18T12:58:17Z</time>
      </trkpt>
      <trkpt lat="49.22873" lon="2.55281">
        <ele>91</ele>
        <time>2015-01-18T12:58:24Z</time>
      </trkpt>
      <trkpt lat="49.22881" lon="2.55281">
        <ele>91</ele>
        <time>2015-01-18T12:58:30Z</time>
      </trkpt>
      <trkpt lat="49.22888" lon="2.55278">
        <ele>95</ele>
        <time>2015-01-18T12:58:34Z</time>
      </trkpt>
      <trkpt lat="49.22894" lon="2.55269">
        <ele>100</ele>
        <time>2015-01-18T12:58:39Z</time>
      </trkpt>
      <trkpt lat="49.22896" lon="2.55258">
        <ele>106</ele>
        <time>2015-01-18T12:58:45Z</time>
      </trkpt>
      <trkpt lat="49.22895" lon="2.55246">
        <ele>110</ele>
        <time>2015-01-18T12:58:50Z</time>
      </trkpt>
      <trkpt lat="49.22895" lon="2.55234">
        <ele>115</ele>
        <time>2015-01-18T12:58:55Z</time>
      </trkpt>
      <trkpt lat="49.22894" lon="2.5522">
        <ele>115</ele>
        <time>2015-01-18T12:59:00Z</time>
      </trkpt>
      <trkpt lat="49.22893" lon="2.55208">
        <ele>116</ele>
        <time>2015-01-18T12:59:05Z</time>
      </trkpt>
      <trkpt lat="49.22892" lon="2.55195">
        <ele>116</ele>
        <time>2015-01-18T12:59:11Z</time>
      </trkpt>
      <trkpt lat="49.22893" lon="2.55184">
        <ele>116</ele>
        <time>2015-01-18T12:59:17Z</time>
      </trkpt>
      <trkpt lat="49.22893" lon="2.55171">
        <ele>117</ele>
        <time>2015-01-18T12:59:23Z</time>
      </trkpt>
      <trkpt lat="49.22892" lon="2.55159">
        <ele>119</ele>
        <time>2015-01-18T12:59:29Z</time>
      </trkpt>
      <trkpt lat="49.22889" lon="2.55146">
        <ele>120</ele>
        <time>2015-01-18T12:59:33Z</time>
      </trkpt>
      <trkpt lat="49.22888" lon="2.55136">
        <ele>121</ele>
        <time>2015-01-18T12:59:40Z</time>
      </trkpt>
      <trkpt lat="49.22888" lon="2.55124">
        <ele>122</ele>
        <time>2015-01-18T12:59:46Z</time>
      </trkpt>
      <trkpt lat="49.22888" lon="2.55114">
        <ele>122</ele>
        <time>2015-01-18T12:59:52Z</time>
      </trkpt>
      <trkpt lat="49.22888" lon="2.55102">
        <ele>122</ele>
        <time>2015-01-18T12:59:58Z</time>
      </trkpt>
      <trkpt lat="49.22887" lon="2.55091">
        <ele>122</ele>
        <time>2015-01-18T13:00:04Z</time>
      </trkpt>
      <trkpt lat="49.22886" lon="2.5508">
        <ele>123</ele>
        <time>2015-01-18T13:00:10Z</time>
      </trkpt>
      <trkpt lat="49.22886" lon="2.5507">
        <ele>123</ele>
        <time>2015-01-18T13:00:17Z</time>
      </trkpt>
      <trkpt lat="49.22885" lon="2.5506">
        <ele>125</ele>
        <time>2015-01-18T13:00:24Z</time>
      </trkpt>
      <trkpt lat="49.22887" lon="2.55049">
        <ele>124</ele>
        <time>2015-01-18T13:00:30Z</time>
      </trkpt>
      <trkpt lat="49.22894" lon="2.55044">
        <ele>128</ele>
        <time>2015-01-18T13:00:37Z</time>
      </trkpt>
      <trkpt lat="49.22902" lon="2.55043">
        <ele>127</ele>
        <time>2015-01-18T13:00:43Z</time>
      </trkpt>
      <trkpt lat="49.22909" lon="2.5504">
        <ele>131</ele>
        <time>2015-01-18T13:00:50Z</time>
      </trkpt>
      <trkpt lat="49.22912" lon="2.55038">
        <ele>129</ele>
        <time>2015-01-18T13:00:57Z</time>
      </trkpt>
      <trkpt lat="49.22911" lon="2.55039">
        <ele>127</ele>
        <time>2015-01-18T13:01:04Z</time>
      </trkpt>
      <trkpt lat="49.22918" lon="2.55037">
        <ele>127</ele>
        <time>2015-01-18T13:01:11Z</time>
      </trkpt>
      <trkpt lat="49.22926" lon="2.55033">
        <ele>127</ele>
        <time>2015-01-18T13:01:17Z</time>
      </trkpt>
      <trkpt lat="49.22931" lon="2.55024">
        <ele>123</ele>
        <time>2015-01-18T13:01:24Z</time>
      </trkpt>
      <trkpt lat="49.2293" lon="2.55012">
        <ele>123</ele>
        <time>2015-01-18T13:01:30Z</time>
      </trkpt>
      <trkpt lat="49.22928" lon="2.55001">
        <ele>122</ele>
        <time>2015-01-18T13:01:35Z</time>
      </trkpt>
      <trkpt lat="49.22928" lon="2.54988">
        <ele>118</ele>
        <time>2015-01-18T13:01:41Z</time>
      </trkpt>
      <trkpt lat="49.22929" lon="2.54976">
        <ele>120</ele>
        <time>2015-01-18T13:01:47Z</time>
      </trkpt>
      <trkpt lat="49.22929" lon="2.54965">
        <ele>120</ele>
        <time>2015-01-18T13:01:53Z</time>
      </trkpt>
      <trkpt lat="49.22931" lon="2.54954">
        <ele>117</ele>
        <time>2015-01-18T13:01:59Z</time>
      </trkpt>
      <trkpt lat="49.22934" lon="2.54945">
        <ele>117</ele>
        <time>2015-01-18T13:02:06Z</time>
      </trkpt>
      <trkpt lat="49.22936" lon="2.5494">
        <ele>117</ele>
        <time>2015-01-18T13:02:13Z</time>
      </trkpt>
      <trkpt lat="49.22944" lon="2.54935">
        <ele>118</ele>
        <time>2015-01-18T13:02:18Z</time>
      </trkpt>
      <trkpt lat="49.2295" lon="2.54926">
        <ele>122</ele>
        <time>2015-01-18T13:02:23Z</time>
      </trkpt>
      <trkpt lat="49.22954" lon="2.54916">
        <ele>125</ele>
        <time>2015-01-18T13:02:28Z</time>
      </trkpt>
      <trkpt lat="49.2295" lon="2.54904">
        <ele>129</ele>
        <time>2015-01-18T13:02:34Z</time>
      </trkpt>
      <trkpt lat="49.22949" lon="2.54891">
        <ele>130</ele>
        <time>2015-01-18T13:02:39Z</time>
      </trkpt>
      <trkpt lat="49.22949" lon="2.54879">
        <ele>130</ele>
        <time>2015-01-18T13:02:43Z</time>
      </trkpt>
      <trkpt lat="49.22948" lon="2.54867">
        <ele>131</ele>
        <time>2015-01-18T13:02:48Z</time>
      </trkpt>
      <trkpt lat="49.22947" lon="2.54861">
        <ele>131</ele>
        <time>2015-01-18T13:02:55Z</time>
      </trkpt>
      <trkpt lat="49.22949" lon="2.54851">
        <ele>133</ele>
        <time>2015-01-18T13:03:06Z</time>
      </trkpt>
      <trkpt lat="49.22952" lon="2.5484">
        <ele>131</ele>
        <time>2015-01-18T13:03:13Z</time>
      </trkpt>
      <trkpt lat="49.22957" lon="2.54831">
        <ele>127</ele>
        <time>2015-01-18T13:03:20Z</time>
      </trkpt>
      <trkpt lat="49.2296" lon="2.54819">
        <ele>128</ele>
        <time>2015-01-18T13:03:25Z</time>
      </trkpt>
      <trkpt lat="49.22962" lon="2.54808">
        <ele>128</ele>
        <time>2015-01-18T13:03:30Z</time>
      </trkpt>
      <trkpt lat="49.22964" lon="2.54797">
        <ele>128</ele>
        <time>2015-01-18T13:03:35Z</time>
      </trkpt>
      <trkpt lat="49.22967" lon="2.54786">
        <ele>130</ele>
        <time>2015-01-18T13:03:41Z</time>
      </trkpt>
      <trkpt lat="49.22968" lon="2.54775">
        <ele>129</ele>
        <time>2015-01-18T13:03:46Z</time>
      </trkpt>
      <trkpt lat="49.22968" lon="2.54769">
        <ele>129</ele>
        <time>2015-01-18T13:03:53Z</time>
      </trkpt>
      <trkpt lat="49.22974" lon="2.5476">
        <ele>127</ele>
        <time>2015-01-18T13:04:00Z</time>
      </trkpt>
      <trkpt lat="49.22979" lon="2.5475">
        <ele>132</ele>
        <time>2015-01-18T13:04:06Z</time>
      </trkpt>
      <trkpt lat="49.22984" lon="2.5474">
        <ele>135</ele>
        <time>2015-01-18T13:04:12Z</time>
      </trkpt>
      <trkpt lat="49.22987" lon="2.54731">
        <ele>135</ele>
        <time>2015-01-18T13:04:19Z</time>
      </trkpt>
      <trkpt lat="49.22992" lon="2.54723">
        <ele>132</ele>
        <time>2015-01-18T13:04:26Z</time>
      </trkpt>
      <trkpt lat="49.22995" lon="2.54713">
        <ele>131</ele>
        <time>2015-01-18T13:04:32Z</time>
      </trkpt>
      <trkpt lat="49.23" lon="2.54704">
        <ele>130</ele>
        <time>2015-01-18T13:04:38Z</time>
      </trkpt>
      <trkpt lat="49.23004" lon="2.54693">
        <ele>132</ele>
        <time>2015-01-18T13:04:44Z</time>
      </trkpt>
      <trkpt lat="49.23007" lon="2.54683">
        <ele>133</ele>
        <time>2015-01-18T13:04:49Z</time>
      </trkpt>
      <trkpt lat="49.2301" lon="2.5467">
        <ele>134</ele>
        <time>2015-01-18T13:04:55Z</time>
      </trkpt>
      <trkpt lat="49.23013" lon="2.5466">
        <ele>136</ele>
        <time>2015-01-18T13:05:00Z</time>
      </trkpt>
      <trkpt lat="49.23017" lon="2.54651">
        <ele>137</ele>
        <time>2015-01-18T13:05:06Z</time>
      </trkpt>
      <trkpt lat="49.23021" lon="2.5464">
        <ele>139</ele>
        <time>2015-01-18T13:05:12Z</time>
      </trkpt>
      <trkpt lat="49.23028" lon="2.54633">
        <ele>139</ele>
        <time>2015-01-18T13:05:19Z</time>
      </trkpt>
      <trkpt lat="49.23032" lon="2.54623">
        <ele>138</ele>
        <time>2015-01-18T13:05:24Z</time>
      </trkpt>
      <trkpt lat="49.23036" lon="2.54611">
        <ele>140</ele>
        <time>2015-01-18T13:05:30Z</time>
      </trkpt>
      <trkpt lat="49.23041" lon="2.54601">
        <ele>139</ele>
        <time>2015-01-18T13:05:36Z</time>
      </trkpt>
      <trkpt lat="49.23043" lon="2.5459">
        <ele>136</ele>
        <time>2015-01-18T13:05:42Z</time>
      </trkpt>
      <trkpt lat="49.23044" lon="2.54585">
        <ele>138</ele>
        <time>2015-01-18T13:05:49Z</time>
      </trkpt>
      <trkpt lat="49.2305" lon="2.54591">
        <ele>140</ele>
        <time>2015-01-18T13:06:43Z</time>
      </trkpt>
      <trkpt lat="49.23057" lon="2.54598">
        <ele>140</ele>
        <time>2015-01-18T13:06:48Z</time>
      </trkpt>
      <trkpt lat="49.23065" lon="2.54599">
        <ele>141</ele>
        <time>2015-01-18T13:06:51Z</time>
      </trkpt>
      <trkpt lat="49.2307" lon="2.54604">
        <ele>142</ele>
        <time>2015-01-18T13:06:58Z</time>
      </trkpt>
      <trkpt lat="49.23077" lon="2.54611">
        <ele>141</ele>
        <time>2015-01-18T13:07:05Z</time>
      </trkpt>
      <trkpt lat="49.23083" lon="2.54617">
        <ele>146</ele>
        <time>2015-01-18T13:07:10Z</time>
      </trkpt>
      <trkpt lat="49.23091" lon="2.54621">
        <ele>148</ele>
        <time>2015-01-18T13:07:15Z</time>
      </trkpt>
      <trkpt lat="49.23098" lon="2.54621">
        <ele>151</ele>
        <time>2015-01-18T13:07:20Z</time>
      </trkpt>
      <trkpt lat="49.23102" lon="2.54619">
        <ele>150</ele>
        <time>2015-01-18T13:07:27Z</time>
      </trkpt>
      <trkpt lat="49.23104" lon="2.54616">
        <ele>147</ele>
        <time>2015-01-18T13:07:34Z</time>
      </trkpt>
      <trkpt lat="49.2311" lon="2.54613">
        <ele>145</ele>
        <time>2015-01-18T13:07:41Z</time>
      </trkpt>
      <trkpt lat="49.23117" lon="2.54611">
        <ele>148</ele>
        <time>2015-01-18T13:07:46Z</time>
      </trkpt>
      <trkpt lat="49.23124" lon="2.54603">
        <ele>153</ele>
        <time>2015-01-18T13:07:52Z</time>
      </trkpt>
      <trkpt lat="49.23131" lon="2.54599">
        <ele>153</ele>
        <time>2015-01-18T13:07:59Z</time>
      </trkpt>
      <trkpt lat="49.23137" lon="2.54598">
        <ele>153</ele>
        <time>2015-01-18T13:08:06Z</time>
      </trkpt>
      <trkpt lat="49.23144" lon="2.54598">
        <ele>149</ele>
        <time>2015-01-18T13:08:13Z</time>
      </trkpt>
      <trkpt lat="49.23151" lon="2.54598">
        <ele>149</ele>
        <time>2015-01-18T13:08:20Z</time>
      </trkpt>
      <trkpt lat="49.23158" lon="2.54596">
        <ele>147</ele>
        <time>2015-01-18T13:08:26Z</time>
      </trkpt>
      <trkpt lat="49.23165" lon="2.54593">
        <ele>148</ele>
        <time>2015-01-18T13:08:33Z</time>
      </trkpt>
      <trkpt lat="49.23171" lon="2.54591">
        <ele>143</ele>
        <time>2015-01-18T13:08:40Z</time>
      </trkpt>
      <trkpt lat="49.23175" lon="2.54589">
        <ele>143</ele>
        <time>2015-01-18T13:08:47Z</time>
      </trkpt>
      <trkpt lat="49.2318" lon="2.54587">
        <ele>141</ele>
        <time>2015-01-18T13:08:54Z</time>
      </trkpt>
      <trkpt lat="49.23184" lon="2.54584">
        <ele>140</ele>
        <time>2015-01-18T13:09:01Z</time>
      </trkpt>
      <trkpt lat="49.23192" lon="2.54582">
        <ele>141</ele>
        <time>2015-01-18T13:09:08Z</time>
      </trkpt>
      <trkpt lat="49.23199" lon="2.54581">
        <ele>135</ele>
        <time>2015-01-18T13:09:12Z</time>
      </trkpt>
      <trkpt lat="49.23207" lon="2.54576">
        <ele>139</ele>
        <time>2015-01-18T13:09:17Z</time>
      </trkpt>
      <trkpt lat="49.23214" lon="2.54575">
        <ele>140</ele>
        <time>2015-01-18T13:09:23Z</time>
      </trkpt>
      <trkpt lat="49.23221" lon="2.54569">
        <ele>146</ele>
        <time>2015-01-18T13:09:29Z</time>
      </trkpt>
      <trkpt lat="49.23229" lon="2.54567">
        <ele>144</ele>
        <time>2015-01-18T13:09:35Z</time>
      </trkpt>
      <trkpt lat="49.23236" lon="2.54566">
        <ele>144</ele>
        <time>2015-01-18T13:09:41Z</time>
      </trkpt>
      <trkpt lat="49.23243" lon="2.54565">
        <ele>142</ele>
        <time>2015-01-18T13:09:46Z</time>
      </trkpt>
      <trkpt lat="49.2325" lon="2.54565">
        <ele>142</ele>
        <time>2015-01-18T13:09:53Z</time>
      </trkpt>
      <trkpt lat="49.23258" lon="2.54561">
        <ele>143</ele>
        <time>2015-01-18T13:09:59Z</time>
      </trkpt>
      <trkpt lat="49.23264" lon="2.54556">
        <ele>144</ele>
        <time>2015-01-18T13:10:06Z</time>
      </trkpt>
      <trkpt lat="49.23271" lon="2.54554">
        <ele>146</ele>
        <time>2015-01-18T13:10:13Z</time>
      </trkpt>
      <trkpt lat="49.23279" lon="2.54554">
        <ele>144</ele>
        <time>2015-01-18T13:10:19Z</time>
      </trkpt>
      <trkpt lat="49.23284" lon="2.54553">
        <ele>142</ele>
        <time>2015-01-18T13:10:26Z</time>
      </trkpt>
      <trkpt lat="49.23292" lon="2.54554">
        <ele>146</ele>
        <time>2015-01-18T13:10:31Z</time>
      </trkpt>
      <trkpt lat="49.23299" lon="2.5455">
        <ele>148</ele>
        <time>2015-01-18T13:10:35Z</time>
      </trkpt>
      <trkpt lat="49.23306" lon="2.54551">
        <ele>147</ele>
        <time>2015-01-18T13:10:42Z</time>
      </trkpt>
      <trkpt lat="49.23313" lon="2.54549">
        <ele>143</ele>
        <time>2015-01-18T13:10:49Z</time>
      </trkpt>
      <trkpt lat="49.2332" lon="2.54553">
        <ele>141</ele>
        <time>2015-01-18T13:10:56Z</time>
      </trkpt>
      <trkpt lat="49.23328" lon="2.54549">
        <ele>140</ele>
        <time>2015-01-18T13:11:01Z</time>
      </trkpt>
      <trkpt lat="49.23336" lon="2.54547">
        <ele>138</ele>
        <time>2015-01-18T13:11:06Z</time>
      </trkpt>
      <trkpt lat="49.23344" lon="2.54546">
        <ele>136</ele>
        <time>2015-01-18T13:11:10Z</time>
      </trkpt>
      <trkpt lat="49.23351" lon="2.54542">
        <ele>138</ele>
        <time>2015-01-18T13:11:15Z</time>
      </trkpt>
      <trkpt lat="49.23359" lon="2.54544">
        <ele>133</ele>
        <time>2015-01-18T13:11:20Z</time>
      </trkpt>
      <trkpt lat="49.23366" lon="2.5454">
        <ele>132</ele>
        <time>2015-01-18T13:11:26Z</time>
      </trkpt>
      <trkpt lat="49.23371" lon="2.5454">
        <ele>133</ele>
        <time>2015-01-18T13:11:33Z</time>
      </trkpt>
      <trkpt lat="49.23375" lon="2.54538">
        <ele>134</ele>
        <time>2015-01-18T13:11:40Z</time>
      </trkpt>
      <trkpt lat="49.23382" lon="2.54539">
        <ele>130</ele>
        <time>2015-01-18T13:11:46Z</time>
      </trkpt>
      <trkpt lat="49.2339" lon="2.5454">
        <ele>127</ele>
        <time>2015-01-18T13:11:52Z</time>
      </trkpt>
      <trkpt lat="49.23396" lon="2.54535">
        <ele>129</ele>
        <time>2015-01-18T13:11:59Z</time>
      </trkpt>
      <trkpt lat="49.23404" lon="2.54529">
        <ele>135</ele>
        <time>2015-01-18T13:12:05Z</time>
      </trkpt>
      <trkpt lat="49.23411" lon="2.54526">
        <ele>133</ele>
        <time>2015-01-18T13:12:12Z</time>
      </trkpt>
      <trkpt lat="49.23417" lon="2.54521">
        <ele>137</ele>
        <time>2015-01-18T13:12:19Z</time>
      </trkpt>
      <trkpt lat="49.23424" lon="2.54518">
        <ele>139</ele>
        <time>2015-01-18T13:12:26Z</time>
      </trkpt>
      <trkpt lat="49.23432" lon="2.54516">
        <ele>139</ele>
        <time>2015-01-18T13:12:32Z</time>
      </trkpt>
      <trkpt lat="49.2344" lon="2.54514">
        <ele>135</ele>
        <time>2015-01-18T13:12:38Z</time>
      </trkpt>
      <trkpt lat="49.23447" lon="2.54509">
        <ele>138</ele>
        <time>2015-01-18T13:12:43Z</time>
      </trkpt>
      <trkpt lat="49.23454" lon="2.54508">
        <ele>139</ele>
        <time>2015-01-18T13:12:50Z</time>
      </trkpt>
      <trkpt lat="49.23456" lon="2.54507">
        <ele>139</ele>
        <time>2015-01-18T13:12:57Z</time>
      </trkpt>
      <trkpt lat="49.23464" lon="2.54503">
        <ele>138</ele>
        <time>2015-01-18T13:13:05Z</time>
      </trkpt>
      <trkpt lat="49.23471" lon="2.54495">
        <ele>139</ele>
        <time>2015-01-18T13:13:10Z</time>
      </trkpt>
      <trkpt lat="49.23477" lon="2.54489">
        <ele>138</ele>
        <time>2015-01-18T13:13:17Z</time>
      </trkpt>
      <trkpt lat="49.23484" lon="2.54489">
        <ele>134</ele>
        <time>2015-01-18T13:13:24Z</time>
      </trkpt>
      <trkpt lat="49.23492" lon="2.5449">
        <ele>132</ele>
        <time>2015-01-18T13:13:29Z</time>
      </trkpt>
      <trkpt lat="49.235" lon="2.54491">
        <ele>133</ele>
        <time>2015-01-18T13:13:33Z</time>
      </trkpt>
      <trkpt lat="49.23508" lon="2.5449">
        <ele>132</ele>
        <time>2015-01-18T13:13:38Z</time>
      </trkpt>
      <trkpt lat="49.23516" lon="2.5449">
        <ele>132</ele>
        <time>2015-01-18T13:13:44Z</time>
      </trkpt>
      <trkpt lat="49.23525" lon="2.54488">
        <ele>133</ele>
        <time>2015-01-18T13:13:50Z</time>
      </trkpt>
      <trkpt lat="49.23532" lon="2.54486">
        <ele>135</ele>
        <time>2015-01-18T13:13:57Z</time>
      </trkpt>
      <trkpt lat="49.23539" lon="2.54482">
        <ele>136</ele>
        <time>2015-01-18T13:14:04Z</time>
      </trkpt>
      <trkpt lat="49.23542" lon="2.54479">
        <ele>136</ele>
        <time>2015-01-18T13:14:11Z</time>
      </trkpt>
      <trkpt lat="49.2355" lon="2.54478">
        <ele>135</ele>
        <time>2015-01-18T13:14:18Z</time>
      </trkpt>
      <trkpt lat="49.23555" lon="2.54474">
        <ele>135</ele>
        <time>2015-01-18T13:14:25Z</time>
      </trkpt>
      <trkpt lat="49.23558" lon="2.54472">
        <ele>137</ele>
        <time>2015-01-18T13:14:32Z</time>
      </trkpt>
      <trkpt lat="49.23567" lon="2.54469">
        <ele>133</ele>
        <time>2015-01-18T13:14:42Z</time>
      </trkpt>
      <trkpt lat="49.23574" lon="2.54466">
        <ele>135</ele>
        <time>2015-01-18T13:14:46Z</time>
      </trkpt>
      <trkpt lat="49.23582" lon="2.54464">
        <ele>133</ele>
        <time>2015-01-18T13:14:53Z</time>
      </trkpt>
      <trkpt lat="49.2359" lon="2.54465">
        <ele>129</ele>
        <time>2015-01-18T13:14:59Z</time>
      </trkpt>
      <trkpt lat="49.23599" lon="2.54465">
        <ele>129</ele>
        <time>2015-01-18T13:15:04Z</time>
      </trkpt>
      <trkpt lat="49.23608" lon="2.54464">
        <ele>131</ele>
        <time>2015-01-18T13:15:09Z</time>
      </trkpt>
      <trkpt lat="49.23615" lon="2.54463">
        <ele>132</ele>
        <time>2015-01-18T13:15:14Z</time>
      </trkpt>
      <trkpt lat="49.23623" lon="2.5446">
        <ele>131</ele>
        <time>2015-01-18T13:15:19Z</time>
      </trkpt>
      <trkpt lat="49.23628" lon="2.54457">
        <ele>134</ele>
        <time>2015-01-18T13:15:26Z</time>
      </trkpt>
      <trkpt lat="49.2363" lon="2.54456">
        <ele>136</ele>
        <time>2015-01-18T13:15:33Z</time>
      </trkpt>
      <trkpt lat="49.23635" lon="2.54454">
        <ele>134</ele>
        <time>2015-01-18T13:15:42Z</time>
      </trkpt>
      <trkpt lat="49.23641" lon="2.54452">
        <ele>136</ele>
        <time>2015-01-18T13:15:49Z</time>
      </trkpt>
      <trkpt lat="49.2365" lon="2.54452">
        <ele>132</ele>
        <time>2015-01-18T13:15:55Z</time>
      </trkpt>
      <trkpt lat="49.23658" lon="2.54452">
        <ele>130</ele>
        <time>2015-01-18T13:16:01Z</time>
      </trkpt>
      <trkpt lat="49.23665" lon="2.54451">
        <ele>131</ele>
        <time>2015-01-18T13:16:05Z</time>
      </trkpt>
      <trkpt lat="49.23673" lon="2.5445">
        <ele>132</ele>
        <time>2015-01-18T13:16:08Z</time>
      </trkpt>
      <trkpt lat="49.2368" lon="2.54449">
        <ele>130</ele>
        <time>2015-01-18T13:16:12Z</time>
      </trkpt>
      <trkpt lat="49.23687" lon="2.54451">
        <ele>129</ele>
        <time>2015-01-18T13:16:17Z</time>
      </trkpt>
      <trkpt lat="49.23696" lon="2.5445">
        <ele>126</ele>
        <time>2015-01-18T13:16:24Z</time>
      </trkpt>
      <trkpt lat="49.23704" lon="2.54448">
        <ele>127</ele>
        <time>2015-01-18T13:16:29Z</time>
      </trkpt>
      <trkpt lat="49.2371" lon="2.54442">
        <ele>130</ele>
        <time>2015-01-18T13:16:34Z</time>
      </trkpt>
      <trkpt lat="49.23718" lon="2.54437">
        <ele>134</ele>
        <time>2015-01-18T13:16:40Z</time>
      </trkpt>
      <trkpt lat="49.23725" lon="2.54432">
        <ele>135</ele>
        <time>2015-01-18T13:16:46Z</time>
      </trkpt>
      <trkpt lat="49.23732" lon="2.54426">
        <ele>135</ele>
        <time>2015-01-18T13:16:52Z</time>
      </trkpt>
      <trkpt lat="49.23736" lon="2.54425">
        <ele>137</ele>
        <time>2015-01-18T13:16:59Z</time>
      </trkpt>
      <trkpt lat="49.23742" lon="2.54427">
        <ele>138</ele>
        <time>2015-01-18T13:17:06Z</time>
      </trkpt>
      <trkpt lat="49.23751" lon="2.5443">
        <ele>138</ele>
        <time>2015-01-18T13:17:13Z</time>
      </trkpt>
      <trkpt lat="49.23758" lon="2.54435">
        <ele>140</ele>
        <time>2015-01-18T13:17:19Z</time>
      </trkpt>
      <trkpt lat="49.23765" lon="2.5444">
        <ele>138</ele>
        <time>2015-01-18T13:17:24Z</time>
      </trkpt>
      <trkpt lat="49.23773" lon="2.54439">
        <ele>139</ele>
        <time>2015-01-18T13:17:29Z</time>
      </trkpt>
      <trkpt lat="49.23775" lon="2.54437">
        <ele>141</ele>
        <time>2015-01-18T13:17:36Z</time>
      </trkpt>
      <trkpt lat="49.23783" lon="2.54438">
        <ele>135</ele>
        <time>2015-01-18T13:17:53Z</time>
      </trkpt>
      <trkpt lat="49.23792" lon="2.54437">
        <ele>136</ele>
        <time>2015-01-18T13:17:59Z</time>
      </trkpt>
      <trkpt lat="49.238" lon="2.54438">
        <ele>134</ele>
        <time>2015-01-18T13:18:03Z</time>
      </trkpt>
      <trkpt lat="49.23808" lon="2.54435">
        <ele>133</ele>
        <time>2015-01-18T13:18:09Z</time>
      </trkpt>
      <trkpt lat="49.23817" lon="2.54433">
        <ele>133</ele>
        <time>2015-01-18T13:18:13Z</time>
      </trkpt>
      <trkpt lat="49.23825" lon="2.54431">
        <ele>135</ele>
        <time>2015-01-18T13:18:17Z</time>
      </trkpt>
      <trkpt lat="49.23834" lon="2.54428">
        <ele>136</ele>
        <time>2015-01-18T13:18:22Z</time>
      </trkpt>
      <trkpt lat="49.23841" lon="2.54425">
        <ele>138</ele>
        <time>2015-01-18T13:18:27Z</time>
      </trkpt>
      <trkpt lat="49.23848" lon="2.54422">
        <ele>138</ele>
        <time>2015-01-18T13:18:33Z</time>
      </trkpt>
      <trkpt lat="49.23855" lon="2.54418">
        <ele>140</ele>
        <time>2015-01-18T13:18:40Z</time>
      </trkpt>
      <trkpt lat="49.23858" lon="2.54415">
        <ele>141</ele>
        <time>2015-01-18T13:18:47Z</time>
      </trkpt>
      <trkpt lat="49.23864" lon="2.54416">
        <ele>140</ele>
        <time>2015-01-18T13:18:54Z</time>
      </trkpt>
      <trkpt lat="49.23872" lon="2.54417">
        <ele>139</ele>
        <time>2015-01-18T13:18:58Z</time>
      </trkpt>
      <trkpt lat="49.2388" lon="2.54416">
        <ele>139</ele>
        <time>2015-01-18T13:19:03Z</time>
      </trkpt>
      <trkpt lat="49.23887" lon="2.54411">
        <ele>140</ele>
        <time>2015-01-18T13:19:09Z</time>
      </trkpt>
      <trkpt lat="49.23895" lon="2.5441">
        <ele>142</ele>
        <time>2015-01-18T13:19:16Z</time>
      </trkpt>
      <trkpt lat="49.23903" lon="2.54409">
        <ele>142</ele>
        <time>2015-01-18T13:19:22Z</time>
      </trkpt>
      <trkpt lat="49.23911" lon="2.54406">
        <ele>145</ele>
        <time>2015-01-18T13:19:29Z</time>
      </trkpt>
      <trkpt lat="49.23915" lon="2.54404">
        <ele>147</ele>
        <time>2015-01-18T13:19:36Z</time>
      </trkpt>
      <trkpt lat="49.23924" lon="2.54401">
        <ele>144</ele>
        <time>2015-01-18T13:19:48Z</time>
      </trkpt>
      <trkpt lat="49.23932" lon="2.54398">
        <ele>144</ele>
        <time>2015-01-18T13:19:53Z</time>
      </trkpt>
      <trkpt lat="49.2394" lon="2.54395">
        <ele>145</ele>
        <time>2015-01-18T13:19:58Z</time>
      </trkpt>
      <trkpt lat="49.23947" lon="2.54395">
        <ele>143</ele>
        <time>2015-01-18T13:20:03Z</time>
      </trkpt>
      <trkpt lat="49.23954" lon="2.54395">
        <ele>143</ele>
        <time>2015-01-18T13:20:09Z</time>
      </trkpt>
      <trkpt lat="49.23962" lon="2.54393">
        <ele>142</ele>
        <time>2015-01-18T13:20:15Z</time>
      </trkpt>
      <trkpt lat="49.2397" lon="2.54389">
        <ele>142</ele>
        <time>2015-01-18T13:20:20Z</time>
      </trkpt>
      <trkpt lat="49.23977" lon="2.54386">
        <ele>143</ele>
        <time>2015-01-18T13:20:25Z</time>
      </trkpt>
      <trkpt lat="49.23985" lon="2.54383">
        <ele>142</ele>
        <time>2015-01-18T13:20:31Z</time>
      </trkpt>
      <trkpt lat="49.23993" lon="2.54379">
        <ele>144</ele>
        <time>2015-01-18T13:20:36Z</time>
      </trkpt>
      <trkpt lat="49.24001" lon="2.54378">
        <ele>145</ele>
        <time>2015-01-18T13:20:40Z</time>
      </trkpt>
      <trkpt lat="49.24008" lon="2.54379">
        <ele>144</ele>
        <time>2015-01-18T13:20:45Z</time>
      </trkpt>
      <trkpt lat="49.24015" lon="2.54381">
        <ele>144</ele>
        <time>2015-01-18T13:20:49Z</time>
      </trkpt>
      <trkpt lat="49.24021" lon="2.54379">
        <ele>144</ele>
        <time>2015-01-18T13:20:56Z</time>
      </trkpt>
      <trkpt lat="49.24027" lon="2.54381">
        <ele>141</ele>
        <time>2015-01-18T13:21:03Z</time>
      </trkpt>
      <trkpt lat="49.24033" lon="2.54379">
        <ele>143</ele>
        <time>2015-01-18T13:21:10Z</time>
      </trkpt>
      <trkpt lat="49.24037" lon="2.54376">
        <ele>144</ele>
        <time>2015-01-18T13:21:17Z</time>
      </trkpt>
      <trkpt lat="49.24046" lon="2.54376">
        <ele>140</ele>
        <time>2015-01-18T13:21:31Z</time>
      </trkpt>
      <trkpt lat="49.24053" lon="2.54376">
        <ele>137</ele>
        <time>2015-01-18T13:21:36Z</time>
      </trkpt>
      <trkpt lat="49.24061" lon="2.54373">
        <ele>141</ele>
        <time>2015-01-18T13:21:43Z</time>
      </trkpt>
      <trkpt lat="49.24069" lon="2.54371">
        <ele>142</ele>
        <time>2015-01-18T13:21:48Z</time>
      </trkpt>
      <trkpt lat="49.24076" lon="2.54369">
        <ele>144</ele>
        <time>2015-01-18T13:21:52Z</time>
      </trkpt>
      <trkpt lat="49.24083" lon="2.54365">
        <ele>145</ele>
        <time>2015-01-18T13:21:56Z</time>
      </trkpt>
      <trkpt lat="49.2409" lon="2.54363">
        <ele>146</ele>
        <time>2015-01-18T13:22:00Z</time>
      </trkpt>
      <trkpt lat="49.24098" lon="2.5436">
        <ele>147</ele>
        <time>2015-01-18T13:22:04Z</time>
      </trkpt>
      <trkpt lat="49.24105" lon="2.54359">
        <ele>147</ele>
        <time>2015-01-18T13:22:09Z</time>
      </trkpt>
      <trkpt lat="49.24113" lon="2.54356">
        <ele>147</ele>
        <time>2015-01-18T13:22:16Z</time>
      </trkpt>
      <trkpt lat="49.2412" lon="2.54357">
        <ele>144</ele>
        <time>2015-01-18T13:22:22Z</time>
      </trkpt>
      <trkpt lat="49.24128" lon="2.54358">
        <ele>145</ele>
        <time>2015-01-18T13:22:26Z</time>
      </trkpt>
      <trkpt lat="49.24135" lon="2.54357">
        <ele>146</ele>
        <time>2015-01-18T13:22:33Z</time>
      </trkpt>
      <trkpt lat="49.24143" lon="2.54356">
        <ele>147</ele>
        <time>2015-01-18T13:22:39Z</time>
      </trkpt>
      <trkpt lat="49.24149" lon="2.54351">
        <ele>147</ele>
        <time>2015-01-18T13:22:46Z</time>
      </trkpt>
      <trkpt lat="49.24155" lon="2.54345">
        <ele>152</ele>
        <time>2015-01-18T13:22:53Z</time>
      </trkpt>
      <trkpt lat="49.24161" lon="2.54339">
        <ele>154</ele>
        <time>2015-01-18T13:22:59Z</time>
      </trkpt>
      <trkpt lat="49.24168" lon="2.54333">
        <ele>152</ele>
        <time>2015-01-18T13:23:06Z</time>
      </trkpt>
      <trkpt lat="49.24173" lon="2.54332">
        <ele>152</ele>
        <time>2015-01-18T13:23:13Z</time>
      </trkpt>
      <trkpt lat="49.24179" lon="2.54336">
        <ele>153</ele>
        <time>2015-01-18T13:23:20Z</time>
      </trkpt>
      <trkpt lat="49.24185" lon="2.5434">
        <ele>152</ele>
        <time>2015-01-18T13:23:25Z</time>
      </trkpt>
      <trkpt lat="49.24194" lon="2.54341">
        <ele>153</ele>
        <time>2015-01-18T13:23:30Z</time>
      </trkpt>
      <trkpt lat="49.242" lon="2.54347">
        <ele>152</ele>
        <time>2015-01-18T13:23:34Z</time>
      </trkpt>
      <trkpt lat="49.24208" lon="2.54351">
        <ele>151</ele>
        <time>2015-01-18T13:23:38Z</time>
      </trkpt>
      <trkpt lat="49.24214" lon="2.54357">
        <ele>149</ele>
        <time>2015-01-18T13:23:44Z</time>
      </trkpt>
      <trkpt lat="49.24222" lon="2.5436">
        <ele>148</ele>
        <time>2015-01-18T13:23:49Z</time>
      </trkpt>
      <trkpt lat="49.2423" lon="2.54362">
        <ele>149</ele>
        <time>2015-01-18T13:23:54Z</time>
      </trkpt>
      <trkpt lat="49.24238" lon="2.54364">
        <ele>152</ele>
        <time>2015-01-18T13:24:01Z</time>
      </trkpt>
      <trkpt lat="49.24245" lon="2.54371">
        <ele>153</ele>
        <time>2015-01-18T13:24:08Z</time>
      </trkpt>
      <trkpt lat="49.24252" lon="2.54374">
        <ele>157</ele>
        <time>2015-01-18T13:24:14Z</time>
      </trkpt>
      <trkpt lat="49.24256" lon="2.54381">
        <ele>158</ele>
        <time>2015-01-18T13:24:21Z</time>
      </trkpt>
      <trkpt lat="49.24261" lon="2.54386">
        <ele>157</ele>
        <time>2015-01-18T13:24:28Z</time>
      </trkpt>
      <trkpt lat="49.2427" lon="2.54387">
        <ele>159</ele>
        <time>2015-01-18T13:24:34Z</time>
      </trkpt>
      <trkpt lat="49.24279" lon="2.54391">
        <ele>157</ele>
        <time>2015-01-18T13:24:40Z</time>
      </trkpt>
      <trkpt lat="49.24284" lon="2.54393">
        <ele>157</ele>
        <time>2015-01-18T13:24:47Z</time>
      </trkpt>
      <trkpt lat="49.2429" lon="2.54396">
        <ele>160</ele>
        <time>2015-01-18T13:24:54Z</time>
      </trkpt>
      <trkpt lat="49.24296" lon="2.54404">
        <ele>160</ele>
        <time>2015-01-18T13:25:00Z</time>
      </trkpt>
      <trkpt lat="49.24303" lon="2.54409">
        <ele>159</ele>
        <time>2015-01-18T13:25:06Z</time>
      </trkpt>
      <trkpt lat="49.24311" lon="2.54414">
        <ele>159</ele>
        <time>2015-01-18T13:25:11Z</time>
      </trkpt>
      <trkpt lat="49.24314" lon="2.54415">
        <ele>160</ele>
        <time>2015-01-18T13:25:18Z</time>
      </trkpt>
      <trkpt lat="49.24309" lon="2.54413">
        <ele>158</ele>
        <time>2015-01-18T13:25:37Z</time>
      </trkpt>
      <trkpt lat="49.243" lon="2.54413">
        <ele>157</ele>
        <time>2015-01-18T13:25:43Z</time>
      </trkpt>
      <trkpt lat="49.24293" lon="2.54409">
        <ele>154</ele>
        <time>2015-01-18T13:25:50Z</time>
      </trkpt>
      <trkpt lat="49.24294" lon="2.54413">
        <ele>151</ele>
        <time>2015-01-18T13:25:57Z</time>
      </trkpt>
      <trkpt lat="49.24301" lon="2.54417">
        <ele>149</ele>
        <time>2015-01-18T13:26:03Z</time>
      </trkpt>
      <trkpt lat="49.24308" lon="2.54421">
        <ele>148</ele>
        <time>2015-01-18T13:26:10Z</time>
      </trkpt>
      <trkpt lat="49.24316" lon="2.54423">
        <ele>150</ele>
        <time>2015-01-18T13:26:16Z</time>
      </trkpt>
      <trkpt lat="49.24323" lon="2.54426">
        <ele>147</ele>
        <time>2015-01-18T13:26:21Z</time>
      </trkpt>
      <trkpt lat="49.2433" lon="2.5443">
        <ele>147</ele>
        <time>2015-01-18T13:26:25Z</time>
      </trkpt>
      <trkpt lat="49.24337" lon="2.54434">
        <ele>148</ele>
        <time>2015-01-18T13:26:31Z</time>
      </trkpt>
      <trkpt lat="49.24345" lon="2.54438">
        <ele>151</ele>
        <time>2015-01-18T13:26:36Z</time>
      </trkpt>
      <trkpt lat="49.24353" lon="2.54441">
        <ele>154</ele>
        <time>2015-01-18T13:26:41Z</time>
      </trkpt>
      <trkpt lat="49.2436" lon="2.54444">
        <ele>158</ele>
        <time>2015-01-18T13:26:47Z</time>
      </trkpt>
      <trkpt lat="49.24367" lon="2.54444">
        <ele>157</ele>
        <time>2015-01-18T13:26:53Z</time>
      </trkpt>
      <trkpt lat="49.24371" lon="2.54447">
        <ele>158</ele>
        <time>2015-01-18T13:27:00Z</time>
      </trkpt>
      <trkpt lat="49.24376" lon="2.54455">
        <ele>157</ele>
        <time>2015-01-18T13:27:07Z</time>
      </trkpt>
      <trkpt lat="49.24384" lon="2.5446">
        <ele>157</ele>
        <time>2015-01-18T13:27:14Z</time>
      </trkpt>
      <trkpt lat="49.24385" lon="2.54461">
        <ele>156</ele>
        <time>2015-01-18T13:27:21Z</time>
      </trkpt>
      <trkpt lat="49.24388" lon="2.54464">
        <ele>152</ele>
        <time>2015-01-18T13:33:33Z</time>
      </trkpt>
      <trkpt lat="49.24393" lon="2.54468">
        <ele>149</ele>
        <time>2015-01-18T13:33:45Z</time>
      </trkpt>
      <trkpt lat="49.24399" lon="2.54472">
        <ele>150</ele>
        <time>2015-01-18T13:33:52Z</time>
      </trkpt>
      <trkpt lat="49.24405" lon="2.54474">
        <ele>152</ele>
        <time>2015-01-18T13:33:59Z</time>
      </trkpt>
      <trkpt lat="49.24413" lon="2.54479">
        <ele>152</ele>
        <time>2015-01-18T13:34:05Z</time>
      </trkpt>
      <trkpt lat="49.24421" lon="2.54482">
        <ele>150</ele>
        <time>2015-01-18T13:34:10Z</time>
      </trkpt>
      <trkpt lat="49.24428" lon="2.54488">
        <ele>150</ele>
        <time>2015-01-18T13:34:15Z</time>
      </trkpt>
      <trkpt lat="49.24435" lon="2.54492">
        <ele>152</ele>
        <time>2015-01-18T13:34:20Z</time>
      </trkpt>
      <trkpt lat="49.24443" lon="2.54494">
        <ele>153</ele>
        <time>2015-01-18T13:34:25Z</time>
      </trkpt>
      <trkpt lat="49.24451" lon="2.54497">
        <ele>155</ele>
        <time>2015-01-18T13:34:31Z</time>
      </trkpt>
      <trkpt lat="49.24459" lon="2.54501">
        <ele>155</ele>
        <time>2015-01-18T13:34:37Z</time>
      </trkpt>
      <trkpt lat="49.24465" lon="2.54505">
        <ele>158</ele>
        <time>2015-01-18T13:34:44Z</time>
      </trkpt>
      <trkpt lat="49.24469" lon="2.54505">
        <ele>159</ele>
        <time>2015-01-18T13:34:51Z</time>
      </trkpt>
      <trkpt lat="49.24476" lon="2.5451">
        <ele>160</ele>
        <time>2015-01-18T13:34:58Z</time>
      </trkpt>
      <trkpt lat="49.24484" lon="2.54514">
        <ele>160</ele>
        <time>2015-01-18T13:35:04Z</time>
      </trkpt>
      <trkpt lat="49.24492" lon="2.54518">
        <ele>160</ele>
        <time>2015-01-18T13:35:10Z</time>
      </trkpt>
      <trkpt lat="49.24499" lon="2.54519">
        <ele>161</ele>
        <time>2015-01-18T13:35:17Z</time>
      </trkpt>
      <trkpt lat="49.24505" lon="2.54524">
        <ele>165</ele>
        <time>2015-01-18T13:35:24Z</time>
      </trkpt>
      <trkpt lat="49.24513" lon="2.54529">
        <ele>161</ele>
        <time>2015-01-18T13:35:29Z</time>
      </trkpt>
      <trkpt lat="49.2452" lon="2.54532">
        <ele>163</ele>
        <time>2015-01-18T13:35:35Z</time>
      </trkpt>
      <trkpt lat="49.24527" lon="2.54536">
        <ele>164</ele>
        <time>2015-01-18T13:35:39Z</time>
      </trkpt>
      <trkpt lat="49.24536" lon="2.5454">
        <ele>164</ele>
        <time>2015-01-18T13:35:43Z</time>
      </trkpt>
      <trkpt lat="49.24544" lon="2.54542">
        <ele>165</ele>
        <time>2015-01-18T13:35:47Z</time>
      </trkpt>
      <trkpt lat="49.2455" lon="2.54548">
        <ele>169</ele>
        <time>2015-01-18T13:35:54Z</time>
      </trkpt>
      <trkpt lat="49.24557" lon="2.54548">
        <ele>172</ele>
        <time>2015-01-18T13:36:01Z</time>
      </trkpt>
      <trkpt lat="49.24562" lon="2.54554">
        <ele>169</ele>
        <time>2015-01-18T13:36:08Z</time>
      </trkpt>
      <trkpt lat="49.24569" lon="2.54559">
        <ele>167</ele>
        <time>2015-01-18T13:36:14Z</time>
      </trkpt>
      <trkpt lat="49.24576" lon="2.54566">
        <ele>165</ele>
        <time>2015-01-18T13:36:21Z</time>
      </trkpt>
      <trkpt lat="49.24583" lon="2.54571">
        <ele>164</ele>
        <time>2015-01-18T13:36:25Z</time>
      </trkpt>
      <trkpt lat="49.24591" lon="2.54573">
        <ele>162</ele>
        <time>2015-01-18T13:36:32Z</time>
      </trkpt>
      <trkpt lat="49.24596" lon="2.54576">
        <ele>160</ele>
        <time>2015-01-18T13:36:39Z</time>
      </trkpt>
      <trkpt lat="49.24603" lon="2.5458">
        <ele>159</ele>
        <time>2015-01-18T13:36:46Z</time>
      </trkpt>
      <trkpt lat="49.2461" lon="2.54584">
        <ele>162</ele>
        <time>2015-01-18T13:36:52Z</time>
      </trkpt>
      <trkpt lat="49.24618" lon="2.54589">
        <ele>162</ele>
        <time>2015-01-18T13:36:59Z</time>
      </trkpt>
      <trkpt lat="49.24625" lon="2.54594">
        <ele>158</ele>
        <time>2015-01-18T13:37:05Z</time>
      </trkpt>
      <trkpt lat="49.24631" lon="2.54601">
        <ele>156</ele>
        <time>2015-01-18T13:37:12Z</time>
      </trkpt>
      <trkpt lat="49.24637" lon="2.54608">
        <ele>150</ele>
        <time>2015-01-18T13:37:19Z</time>
      </trkpt>
      <trkpt lat="49.24644" lon="2.54612">
        <ele>149</ele>
        <time>2015-01-18T13:37:26Z</time>
      </trkpt>
      <trkpt lat="49.24651" lon="2.54615">
        <ele>155</ele>
        <time>2015-01-18T13:37:33Z</time>
      </trkpt>
      <trkpt lat="49.24658" lon="2.5462">
        <ele>149</ele>
        <time>2015-01-18T13:37:39Z</time>
      </trkpt>
      <trkpt lat="49.24664" lon="2.54625">
        <ele>149</ele>
        <time>2015-01-18T13:37:46Z</time>
      </trkpt>
      <trkpt lat="49.2467" lon="2.5463">
        <ele>145</ele>
        <time>2015-01-18T13:37:53Z</time>
      </trkpt>
      <trkpt lat="49.24677" lon="2.54632">
        <ele>147</ele>
        <time>2015-01-18T13:38:00Z</time>
      </trkpt>
      <trkpt lat="49.24683" lon="2.54637">
        <ele>146</ele>
        <time>2015-01-18T13:38:05Z</time>
      </trkpt>
      <trkpt lat="49.2469" lon="2.54642">
        <ele>145</ele>
        <time>2015-01-18T13:38:10Z</time>
      </trkpt>
      <trkpt lat="49.24698" lon="2.54648">
        <ele>142</ele>
        <time>2015-01-18T13:38:17Z</time>
      </trkpt>
      <trkpt lat="49.24705" lon="2.5465">
        <ele>142</ele>
        <time>2015-01-18T13:38:22Z</time>
      </trkpt>
      <trkpt lat="49.24712" lon="2.54653">
        <ele>142</ele>
        <time>2015-01-18T13:38:28Z</time>
      </trkpt>
      <trkpt lat="49.2472" lon="2.54657">
        <ele>144</ele>
        <time>2015-01-18T13:38:34Z</time>
      </trkpt>
      <trkpt lat="49.24727" lon="2.54662">
        <ele>142</ele>
        <time>2015-01-18T13:38:39Z</time>
      </trkpt>
      <trkpt lat="49.24735" lon="2.54665">
        <ele>141</ele>
        <time>2015-01-18T13:38:45Z</time>
      </trkpt>
      <trkpt lat="49.24741" lon="2.54672">
        <ele>141</ele>
        <time>2015-01-18T13:38:52Z</time>
      </trkpt>
      <trkpt lat="49.24748" lon="2.54676">
        <ele>146</ele>
        <time>2015-01-18T13:38:58Z</time>
      </trkpt>
      <trkpt lat="49.24756" lon="2.54678">
        <ele>150</ele>
        <time>2015-01-18T13:39:05Z</time>
      </trkpt>
      <trkpt lat="49.24763" lon="2.54681">
        <ele>151</ele>
        <time>2015-01-18T13:39:08Z</time>
      </trkpt>
      <trkpt lat="49.24771" lon="2.54683">
        <ele>152</ele>
        <time>2015-01-18T13:39:15Z</time>
      </trkpt>
      <trkpt lat="49.24778" lon="2.54688">
        <ele>150</ele>
        <time>2015-01-18T13:39:20Z</time>
      </trkpt>
      <trkpt lat="49.24783" lon="2.54692">
        <ele>149</ele>
        <time>2015-01-18T13:39:28Z</time>
      </trkpt>
      <trkpt lat="49.24789" lon="2.54695">
        <ele>147</ele>
        <time>2015-01-18T13:39:35Z</time>
      </trkpt>
      <trkpt lat="49.24793" lon="2.54699">
        <ele>148</ele>
        <time>2015-01-18T13:39:42Z</time>
      </trkpt>
      <trkpt lat="49.24801" lon="2.54705">
        <ele>147</ele>
        <time>2015-01-18T13:39:49Z</time>
      </trkpt>
      <trkpt lat="49.24808" lon="2.54709">
        <ele>146</ele>
        <time>2015-01-18T13:39:54Z</time>
      </trkpt>
      <trkpt lat="49.24816" lon="2.54713">
        <ele>142</ele>
        <time>2015-01-18T13:40:01Z</time>
      </trkpt>
      <trkpt lat="49.24824" lon="2.54715">
        <ele>144</ele>
        <time>2015-01-18T13:40:06Z</time>
      </trkpt>
      <trkpt lat="49.24831" lon="2.54717">
        <ele>142</ele>
        <time>2015-01-18T13:40:11Z</time>
      </trkpt>
      <trkpt lat="49.24839" lon="2.54723">
        <ele>144</ele>
        <time>2015-01-18T13:40:17Z</time>
      </trkpt>
      <trkpt lat="49.24845" lon="2.54728">
        <ele>145</ele>
        <time>2015-01-18T13:40:23Z</time>
      </trkpt>
      <trkpt lat="49.24852" lon="2.54732">
        <ele>149</ele>
        <time>2015-01-18T13:40:31Z</time>
      </trkpt>
      <trkpt lat="49.24858" lon="2.54739">
        <ele>148</ele>
        <time>2015-01-18T13:40:38Z</time>
      </trkpt>
      <trkpt lat="49.24866" lon="2.54743">
        <ele>145</ele>
        <time>2015-01-18T13:40:42Z</time>
      </trkpt>
      <trkpt lat="49.24872" lon="2.54747">
        <ele>143</ele>
        <time>2015-01-18T13:40:49Z</time>
      </trkpt>
      <trkpt lat="49.24874" lon="2.54753">
        <ele>140</ele>
        <time>2015-01-18T13:40:56Z</time>
      </trkpt>
      <trkpt lat="49.2488" lon="2.54756">
        <ele>139</ele>
        <time>2015-01-18T13:41:04Z</time>
      </trkpt>
      <trkpt lat="49.24886" lon="2.54761">
        <ele>135</ele>
        <time>2015-01-18T13:41:11Z</time>
      </trkpt>
      <trkpt lat="49.24892" lon="2.54767">
        <ele>134</ele>
        <time>2015-01-18T13:41:17Z</time>
      </trkpt>
      <trkpt lat="49.249" lon="2.5477">
        <ele>135</ele>
        <time>2015-01-18T13:41:21Z</time>
      </trkpt>
      <trkpt lat="49.24907" lon="2.54774">
        <ele>133</ele>
        <time>2015-01-18T13:41:28Z</time>
      </trkpt>
      <trkpt lat="49.24914" lon="2.54779">
        <ele>132</ele>
        <time>2015-01-18T13:41:35Z</time>
      </trkpt>
      <trkpt lat="49.24919" lon="2.54782">
        <ele>133</ele>
        <time>2015-01-18T13:41:42Z</time>
      </trkpt>
      <trkpt lat="49.24924" lon="2.54785">
        <ele>132</ele>
        <time>2015-01-18T13:41:49Z</time>
      </trkpt>
      <trkpt lat="49.24925" lon="2.54786">
        <ele>132</ele>
        <time>2015-01-18T13:41:55Z</time>
      </trkpt>
      <trkpt lat="49.24923" lon="2.54784">
        <ele>134</ele>
        <time>2015-01-18T13:42:02Z</time>
      </trkpt>
      <trkpt lat="49.24926" lon="2.54789">
        <ele>131</ele>
        <time>2015-01-18T13:42:35Z</time>
      </trkpt>
      <trkpt lat="49.24927" lon="2.54792">
        <ele>130</ele>
        <time>2015-01-18T13:42:50Z</time>
      </trkpt>
      <trkpt lat="49.24934" lon="2.54796">
        <ele>128</ele>
        <time>2015-01-18T13:42:56Z</time>
      </trkpt>
      <trkpt lat="49.24942" lon="2.54793">
        <ele>125</ele>
        <time>2015-01-18T13:43:03Z</time>
      </trkpt>
      <trkpt lat="49.2495" lon="2.54792">
        <ele>123</ele>
        <time>2015-01-18T13:43:09Z</time>
      </trkpt>
      <trkpt lat="49.24956" lon="2.54798">
        <ele>126</ele>
        <time>2015-01-18T13:43:15Z</time>
      </trkpt>
      <trkpt lat="49.24963" lon="2.54805">
        <ele>127</ele>
        <time>2015-01-18T13:43:22Z</time>
      </trkpt>
      <trkpt lat="49.24969" lon="2.5481">
        <ele>129</ele>
        <time>2015-01-18T13:43:27Z</time>
      </trkpt>
      <trkpt lat="49.24976" lon="2.54814">
        <ele>131</ele>
        <time>2015-01-18T13:43:33Z</time>
      </trkpt>
      <trkpt lat="49.24983" lon="2.54817">
        <ele>132</ele>
        <time>2015-01-18T13:43:37Z</time>
      </trkpt>
      <trkpt lat="49.24991" lon="2.54817">
        <ele>136</ele>
        <time>2015-01-18T13:43:45Z</time>
      </trkpt>
      <trkpt lat="49.24995" lon="2.54818">
        <ele>137</ele>
        <time>2015-01-18T13:43:52Z</time>
      </trkpt>
      <trkpt lat="49.25" lon="2.54823">
        <ele>135</ele>
        <time>2015-01-18T13:43:59Z</time>
      </trkpt>
      <trkpt lat="49.25008" lon="2.54827">
        <ele>134</ele>
        <time>2015-01-18T13:44:05Z</time>
      </trkpt>
      <trkpt lat="49.25016" lon="2.54827">
        <ele>137</ele>
        <time>2015-01-18T13:44:11Z</time>
      </trkpt>
      <trkpt lat="49.25024" lon="2.54834">
        <ele>135</ele>
        <time>2015-01-18T13:44:18Z</time>
      </trkpt>
      <trkpt lat="49.25031" lon="2.54837">
        <ele>140</ele>
        <time>2015-01-18T13:44:22Z</time>
      </trkpt>
      <trkpt lat="49.25039" lon="2.54839">
        <ele>142</ele>
        <time>2015-01-18T13:44:27Z</time>
      </trkpt>
      <trkpt lat="49.25045" lon="2.54846">
        <ele>136</ele>
        <time>2015-01-18T13:44:34Z</time>
      </trkpt>
      <trkpt lat="49.25053" lon="2.54851">
        <ele>142</ele>
        <time>2015-01-18T13:44:40Z</time>
      </trkpt>
      <trkpt lat="49.25058" lon="2.54854">
        <ele>139</ele>
        <time>2015-01-18T13:44:47Z</time>
      </trkpt>
      <trkpt lat="49.25065" lon="2.54862">
        <ele>139</ele>
        <time>2015-01-18T13:44:54Z</time>
      </trkpt>
      <trkpt lat="49.25073" lon="2.54864">
        <ele>142</ele>
        <time>2015-01-18T13:45:00Z</time>
      </trkpt>
      <trkpt lat="49.25079" lon="2.54869">
        <ele>141</ele>
        <time>2015-01-18T13:45:06Z</time>
      </trkpt>
      <trkpt lat="49.25086" lon="2.54872">
        <ele>145</ele>
        <time>2015-01-18T13:45:12Z</time>
      </trkpt>
      <trkpt lat="49.25095" lon="2.54873">
        <ele>146</ele>
        <time>2015-01-18T13:45:19Z</time>
      </trkpt>
      <trkpt lat="49.25092" lon="2.54874">
        <ele>141</ele>
        <time>2015-01-18T13:45:25Z</time>
      </trkpt>
      <trkpt lat="49.25097" lon="2.54881">
        <ele>135</ele>
        <time>2015-01-18T13:45:44Z</time>
      </trkpt>
      <trkpt lat="49.25105" lon="2.54883">
        <ele>138</ele>
        <time>2015-01-18T13:45:51Z</time>
      </trkpt>
      <trkpt lat="49.25112" lon="2.54885">
        <ele>140</ele>
        <time>2015-01-18T13:45:57Z</time>
      </trkpt>
      <trkpt lat="49.25118" lon="2.54886">
        <ele>141</ele>
        <time>2015-01-18T13:46:04Z</time>
      </trkpt>
      <trkpt lat="49.25124" lon="2.54892">
        <ele>142</ele>
        <time>2015-01-18T13:46:11Z</time>
      </trkpt>
      <trkpt lat="49.25129" lon="2.54895">
        <ele>141</ele>
        <time>2015-01-18T13:46:17Z</time>
      </trkpt>
      <trkpt lat="49.25142" lon="2.54906">
        <ele>135</ele>
        <time>2015-01-18T13:46:44Z</time>
      </trkpt>
      <trkpt lat="49.2515" lon="2.54908">
        <ele>140</ele>
        <time>2015-01-18T13:46:50Z</time>
      </trkpt>
      <trkpt lat="49.25154" lon="2.54909">
        <ele>139</ele>
        <time>2015-01-18T13:46:56Z</time>
      </trkpt>
      <trkpt lat="49.25162" lon="2.54913">
        <ele>145</ele>
        <time>2015-01-18T13:47:03Z</time>
      </trkpt>
      <trkpt lat="49.25169" lon="2.54916">
        <ele>145</ele>
        <time>2015-01-18T13:47:09Z</time>
      </trkpt>
      <trkpt lat="49.25175" lon="2.5492">
        <ele>144</ele>
        <time>2015-01-18T13:47:16Z</time>
      </trkpt>
      <trkpt lat="49.25183" lon="2.54927">
        <ele>143</ele>
        <time>2015-01-18T13:47:21Z</time>
      </trkpt>
      <trkpt lat="49.2519" lon="2.54931">
        <ele>142</ele>
        <time>2015-01-18T13:47:28Z</time>
      </trkpt>
      <trkpt lat="49.25197" lon="2.54934">
        <ele>139</ele>
        <time>2015-01-18T13:47:34Z</time>
      </trkpt>
      <trkpt lat="49.25204" lon="2.54939">
        <ele>142</ele>
        <time>2015-01-18T13:47:40Z</time>
      </trkpt>
      <trkpt lat="49.2521" lon="2.54943">
        <ele>145</ele>
        <time>2015-01-18T13:47:48Z</time>
      </trkpt>
      <trkpt lat="49.25217" lon="2.54949">
        <ele>147</ele>
        <time>2015-01-18T13:47:53Z</time>
      </trkpt>
      <trkpt lat="49.25224" lon="2.54954">
        <ele>150</ele>
        <time>2015-01-18T13:48:00Z</time>
      </trkpt>
      <trkpt lat="49.25232" lon="2.54953">
        <ele>151</ele>
        <time>2015-01-18T13:48:06Z</time>
      </trkpt>
      <trkpt lat="49.25236" lon="2.54956">
        <ele>148</ele>
        <time>2015-01-18T13:48:14Z</time>
      </trkpt>
      <trkpt lat="49.25241" lon="2.5496">
        <ele>148</ele>
        <time>2015-01-18T13:48:21Z</time>
      </trkpt>
      <trkpt lat="49.25245" lon="2.54969">
        <ele>142</ele>
        <time>2015-01-18T13:48:28Z</time>
      </trkpt>
      <trkpt lat="49.25254" lon="2.5497">
        <ele>144</ele>
        <time>2015-01-18T13:48:35Z</time>
      </trkpt>
      <trkpt lat="49.2526" lon="2.54973">
        <ele>143</ele>
        <time>2015-01-18T13:48:42Z</time>
      </trkpt>
      <trkpt lat="49.25262" lon="2.54975">
        <ele>145</ele>
        <time>2015-01-18T13:48:49Z</time>
      </trkpt>
      <trkpt lat="49.2527" lon="2.54977">
        <ele>146</ele>
        <time>2015-01-18T13:48:54Z</time>
      </trkpt>
      <trkpt lat="49.25277" lon="2.5498">
        <ele>149</ele>
        <time>2015-01-18T13:48:57Z</time>
      </trkpt>
      <trkpt lat="49.25285" lon="2.54986">
        <ele>148</ele>
        <time>2015-01-18T13:49:03Z</time>
      </trkpt>
      <trkpt lat="49.25292" lon="2.54991">
        <ele>149</ele>
        <time>2015-01-18T13:49:08Z</time>
      </trkpt>
      <trkpt lat="49.25299" lon="2.54994">
        <ele>150</ele>
        <time>2015-01-18T13:49:12Z</time>
      </trkpt>
      <trkpt lat="49.25306" lon="2.54997">
        <ele>146</ele>
        <time>2015-01-18T13:49:17Z</time>
      </trkpt>
      <trkpt lat="49.25309" lon="2.55007">
        <ele>141</ele>
        <time>2015-01-18T13:49:23Z</time>
      </trkpt>
      <trkpt lat="49.25312" lon="2.55016">
        <ele>142</ele>
        <time>2015-01-18T13:49:30Z</time>
      </trkpt>
      <trkpt lat="49.25317" lon="2.5502">
        <ele>138</ele>
        <time>2015-01-18T13:49:38Z</time>
      </trkpt>
      <trkpt lat="49.25324" lon="2.55019">
        <ele>139</ele>
        <time>2015-01-18T13:49:44Z</time>
      </trkpt>
      <trkpt lat="49.25331" lon="2.55021">
        <ele>142</ele>
        <time>2015-01-18T13:49:51Z</time>
      </trkpt>
      <trkpt lat="49.25338" lon="2.55022">
        <ele>144</ele>
        <time>2015-01-18T13:49:58Z</time>
      </trkpt>
      <trkpt lat="49.25344" lon="2.55015">
        <ele>151</ele>
        <time>2015-01-18T13:50:02Z</time>
      </trkpt>
      <trkpt lat="49.25349" lon="2.55016">
        <ele>147</ele>
        <time>2015-01-18T13:50:09Z</time>
      </trkpt>
      <trkpt lat="49.25357" lon="2.55021">
        <ele>143</ele>
        <time>2015-01-18T13:50:14Z</time>
      </trkpt>
      <trkpt lat="49.25362" lon="2.55024">
        <ele>143</ele>
        <time>2015-01-18T13:50:21Z</time>
      </trkpt>
      <trkpt lat="49.25368" lon="2.5503">
        <ele>143</ele>
        <time>2015-01-18T13:50:34Z</time>
      </trkpt>
      <trkpt lat="49.25374" lon="2.55037">
        <ele>143</ele>
        <time>2015-01-18T13:50:40Z</time>
      </trkpt>
      <trkpt lat="49.25381" lon="2.55043">
        <ele>143</ele>
        <time>2015-01-18T13:50:46Z</time>
      </trkpt>
      <trkpt lat="49.25387" lon="2.55049">
        <ele>144</ele>
        <time>2015-01-18T13:50:52Z</time>
      </trkpt>
      <trkpt lat="49.25395" lon="2.55053">
        <ele>144</ele>
        <time>2015-01-18T13:50:57Z</time>
      </trkpt>
      <trkpt lat="49.25403" lon="2.55056">
        <ele>145</ele>
        <time>2015-01-18T13:51:02Z</time>
      </trkpt>
      <trkpt lat="49.2541" lon="2.55059">
        <ele>136</ele>
        <time>2015-01-18T13:51:07Z</time>
      </trkpt>
      <trkpt lat="49.25417" lon="2.55065">
        <ele>134</ele>
        <time>2015-01-18T13:51:11Z</time>
      </trkpt>
      <trkpt lat="49.25424" lon="2.55069">
        <ele>135</ele>
        <time>2015-01-18T13:51:19Z</time>
      </trkpt>
      <trkpt lat="49.2543" lon="2.55075">
        <ele>131</ele>
        <time>2015-01-18T13:51:26Z</time>
      </trkpt>
      <trkpt lat="49.25434" lon="2.55082">
        <ele>131</ele>
        <time>2015-01-18T13:51:33Z</time>
      </trkpt>
      <trkpt lat="49.25433" lon="2.5509">
        <ele>126</ele>
        <time>2015-01-18T13:51:40Z</time>
      </trkpt>
      <trkpt lat="49.25431" lon="2.55091">
        <ele>127</ele>
        <time>2015-01-18T13:51:47Z</time>
      </trkpt>
      <trkpt lat="49.25436" lon="2.551">
        <ele>128</ele>
        <time>2015-01-18T13:52:08Z</time>
      </trkpt>
      <trkpt lat="49.25442" lon="2.55108">
        <ele>129</ele>
        <time>2015-01-18T13:52:13Z</time>
      </trkpt>
      <trkpt lat="49.25449" lon="2.55114">
        <ele>130</ele>
        <time>2015-01-18T13:52:19Z</time>
      </trkpt>
      <trkpt lat="49.25455" lon="2.5512">
        <ele>133</ele>
        <time>2015-01-18T13:52:26Z</time>
      </trkpt>
      <trkpt lat="49.25459" lon="2.55123">
        <ele>135</ele>
        <time>2015-01-18T13:52:32Z</time>
      </trkpt>
      <trkpt lat="49.25466" lon="2.55129">
        <ele>135</ele>
        <time>2015-01-18T13:52:40Z</time>
      </trkpt>
      <trkpt lat="49.25473" lon="2.55137">
        <ele>133</ele>
        <time>2015-01-18T13:52:47Z</time>
      </trkpt>
      <trkpt lat="49.2548" lon="2.55143">
        <ele>133</ele>
        <time>2015-01-18T13:52:53Z</time>
      </trkpt>
      <trkpt lat="49.25487" lon="2.55147">
        <ele>134</ele>
        <time>2015-01-18T13:52:59Z</time>
      </trkpt>
      <trkpt lat="49.25492" lon="2.55148">
        <ele>136</ele>
        <time>2015-01-18T13:53:06Z</time>
      </trkpt>
      <trkpt lat="49.25502" lon="2.55154">
        <ele>138</ele>
        <time>2015-01-18T13:53:39Z</time>
      </trkpt>
      <trkpt lat="49.25508" lon="2.55156">
        <ele>137</ele>
        <time>2015-01-18T13:53:46Z</time>
      </trkpt>
      <trkpt lat="49.25514" lon="2.55165">
        <ele>138</ele>
        <time>2015-01-18T13:53:52Z</time>
      </trkpt>
      <trkpt lat="49.25519" lon="2.55168">
        <ele>135</ele>
        <time>2015-01-18T13:53:58Z</time>
      </trkpt>
      <trkpt lat="49.25524" lon="2.55177">
        <ele>133</ele>
        <time>2015-01-18T13:54:05Z</time>
      </trkpt>
      <trkpt lat="49.2553" lon="2.55184">
        <ele>134</ele>
        <time>2015-01-18T13:54:11Z</time>
      </trkpt>
      <trkpt lat="49.25538" lon="2.55189">
        <ele>136</ele>
        <time>2015-01-18T13:54:19Z</time>
      </trkpt>
      <trkpt lat="49.25545" lon="2.55191">
        <ele>135</ele>
        <time>2015-01-18T13:54:26Z</time>
      </trkpt>
      <trkpt lat="49.25551" lon="2.55196">
        <ele>137</ele>
        <time>2015-01-18T13:54:32Z</time>
      </trkpt>
      <trkpt lat="49.25558" lon="2.55201">
        <ele>137</ele>
        <time>2015-01-18T13:54:38Z</time>
      </trkpt>
      <trkpt lat="49.25565" lon="2.55208">
        <ele>139</ele>
        <time>2015-01-18T13:54:44Z</time>
      </trkpt>
      <trkpt lat="49.25573" lon="2.55213">
        <ele>142</ele>
        <time>2015-01-18T13:54:50Z</time>
      </trkpt>
      <trkpt lat="49.2558" lon="2.55219">
        <ele>142</ele>
        <time>2015-01-18T13:54:57Z</time>
      </trkpt>
      <trkpt lat="49.25587" lon="2.55221">
        <ele>145</ele>
        <time>2015-01-18T13:55:04Z</time>
      </trkpt>
      <trkpt lat="49.25594" lon="2.55225">
        <ele>145</ele>
        <time>2015-01-18T13:55:11Z</time>
      </trkpt>
      <trkpt lat="49.25601" lon="2.5523">
        <ele>142</ele>
        <time>2015-01-18T13:55:18Z</time>
      </trkpt>
      <trkpt lat="49.25608" lon="2.55231">
        <ele>143</ele>
        <time>2015-01-18T13:55:25Z</time>
      </trkpt>
      <trkpt lat="49.25608" lon="2.55222">
        <ele>138</ele>
        <time>2015-01-18T13:55:31Z</time>
      </trkpt>
      <trkpt lat="49.25608" lon="2.55211">
        <ele>137</ele>
        <time>2015-01-18T13:55:39Z</time>
      </trkpt>
      <trkpt lat="49.25608" lon="2.55207">
        <ele>136</ele>
        <time>2015-01-18T13:55:46Z</time>
      </trkpt>
      <trkpt lat="49.25613" lon="2.55198">
        <ele>134</ele>
        <time>2015-01-18T13:55:52Z</time>
      </trkpt>
      <trkpt lat="49.2562" lon="2.552">
        <ele>136</ele>
        <time>2015-01-18T13:56:00Z</time>
      </trkpt>
      <trkpt lat="49.25628" lon="2.55202">
        <ele>138</ele>
        <time>2015-01-18T13:56:07Z</time>
      </trkpt>
      <trkpt lat="49.25634" lon="2.55206">
        <ele>138</ele>
        <time>2015-01-18T13:56:14Z</time>
      </trkpt>
      <trkpt lat="49.25642" lon="2.55211">
        <ele>138</ele>
        <time>2015-01-18T13:56:21Z</time>
      </trkpt>
      <trkpt lat="49.25649" lon="2.55214">
        <ele>138</ele>
        <time>2015-01-18T13:56:27Z</time>
      </trkpt>
      <trkpt lat="49.25656" lon="2.55218">
        <ele>138</ele>
        <time>2015-01-18T13:56:34Z</time>
      </trkpt>
      <trkpt lat="49.25663" lon="2.55223">
        <ele>138</ele>
        <time>2015-01-18T13:56:40Z</time>
      </trkpt>
      <trkpt lat="49.2567" lon="2.55226">
        <ele>138</ele>
        <time>2015-01-18T13:56:48Z</time>
      </trkpt>
      <trkpt lat="49.25677" lon="2.5523">
        <ele>138</ele>
        <time>2015-01-18T13:56:54Z</time>
      </trkpt>
      <trkpt lat="49.25684" lon="2.55235">
        <ele>138</ele>
        <time>2015-01-18T13:57:01Z</time>
      </trkpt>
      <trkpt lat="49.25691" lon="2.55239">
        <ele>138</ele>
        <time>2015-01-18T13:57:07Z</time>
      </trkpt>
      <trkpt lat="49.25699" lon="2.55243">
        <ele>139</ele>
        <time>2015-01-18T13:57:13Z</time>
      </trkpt>
      <trkpt lat="49.25707" lon="2.55246">
        <ele>138</ele>
        <time>2015-01-18T13:57:20Z</time>
      </trkpt>
      <trkpt lat="49.25714" lon="2.55251">
        <ele>138</ele>
        <time>2015-01-18T13:57:26Z</time>
      </trkpt>
      <trkpt lat="49.25721" lon="2.55254">
        <ele>138</ele>
        <time>2015-01-18T13:57:32Z</time>
      </trkpt>
      <trkpt lat="49.25729" lon="2.55258">
        <ele>140</ele>
        <time>2015-01-18T13:57:38Z</time>
      </trkpt>
      <trkpt lat="49.25736" lon="2.55261">
        <ele>140</ele>
        <time>2015-01-18T13:57:44Z</time>
      </trkpt>
      <trkpt lat="49.25743" lon="2.55265">
        <ele>138</ele>
        <time>2015-01-18T13:57:51Z</time>
      </trkpt>
      <trkpt lat="49.25747" lon="2.55269">
        <ele>136</ele>
        <time>2015-01-18T13:57:58Z</time>
      </trkpt>
      <trkpt lat="49.25753" lon="2.55274">
        <ele>136</ele>
        <time>2015-01-18T13:58:05Z</time>
      </trkpt>
      <trkpt lat="49.2576" lon="2.5528">
        <ele>135</ele>
        <time>2015-01-18T13:58:12Z</time>
      </trkpt>
      <trkpt lat="49.25767" lon="2.55285">
        <ele>135</ele>
        <time>2015-01-18T13:58:17Z</time>
      </trkpt>
      <trkpt lat="49.25773" lon="2.55293">
        <ele>135</ele>
        <time>2015-01-18T13:58:23Z</time>
      </trkpt>
      <trkpt lat="49.2578" lon="2.55298">
        <ele>130</ele>
        <time>2015-01-18T13:58:29Z</time>
      </trkpt>
      <trkpt lat="49.25788" lon="2.55298">
        <ele>131</ele>
        <time>2015-01-18T13:58:36Z</time>
      </trkpt>
      <trkpt lat="49.25796" lon="2.55296">
        <ele>131</ele>
        <time>2015-01-18T13:58:41Z</time>
      </trkpt>
      <trkpt lat="49.25804" lon="2.55294">
        <ele>131</ele>
        <time>2015-01-18T13:58:48Z</time>
      </trkpt>
      <trkpt lat="49.25808" lon="2.55297">
        <ele>129</ele>
        <time>2015-01-18T13:58:55Z</time>
      </trkpt>
      <trkpt lat="49.25815" lon="2.553">
        <ele>132</ele>
        <time>2015-01-18T13:59:02Z</time>
      </trkpt>
      <trkpt lat="49.2582" lon="2.55305">
        <ele>131</ele>
        <time>2015-01-18T13:59:09Z</time>
      </trkpt>
      <trkpt lat="49.25825" lon="2.5531">
        <ele>129</ele>
        <time>2015-01-18T13:59:16Z</time>
      </trkpt>
      <trkpt lat="49.2583" lon="2.55311">
        <ele>130</ele>
        <time>2015-01-18T13:59:23Z</time>
      </trkpt>
      <trkpt lat="49.25835" lon="2.55311">
        <ele>130</ele>
        <time>2015-01-18T13:59:30Z</time>
      </trkpt>
      <trkpt lat="49.25838" lon="2.55313">
        <ele>129</ele>
        <time>2015-01-18T13:59:36Z</time>
      </trkpt>
      <trkpt lat="49.25844" lon="2.55318">
        <ele>126</ele>
        <time>2015-01-18T13:59:44Z</time>
      </trkpt>
      <trkpt lat="49.2585" lon="2.55324">
        <ele>125</ele>
        <time>2015-01-18T13:59:50Z</time>
      </trkpt>
      <trkpt lat="49.25857" lon="2.55331">
        <ele>126</ele>
        <time>2015-01-18T13:59:57Z</time>
      </trkpt>
      <trkpt lat="49.25864" lon="2.55336">
        <ele>127</ele>
        <time>2015-01-18T14:00:02Z</time>
      </trkpt>
      <trkpt lat="49.25871" lon="2.5534">
        <ele>127</ele>
        <time>2015-01-18T14:00:09Z</time>
      </trkpt>
      <trkpt lat="49.25877" lon="2.55345">
        <ele>129</ele>
        <time>2015-01-18T14:00:16Z</time>
      </trkpt>
      <trkpt lat="49.25883" lon="2.55349">
        <ele>130</ele>
        <time>2015-01-18T14:00:30Z</time>
      </trkpt>
      <trkpt lat="49.25891" lon="2.55352">
        <ele>131</ele>
        <time>2015-01-18T14:00:36Z</time>
      </trkpt>
      <trkpt lat="49.25897" lon="2.55356">
        <ele>133</ele>
        <time>2015-01-18T14:00:43Z</time>
      </trkpt>
      <trkpt lat="49.25903" lon="2.55358">
        <ele>134</ele>
        <time>2015-01-18T14:00:50Z</time>
      </trkpt>
      <trkpt lat="49.2591" lon="2.55359">
        <ele>139</ele>
        <time>2015-01-18T14:00:55Z</time>
      </trkpt>
      <trkpt lat="49.25918" lon="2.55365">
        <ele>139</ele>
        <time>2015-01-18T14:01:00Z</time>
      </trkpt>
      <trkpt lat="49.25925" lon="2.55368">
        <ele>139</ele>
        <time>2015-01-18T14:01:05Z</time>
      </trkpt>
      <trkpt lat="49.25933" lon="2.55373">
        <ele>136</ele>
        <time>2015-01-18T14:01:11Z</time>
      </trkpt>
      <trkpt lat="49.2594" lon="2.55377">
        <ele>134</ele>
        <time>2015-01-18T14:01:17Z</time>
      </trkpt>
      <trkpt lat="49.25948" lon="2.5538">
        <ele>128</ele>
        <time>2015-01-18T14:01:24Z</time>
      </trkpt>
      <trkpt lat="49.25955" lon="2.5538">
        <ele>133</ele>
        <time>2015-01-18T14:01:31Z</time>
      </trkpt>
      <trkpt lat="49.2596" lon="2.55375">
        <ele>127</ele>
        <time>2015-01-18T14:01:38Z</time>
      </trkpt>
      <trkpt lat="49.25965" lon="2.55369">
        <ele>131</ele>
        <time>2015-01-18T14:01:45Z</time>
      </trkpt>
      <trkpt lat="49.25969" lon="2.55362">
        <ele>126</ele>
        <time>2015-01-18T14:01:52Z</time>
      </trkpt>
      <trkpt lat="49.25972" lon="2.55354">
        <ele>127</ele>
        <time>2015-01-18T14:01:59Z</time>
      </trkpt>
      <trkpt lat="49.25977" lon="2.55347">
        <ele>131</ele>
        <time>2015-01-18T14:02:06Z</time>
      </trkpt>
      <trkpt lat="49.25983" lon="2.55338">
        <ele>132</ele>
        <time>2015-01-18T14:02:12Z</time>
      </trkpt>
      <trkpt lat="49.25988" lon="2.55329">
        <ele>132</ele>
        <time>2015-01-18T14:02:19Z</time>
      </trkpt>
      <trkpt lat="49.25994" lon="2.55324">
        <ele>128</ele>
        <time>2015-01-18T14:02:26Z</time>
      </trkpt>
      <trkpt lat="49.25998" lon="2.55315">
        <ele>134</ele>
        <time>2015-01-18T14:02:32Z</time>
      </trkpt>
      <trkpt lat="49.26004" lon="2.55307">
        <ele>135</ele>
        <time>2015-01-18T14:02:39Z</time>
      </trkpt>
      <trkpt lat="49.2601" lon="2.55299">
        <ele>131</ele>
        <time>2015-01-18T14:02:46Z</time>
      </trkpt>
      <trkpt lat="49.26016" lon="2.55293">
        <ele>129</ele>
        <time>2015-01-18T14:02:53Z</time>
      </trkpt>
      <trkpt lat="49.26021" lon="2.55287">
        <ele>129</ele>
        <time>2015-01-18T14:03:00Z</time>
      </trkpt>
      <trkpt lat="49.26028" lon="2.55282">
        <ele>134</ele>
        <time>2015-01-18T14:03:07Z</time>
      </trkpt>
      <trkpt lat="49.26034" lon="2.55275">
        <ele>135</ele>
        <time>2015-01-18T14:03:13Z</time>
      </trkpt>
      <trkpt lat="49.26039" lon="2.55265">
        <ele>133</ele>
        <time>2015-01-18T14:03:19Z</time>
      </trkpt>
      <trkpt lat="49.26045" lon="2.55256">
        <ele>134</ele>
        <time>2015-01-18T14:03:26Z</time>
      </trkpt>
      <trkpt lat="49.2605" lon="2.55247">
        <ele>132</ele>
        <time>2015-01-18T14:03:32Z</time>
      </trkpt>
      <trkpt lat="49.26055" lon="2.55239">
        <ele>136</ele>
        <time>2015-01-18T14:03:39Z</time>
      </trkpt>
      <trkpt lat="49.26057" lon="2.55228">
        <ele>140</ele>
        <time>2015-01-18T14:03:46Z</time>
      </trkpt>
      <trkpt lat="49.26061" lon="2.55223">
        <ele>140</ele>
        <time>2015-01-18T14:03:53Z</time>
      </trkpt>
      <trkpt lat="49.26067" lon="2.55213">
        <ele>142</ele>
        <time>2015-01-18T14:04:00Z</time>
      </trkpt>
      <trkpt lat="49.26071" lon="2.55206">
        <ele>143</ele>
        <time>2015-01-18T14:04:07Z</time>
      </trkpt>
      <trkpt lat="49.26078" lon="2.552">
        <ele>143</ele>
        <time>2015-01-18T14:04:14Z</time>
      </trkpt>
      <trkpt lat="49.26085" lon="2.55193">
        <ele>143</ele>
        <time>2015-01-18T14:04:20Z</time>
      </trkpt>
      <trkpt lat="49.2609" lon="2.55186">
        <ele>141</ele>
        <time>2015-01-18T14:04:26Z</time>
      </trkpt>
      <trkpt lat="49.26095" lon="2.55178">
        <ele>139</ele>
        <time>2015-01-18T14:04:33Z</time>
      </trkpt>
      <trkpt lat="49.26099" lon="2.55167">
        <ele>140</ele>
        <time>2015-01-18T14:04:39Z</time>
      </trkpt>
      <trkpt lat="49.26105" lon="2.55158">
        <ele>137</ele>
        <time>2015-01-18T14:04:46Z</time>
      </trkpt>
      <trkpt lat="49.26111" lon="2.55151">
        <ele>135</ele>
        <time>2015-01-18T14:04:53Z</time>
      </trkpt>
      <trkpt lat="49.26116" lon="2.55143">
        <ele>134</ele>
        <time>2015-01-18T14:05:00Z</time>
      </trkpt>
      <trkpt lat="49.26121" lon="2.55136">
        <ele>133</ele>
        <time>2015-01-18T14:05:07Z</time>
      </trkpt>
      <trkpt lat="49.26126" lon="2.55126">
        <ele>135</ele>
        <time>2015-01-18T14:05:13Z</time>
      </trkpt>
      <trkpt lat="49.2613" lon="2.55116">
        <ele>136</ele>
        <time>2015-01-18T14:05:19Z</time>
      </trkpt>
      <trkpt lat="49.26136" lon="2.55109">
        <ele>136</ele>
        <time>2015-01-18T14:05:25Z</time>
      </trkpt>
      <trkpt lat="49.26141" lon="2.551">
        <ele>132</ele>
        <time>2015-01-18T14:05:32Z</time>
      </trkpt>
      <trkpt lat="49.26147" lon="2.55092">
        <ele>130</ele>
        <time>2015-01-18T14:05:39Z</time>
      </trkpt>
      <trkpt lat="49.26153" lon="2.55084">
        <ele>132</ele>
        <time>2015-01-18T14:05:45Z</time>
      </trkpt>
      <trkpt lat="49.26158" lon="2.55077">
        <ele>134</ele>
        <time>2015-01-18T14:05:51Z</time>
      </trkpt>
      <trkpt lat="49.26164" lon="2.55069">
        <ele>136</ele>
        <time>2015-01-18T14:05:58Z</time>
      </trkpt>
      <trkpt lat="49.26168" lon="2.5506">
        <ele>137</ele>
        <time>2015-01-18T14:06:02Z</time>
      </trkpt>
      <trkpt lat="49.26173" lon="2.55052">
        <ele>139</ele>
        <time>2015-01-18T14:06:07Z</time>
      </trkpt>
      <trkpt lat="49.2618" lon="2.55044">
        <ele>139</ele>
        <time>2015-01-18T14:06:14Z</time>
      </trkpt>
      <trkpt lat="49.26185" lon="2.55035">
        <ele>145</ele>
        <time>2015-01-18T14:06:19Z</time>
      </trkpt>
      <trkpt lat="49.26189" lon="2.55026">
        <ele>143</ele>
        <time>2015-01-18T14:06:26Z</time>
      </trkpt>
      <trkpt lat="49.26193" lon="2.55024">
        <ele>142</ele>
        <time>2015-01-18T14:06:33Z</time>
      </trkpt>
      <trkpt lat="49.26197" lon="2.55018">
        <ele>141</ele>
        <time>2015-01-18T14:06:40Z</time>
      </trkpt>
      <trkpt lat="49.26202" lon="2.55008">
        <ele>140</ele>
        <time>2015-01-18T14:06:47Z</time>
      </trkpt>
      <trkpt lat="49.26202" lon="2.55011">
        <ele>139</ele>
        <time>2015-01-18T14:06:54Z</time>
      </trkpt>
      <trkpt lat="49.26199" lon="2.55">
        <ele>140</ele>
        <time>2015-01-18T14:07:19Z</time>
      </trkpt>
      <trkpt lat="49.26203" lon="2.54996">
        <ele>141</ele>
        <time>2015-01-18T14:07:26Z</time>
      </trkpt>
      <trkpt lat="49.26204" lon="2.55002">
        <ele>142</ele>
        <time>2015-01-18T14:07:32Z</time>
      </trkpt>
      <trkpt lat="49.26206" lon="2.54999">
        <ele>143</ele>
        <time>2015-01-18T14:07:40Z</time>
      </trkpt>
      <trkpt lat="49.26213" lon="2.54992">
        <ele>143</ele>
        <time>2015-01-18T14:07:46Z</time>
      </trkpt>
      <trkpt lat="49.26219" lon="2.54987">
        <ele>142</ele>
        <time>2015-01-18T14:07:54Z</time>
      </trkpt>
      <trkpt lat="49.26224" lon="2.54979">
        <ele>141</ele>
        <time>2015-01-18T14:08:01Z</time>
      </trkpt>
      <trkpt lat="49.26227" lon="2.5497">
        <ele>140</ele>
        <time>2015-01-18T14:08:08Z</time>
      </trkpt>
      <trkpt lat="49.26229" lon="2.5496">
        <ele>140</ele>
        <time>2015-01-18T14:08:15Z</time>
      </trkpt>
      <trkpt lat="49.26235" lon="2.54953">
        <ele>139</ele>
        <time>2015-01-18T14:08:22Z</time>
      </trkpt>
      <trkpt lat="49.26239" lon="2.54943">
        <ele>137</ele>
        <time>2015-01-18T14:08:29Z</time>
      </trkpt>
      <trkpt lat="49.2624" lon="2.54931">
        <ele>139</ele>
        <time>2015-01-18T14:08:35Z</time>
      </trkpt>
      <trkpt lat="49.2624" lon="2.54919">
        <ele>140</ele>
        <time>2015-01-18T14:08:41Z</time>
      </trkpt>
      <trkpt lat="49.26241" lon="2.54908">
        <ele>141</ele>
        <time>2015-01-18T14:08:47Z</time>
      </trkpt>
      <trkpt lat="49.26242" lon="2.54896">
        <ele>141</ele>
        <time>2015-01-18T14:08:53Z</time>
      </trkpt>
      <trkpt lat="49.26244" lon="2.54885">
        <ele>140</ele>
        <time>2015-01-18T14:08:59Z</time>
      </trkpt>
      <trkpt lat="49.26247" lon="2.54873">
        <ele>138</ele>
        <time>2015-01-18T14:09:06Z</time>
      </trkpt>
      <trkpt lat="49.26248" lon="2.54861">
        <ele>139</ele>
        <time>2015-01-18T14:09:13Z</time>
      </trkpt>
      <trkpt lat="49.2625" lon="2.54849">
        <ele>137</ele>
        <time>2015-01-18T14:09:20Z</time>
      </trkpt>
      <trkpt lat="49.26252" lon="2.54838">
        <ele>137</ele>
        <time>2015-01-18T14:09:26Z</time>
      </trkpt>
      <trkpt lat="49.26254" lon="2.54827">
        <ele>136</ele>
        <time>2015-01-18T14:09:32Z</time>
      </trkpt>
      <trkpt lat="49.26257" lon="2.54816">
        <ele>136</ele>
        <time>2015-01-18T14:09:39Z</time>
      </trkpt>
      <trkpt lat="49.2626" lon="2.54804">
        <ele>136</ele>
        <time>2015-01-18T14:09:45Z</time>
      </trkpt>
      <trkpt lat="49.26263" lon="2.54793">
        <ele>136</ele>
        <time>2015-01-18T14:09:51Z</time>
      </trkpt>
      <trkpt lat="49.26265" lon="2.54783">
        <ele>137</ele>
        <time>2015-01-18T14:09:57Z</time>
      </trkpt>
      <trkpt lat="49.26268" lon="2.54773">
        <ele>137</ele>
        <time>2015-01-18T14:10:03Z</time>
      </trkpt>
      <trkpt lat="49.26269" lon="2.54761">
        <ele>137</ele>
        <time>2015-01-18T14:10:09Z</time>
      </trkpt>
      <trkpt lat="49.26271" lon="2.54749">
        <ele>137</ele>
        <time>2015-01-18T14:10:16Z</time>
      </trkpt>
      <trkpt lat="49.26273" lon="2.54737">
        <ele>137</ele>
        <time>2015-01-18T14:10:22Z</time>
      </trkpt>
      <trkpt lat="49.26277" lon="2.54725">
        <ele>135</ele>
        <time>2015-01-18T14:10:28Z</time>
      </trkpt>
      <trkpt lat="49.26279" lon="2.54715">
        <ele>136</ele>
        <time>2015-01-18T14:10:34Z</time>
      </trkpt>
      <trkpt lat="49.26283" lon="2.54704">
        <ele>137</ele>
        <time>2015-01-18T14:10:40Z</time>
      </trkpt>
      <trkpt lat="49.26287" lon="2.54694">
        <ele>137</ele>
        <time>2015-01-18T14:10:46Z</time>
      </trkpt>
      <trkpt lat="49.26293" lon="2.54684">
        <ele>137</ele>
        <time>2015-01-18T14:10:53Z</time>
      </trkpt>
      <trkpt lat="49.26299" lon="2.54676">
        <ele>137</ele>
        <time>2015-01-18T14:11:00Z</time>
      </trkpt>
      <trkpt lat="49.26305" lon="2.54667">
        <ele>136</ele>
        <time>2015-01-18T14:11:07Z</time>
      </trkpt>
      <trkpt lat="49.2631" lon="2.54659">
        <ele>135</ele>
        <time>2015-01-18T14:11:14Z</time>
      </trkpt>
      <trkpt lat="49.26315" lon="2.54649">
        <ele>135</ele>
        <time>2015-01-18T14:11:21Z</time>
      </trkpt>
      <trkpt lat="49.2632" lon="2.5464">
        <ele>134</ele>
        <time>2015-01-18T14:11:27Z</time>
      </trkpt>
      <trkpt lat="49.26324" lon="2.54632">
        <ele>135</ele>
        <time>2015-01-18T14:11:33Z</time>
      </trkpt>
      <trkpt lat="49.26329" lon="2.54622">
        <ele>134</ele>
        <time>2015-01-18T14:11:39Z</time>
      </trkpt>
      <trkpt lat="49.26335" lon="2.54614">
        <ele>134</ele>
        <time>2015-01-18T14:11:45Z</time>
      </trkpt>
      <trkpt lat="49.2634" lon="2.54606">
        <ele>133</ele>
        <time>2015-01-18T14:11:51Z</time>
      </trkpt>
      <trkpt lat="49.26345" lon="2.54597">
        <ele>132</ele>
        <time>2015-01-18T14:11:57Z</time>
      </trkpt>
      <trkpt lat="49.2635" lon="2.54589">
        <ele>131</ele>
        <time>2015-01-18T14:12:03Z</time>
      </trkpt>
      <trkpt lat="49.26354" lon="2.5458">
        <ele>131</ele>
        <time>2015-01-18T14:12:09Z</time>
      </trkpt>
      <trkpt lat="49.26359" lon="2.5457">
        <ele>131</ele>
        <time>2015-01-18T14:12:15Z</time>
      </trkpt>
      <trkpt lat="49.26363" lon="2.54562">
        <ele>130</ele>
        <time>2015-01-18T14:12:21Z</time>
      </trkpt>
      <trkpt lat="49.26368" lon="2.54553">
        <ele>130</ele>
        <time>2015-01-18T14:12:27Z</time>
      </trkpt>
      <trkpt lat="49.26372" lon="2.54543">
        <ele>130</ele>
        <time>2015-01-18T14:12:33Z</time>
      </trkpt>
      <trkpt lat="49.26377" lon="2.54535">
        <ele>129</ele>
        <time>2015-01-18T14:12:39Z</time>
      </trkpt>
      <trkpt lat="49.26382" lon="2.54526">
        <ele>130</ele>
        <time>2015-01-18T14:12:46Z</time>
      </trkpt>
      <trkpt lat="49.26389" lon="2.54518">
        <ele>128</ele>
        <time>2015-01-18T14:12:53Z</time>
      </trkpt>
      <trkpt lat="49.26394" lon="2.5451">
        <ele>128</ele>
        <time>2015-01-18T14:12:59Z</time>
      </trkpt>
      <trkpt lat="49.26398" lon="2.545">
        <ele>130</ele>
        <time>2015-01-18T14:13:05Z</time>
      </trkpt>
      <trkpt lat="49.26404" lon="2.54492">
        <ele>130</ele>
        <time>2015-01-18T14:13:11Z</time>
      </trkpt>
      <trkpt lat="49.26409" lon="2.54484">
        <ele>127</ele>
        <time>2015-01-18T14:13:17Z</time>
      </trkpt>
      <trkpt lat="49.26414" lon="2.54474">
        <ele>127</ele>
        <time>2015-01-18T14:13:24Z</time>
      </trkpt>
      <trkpt lat="49.26419" lon="2.54465">
        <ele>127</ele>
        <time>2015-01-18T14:13:31Z</time>
      </trkpt>
      <trkpt lat="49.26425" lon="2.54455">
        <ele>127</ele>
        <time>2015-01-18T14:13:38Z</time>
      </trkpt>
      <trkpt lat="49.2643" lon="2.54447">
        <ele>127</ele>
        <time>2015-01-18T14:13:45Z</time>
      </trkpt>
      <trkpt lat="49.26436" lon="2.54439">
        <ele>126</ele>
        <time>2015-01-18T14:13:52Z</time>
      </trkpt>
      <trkpt lat="49.26441" lon="2.5443">
        <ele>126</ele>
        <time>2015-01-18T14:13:59Z</time>
      </trkpt>
      <trkpt lat="49.26447" lon="2.54421">
        <ele>125</ele>
        <time>2015-01-18T14:14:06Z</time>
      </trkpt>
      <trkpt lat="49.26452" lon="2.54413">
        <ele>124</ele>
        <time>2015-01-18T14:14:12Z</time>
      </trkpt>
      <trkpt lat="49.26457" lon="2.54403">
        <ele>123</ele>
        <time>2015-01-18T14:14:19Z</time>
      </trkpt>
      <trkpt lat="49.26463" lon="2.54394">
        <ele>123</ele>
        <time>2015-01-18T14:14:26Z</time>
      </trkpt>
      <trkpt lat="49.26468" lon="2.54386">
        <ele>121</ele>
        <time>2015-01-18T14:14:32Z</time>
      </trkpt>
      <trkpt lat="49.26473" lon="2.54378">
        <ele>121</ele>
        <time>2015-01-18T14:14:38Z</time>
      </trkpt>
      <trkpt lat="49.26479" lon="2.54369">
        <ele>120</ele>
        <time>2015-01-18T14:14:45Z</time>
      </trkpt>
      <trkpt lat="49.26484" lon="2.5436">
        <ele>119</ele>
        <time>2015-01-18T14:14:52Z</time>
      </trkpt>
      <trkpt lat="49.26489" lon="2.54351">
        <ele>119</ele>
        <time>2015-01-18T14:14:58Z</time>
      </trkpt>
      <trkpt lat="49.26494" lon="2.54343">
        <ele>119</ele>
        <time>2015-01-18T14:15:04Z</time>
      </trkpt>
      <trkpt lat="49.26499" lon="2.54335">
        <ele>118</ele>
        <time>2015-01-18T14:15:10Z</time>
      </trkpt>
      <trkpt lat="49.26504" lon="2.54326">
        <ele>117</ele>
        <time>2015-01-18T14:15:17Z</time>
      </trkpt>
      <trkpt lat="49.26509" lon="2.54317">
        <ele>117</ele>
        <time>2015-01-18T14:15:22Z</time>
      </trkpt>
      <trkpt lat="49.26514" lon="2.54308">
        <ele>118</ele>
        <time>2015-01-18T14:15:28Z</time>
      </trkpt>
      <trkpt lat="49.26519" lon="2.54298">
        <ele>118</ele>
        <time>2015-01-18T14:15:34Z</time>
      </trkpt>
      <trkpt lat="49.26524" lon="2.54289">
        <ele>117</ele>
        <time>2015-01-18T14:15:40Z</time>
      </trkpt>
      <trkpt lat="49.26529" lon="2.54281">
        <ele>117</ele>
        <time>2015-01-18T14:15:46Z</time>
      </trkpt>
      <trkpt lat="49.26534" lon="2.54271">
        <ele>116</ele>
        <time>2015-01-18T14:15:51Z</time>
      </trkpt>
      <trkpt lat="49.26539" lon="2.54263">
        <ele>118</ele>
        <time>2015-01-18T14:15:56Z</time>
      </trkpt>
      <trkpt lat="49.26543" lon="2.54254">
        <ele>117</ele>
        <time>2015-01-18T14:16:01Z</time>
      </trkpt>
      <trkpt lat="49.26547" lon="2.54244">
        <ele>118</ele>
        <time>2015-01-18T14:16:06Z</time>
      </trkpt>
      <trkpt lat="49.26553" lon="2.54235">
        <ele>119</ele>
        <time>2015-01-18T14:16:12Z</time>
      </trkpt>
      <trkpt lat="49.26558" lon="2.54226">
        <ele>121</ele>
        <time>2015-01-18T14:16:18Z</time>
      </trkpt>
      <trkpt lat="49.26563" lon="2.54217">
        <ele>120</ele>
        <time>2015-01-18T14:16:25Z</time>
      </trkpt>
      <trkpt lat="49.26569" lon="2.54209">
        <ele>119</ele>
        <time>2015-01-18T14:16:32Z</time>
      </trkpt>
      <trkpt lat="49.26575" lon="2.54201">
        <ele>119</ele>
        <time>2015-01-18T14:16:38Z</time>
      </trkpt>
      <trkpt lat="49.26579" lon="2.54192">
        <ele>121</ele>
        <time>2015-01-18T14:16:44Z</time>
      </trkpt>
      <trkpt lat="49.26585" lon="2.54183">
        <ele>119</ele>
        <time>2015-01-18T14:16:50Z</time>
      </trkpt>
      <trkpt lat="49.26589" lon="2.54174">
        <ele>119</ele>
        <time>2015-01-18T14:16:56Z</time>
      </trkpt>
      <trkpt lat="49.26594" lon="2.54166">
        <ele>118</ele>
        <time>2015-01-18T14:17:02Z</time>
      </trkpt>
      <trkpt lat="49.26599" lon="2.54157">
        <ele>120</ele>
        <time>2015-01-18T14:17:08Z</time>
      </trkpt>
      <trkpt lat="49.26605" lon="2.54148">
        <ele>119</ele>
        <time>2015-01-18T14:17:14Z</time>
      </trkpt>
      <trkpt lat="49.26609" lon="2.54137">
        <ele>119</ele>
        <time>2015-01-18T14:17:20Z</time>
      </trkpt>
      <trkpt lat="49.26615" lon="2.54129">
        <ele>118</ele>
        <time>2015-01-18T14:17:26Z</time>
      </trkpt>
      <trkpt lat="49.2662" lon="2.5412">
        <ele>118</ele>
        <time>2015-01-18T14:17:32Z</time>
      </trkpt>
      <trkpt lat="49.26623" lon="2.54111">
        <ele>119</ele>
        <time>2015-01-18T14:17:37Z</time>
      </trkpt>
      <trkpt lat="49.26628" lon="2.54101">
        <ele>120</ele>
        <time>2015-01-18T14:17:43Z</time>
      </trkpt>
      <trkpt lat="49.26634" lon="2.54092">
        <ele>119</ele>
        <time>2015-01-18T14:17:49Z</time>
      </trkpt>
      <trkpt lat="49.26639" lon="2.54085">
        <ele>118</ele>
        <time>2015-01-18T14:17:55Z</time>
      </trkpt>
      <trkpt lat="49.26644" lon="2.54076">
        <ele>117</ele>
        <time>2015-01-18T14:18:01Z</time>
      </trkpt>
      <trkpt lat="49.26648" lon="2.54066">
        <ele>118</ele>
        <time>2015-01-18T14:18:07Z</time>
      </trkpt>
      <trkpt lat="49.26654" lon="2.54058">
        <ele>116</ele>
        <time>2015-01-18T14:18:13Z</time>
      </trkpt>
      <trkpt lat="49.26658" lon="2.54049">
        <ele>118</ele>
        <time>2015-01-18T14:18:19Z</time>
      </trkpt>
      <trkpt lat="49.26662" lon="2.54038">
        <ele>118</ele>
        <time>2015-01-18T14:18:25Z</time>
      </trkpt>
      <trkpt lat="49.26667" lon="2.54028">
        <ele>118</ele>
        <time>2015-01-18T14:18:32Z</time>
      </trkpt>
      <trkpt lat="49.2667" lon="2.54018">
        <ele>120</ele>
        <time>2015-01-18T14:18:38Z</time>
      </trkpt>
      <trkpt lat="49.26675" lon="2.54009">
        <ele>120</ele>
        <time>2015-01-18T14:18:44Z</time>
      </trkpt>
      <trkpt lat="49.26679" lon="2.53999">
        <ele>120</ele>
        <time>2015-01-18T14:18:50Z</time>
      </trkpt>
      <trkpt lat="49.26682" lon="2.53989">
        <ele>119</ele>
        <time>2015-01-18T14:18:56Z</time>
      </trkpt>
      <trkpt lat="49.26688" lon="2.5398">
        <ele>120</ele>
        <time>2015-01-18T14:19:03Z</time>
      </trkpt>
      <trkpt lat="49.26692" lon="2.5397">
        <ele>120</ele>
        <time>2015-01-18T14:19:09Z</time>
      </trkpt>
      <trkpt lat="49.26697" lon="2.53961">
        <ele>121</ele>
        <time>2015-01-18T14:19:15Z</time>
      </trkpt>
      <trkpt lat="49.26704" lon="2.53954">
        <ele>121</ele>
        <time>2015-01-18T14:19:22Z</time>
      </trkpt>
      <trkpt lat="49.2671" lon="2.53945">
        <ele>121</ele>
        <time>2015-01-18T14:19:29Z</time>
      </trkpt>
      <trkpt lat="49.26715" lon="2.53935">
        <ele>120</ele>
        <time>2015-01-18T14:19:35Z</time>
      </trkpt>
      <trkpt lat="49.2672" lon="2.53926">
        <ele>119</ele>
        <time>2015-01-18T14:19:41Z</time>
      </trkpt>
      <trkpt lat="49.26726" lon="2.53917">
        <ele>119</ele>
        <time>2015-01-18T14:19:48Z</time>
      </trkpt>
      <trkpt lat="49.26731" lon="2.53908">
        <ele>119</ele>
        <time>2015-01-18T14:19:55Z</time>
      </trkpt>
      <trkpt lat="49.26735" lon="2.53897">
        <ele>119</ele>
        <time>2015-01-18T14:20:01Z</time>
      </trkpt>
      <trkpt lat="49.26738" lon="2.53885">
        <ele>118</ele>
        <time>2015-01-18T14:20:07Z</time>
      </trkpt>
      <trkpt lat="49.26742" lon="2.53876">
        <ele>117</ele>
        <time>2015-01-18T14:20:13Z</time>
      </trkpt>
      <trkpt lat="49.26745" lon="2.53865">
        <ele>117</ele>
        <time>2015-01-18T14:20:19Z</time>
      </trkpt>
      <trkpt lat="49.26749" lon="2.53855">
        <ele>116</ele>
        <time>2015-01-18T14:20:25Z</time>
      </trkpt>
      <trkpt lat="49.26752" lon="2.53843">
        <ele>116</ele>
        <time>2015-01-18T14:20:31Z</time>
      </trkpt>
      <trkpt lat="49.26755" lon="2.53831">
        <ele>115</ele>
        <time>2015-01-18T14:20:37Z</time>
      </trkpt>
      <trkpt lat="49.26757" lon="2.5382">
        <ele>115</ele>
        <time>2015-01-18T14:20:43Z</time>
      </trkpt>
      <trkpt lat="49.26759" lon="2.53808">
        <ele>115</ele>
        <time>2015-01-18T14:20:49Z</time>
      </trkpt>
      <trkpt lat="49.26761" lon="2.53796">
        <ele>114</ele>
        <time>2015-01-18T14:20:55Z</time>
      </trkpt>
      <trkpt lat="49.26762" lon="2.53786">
        <ele>114</ele>
        <time>2015-01-18T14:21:00Z</time>
      </trkpt>
      <trkpt lat="49.26761" lon="2.53774">
        <ele>116</ele>
        <time>2015-01-18T14:21:05Z</time>
      </trkpt>
      <trkpt lat="49.26759" lon="2.53762">
        <ele>116</ele>
        <time>2015-01-18T14:21:12Z</time>
      </trkpt>
      <trkpt lat="49.26758" lon="2.53751">
        <ele>116</ele>
        <time>2015-01-18T14:21:18Z</time>
      </trkpt>
      <trkpt lat="49.26757" lon="2.53739">
        <ele>116</ele>
        <time>2015-01-18T14:21:24Z</time>
      </trkpt>
      <trkpt lat="49.26756" lon="2.53727">
        <ele>116</ele>
        <time>2015-01-18T14:21:30Z</time>
      </trkpt>
      <trkpt lat="49.26755" lon="2.53715">
        <ele>116</ele>
        <time>2015-01-18T14:21:36Z</time>
      </trkpt>
      <trkpt lat="49.26754" lon="2.53704">
        <ele>117</ele>
        <time>2015-01-18T14:21:42Z</time>
      </trkpt>
      <trkpt lat="49.26755" lon="2.53691">
        <ele>115</ele>
        <time>2015-01-18T14:21:49Z</time>
      </trkpt>
      <trkpt lat="49.26755" lon="2.5368">
        <ele>115</ele>
        <time>2015-01-18T14:21:55Z</time>
      </trkpt>
      <trkpt lat="49.26755" lon="2.53669">
        <ele>116</ele>
        <time>2015-01-18T14:22:01Z</time>
      </trkpt>
      <trkpt lat="49.26755" lon="2.53656">
        <ele>118</ele>
        <time>2015-01-18T14:22:08Z</time>
      </trkpt>
      <trkpt lat="49.26756" lon="2.53645">
        <ele>118</ele>
        <time>2015-01-18T14:22:14Z</time>
      </trkpt>
      <trkpt lat="49.26756" lon="2.53632">
        <ele>119</ele>
        <time>2015-01-18T14:22:20Z</time>
      </trkpt>
      <trkpt lat="49.26756" lon="2.53621">
        <ele>118</ele>
        <time>2015-01-18T14:22:26Z</time>
      </trkpt>
      <trkpt lat="49.26757" lon="2.5361">
        <ele>118</ele>
        <time>2015-01-18T14:22:33Z</time>
      </trkpt>
      <trkpt lat="49.26756" lon="2.53598">
        <ele>119</ele>
        <time>2015-01-18T14:22:40Z</time>
      </trkpt>
      <trkpt lat="49.26757" lon="2.53585">
        <ele>120</ele>
        <time>2015-01-18T14:22:47Z</time>
      </trkpt>
      <trkpt lat="49.2676" lon="2.53575">
        <ele>122</ele>
        <time>2015-01-18T14:22:53Z</time>
      </trkpt>
      <trkpt lat="49.26762" lon="2.53567">
        <ele>122</ele>
        <time>2015-01-18T14:23:00Z</time>
      </trkpt>
      <trkpt lat="49.26767" lon="2.53557">
        <ele>118</ele>
        <time>2015-01-18T14:23:07Z</time>
      </trkpt>
      <trkpt lat="49.26773" lon="2.53547">
        <ele>117</ele>
        <time>2015-01-18T14:23:13Z</time>
      </trkpt>
      <trkpt lat="49.26777" lon="2.53536">
        <ele>117</ele>
        <time>2015-01-18T14:23:19Z</time>
      </trkpt>
      <trkpt lat="49.26781" lon="2.53526">
        <ele>116</ele>
        <time>2015-01-18T14:23:25Z</time>
      </trkpt>
      <trkpt lat="49.26783" lon="2.53515">
        <ele>116</ele>
        <time>2015-01-18T14:23:31Z</time>
      </trkpt>
      <trkpt lat="49.26786" lon="2.53503">
        <ele>114</ele>
        <time>2015-01-18T14:23:38Z</time>
      </trkpt>
      <trkpt lat="49.26789" lon="2.53493">
        <ele>115</ele>
        <time>2015-01-18T14:23:45Z</time>
      </trkpt>
      <trkpt lat="49.26791" lon="2.53481">
        <ele>114</ele>
        <time>2015-01-18T14:23:52Z</time>
      </trkpt>
      <trkpt lat="49.26795" lon="2.53471">
        <ele>113</ele>
        <time>2015-01-18T14:23:59Z</time>
      </trkpt>
      <trkpt lat="49.26798" lon="2.5346">
        <ele>113</ele>
        <time>2015-01-18T14:24:06Z</time>
      </trkpt>
      <trkpt lat="49.26801" lon="2.53449">
        <ele>113</ele>
        <time>2015-01-18T14:24:12Z</time>
      </trkpt>
      <trkpt lat="49.26804" lon="2.53438">
        <ele>113</ele>
        <time>2015-01-18T14:24:18Z</time>
      </trkpt>
      <trkpt lat="49.26807" lon="2.53427">
        <ele>114</ele>
        <time>2015-01-18T14:24:24Z</time>
      </trkpt>
      <trkpt lat="49.2681" lon="2.53416">
        <ele>116</ele>
        <time>2015-01-18T14:24:30Z</time>
      </trkpt>
      <trkpt lat="49.26813" lon="2.53405">
        <ele>117</ele>
        <time>2015-01-18T14:24:36Z</time>
      </trkpt>
      <trkpt lat="49.26816" lon="2.53394">
        <ele>117</ele>
        <time>2015-01-18T14:24:42Z</time>
      </trkpt>
      <trkpt lat="49.26819" lon="2.53383">
        <ele>117</ele>
        <time>2015-01-18T14:24:49Z</time>
      </trkpt>
      <trkpt lat="49.26822" lon="2.53373">
        <ele>118</ele>
        <time>2015-01-18T14:24:55Z</time>
      </trkpt>
      <trkpt lat="49.26826" lon="2.53361">
        <ele>117</ele>
        <time>2015-01-18T14:25:02Z</time>
      </trkpt>
      <trkpt lat="49.26828" lon="2.5335">
        <ele>118</ele>
        <time>2015-01-18T14:25:08Z</time>
      </trkpt>
      <trkpt lat="49.26832" lon="2.53338">
        <ele>118</ele>
        <time>2015-01-18T14:25:14Z</time>
      </trkpt>
      <trkpt lat="49.26834" lon="2.53327">
        <ele>118</ele>
        <time>2015-01-18T14:25:20Z</time>
      </trkpt>
      <trkpt lat="49.26838" lon="2.53318">
        <ele>116</ele>
        <time>2015-01-18T14:25:26Z</time>
      </trkpt>
      <trkpt lat="49.26842" lon="2.53309">
        <ele>117</ele>
        <time>2015-01-18T14:25:32Z</time>
      </trkpt>
      <trkpt lat="49.26845" lon="2.53297">
        <ele>119</ele>
        <time>2015-01-18T14:25:38Z</time>
      </trkpt>
      <trkpt lat="49.26849" lon="2.53286">
        <ele>118</ele>
        <time>2015-01-18T14:25:45Z</time>
      </trkpt>
      <trkpt lat="49.26851" lon="2.53275">
        <ele>120</ele>
        <time>2015-01-18T14:25:51Z</time>
      </trkpt>
      <trkpt lat="49.26852" lon="2.53262">
        <ele>126</ele>
        <time>2015-01-18T14:25:57Z</time>
      </trkpt>
      <trkpt lat="49.26855" lon="2.53251">
        <ele>127</ele>
        <time>2015-01-18T14:26:03Z</time>
      </trkpt>
      <trkpt lat="49.26858" lon="2.53239">
        <ele>135</ele>
        <time>2015-01-18T14:26:09Z</time>
      </trkpt>
      <trkpt lat="49.2686" lon="2.53228">
        <ele>136</ele>
        <time>2015-01-18T14:26:14Z</time>
      </trkpt>
      <trkpt lat="49.26864" lon="2.53218">
        <ele>135</ele>
        <time>2015-01-18T14:26:20Z</time>
      </trkpt>
      <trkpt lat="49.26867" lon="2.53207">
        <ele>137</ele>
        <time>2015-01-18T14:26:26Z</time>
      </trkpt>
      <trkpt lat="49.26869" lon="2.53194">
        <ele>139</ele>
        <time>2015-01-18T14:26:32Z</time>
      </trkpt>
      <trkpt lat="49.26871" lon="2.53184">
        <ele>142</ele>
        <time>2015-01-18T14:26:38Z</time>
      </trkpt>
      <trkpt lat="49.26874" lon="2.53172">
        <ele>145</ele>
        <time>2015-01-18T14:26:44Z</time>
      </trkpt>
      <trkpt lat="49.26876" lon="2.53161">
        <ele>148</ele>
        <time>2015-01-18T14:26:49Z</time>
      </trkpt>
      <trkpt lat="49.2688" lon="2.53151">
        <ele>144</ele>
        <time>2015-01-18T14:26:55Z</time>
      </trkpt>
      <trkpt lat="49.26882" lon="2.5314">
        <ele>145</ele>
        <time>2015-01-18T14:27:01Z</time>
      </trkpt>
      <trkpt lat="49.26885" lon="2.5313">
        <ele>138</ele>
        <time>2015-01-18T14:27:08Z</time>
      </trkpt>
      <trkpt lat="49.2689" lon="2.53122">
        <ele>133</ele>
        <time>2015-01-18T14:27:14Z</time>
      </trkpt>
      <trkpt lat="49.26893" lon="2.53113">
        <ele>133</ele>
        <time>2015-01-18T14:27:21Z</time>
      </trkpt>
      <trkpt lat="49.26894" lon="2.53102">
        <ele>136</ele>
        <time>2015-01-18T14:27:28Z</time>
      </trkpt>
      <trkpt lat="49.26897" lon="2.53091">
        <ele>134</ele>
        <time>2015-01-18T14:27:34Z</time>
      </trkpt>
      <trkpt lat="49.26901" lon="2.53082">
        <ele>131</ele>
        <time>2015-01-18T14:27:41Z</time>
      </trkpt>
      <trkpt lat="49.26906" lon="2.53073">
        <ele>130</ele>
        <time>2015-01-18T14:27:48Z</time>
      </trkpt>
      <trkpt lat="49.26911" lon="2.53065">
        <ele>130</ele>
        <time>2015-01-18T14:27:54Z</time>
      </trkpt>
      <trkpt lat="49.26913" lon="2.53053">
        <ele>128</ele>
        <time>2015-01-18T14:27:59Z</time>
      </trkpt>
      <trkpt lat="49.26917" lon="2.53043">
        <ele>127</ele>
        <time>2015-01-18T14:28:05Z</time>
      </trkpt>
      <trkpt lat="49.2692" lon="2.53033">
        <ele>124</ele>
        <time>2015-01-18T14:28:12Z</time>
      </trkpt>
      <trkpt lat="49.26923" lon="2.53022">
        <ele>117</ele>
        <time>2015-01-18T14:28:19Z</time>
      </trkpt>
      <trkpt lat="49.26926" lon="2.53011">
        <ele>118</ele>
        <time>2015-01-18T14:28:25Z</time>
      </trkpt>
      <trkpt lat="49.26928" lon="2.52999">
        <ele>120</ele>
        <time>2015-01-18T14:28:30Z</time>
      </trkpt>
      <trkpt lat="49.26929" lon="2.52986">
        <ele>121</ele>
        <time>2015-01-18T14:28:35Z</time>
      </trkpt>
      <trkpt lat="49.2693" lon="2.52975">
        <ele>122</ele>
        <time>2015-01-18T14:28:40Z</time>
      </trkpt>
      <trkpt lat="49.26933" lon="2.52964">
        <ele>121</ele>
        <time>2015-01-18T14:28:47Z</time>
      </trkpt>
      <trkpt lat="49.26935" lon="2.52953">
        <ele>123</ele>
        <time>2015-01-18T14:28:53Z</time>
      </trkpt>
      <trkpt lat="49.26937" lon="2.52941">
        <ele>124</ele>
        <time>2015-01-18T14:29:00Z</time>
      </trkpt>
      <trkpt lat="49.2694" lon="2.5293">
        <ele>124</ele>
        <time>2015-01-18T14:29:06Z</time>
      </trkpt>
      <trkpt lat="49.26942" lon="2.52919">
        <ele>125</ele>
        <time>2015-01-18T14:29:12Z</time>
      </trkpt>
      <trkpt lat="49.26944" lon="2.52908">
        <ele>126</ele>
        <time>2015-01-18T14:29:18Z</time>
      </trkpt>
      <trkpt lat="49.26947" lon="2.52897">
        <ele>127</ele>
        <time>2015-01-18T14:29:25Z</time>
      </trkpt>
      <trkpt lat="49.2695" lon="2.52887">
        <ele>128</ele>
        <time>2015-01-18T14:29:31Z</time>
      </trkpt>
      <trkpt lat="49.26952" lon="2.52876">
        <ele>130</ele>
        <time>2015-01-18T14:29:36Z</time>
      </trkpt>
      <trkpt lat="49.26957" lon="2.52865">
        <ele>130</ele>
        <time>2015-01-18T14:29:42Z</time>
      </trkpt>
      <trkpt lat="49.26961" lon="2.52855">
        <ele>129</ele>
        <time>2015-01-18T14:29:49Z</time>
      </trkpt>
      <trkpt lat="49.26965" lon="2.52847">
        <ele>128</ele>
        <time>2015-01-18T14:29:56Z</time>
      </trkpt>
      <trkpt lat="49.26967" lon="2.52836">
        <ele>129</ele>
        <time>2015-01-18T14:30:02Z</time>
      </trkpt>
      <trkpt lat="49.2697" lon="2.52825">
        <ele>131</ele>
        <time>2015-01-18T14:30:07Z</time>
      </trkpt>
      <trkpt lat="49.26973" lon="2.52813">
        <ele>129</ele>
        <time>2015-01-18T14:30:12Z</time>
      </trkpt>
      <trkpt lat="49.26976" lon="2.52802">
        <ele>129</ele>
        <time>2015-01-18T14:30:17Z</time>
      </trkpt>
      <trkpt lat="49.26979" lon="2.52791">
        <ele>131</ele>
        <time>2015-01-18T14:30:23Z</time>
      </trkpt>
      <trkpt lat="49.26983" lon="2.52781">
        <ele>133</ele>
        <time>2015-01-18T14:30:29Z</time>
      </trkpt>
      <trkpt lat="49.26985" lon="2.5277">
        <ele>133</ele>
        <time>2015-01-18T14:30:35Z</time>
      </trkpt>
      <trkpt lat="49.26986" lon="2.52759">
        <ele>136</ele>
        <time>2015-01-18T14:30:42Z</time>
      </trkpt>
      <trkpt lat="49.26986" lon="2.52748">
        <ele>132</ele>
        <time>2015-01-18T14:30:49Z</time>
      </trkpt>
      <trkpt lat="49.26981" lon="2.52738">
        <ele>132</ele>
        <time>2015-01-18T14:30:56Z</time>
      </trkpt>
      <trkpt lat="49.26978" lon="2.52727">
        <ele>135</ele>
        <time>2015-01-18T14:31:03Z</time>
      </trkpt>
      <trkpt lat="49.26979" lon="2.52719">
        <ele>130</ele>
        <time>2015-01-18T14:31:10Z</time>
      </trkpt>
      <trkpt lat="49.2698" lon="2.52715">
        <ele>121</ele>
        <time>2015-01-18T14:31:17Z</time>
      </trkpt>
      <trkpt lat="49.26981" lon="2.52706">
        <ele>120</ele>
        <time>2015-01-18T14:31:24Z</time>
      </trkpt>
      <trkpt lat="49.26982" lon="2.52693">
        <ele>121</ele>
        <time>2015-01-18T14:31:31Z</time>
      </trkpt>
      <trkpt lat="49.26984" lon="2.52682">
        <ele>120</ele>
        <time>2015-01-18T14:31:38Z</time>
      </trkpt>
      <trkpt lat="49.2699" lon="2.52679">
        <ele>115</ele>
        <time>2015-01-18T14:31:45Z</time>
      </trkpt>
      <trkpt lat="49.26996" lon="2.52672">
        <ele>118</ele>
        <time>2015-01-18T14:31:52Z</time>
      </trkpt>
      <trkpt lat="49.27002" lon="2.52663">
        <ele>117</ele>
        <time>2015-01-18T14:31:58Z</time>
      </trkpt>
      <trkpt lat="49.27008" lon="2.52656">
        <ele>114</ele>
        <time>2015-01-18T14:32:05Z</time>
      </trkpt>
      <trkpt lat="49.27013" lon="2.52648">
        <ele>112</ele>
        <time>2015-01-18T14:32:11Z</time>
      </trkpt>
      <trkpt lat="49.27018" lon="2.52638">
        <ele>113</ele>
        <time>2015-01-18T14:32:18Z</time>
      </trkpt>
      <trkpt lat="49.27023" lon="2.52628">
        <ele>114</ele>
        <time>2015-01-18T14:32:25Z</time>
      </trkpt>
      <trkpt lat="49.27028" lon="2.52621">
        <ele>112</ele>
        <time>2015-01-18T14:32:32Z</time>
      </trkpt>
      <trkpt lat="49.27034" lon="2.52614">
        <ele>112</ele>
        <time>2015-01-18T14:32:39Z</time>
      </trkpt>
      <trkpt lat="49.2704" lon="2.52606">
        <ele>110</ele>
        <time>2015-01-18T14:32:44Z</time>
      </trkpt>
      <trkpt lat="49.27043" lon="2.52596">
        <ele>109</ele>
        <time>2015-01-18T14:32:50Z</time>
      </trkpt>
      <trkpt lat="49.27049" lon="2.52593">
        <ele>105</ele>
        <time>2015-01-18T14:32:57Z</time>
      </trkpt>
      <trkpt lat="49.27055" lon="2.52588">
        <ele>106</ele>
        <time>2015-01-18T14:33:04Z</time>
      </trkpt>
      <trkpt lat="49.27061" lon="2.52579">
        <ele>108</ele>
        <time>2015-01-18T14:33:09Z</time>
      </trkpt>
      <trkpt lat="49.27067" lon="2.52572">
        <ele>110</ele>
        <time>2015-01-18T14:33:15Z</time>
      </trkpt>
      <trkpt lat="49.27074" lon="2.52566">
        <ele>111</ele>
        <time>2015-01-18T14:33:21Z</time>
      </trkpt>
      <trkpt lat="49.2708" lon="2.5256">
        <ele>107</ele>
        <time>2015-01-18T14:33:27Z</time>
      </trkpt>
      <trkpt lat="49.27087" lon="2.52551">
        <ele>104</ele>
        <time>2015-01-18T14:33:34Z</time>
      </trkpt>
      <trkpt lat="49.2709" lon="2.5254">
        <ele>103</ele>
        <time>2015-01-18T14:33:39Z</time>
      </trkpt>
      <trkpt lat="49.27093" lon="2.52528">
        <ele>104</ele>
        <time>2015-01-18T14:33:46Z</time>
      </trkpt>
      <trkpt lat="49.27094" lon="2.52516">
        <ele>103</ele>
        <time>2015-01-18T14:33:51Z</time>
      </trkpt>
      <trkpt lat="49.27098" lon="2.52504">
        <ele>100</ele>
        <time>2015-01-18T14:33:57Z</time>
      </trkpt>
      <trkpt lat="49.27101" lon="2.52494">
        <ele>99</ele>
        <time>2015-01-18T14:34:03Z</time>
      </trkpt>
      <trkpt lat="49.27101" lon="2.52482">
        <ele>100</ele>
        <time>2015-01-18T14:34:10Z</time>
      </trkpt>
      <trkpt lat="49.27104" lon="2.52471">
        <ele>100</ele>
        <time>2015-01-18T14:34:17Z</time>
      </trkpt>
      <trkpt lat="49.27106" lon="2.5246">
        <ele>97</ele>
        <time>2015-01-18T14:34:23Z</time>
      </trkpt>
      <trkpt lat="49.27108" lon="2.5245">
        <ele>98</ele>
        <time>2015-01-18T14:34:30Z</time>
      </trkpt>
      <trkpt lat="49.27108" lon="2.52439">
        <ele>97</ele>
        <time>2015-01-18T14:34:36Z</time>
      </trkpt>
      <trkpt lat="49.2711" lon="2.52427">
        <ele>96</ele>
        <time>2015-01-18T14:34:43Z</time>
      </trkpt>
      <trkpt lat="49.27113" lon="2.52416">
        <ele>96</ele>
        <time>2015-01-18T14:34:50Z</time>
      </trkpt>
      <trkpt lat="49.27115" lon="2.52405">
        <ele>92</ele>
        <time>2015-01-18T14:34:56Z</time>
      </trkpt>
      <trkpt lat="49.2712" lon="2.52397">
        <ele>90</ele>
        <time>2015-01-18T14:35:02Z</time>
      </trkpt>
      <trkpt lat="49.27124" lon="2.52386">
        <ele>88</ele>
        <time>2015-01-18T14:35:09Z</time>
      </trkpt>
      <trkpt lat="49.27128" lon="2.52375">
        <ele>87</ele>
        <time>2015-01-18T14:35:16Z</time>
      </trkpt>
      <trkpt lat="49.27132" lon="2.52367">
        <ele>84</ele>
        <time>2015-01-18T14:35:23Z</time>
      </trkpt>
      <trkpt lat="49.27134" lon="2.52355">
        <ele>85</ele>
        <time>2015-01-18T14:35:29Z</time>
      </trkpt>
      <trkpt lat="49.27136" lon="2.52342">
        <ele>84</ele>
        <time>2015-01-18T14:35:35Z</time>
      </trkpt>
      <trkpt lat="49.27138" lon="2.52332">
        <ele>87</ele>
        <time>2015-01-18T14:35:42Z</time>
      </trkpt>
      <trkpt lat="49.27138" lon="2.52325">
        <ele>90</ele>
        <time>2015-01-18T14:36:17Z</time>
      </trkpt>
      <trkpt lat="49.2714" lon="2.52322">
        <ele>93</ele>
        <time>2015-01-18T14:36:48Z</time>
      </trkpt>
      <trkpt lat="49.27145" lon="2.52314">
        <ele>92</ele>
        <time>2015-01-18T14:36:27Z</time>
      </trkpt>
      <trkpt lat="49.27152" lon="2.5231">
        <ele>89</ele>
        <time>2015-01-18T14:37:40Z</time>
      </trkpt>
      <trkpt lat="49.27157" lon="2.52301">
        <ele>89</ele>
        <time>2015-01-18T14:37:46Z</time>
      </trkpt>
      <trkpt lat="49.27164" lon="2.52294">
        <ele>87</ele>
        <time>2015-01-18T14:37:53Z</time>
      </trkpt>
      <trkpt lat="49.27169" lon="2.52287">
        <ele>85</ele>
        <time>2015-01-18T14:38:00Z</time>
      </trkpt>
      <trkpt lat="49.27176" lon="2.52282">
        <ele>81</ele>
        <time>2015-01-18T14:38:07Z</time>
      </trkpt>
      <trkpt lat="49.27183" lon="2.52277">
        <ele>78</ele>
        <time>2015-01-18T14:38:14Z</time>
      </trkpt>
      <trkpt lat="49.2719" lon="2.52273">
        <ele>78</ele>
        <time>2015-01-18T14:38:20Z</time>
      </trkpt>
      <trkpt lat="49.27198" lon="2.52268">
        <ele>77</ele>
        <time>2015-01-18T14:38:27Z</time>
      </trkpt>
      <trkpt lat="49.27205" lon="2.52262">
        <ele>77</ele>
        <time>2015-01-18T14:38:34Z</time>
      </trkpt>
      <trkpt lat="49.2721" lon="2.52257">
        <ele>76</ele>
        <time>2015-01-18T14:38:41Z</time>
      </trkpt>
      <trkpt lat="49.27217" lon="2.5225">
        <ele>76</ele>
        <time>2015-01-18T14:38:48Z</time>
      </trkpt>
      <trkpt lat="49.27225" lon="2.52248">
        <ele>73</ele>
        <time>2015-01-18T14:38:55Z</time>
      </trkpt>
      <trkpt lat="49.27233" lon="2.52245">
        <ele>73</ele>
        <time>2015-01-18T14:39:02Z</time>
      </trkpt>
      <trkpt lat="49.2724" lon="2.52239">
        <ele>74</ele>
        <time>2015-01-18T14:39:09Z</time>
      </trkpt>
      <trkpt lat="49.27247" lon="2.52233">
        <ele>75</ele>
        <time>2015-01-18T14:39:16Z</time>
      </trkpt>
      <trkpt lat="49.27254" lon="2.52226">
        <ele>77</ele>
        <time>2015-01-18T14:39:23Z</time>
      </trkpt>
      <trkpt lat="49.2726" lon="2.5222">
        <ele>80</ele>
        <time>2015-01-18T14:39:30Z</time>
      </trkpt>
      <trkpt lat="49.27267" lon="2.52215">
        <ele>82</ele>
        <time>2015-01-18T14:39:37Z</time>
      </trkpt>
      <trkpt lat="49.27267" lon="2.52206">
        <ele>82</ele>
        <time>2015-01-18T14:39:44Z</time>
      </trkpt>
      <trkpt lat="49.27264" lon="2.522">
        <ele>82</ele>
        <time>2015-01-18T14:39:51Z</time>
      </trkpt>
      <trkpt lat="49.27263" lon="2.52196">
        <ele>81</ele>
        <time>2015-01-18T14:39:58Z</time>
      </trkpt>
      <trkpt lat="49.2726" lon="2.52185">
        <ele>81</ele>
        <time>2015-01-18T14:40:04Z</time>
      </trkpt>
      <trkpt lat="49.27256" lon="2.52176">
        <ele>82</ele>
        <time>2015-01-18T14:40:10Z</time>
      </trkpt>
      <trkpt lat="49.27253" lon="2.52166">
        <ele>82</ele>
        <time>2015-01-18T14:40:16Z</time>
      </trkpt>
      <trkpt lat="49.27251" lon="2.52154">
        <ele>83</ele>
        <time>2015-01-18T14:40:22Z</time>
      </trkpt>
      <trkpt lat="49.27247" lon="2.52145">
        <ele>83</ele>
        <time>2015-01-18T14:40:28Z</time>
      </trkpt>
      <trkpt lat="49.27244" lon="2.52136">
        <ele>82</ele>
        <time>2015-01-18T14:40:35Z</time>
      </trkpt>
      <trkpt lat="49.27239" lon="2.52126">
        <ele>81</ele>
        <time>2015-01-18T14:40:42Z</time>
      </trkpt>
      <trkpt lat="49.27236" lon="2.52117">
        <ele>80</ele>
        <time>2015-01-18T14:40:49Z</time>
      </trkpt>
      <trkpt lat="49.27234" lon="2.52111">
        <ele>80</ele>
        <time>2015-01-18T14:40:56Z</time>
      </trkpt>
    </trkseg>
  </trk>
</gpx>